<?xml version="1.0" encoding="UTF-8" standalone="no" ?>
<gpx xmlns="http://www.topografix.com/GPX/1/1" xmlns:xsi="http://www.w3.org/2001/XMLSchema-instance" xsi:schemaLocation="http://www.topografix.com/GPX/1/1 http://www.topografix.com/GPX/1/1/gpx.xsd" version="1.1" creator="VisuGPX - https://www.visugpx.com">
  <metadata>
    <name>Tour de la Roanne</name>
    <desc><![CDATA[Boucle de 4 jours autour de la Roanne]]></desc>
  </metadata>
  <trk>
    <name><![CDATA[tour de la Roanne 1]]></name>
    <desc><![CDATA[<h1>OruxMaps</h1><br /><hr align="center" width="480" style="height: 2px; width: 517px"/><h2>Nom: tour de la Roanne 1</h2><br /><p>Temps de départ: 05/01/2014 10:48</p><p>Temps d'arrivée: 05/04/2014 15:59</p><p>Distance: 81,8km (26:10)</p><p>Temps déplacement: 17:10</p><p>Vitesse moyenne: 3,1km/h</p><p>Vitesse moyenne: 4,8km/h</p><p>Vitess Max.: 12,5km/h</p><p>Altitude minimale: -52m</p><p>Altitude maximale: 1323m</p><p>Vitesse d'élévation: 418,4m/h</p><p>Vitesse de descente: -348,1m/h</p><p>Gain Altitude: 5745m</p><p>Perte Altitude: -3531m</p><p>Temps d'élévation: 13:43</p><p>Temps de descente: 10:08</p><hr align="center" width="480" style="height: 2px; width: 517px"/>]]></desc>
    <trkseg>
      <trkpt lat="44.6632" lon="5.30766">
        <ele>993.2</ele>
        <time>2014-05-01T08:48:02Z</time>
      </trkpt>
      <trkpt lat="44.66306" lon="5.30789">
        <ele>989</ele>
        <time>2014-05-01T08:48:12Z</time>
      </trkpt>
      <trkpt lat="44.66324" lon="5.30791">
        <ele>990.27</ele>
        <time>2014-05-01T08:48:46Z</time>
      </trkpt>
      <trkpt lat="44.66327" lon="5.30765">
        <ele>991.34</ele>
        <time>2014-05-01T08:49:05Z</time>
      </trkpt>
      <trkpt lat="44.66321" lon="5.3074">
        <ele>991.17</ele>
        <time>2014-05-01T08:49:18Z</time>
      </trkpt>
      <trkpt lat="44.66318" lon="5.30714">
        <ele>990.68</ele>
        <time>2014-05-01T08:49:32Z</time>
      </trkpt>
      <trkpt lat="44.66313" lon="5.3069">
        <ele>991.02</ele>
        <time>2014-05-01T08:49:47Z</time>
      </trkpt>
      <trkpt lat="44.6631" lon="5.30665">
        <ele>991.41</ele>
        <time>2014-05-01T08:50:00Z</time>
      </trkpt>
      <trkpt lat="44.66309" lon="5.30639">
        <ele>992.34</ele>
        <time>2014-05-01T08:50:16Z</time>
      </trkpt>
      <trkpt lat="44.66308" lon="5.30613">
        <ele>991.76</ele>
        <time>2014-05-01T08:50:31Z</time>
      </trkpt>
      <trkpt lat="44.66299" lon="5.3059">
        <ele>991.47</ele>
        <time>2014-05-01T08:50:45Z</time>
      </trkpt>
      <trkpt lat="44.6629" lon="5.30567">
        <ele>991.15</ele>
        <time>2014-05-01T08:51:01Z</time>
      </trkpt>
      <trkpt lat="44.66279" lon="5.30545">
        <ele>990.57</ele>
        <time>2014-05-01T08:51:21Z</time>
      </trkpt>
      <trkpt lat="44.66279" lon="5.30519">
        <ele>989.46</ele>
        <time>2014-05-01T08:51:35Z</time>
      </trkpt>
      <trkpt lat="44.66272" lon="5.30495">
        <ele>988.36</ele>
        <time>2014-05-01T08:51:48Z</time>
      </trkpt>
      <trkpt lat="44.66256" lon="5.3048">
        <ele>986.42</ele>
        <time>2014-05-01T08:52:02Z</time>
      </trkpt>
      <trkpt lat="44.66239" lon="5.30469">
        <ele>985.28</ele>
        <time>2014-05-01T08:52:13Z</time>
      </trkpt>
      <trkpt lat="44.66226" lon="5.3045">
        <ele>983.71</ele>
        <time>2014-05-01T08:52:29Z</time>
      </trkpt>
      <trkpt lat="44.66217" lon="5.30426">
        <ele>981.94</ele>
        <time>2014-05-01T08:52:45Z</time>
      </trkpt>
      <trkpt lat="44.66212" lon="5.30401">
        <ele>980.97</ele>
        <time>2014-05-01T08:52:58Z</time>
      </trkpt>
      <trkpt lat="44.66216" lon="5.30376">
        <ele>980.81</ele>
        <time>2014-05-01T08:53:12Z</time>
      </trkpt>
      <trkpt lat="44.66222" lon="5.3035">
        <ele>980.54</ele>
        <time>2014-05-01T08:53:28Z</time>
      </trkpt>
      <trkpt lat="44.66233" lon="5.3033">
        <ele>979.23</ele>
        <time>2014-05-01T08:53:44Z</time>
      </trkpt>
      <trkpt lat="44.66243" lon="5.30308">
        <ele>977.91</ele>
        <time>2014-05-01T08:53:58Z</time>
      </trkpt>
      <trkpt lat="44.66255" lon="5.30287">
        <ele>976.2</ele>
        <time>2014-05-01T08:54:13Z</time>
      </trkpt>
      <trkpt lat="44.66266" lon="5.30265">
        <ele>973.99</ele>
        <time>2014-05-01T08:54:28Z</time>
      </trkpt>
      <trkpt lat="44.6628" lon="5.30249">
        <ele>971.37</ele>
        <time>2014-05-01T08:54:43Z</time>
      </trkpt>
      <trkpt lat="44.66296" lon="5.30236">
        <ele>969.52</ele>
        <time>2014-05-01T08:54:55Z</time>
      </trkpt>
      <trkpt lat="44.66309" lon="5.30219">
        <ele>967.46</ele>
        <time>2014-05-01T08:55:07Z</time>
      </trkpt>
      <trkpt lat="44.66323" lon="5.302">
        <ele>964.66</ele>
        <time>2014-05-01T08:55:21Z</time>
      </trkpt>
      <trkpt lat="44.66337" lon="5.30184">
        <ele>961.81</ele>
        <time>2014-05-01T08:55:36Z</time>
      </trkpt>
      <trkpt lat="44.66352" lon="5.30169">
        <ele>959.73</ele>
        <time>2014-05-01T08:55:50Z</time>
      </trkpt>
      <trkpt lat="44.66365" lon="5.30151">
        <ele>958.72</ele>
        <time>2014-05-01T08:56:03Z</time>
      </trkpt>
      <trkpt lat="44.66376" lon="5.30129">
        <ele>958.44</ele>
        <time>2014-05-01T08:56:16Z</time>
      </trkpt>
      <trkpt lat="44.66384" lon="5.30106">
        <ele>956.82</ele>
        <time>2014-05-01T08:56:31Z</time>
      </trkpt>
      <trkpt lat="44.66398" lon="5.30088">
        <ele>955.24</ele>
        <time>2014-05-01T08:56:45Z</time>
      </trkpt>
      <trkpt lat="44.66413" lon="5.30072">
        <ele>954.7</ele>
        <time>2014-05-01T08:57:01Z</time>
      </trkpt>
      <trkpt lat="44.66428" lon="5.30056">
        <ele>953.73</ele>
        <time>2014-05-01T08:57:14Z</time>
      </trkpt>
      <trkpt lat="44.6644" lon="5.30038">
        <ele>952.79</ele>
        <time>2014-05-01T08:57:27Z</time>
      </trkpt>
      <trkpt lat="44.66452" lon="5.30016">
        <ele>951.6</ele>
        <time>2014-05-01T08:57:43Z</time>
      </trkpt>
      <trkpt lat="44.66463" lon="5.29995">
        <ele>950.7</ele>
        <time>2014-05-01T08:57:56Z</time>
      </trkpt>
      <trkpt lat="44.66478" lon="5.29979">
        <ele>949.63</ele>
        <time>2014-05-01T08:58:12Z</time>
      </trkpt>
      <trkpt lat="44.66493" lon="5.29963">
        <ele>948.17</ele>
        <time>2014-05-01T08:58:25Z</time>
      </trkpt>
      <trkpt lat="44.66503" lon="5.29941">
        <ele>947.07</ele>
        <time>2014-05-01T08:58:40Z</time>
      </trkpt>
      <trkpt lat="44.66509" lon="5.29916">
        <ele>946.7</ele>
        <time>2014-05-01T08:58:55Z</time>
      </trkpt>
      <trkpt lat="44.66525" lon="5.29902">
        <ele>946.63</ele>
        <time>2014-05-01T08:59:12Z</time>
      </trkpt>
      <trkpt lat="44.6654" lon="5.29885">
        <ele>947.05</ele>
        <time>2014-05-01T08:59:28Z</time>
      </trkpt>
      <trkpt lat="44.66553" lon="5.29865">
        <ele>947.94</ele>
        <time>2014-05-01T08:59:45Z</time>
      </trkpt>
      <trkpt lat="44.66563" lon="5.29843">
        <ele>948.74</ele>
        <time>2014-05-01T09:00:00Z</time>
      </trkpt>
      <trkpt lat="44.6657" lon="5.29818">
        <ele>949.75</ele>
        <time>2014-05-01T09:00:16Z</time>
      </trkpt>
      <trkpt lat="44.66579" lon="5.29795">
        <ele>950.24</ele>
        <time>2014-05-01T09:00:29Z</time>
      </trkpt>
      <trkpt lat="44.66586" lon="5.29771">
        <ele>949.84</ele>
        <time>2014-05-01T09:00:44Z</time>
      </trkpt>
      <trkpt lat="44.66596" lon="5.29748">
        <ele>948.94</ele>
        <time>2014-05-01T09:00:58Z</time>
      </trkpt>
      <trkpt lat="44.66607" lon="5.29726">
        <ele>948.43</ele>
        <time>2014-05-01T09:01:12Z</time>
      </trkpt>
      <trkpt lat="44.66617" lon="5.29705">
        <ele>947.06</ele>
        <time>2014-05-01T09:01:26Z</time>
      </trkpt>
      <trkpt lat="44.66622" lon="5.29681">
        <ele>946.62</ele>
        <time>2014-05-01T09:01:40Z</time>
      </trkpt>
      <trkpt lat="44.66628" lon="5.29656">
        <ele>946.23</ele>
        <time>2014-05-01T09:01:54Z</time>
      </trkpt>
      <trkpt lat="44.66635" lon="5.29631">
        <ele>945.54</ele>
        <time>2014-05-01T09:02:08Z</time>
      </trkpt>
      <trkpt lat="44.6664" lon="5.29606">
        <ele>944.82</ele>
        <time>2014-05-01T09:02:22Z</time>
      </trkpt>
      <trkpt lat="44.66645" lon="5.2958">
        <ele>944.56</ele>
        <time>2014-05-01T09:02:37Z</time>
      </trkpt>
      <trkpt lat="44.66651" lon="5.29555">
        <ele>943.36</ele>
        <time>2014-05-01T09:02:51Z</time>
      </trkpt>
      <trkpt lat="44.66656" lon="5.29531">
        <ele>940.9</ele>
        <time>2014-05-01T09:03:06Z</time>
      </trkpt>
      <trkpt lat="44.66661" lon="5.29506">
        <ele>939.11</ele>
        <time>2014-05-01T09:03:20Z</time>
      </trkpt>
      <trkpt lat="44.66664" lon="5.2948">
        <ele>938.02</ele>
        <time>2014-05-01T09:03:32Z</time>
      </trkpt>
      <trkpt lat="44.66668" lon="5.29456">
        <ele>936.46</ele>
        <time>2014-05-01T09:03:47Z</time>
      </trkpt>
      <trkpt lat="44.66669" lon="5.2943">
        <ele>934.65</ele>
        <time>2014-05-01T09:04:00Z</time>
      </trkpt>
      <trkpt lat="44.66671" lon="5.29404">
        <ele>933</ele>
        <time>2014-05-01T09:04:14Z</time>
      </trkpt>
      <trkpt lat="44.66676" lon="5.29379">
        <ele>931.74</ele>
        <time>2014-05-01T09:04:26Z</time>
      </trkpt>
      <trkpt lat="44.66682" lon="5.29356">
        <ele>929.57</ele>
        <time>2014-05-01T09:04:41Z</time>
      </trkpt>
      <trkpt lat="44.66689" lon="5.29331">
        <ele>927</ele>
        <time>2014-05-01T09:04:55Z</time>
      </trkpt>
      <trkpt lat="44.66698" lon="5.29309">
        <ele>924.36</ele>
        <time>2014-05-01T09:05:11Z</time>
      </trkpt>
      <trkpt lat="44.66711" lon="5.29288">
        <ele>922.87</ele>
        <time>2014-05-01T09:05:25Z</time>
      </trkpt>
      <trkpt lat="44.66724" lon="5.2927">
        <ele>921.53</ele>
        <time>2014-05-01T09:05:38Z</time>
      </trkpt>
      <trkpt lat="44.66737" lon="5.29253">
        <ele>919.14</ele>
        <time>2014-05-01T09:05:52Z</time>
      </trkpt>
      <trkpt lat="44.66749" lon="5.29233">
        <ele>917.32</ele>
        <time>2014-05-01T09:06:06Z</time>
      </trkpt>
      <trkpt lat="44.66763" lon="5.29216">
        <ele>915.89</ele>
        <time>2014-05-01T09:06:21Z</time>
      </trkpt>
      <trkpt lat="44.6678" lon="5.29203">
        <ele>914.34</ele>
        <time>2014-05-01T09:06:37Z</time>
      </trkpt>
      <trkpt lat="44.66798" lon="5.29198">
        <ele>912.42</ele>
        <time>2014-05-01T09:06:53Z</time>
      </trkpt>
      <trkpt lat="44.66818" lon="5.29202">
        <ele>909.61</ele>
        <time>2014-05-01T09:07:07Z</time>
      </trkpt>
      <trkpt lat="44.66836" lon="5.29206">
        <ele>906.56</ele>
        <time>2014-05-01T09:07:22Z</time>
      </trkpt>
      <trkpt lat="44.66853" lon="5.29217">
        <ele>903.32</ele>
        <time>2014-05-01T09:07:40Z</time>
      </trkpt>
      <trkpt lat="44.66871" lon="5.2921">
        <ele>896.13</ele>
        <time>2014-05-01T09:09:30Z</time>
      </trkpt>
      <trkpt lat="44.66888" lon="5.29202">
        <ele>894.87</ele>
        <time>2014-05-01T09:09:44Z</time>
      </trkpt>
      <trkpt lat="44.66904" lon="5.29188">
        <ele>893.77</ele>
        <time>2014-05-01T09:09:59Z</time>
      </trkpt>
      <trkpt lat="44.66921" lon="5.29176">
        <ele>893.44</ele>
        <time>2014-05-01T09:10:15Z</time>
      </trkpt>
      <trkpt lat="44.66936" lon="5.2916">
        <ele>893.89</ele>
        <time>2014-05-01T09:10:29Z</time>
      </trkpt>
      <trkpt lat="44.66949" lon="5.29141">
        <ele>893.01</ele>
        <time>2014-05-01T09:10:51Z</time>
      </trkpt>
      <trkpt lat="44.66958" lon="5.29117">
        <ele>891.82</ele>
        <time>2014-05-01T09:11:10Z</time>
      </trkpt>
      <trkpt lat="44.66971" lon="5.29099">
        <ele>891.35</ele>
        <time>2014-05-01T09:11:25Z</time>
      </trkpt>
      <trkpt lat="44.66983" lon="5.29079">
        <ele>892.62</ele>
        <time>2014-05-01T09:11:43Z</time>
      </trkpt>
      <trkpt lat="44.66994" lon="5.29057">
        <ele>893.92</ele>
        <time>2014-05-01T09:11:59Z</time>
      </trkpt>
      <trkpt lat="44.67005" lon="5.29037">
        <ele>893.42</ele>
        <time>2014-05-01T09:12:15Z</time>
      </trkpt>
      <trkpt lat="44.67014" lon="5.29014">
        <ele>893.18</ele>
        <time>2014-05-01T09:12:32Z</time>
      </trkpt>
      <trkpt lat="44.67025" lon="5.28991">
        <ele>892.95</ele>
        <time>2014-05-01T09:12:49Z</time>
      </trkpt>
      <trkpt lat="44.67037" lon="5.28973">
        <ele>893.38</ele>
        <time>2014-05-01T09:13:05Z</time>
      </trkpt>
      <trkpt lat="44.67046" lon="5.2895">
        <ele>894.45</ele>
        <time>2014-05-01T09:13:21Z</time>
      </trkpt>
      <trkpt lat="44.67048" lon="5.28925">
        <ele>895.18</ele>
        <time>2014-05-01T09:13:48Z</time>
      </trkpt>
      <trkpt lat="44.67051" lon="5.28898">
        <ele>895.22</ele>
        <time>2014-05-01T09:14:05Z</time>
      </trkpt>
      <trkpt lat="44.67062" lon="5.28878">
        <ele>895.98</ele>
        <time>2014-05-01T09:14:18Z</time>
      </trkpt>
      <trkpt lat="44.67075" lon="5.2886">
        <ele>896.02</ele>
        <time>2014-05-01T09:14:33Z</time>
      </trkpt>
      <trkpt lat="44.67087" lon="5.2884">
        <ele>895.07</ele>
        <time>2014-05-01T09:14:47Z</time>
      </trkpt>
      <trkpt lat="44.67102" lon="5.28824">
        <ele>895.67</ele>
        <time>2014-05-01T09:15:03Z</time>
      </trkpt>
      <trkpt lat="44.67118" lon="5.28811">
        <ele>894.51</ele>
        <time>2014-05-01T09:15:20Z</time>
      </trkpt>
      <trkpt lat="44.67135" lon="5.288">
        <ele>893.12</ele>
        <time>2014-05-01T09:15:33Z</time>
      </trkpt>
      <trkpt lat="44.67149" lon="5.28782">
        <ele>892.45</ele>
        <time>2014-05-01T09:15:51Z</time>
      </trkpt>
      <trkpt lat="44.67159" lon="5.28761">
        <ele>892.01</ele>
        <time>2014-05-01T09:16:01Z</time>
      </trkpt>
      <trkpt lat="44.67169" lon="5.2874">
        <ele>891.81</ele>
        <time>2014-05-01T09:16:18Z</time>
      </trkpt>
      <trkpt lat="44.67183" lon="5.28721">
        <ele>890.62</ele>
        <time>2014-05-01T09:16:31Z</time>
      </trkpt>
      <trkpt lat="44.67194" lon="5.28701">
        <ele>889.18</ele>
        <time>2014-05-01T09:16:46Z</time>
      </trkpt>
      <trkpt lat="44.67206" lon="5.2868">
        <ele>887.13</ele>
        <time>2014-05-01T09:17:03Z</time>
      </trkpt>
      <trkpt lat="44.67217" lon="5.2866">
        <ele>885.67</ele>
        <time>2014-05-01T09:17:16Z</time>
      </trkpt>
      <trkpt lat="44.67227" lon="5.28638">
        <ele>883.93</ele>
        <time>2014-05-01T09:17:29Z</time>
      </trkpt>
      <trkpt lat="44.67235" lon="5.28615">
        <ele>882.67</ele>
        <time>2014-05-01T09:17:39Z</time>
      </trkpt>
      <trkpt lat="44.67242" lon="5.2859">
        <ele>880.68</ele>
        <time>2014-05-01T09:17:52Z</time>
      </trkpt>
      <trkpt lat="44.67244" lon="5.28565">
        <ele>877.38</ele>
        <time>2014-05-01T09:18:18Z</time>
      </trkpt>
      <trkpt lat="44.67243" lon="5.28539">
        <ele>874.71</ele>
        <time>2014-05-01T09:18:37Z</time>
      </trkpt>
      <trkpt lat="44.67242" lon="5.28514">
        <ele>871.57</ele>
        <time>2014-05-01T09:18:53Z</time>
      </trkpt>
      <trkpt lat="44.67242" lon="5.28488">
        <ele>868.75</ele>
        <time>2014-05-01T09:19:10Z</time>
      </trkpt>
      <trkpt lat="44.67243" lon="5.28462">
        <ele>866.28</ele>
        <time>2014-05-01T09:19:24Z</time>
      </trkpt>
      <trkpt lat="44.67244" lon="5.28437">
        <ele>864.15</ele>
        <time>2014-05-01T09:19:38Z</time>
      </trkpt>
      <trkpt lat="44.67247" lon="5.28411">
        <ele>862.04</ele>
        <time>2014-05-01T09:19:54Z</time>
      </trkpt>
      <trkpt lat="44.67254" lon="5.28388">
        <ele>858.77</ele>
        <time>2014-05-01T09:20:11Z</time>
      </trkpt>
      <trkpt lat="44.67261" lon="5.28364">
        <ele>854.21</ele>
        <time>2014-05-01T09:20:27Z</time>
      </trkpt>
      <trkpt lat="44.67271" lon="5.28341">
        <ele>850.32</ele>
        <time>2014-05-01T09:20:43Z</time>
      </trkpt>
      <trkpt lat="44.67271" lon="5.28315">
        <ele>838.12</ele>
        <time>2014-05-01T09:22:11Z</time>
      </trkpt>
      <trkpt lat="44.67288" lon="5.28302">
        <ele>833.72</ele>
        <time>2014-05-01T09:22:30Z</time>
      </trkpt>
      <trkpt lat="44.67305" lon="5.28294">
        <ele>831.44</ele>
        <time>2014-05-01T09:22:41Z</time>
      </trkpt>
      <trkpt lat="44.67322" lon="5.28283">
        <ele>828.88</ele>
        <time>2014-05-01T09:22:53Z</time>
      </trkpt>
      <trkpt lat="44.67339" lon="5.28274">
        <ele>824.48</ele>
        <time>2014-05-01T09:23:10Z</time>
      </trkpt>
      <trkpt lat="44.67356" lon="5.28265">
        <ele>821.19</ele>
        <time>2014-05-01T09:23:24Z</time>
      </trkpt>
      <trkpt lat="44.67374" lon="5.28257">
        <ele>815.52</ele>
        <time>2014-05-01T09:23:43Z</time>
      </trkpt>
      <trkpt lat="44.67392" lon="5.28247">
        <ele>809.96</ele>
        <time>2014-05-01T09:24:01Z</time>
      </trkpt>
      <trkpt lat="44.67403" lon="5.28227">
        <ele>802.43</ele>
        <time>2014-05-01T09:24:31Z</time>
      </trkpt>
      <trkpt lat="44.6742" lon="5.28219">
        <ele>797.17</ele>
        <time>2014-05-01T09:24:55Z</time>
      </trkpt>
      <trkpt lat="44.67436" lon="5.28207">
        <ele>793.81</ele>
        <time>2014-05-01T09:25:09Z</time>
      </trkpt>
      <trkpt lat="44.67437" lon="5.2818">
        <ele>786.76</ele>
        <time>2014-05-01T09:25:41Z</time>
      </trkpt>
      <trkpt lat="44.67454" lon="5.2817">
        <ele>782.6</ele>
        <time>2014-05-01T09:25:57Z</time>
      </trkpt>
      <trkpt lat="44.67465" lon="5.28147">
        <ele>777.63</ele>
        <time>2014-05-01T09:26:15Z</time>
      </trkpt>
      <trkpt lat="44.6748" lon="5.28133">
        <ele>772.69</ele>
        <time>2014-05-01T09:26:40Z</time>
      </trkpt>
      <trkpt lat="44.67495" lon="5.28118">
        <ele>764.89</ele>
        <time>2014-05-01T09:27:24Z</time>
      </trkpt>
      <trkpt lat="44.67478" lon="5.28108">
        <ele>757.12</ele>
        <time>2014-05-01T09:28:05Z</time>
      </trkpt>
      <trkpt lat="44.6746" lon="5.28111">
        <ele>756.14</ele>
        <time>2014-05-01T09:28:17Z</time>
      </trkpt>
      <trkpt lat="44.67441" lon="5.28114">
        <ele>755.37</ele>
        <time>2014-05-01T09:28:30Z</time>
      </trkpt>
      <trkpt lat="44.67424" lon="5.28122">
        <ele>753.69</ele>
        <time>2014-05-01T09:28:46Z</time>
      </trkpt>
      <trkpt lat="44.67406" lon="5.28126">
        <ele>753.33</ele>
        <time>2014-05-01T09:29:01Z</time>
      </trkpt>
      <trkpt lat="44.67388" lon="5.28132">
        <ele>753.94</ele>
        <time>2014-05-01T09:29:19Z</time>
      </trkpt>
      <trkpt lat="44.67371" lon="5.28141">
        <ele>753.49</ele>
        <time>2014-05-01T09:29:37Z</time>
      </trkpt>
      <trkpt lat="44.67352" lon="5.2814">
        <ele>755.68</ele>
        <time>2014-05-01T09:29:53Z</time>
      </trkpt>
      <trkpt lat="44.67333" lon="5.28144">
        <ele>756.32</ele>
        <time>2014-05-01T09:30:08Z</time>
      </trkpt>
      <trkpt lat="44.67316" lon="5.28152">
        <ele>757.13</ele>
        <time>2014-05-01T09:30:27Z</time>
      </trkpt>
      <trkpt lat="44.67298" lon="5.2816">
        <ele>758.61</ele>
        <time>2014-05-01T09:30:48Z</time>
      </trkpt>
      <trkpt lat="44.6728" lon="5.28166">
        <ele>760.43</ele>
        <time>2014-05-01T09:31:06Z</time>
      </trkpt>
      <trkpt lat="44.67262" lon="5.28169">
        <ele>762.33</ele>
        <time>2014-05-01T09:31:24Z</time>
      </trkpt>
      <trkpt lat="44.67244" lon="5.28166">
        <ele>764.01</ele>
        <time>2014-05-01T09:31:45Z</time>
      </trkpt>
      <trkpt lat="44.67225" lon="5.28161">
        <ele>765.59</ele>
        <time>2014-05-01T09:32:01Z</time>
      </trkpt>
      <trkpt lat="44.67206" lon="5.28161">
        <ele>766.78</ele>
        <time>2014-05-01T09:32:16Z</time>
      </trkpt>
      <trkpt lat="44.67191" lon="5.28148">
        <ele>766.89</ele>
        <time>2014-05-01T09:32:39Z</time>
      </trkpt>
      <trkpt lat="44.67199" lon="5.28126">
        <ele>762.25</ele>
        <time>2014-05-01T09:33:13Z</time>
      </trkpt>
      <trkpt lat="44.67205" lon="5.28101">
        <ele>755.45</ele>
        <time>2014-05-01T09:33:41Z</time>
      </trkpt>
      <trkpt lat="44.67213" lon="5.28078">
        <ele>748.03</ele>
        <time>2014-05-01T09:34:05Z</time>
      </trkpt>
      <trkpt lat="44.67206" lon="5.28055">
        <ele>739.41</ele>
        <time>2014-05-01T09:34:31Z</time>
      </trkpt>
      <trkpt lat="44.67205" lon="5.28029">
        <ele>730.6</ele>
        <time>2014-05-01T09:35:03Z</time>
      </trkpt>
      <trkpt lat="44.67213" lon="5.28006">
        <ele>721.93</ele>
        <time>2014-05-01T09:35:29Z</time>
      </trkpt>
      <trkpt lat="44.6722" lon="5.27983">
        <ele>715.27</ele>
        <time>2014-05-01T09:35:52Z</time>
      </trkpt>
      <trkpt lat="44.67216" lon="5.27957">
        <ele>704.66</ele>
        <time>2014-05-01T09:36:24Z</time>
      </trkpt>
      <trkpt lat="44.67203" lon="5.27939">
        <ele>699.55</ele>
        <time>2014-05-01T09:36:42Z</time>
      </trkpt>
      <trkpt lat="44.67184" lon="5.27939">
        <ele>694.01</ele>
        <time>2014-05-01T09:36:59Z</time>
      </trkpt>
      <trkpt lat="44.67192" lon="5.27916">
        <ele>685.65</ele>
        <time>2014-05-01T09:37:27Z</time>
      </trkpt>
      <trkpt lat="44.67204" lon="5.27895">
        <ele>678.95</ele>
        <time>2014-05-01T09:37:46Z</time>
      </trkpt>
      <trkpt lat="44.67217" lon="5.27876">
        <ele>674.08</ele>
        <time>2014-05-01T09:38:02Z</time>
      </trkpt>
      <trkpt lat="44.67231" lon="5.2786">
        <ele>669.36</ele>
        <time>2014-05-01T09:38:17Z</time>
      </trkpt>
      <trkpt lat="44.67243" lon="5.2784">
        <ele>663.06</ele>
        <time>2014-05-01T09:38:35Z</time>
      </trkpt>
      <trkpt lat="44.67257" lon="5.27823">
        <ele>657.32</ele>
        <time>2014-05-01T09:38:52Z</time>
      </trkpt>
      <trkpt lat="44.67271" lon="5.27804">
        <ele>652.21</ele>
        <time>2014-05-01T09:39:09Z</time>
      </trkpt>
      <trkpt lat="44.67284" lon="5.27787">
        <ele>644.41</ele>
        <time>2014-05-01T09:39:34Z</time>
      </trkpt>
      <trkpt lat="44.67268" lon="5.27774">
        <ele>637.87</ele>
        <time>2014-05-01T09:39:54Z</time>
      </trkpt>
      <trkpt lat="44.67276" lon="5.27751">
        <ele>627.42</ele>
        <time>2014-05-01T09:40:54Z</time>
      </trkpt>
      <trkpt lat="44.6729" lon="5.27732">
        <ele>623.08</ele>
        <time>2014-05-01T09:41:10Z</time>
      </trkpt>
      <trkpt lat="44.67305" lon="5.27716">
        <ele>618.64</ele>
        <time>2014-05-01T09:41:25Z</time>
      </trkpt>
      <trkpt lat="44.67317" lon="5.27696">
        <ele>613.64</ele>
        <time>2014-05-01T09:41:44Z</time>
      </trkpt>
      <trkpt lat="44.67299" lon="5.27694">
        <ele>603.77</ele>
        <time>2014-05-01T09:47:24Z</time>
      </trkpt>
      <trkpt lat="44.6728" lon="5.27688">
        <ele>601.98</ele>
        <time>2014-05-01T09:47:44Z</time>
      </trkpt>
      <trkpt lat="44.67262" lon="5.27682">
        <ele>598.95</ele>
        <time>2014-05-01T09:48:01Z</time>
      </trkpt>
      <trkpt lat="44.67244" lon="5.27684">
        <ele>595.57</ele>
        <time>2014-05-01T09:48:15Z</time>
      </trkpt>
      <trkpt lat="44.67225" lon="5.2768">
        <ele>589.95</ele>
        <time>2014-05-01T09:48:34Z</time>
      </trkpt>
      <trkpt lat="44.67208" lon="5.27671">
        <ele>585.71</ele>
        <time>2014-05-01T09:48:50Z</time>
      </trkpt>
      <trkpt lat="44.6719" lon="5.27662">
        <ele>580.94</ele>
        <time>2014-05-01T09:49:08Z</time>
      </trkpt>
      <trkpt lat="44.67172" lon="5.27656">
        <ele>576.67</ele>
        <time>2014-05-01T09:49:22Z</time>
      </trkpt>
      <trkpt lat="44.67153" lon="5.27657">
        <ele>573</ele>
        <time>2014-05-01T09:49:35Z</time>
      </trkpt>
      <trkpt lat="44.67134" lon="5.27658">
        <ele>568.17</ele>
        <time>2014-05-01T09:49:51Z</time>
      </trkpt>
      <trkpt lat="44.67114" lon="5.27657">
        <ele>563.19</ele>
        <time>2014-05-01T09:50:05Z</time>
      </trkpt>
      <trkpt lat="44.67096" lon="5.27661">
        <ele>558.75</ele>
        <time>2014-05-01T09:50:19Z</time>
      </trkpt>
      <trkpt lat="44.67078" lon="5.27666">
        <ele>553.13</ele>
        <time>2014-05-01T09:50:36Z</time>
      </trkpt>
      <trkpt lat="44.6706" lon="5.27673">
        <ele>547.75</ele>
        <time>2014-05-01T09:50:51Z</time>
      </trkpt>
      <trkpt lat="44.67042" lon="5.27676">
        <ele>542.25</ele>
        <time>2014-05-01T09:51:07Z</time>
      </trkpt>
      <trkpt lat="44.67024" lon="5.27686">
        <ele>537.64</ele>
        <time>2014-05-01T09:51:20Z</time>
      </trkpt>
      <trkpt lat="44.67006" lon="5.27689">
        <ele>532.57</ele>
        <time>2014-05-01T09:51:35Z</time>
      </trkpt>
      <trkpt lat="44.66988" lon="5.27679">
        <ele>528.78</ele>
        <time>2014-05-01T09:51:47Z</time>
      </trkpt>
      <trkpt lat="44.6697" lon="5.27671">
        <ele>524.61</ele>
        <time>2014-05-01T09:52:01Z</time>
      </trkpt>
      <trkpt lat="44.66952" lon="5.27675">
        <ele>520.48</ele>
        <time>2014-05-01T09:52:32Z</time>
      </trkpt>
      <trkpt lat="44.66934" lon="5.27674">
        <ele>517.05</ele>
        <time>2014-05-01T09:52:47Z</time>
      </trkpt>
      <trkpt lat="44.66915" lon="5.27678">
        <ele>514.27</ele>
        <time>2014-05-01T09:53:02Z</time>
      </trkpt>
      <trkpt lat="44.66897" lon="5.27685">
        <ele>510.91</ele>
        <time>2014-05-01T09:53:17Z</time>
      </trkpt>
      <trkpt lat="44.66878" lon="5.27689">
        <ele>508.06</ele>
        <time>2014-05-01T09:53:33Z</time>
      </trkpt>
      <trkpt lat="44.66859" lon="5.27691">
        <ele>505.94</ele>
        <time>2014-05-01T09:53:47Z</time>
      </trkpt>
      <trkpt lat="44.66841" lon="5.27694">
        <ele>503.71</ele>
        <time>2014-05-01T09:53:59Z</time>
      </trkpt>
      <trkpt lat="44.66823" lon="5.27699">
        <ele>501.64</ele>
        <time>2014-05-01T09:54:13Z</time>
      </trkpt>
      <trkpt lat="44.66805" lon="5.27699">
        <ele>500.06</ele>
        <time>2014-05-01T09:54:27Z</time>
      </trkpt>
      <trkpt lat="44.6682" lon="5.27685">
        <ele>497.18</ele>
        <time>2014-05-01T09:54:48Z</time>
      </trkpt>
      <trkpt lat="44.66835" lon="5.27669">
        <ele>495.45</ele>
        <time>2014-05-01T09:55:00Z</time>
      </trkpt>
      <trkpt lat="44.66846" lon="5.2765">
        <ele>493.92</ele>
        <time>2014-05-01T09:55:12Z</time>
      </trkpt>
      <trkpt lat="44.66853" lon="5.27627">
        <ele>492.44</ele>
        <time>2014-05-01T09:55:26Z</time>
      </trkpt>
      <trkpt lat="44.6687" lon="5.27614">
        <ele>489.33</ele>
        <time>2014-05-01T09:56:07Z</time>
      </trkpt>
      <trkpt lat="44.66882" lon="5.27595">
        <ele>486.51</ele>
        <time>2014-05-01T09:56:19Z</time>
      </trkpt>
      <trkpt lat="44.66895" lon="5.27576">
        <ele>484.94</ele>
        <time>2014-05-01T09:56:30Z</time>
      </trkpt>
      <trkpt lat="44.66909" lon="5.27558">
        <ele>482.3</ele>
        <time>2014-05-01T09:56:42Z</time>
      </trkpt>
      <trkpt lat="44.66924" lon="5.27541">
        <ele>479.25</ele>
        <time>2014-05-01T09:56:54Z</time>
      </trkpt>
      <trkpt lat="44.66939" lon="5.27527">
        <ele>477.41</ele>
        <time>2014-05-01T09:57:06Z</time>
      </trkpt>
      <trkpt lat="44.66954" lon="5.27511">
        <ele>475.02</ele>
        <time>2014-05-01T09:57:19Z</time>
      </trkpt>
      <trkpt lat="44.66952" lon="5.27484">
        <ele>472.1</ele>
        <time>2014-05-01T09:57:33Z</time>
      </trkpt>
      <trkpt lat="44.6695" lon="5.27457">
        <ele>470.1</ele>
        <time>2014-05-01T09:57:45Z</time>
      </trkpt>
      <trkpt lat="44.66939" lon="5.27435">
        <ele>468.67</ele>
        <time>2014-05-01T09:58:03Z</time>
      </trkpt>
      <trkpt lat="44.66924" lon="5.2745">
        <ele>467.4</ele>
        <time>2014-05-01T09:58:16Z</time>
      </trkpt>
      <trkpt lat="44.66908" lon="5.27465">
        <ele>465.09</ele>
        <time>2014-05-01T09:58:30Z</time>
      </trkpt>
      <trkpt lat="44.66892" lon="5.27481">
        <ele>463.12</ele>
        <time>2014-05-01T09:58:45Z</time>
      </trkpt>
      <trkpt lat="44.66882" lon="5.27501">
        <ele>461.83</ele>
        <time>2014-05-01T09:58:58Z</time>
      </trkpt>
      <trkpt lat="44.66866" lon="5.27515">
        <ele>459.53</ele>
        <time>2014-05-01T09:59:10Z</time>
      </trkpt>
      <trkpt lat="44.66848" lon="5.27523">
        <ele>457.44</ele>
        <time>2014-05-01T09:59:24Z</time>
      </trkpt>
      <trkpt lat="44.6683" lon="5.27527">
        <ele>454.67</ele>
        <time>2014-05-01T09:59:36Z</time>
      </trkpt>
      <trkpt lat="44.66812" lon="5.27526">
        <ele>452.29</ele>
        <time>2014-05-01T09:59:49Z</time>
      </trkpt>
      <trkpt lat="44.66794" lon="5.27531">
        <ele>449.69</ele>
        <time>2014-05-01T10:00:05Z</time>
      </trkpt>
      <trkpt lat="44.66775" lon="5.27529">
        <ele>449.22</ele>
        <time>2014-05-01T10:00:19Z</time>
      </trkpt>
      <trkpt lat="44.66756" lon="5.27525">
        <ele>446.96</ele>
        <time>2014-05-01T10:00:32Z</time>
      </trkpt>
      <trkpt lat="44.66738" lon="5.27522">
        <ele>444.66</ele>
        <time>2014-05-01T10:00:47Z</time>
      </trkpt>
      <trkpt lat="44.6672" lon="5.27532">
        <ele>443.45</ele>
        <time>2014-05-01T10:01:01Z</time>
      </trkpt>
      <trkpt lat="44.66703" lon="5.27541">
        <ele>442.98</ele>
        <time>2014-05-01T10:01:14Z</time>
      </trkpt>
      <trkpt lat="44.66687" lon="5.27555">
        <ele>442.3</ele>
        <time>2014-05-01T10:01:27Z</time>
      </trkpt>
      <trkpt lat="44.66671" lon="5.27568">
        <ele>440.89</ele>
        <time>2014-05-01T10:01:43Z</time>
      </trkpt>
      <trkpt lat="44.66657" lon="5.27586">
        <ele>438.89</ele>
        <time>2014-05-01T10:01:58Z</time>
      </trkpt>
      <trkpt lat="44.6664" lon="5.27595">
        <ele>435.59</ele>
        <time>2014-05-01T10:02:14Z</time>
      </trkpt>
      <trkpt lat="44.66642" lon="5.27569">
        <ele>431.99</ele>
        <time>2014-05-01T10:02:30Z</time>
      </trkpt>
      <trkpt lat="44.66647" lon="5.27543">
        <ele>429.23</ele>
        <time>2014-05-01T10:02:43Z</time>
      </trkpt>
      <trkpt lat="44.66647" lon="5.27516">
        <ele>426.06</ele>
        <time>2014-05-01T10:03:00Z</time>
      </trkpt>
      <trkpt lat="44.66647" lon="5.2749">
        <ele>424.04</ele>
        <time>2014-05-01T10:03:14Z</time>
      </trkpt>
      <trkpt lat="44.66645" lon="5.27463">
        <ele>422.65</ele>
        <time>2014-05-01T10:03:28Z</time>
      </trkpt>
      <trkpt lat="44.66641" lon="5.27438">
        <ele>422.5</ele>
        <time>2014-05-01T10:03:43Z</time>
      </trkpt>
      <trkpt lat="44.66648" lon="5.27415">
        <ele>421.71</ele>
        <time>2014-05-01T10:03:58Z</time>
      </trkpt>
      <trkpt lat="44.66634" lon="5.27431">
        <ele>418.61</ele>
        <time>2014-05-01T10:04:58Z</time>
      </trkpt>
      <trkpt lat="44.66631" lon="5.27457">
        <ele>417.31</ele>
        <time>2014-05-01T10:05:11Z</time>
      </trkpt>
      <trkpt lat="44.66629" lon="5.27482">
        <ele>415.56</ele>
        <time>2014-05-01T10:05:22Z</time>
      </trkpt>
      <trkpt lat="44.66622" lon="5.27506">
        <ele>414.14</ele>
        <time>2014-05-01T10:05:32Z</time>
      </trkpt>
      <trkpt lat="44.66609" lon="5.27525">
        <ele>412.31</ele>
        <time>2014-05-01T10:05:44Z</time>
      </trkpt>
      <trkpt lat="44.66592" lon="5.27533">
        <ele>410.55</ele>
        <time>2014-05-01T10:05:55Z</time>
      </trkpt>
      <trkpt lat="44.66573" lon="5.2753">
        <ele>408.94</ele>
        <time>2014-05-01T10:06:06Z</time>
      </trkpt>
      <trkpt lat="44.66554" lon="5.27529">
        <ele>407.26</ele>
        <time>2014-05-01T10:06:19Z</time>
      </trkpt>
      <trkpt lat="44.66536" lon="5.27533">
        <ele>406.09</ele>
        <time>2014-05-01T10:06:34Z</time>
      </trkpt>
      <trkpt lat="44.66518" lon="5.27542">
        <ele>403.46</ele>
        <time>2014-05-01T10:06:49Z</time>
      </trkpt>
      <trkpt lat="44.66505" lon="5.2756">
        <ele>401.68</ele>
        <time>2014-05-01T10:07:01Z</time>
      </trkpt>
      <trkpt lat="44.66494" lon="5.27582">
        <ele>400.02</ele>
        <time>2014-05-01T10:07:16Z</time>
      </trkpt>
      <trkpt lat="44.66484" lon="5.27604">
        <ele>397.03</ele>
        <time>2014-05-01T10:07:31Z</time>
      </trkpt>
      <trkpt lat="44.66476" lon="5.27627">
        <ele>395.41</ele>
        <time>2014-05-01T10:07:43Z</time>
      </trkpt>
      <trkpt lat="44.66475" lon="5.27601">
        <ele>390.56</ele>
        <time>2014-05-01T10:08:35Z</time>
      </trkpt>
      <trkpt lat="44.66478" lon="5.27573">
        <ele>389.4</ele>
        <time>2014-05-01T10:08:47Z</time>
      </trkpt>
      <trkpt lat="44.66479" lon="5.27547">
        <ele>388.45</ele>
        <time>2014-05-01T10:08:59Z</time>
      </trkpt>
      <trkpt lat="44.66473" lon="5.2752">
        <ele>386.81</ele>
        <time>2014-05-01T10:09:15Z</time>
      </trkpt>
      <trkpt lat="44.66465" lon="5.27497">
        <ele>385</ele>
        <time>2014-05-01T10:09:27Z</time>
      </trkpt>
      <trkpt lat="44.66453" lon="5.27518">
        <ele>379.93</ele>
        <time>2014-05-01T10:10:16Z</time>
      </trkpt>
      <trkpt lat="44.66454" lon="5.27543">
        <ele>377.82</ele>
        <time>2014-05-01T10:10:30Z</time>
      </trkpt>
      <trkpt lat="44.66443" lon="5.27565">
        <ele>375.69</ele>
        <time>2014-05-01T10:10:42Z</time>
      </trkpt>
      <trkpt lat="44.66434" lon="5.27588">
        <ele>367.42</ele>
        <time>2014-05-01T10:11:18Z</time>
      </trkpt>
      <trkpt lat="44.66426" lon="5.27611">
        <ele>364.45</ele>
        <time>2014-05-01T10:11:32Z</time>
      </trkpt>
      <trkpt lat="44.66417" lon="5.27634">
        <ele>359.02</ele>
        <time>2014-05-01T10:11:54Z</time>
      </trkpt>
      <trkpt lat="44.66411" lon="5.27658">
        <ele>355.14</ele>
        <time>2014-05-01T10:12:14Z</time>
      </trkpt>
      <trkpt lat="44.66401" lon="5.27679">
        <ele>352.71</ele>
        <time>2014-05-01T10:12:26Z</time>
      </trkpt>
      <trkpt lat="44.66383" lon="5.27674">
        <ele>351.56</ele>
        <time>2014-05-01T10:12:58Z</time>
      </trkpt>
      <trkpt lat="44.66364" lon="5.27671">
        <ele>349.16</ele>
        <time>2014-05-01T10:13:13Z</time>
      </trkpt>
      <trkpt lat="44.66346" lon="5.27665">
        <ele>347.08</ele>
        <time>2014-05-01T10:13:33Z</time>
      </trkpt>
      <trkpt lat="44.66334" lon="5.27645">
        <ele>346.76</ele>
        <time>2014-05-01T10:14:01Z</time>
      </trkpt>
      <trkpt lat="44.66325" lon="5.27622">
        <ele>347.41</ele>
        <time>2014-05-01T10:14:19Z</time>
      </trkpt>
      <trkpt lat="44.66317" lon="5.27599">
        <ele>349.22</ele>
        <time>2014-05-01T10:14:42Z</time>
      </trkpt>
      <trkpt lat="44.66308" lon="5.27577">
        <ele>353.1</ele>
        <time>2014-05-01T10:15:05Z</time>
      </trkpt>
      <trkpt lat="44.66292" lon="5.27566">
        <ele>365.92</ele>
        <time>2014-05-01T10:16:30Z</time>
      </trkpt>
      <trkpt lat="44.66291" lon="5.2754">
        <ele>367.41</ele>
        <time>2014-05-01T10:16:52Z</time>
      </trkpt>
      <trkpt lat="44.66293" lon="5.27515">
        <ele>370.21</ele>
        <time>2014-05-01T10:17:13Z</time>
      </trkpt>
      <trkpt lat="44.66295" lon="5.27488">
        <ele>373.8</ele>
        <time>2014-05-01T10:17:33Z</time>
      </trkpt>
      <trkpt lat="44.66291" lon="5.27462">
        <ele>376.61</ele>
        <time>2014-05-01T10:17:51Z</time>
      </trkpt>
      <trkpt lat="44.66283" lon="5.27439">
        <ele>379.1</ele>
        <time>2014-05-01T10:18:11Z</time>
      </trkpt>
      <trkpt lat="44.66283" lon="5.27413">
        <ele>381.47</ele>
        <time>2014-05-01T10:18:47Z</time>
      </trkpt>
      <trkpt lat="44.66281" lon="5.27387">
        <ele>382.34</ele>
        <time>2014-05-01T10:19:12Z</time>
      </trkpt>
      <trkpt lat="44.66285" lon="5.27363">
        <ele>385.26</ele>
        <time>2014-05-01T10:19:36Z</time>
      </trkpt>
      <trkpt lat="44.66288" lon="5.27337">
        <ele>384.93</ele>
        <time>2014-05-01T10:19:53Z</time>
      </trkpt>
      <trkpt lat="44.66293" lon="5.2731">
        <ele>383.9</ele>
        <time>2014-05-01T10:20:06Z</time>
      </trkpt>
      <trkpt lat="44.663" lon="5.27287">
        <ele>384.4</ele>
        <time>2014-05-01T10:20:21Z</time>
      </trkpt>
      <trkpt lat="44.66306" lon="5.27262">
        <ele>382.94</ele>
        <time>2014-05-01T10:20:36Z</time>
      </trkpt>
      <trkpt lat="44.66316" lon="5.27241">
        <ele>381.75</ele>
        <time>2014-05-01T10:20:51Z</time>
      </trkpt>
      <trkpt lat="44.66303" lon="5.27258">
        <ele>386.41</ele>
        <time>2014-05-01T10:21:27Z</time>
      </trkpt>
      <trkpt lat="44.66294" lon="5.2728">
        <ele>391.06</ele>
        <time>2014-05-01T10:22:02Z</time>
      </trkpt>
      <trkpt lat="44.66276" lon="5.27285">
        <ele>405.13</ele>
        <time>2014-05-01T10:35:52Z</time>
      </trkpt>
      <trkpt lat="44.66277" lon="5.27259">
        <ele>404.64</ele>
        <time>2014-05-01T10:46:29Z</time>
      </trkpt>
      <trkpt lat="44.66281" lon="5.27284">
        <ele>405.55</ele>
        <time>2014-05-01T10:47:54Z</time>
      </trkpt>
      <trkpt lat="44.66297" lon="5.27358">
        <ele>380.44</ele>
        <time>2014-05-01T10:56:21Z</time>
      </trkpt>
      <trkpt lat="44.66294" lon="5.27333">
        <ele>358.9</ele>
        <time>2014-05-01T10:57:18Z</time>
      </trkpt>
      <trkpt lat="44.66285" lon="5.2731">
        <ele>363.86</ele>
        <time>2014-05-01T10:57:29Z</time>
      </trkpt>
      <trkpt lat="44.66291" lon="5.27286">
        <ele>370.66</ele>
        <time>2014-05-01T10:57:41Z</time>
      </trkpt>
      <trkpt lat="44.66303" lon="5.27264">
        <ele>376.22</ele>
        <time>2014-05-01T10:57:53Z</time>
      </trkpt>
      <trkpt lat="44.66315" lon="5.27246">
        <ele>380.21</ele>
        <time>2014-05-01T10:58:04Z</time>
      </trkpt>
      <trkpt lat="44.66321" lon="5.27222">
        <ele>382.55</ele>
        <time>2014-05-01T10:59:45Z</time>
      </trkpt>
      <trkpt lat="44.66335" lon="5.27205">
        <ele>382.91</ele>
        <time>2014-05-01T11:00:06Z</time>
      </trkpt>
      <trkpt lat="44.6635" lon="5.2719">
        <ele>384.71</ele>
        <time>2014-05-01T11:00:44Z</time>
      </trkpt>
      <trkpt lat="44.66333" lon="5.27183">
        <ele>385.77</ele>
        <time>2014-05-01T11:01:16Z</time>
      </trkpt>
      <trkpt lat="44.66314" lon="5.27177">
        <ele>385.04</ele>
        <time>2014-05-01T11:01:31Z</time>
      </trkpt>
      <trkpt lat="44.66296" lon="5.27171">
        <ele>385.17</ele>
        <time>2014-05-01T11:01:48Z</time>
      </trkpt>
      <trkpt lat="44.66277" lon="5.27164">
        <ele>383.94</ele>
        <time>2014-05-01T11:02:12Z</time>
      </trkpt>
      <trkpt lat="44.66259" lon="5.2716">
        <ele>383.57</ele>
        <time>2014-05-01T11:02:24Z</time>
      </trkpt>
      <trkpt lat="44.66241" lon="5.2716">
        <ele>383.06</ele>
        <time>2014-05-01T11:02:38Z</time>
      </trkpt>
      <trkpt lat="44.66232" lon="5.27137">
        <ele>382</ele>
        <time>2014-05-01T11:03:07Z</time>
      </trkpt>
      <trkpt lat="44.66234" lon="5.27111">
        <ele>381.77</ele>
        <time>2014-05-01T11:03:20Z</time>
      </trkpt>
      <trkpt lat="44.66227" lon="5.27087">
        <ele>382.55</ele>
        <time>2014-05-01T11:03:37Z</time>
      </trkpt>
      <trkpt lat="44.6622" lon="5.27063">
        <ele>383.94</ele>
        <time>2014-05-01T11:03:54Z</time>
      </trkpt>
      <trkpt lat="44.66206" lon="5.27045">
        <ele>385.59</ele>
        <time>2014-05-01T11:04:12Z</time>
      </trkpt>
      <trkpt lat="44.66193" lon="5.27027">
        <ele>387.61</ele>
        <time>2014-05-01T11:04:31Z</time>
      </trkpt>
      <trkpt lat="44.66185" lon="5.27004">
        <ele>388.79</ele>
        <time>2014-05-01T11:04:49Z</time>
      </trkpt>
      <trkpt lat="44.66178" lon="5.26981">
        <ele>389.74</ele>
        <time>2014-05-01T11:05:07Z</time>
      </trkpt>
      <trkpt lat="44.66167" lon="5.2696">
        <ele>391.88</ele>
        <time>2014-05-01T11:05:26Z</time>
      </trkpt>
      <trkpt lat="44.66148" lon="5.26952">
        <ele>393.84</ele>
        <time>2014-05-01T11:05:46Z</time>
      </trkpt>
      <trkpt lat="44.66131" lon="5.26945">
        <ele>395.07</ele>
        <time>2014-05-01T11:06:04Z</time>
      </trkpt>
      <trkpt lat="44.66134" lon="5.2697">
        <ele>403.3</ele>
        <time>2014-05-01T11:07:04Z</time>
      </trkpt>
      <trkpt lat="44.66118" lon="5.26956">
        <ele>405.86</ele>
        <time>2014-05-01T11:07:26Z</time>
      </trkpt>
      <trkpt lat="44.66105" lon="5.26939">
        <ele>410.48</ele>
        <time>2014-05-01T11:07:48Z</time>
      </trkpt>
      <trkpt lat="44.66093" lon="5.26919">
        <ele>412.63</ele>
        <time>2014-05-01T11:08:06Z</time>
      </trkpt>
      <trkpt lat="44.66079" lon="5.26902">
        <ele>414.98</ele>
        <time>2014-05-01T11:08:27Z</time>
      </trkpt>
      <trkpt lat="44.66062" lon="5.2689">
        <ele>417.48</ele>
        <time>2014-05-01T11:08:45Z</time>
      </trkpt>
      <trkpt lat="44.66046" lon="5.26877">
        <ele>421.53</ele>
        <time>2014-05-01T11:09:08Z</time>
      </trkpt>
      <trkpt lat="44.66028" lon="5.2687">
        <ele>423.97</ele>
        <time>2014-05-01T11:09:26Z</time>
      </trkpt>
      <trkpt lat="44.66011" lon="5.26863">
        <ele>425.46</ele>
        <time>2014-05-01T11:09:42Z</time>
      </trkpt>
      <trkpt lat="44.65994" lon="5.26851">
        <ele>427.74</ele>
        <time>2014-05-01T11:09:57Z</time>
      </trkpt>
      <trkpt lat="44.65977" lon="5.2684">
        <ele>427.41</ele>
        <time>2014-05-01T11:10:17Z</time>
      </trkpt>
      <trkpt lat="44.65962" lon="5.26824">
        <ele>426.51</ele>
        <time>2014-05-01T11:10:31Z</time>
      </trkpt>
      <trkpt lat="44.65947" lon="5.26812">
        <ele>425.3</ele>
        <time>2014-05-01T11:10:46Z</time>
      </trkpt>
      <trkpt lat="44.65928" lon="5.26808">
        <ele>425.4</ele>
        <time>2014-05-01T11:11:01Z</time>
      </trkpt>
      <trkpt lat="44.65909" lon="5.26807">
        <ele>426.33</ele>
        <time>2014-05-01T11:11:15Z</time>
      </trkpt>
      <trkpt lat="44.65891" lon="5.26808">
        <ele>426.79</ele>
        <time>2014-05-01T11:11:35Z</time>
      </trkpt>
      <trkpt lat="44.65873" lon="5.26803">
        <ele>426.45</ele>
        <time>2014-05-01T11:11:48Z</time>
      </trkpt>
      <trkpt lat="44.65856" lon="5.26799">
        <ele>425.18</ele>
        <time>2014-05-01T11:12:05Z</time>
      </trkpt>
      <trkpt lat="44.65839" lon="5.26811">
        <ele>424.9</ele>
        <time>2014-05-01T11:12:23Z</time>
      </trkpt>
      <trkpt lat="44.6583" lon="5.26789">
        <ele>426.02</ele>
        <time>2014-05-01T11:12:42Z</time>
      </trkpt>
      <trkpt lat="44.65841" lon="5.26769">
        <ele>425.01</ele>
        <time>2014-05-01T11:12:59Z</time>
      </trkpt>
      <trkpt lat="44.65856" lon="5.26753">
        <ele>426.87</ele>
        <time>2014-05-01T11:13:21Z</time>
      </trkpt>
      <trkpt lat="44.65837" lon="5.26754">
        <ele>434.31</ele>
        <time>2014-05-01T11:14:16Z</time>
      </trkpt>
      <trkpt lat="44.65818" lon="5.26758">
        <ele>437.75</ele>
        <time>2014-05-01T11:14:38Z</time>
      </trkpt>
      <trkpt lat="44.65801" lon="5.26766">
        <ele>440.86</ele>
        <time>2014-05-01T11:15:02Z</time>
      </trkpt>
      <trkpt lat="44.65783" lon="5.26775">
        <ele>443.41</ele>
        <time>2014-05-01T11:15:18Z</time>
      </trkpt>
      <trkpt lat="44.65764" lon="5.26781">
        <ele>444.79</ele>
        <time>2014-05-01T11:15:40Z</time>
      </trkpt>
      <trkpt lat="44.65746" lon="5.26774">
        <ele>446.43</ele>
        <time>2014-05-01T11:16:05Z</time>
      </trkpt>
      <trkpt lat="44.65739" lon="5.26749">
        <ele>447.44</ele>
        <time>2014-05-01T11:16:24Z</time>
      </trkpt>
      <trkpt lat="44.65733" lon="5.26725">
        <ele>450.52</ele>
        <time>2014-05-01T11:16:45Z</time>
      </trkpt>
      <trkpt lat="44.6573" lon="5.26699">
        <ele>454.14</ele>
        <time>2014-05-01T11:17:04Z</time>
      </trkpt>
      <trkpt lat="44.65728" lon="5.26674">
        <ele>457.6</ele>
        <time>2014-05-01T11:17:24Z</time>
      </trkpt>
      <trkpt lat="44.65722" lon="5.2665">
        <ele>460.62</ele>
        <time>2014-05-01T11:17:43Z</time>
      </trkpt>
      <trkpt lat="44.65709" lon="5.26631">
        <ele>462.06</ele>
        <time>2014-05-01T11:18:02Z</time>
      </trkpt>
      <trkpt lat="44.65699" lon="5.26608">
        <ele>464.49</ele>
        <time>2014-05-01T11:18:18Z</time>
      </trkpt>
      <trkpt lat="44.6569" lon="5.26586">
        <ele>466.12</ele>
        <time>2014-05-01T11:18:34Z</time>
      </trkpt>
      <trkpt lat="44.65681" lon="5.26563">
        <ele>467.68</ele>
        <time>2014-05-01T11:18:53Z</time>
      </trkpt>
      <trkpt lat="44.65676" lon="5.26539">
        <ele>469.2</ele>
        <time>2014-05-01T11:19:08Z</time>
      </trkpt>
      <trkpt lat="44.65666" lon="5.26516">
        <ele>468.71</ele>
        <time>2014-05-01T11:19:25Z</time>
      </trkpt>
      <trkpt lat="44.65657" lon="5.26494">
        <ele>469.46</ele>
        <time>2014-05-01T11:19:42Z</time>
      </trkpt>
      <trkpt lat="44.65651" lon="5.26468">
        <ele>470.34</ele>
        <time>2014-05-01T11:19:58Z</time>
      </trkpt>
      <trkpt lat="44.65638" lon="5.26449">
        <ele>471.46</ele>
        <time>2014-05-01T11:20:16Z</time>
      </trkpt>
      <trkpt lat="44.65629" lon="5.26427">
        <ele>474.33</ele>
        <time>2014-05-01T11:20:36Z</time>
      </trkpt>
      <trkpt lat="44.65628" lon="5.26401">
        <ele>477.3</ele>
        <time>2014-05-01T11:20:56Z</time>
      </trkpt>
      <trkpt lat="44.65632" lon="5.26377">
        <ele>480</ele>
        <time>2014-05-01T11:21:17Z</time>
      </trkpt>
      <trkpt lat="44.65635" lon="5.26351">
        <ele>481.73</ele>
        <time>2014-05-01T11:21:39Z</time>
      </trkpt>
      <trkpt lat="44.65633" lon="5.26326">
        <ele>482.23</ele>
        <time>2014-05-01T11:22:08Z</time>
      </trkpt>
      <trkpt lat="44.65626" lon="5.26301">
        <ele>485.45</ele>
        <time>2014-05-01T11:22:35Z</time>
      </trkpt>
      <trkpt lat="44.6562" lon="5.26278">
        <ele>486.76</ele>
        <time>2014-05-01T11:22:57Z</time>
      </trkpt>
      <trkpt lat="44.65615" lon="5.26252">
        <ele>488.84</ele>
        <time>2014-05-01T11:23:19Z</time>
      </trkpt>
      <trkpt lat="44.65606" lon="5.26229">
        <ele>491.46</ele>
        <time>2014-05-01T11:23:40Z</time>
      </trkpt>
      <trkpt lat="44.65602" lon="5.26204">
        <ele>494.66</ele>
        <time>2014-05-01T11:24:03Z</time>
      </trkpt>
      <trkpt lat="44.65593" lon="5.26183">
        <ele>498.91</ele>
        <time>2014-05-01T11:24:24Z</time>
      </trkpt>
      <trkpt lat="44.65586" lon="5.26159">
        <ele>502.24</ele>
        <time>2014-05-01T11:24:44Z</time>
      </trkpt>
      <trkpt lat="44.65581" lon="5.26134">
        <ele>505.45</ele>
        <time>2014-05-01T11:25:02Z</time>
      </trkpt>
      <trkpt lat="44.65578" lon="5.26109">
        <ele>508.98</ele>
        <time>2014-05-01T11:25:40Z</time>
      </trkpt>
      <trkpt lat="44.65576" lon="5.26084">
        <ele>509.36</ele>
        <time>2014-05-01T11:25:58Z</time>
      </trkpt>
      <trkpt lat="44.65574" lon="5.26059">
        <ele>510.22</ele>
        <time>2014-05-01T11:26:16Z</time>
      </trkpt>
      <trkpt lat="44.65571" lon="5.26034">
        <ele>511.05</ele>
        <time>2014-05-01T11:26:35Z</time>
      </trkpt>
      <trkpt lat="44.65567" lon="5.26009">
        <ele>515.13</ele>
        <time>2014-05-01T11:26:55Z</time>
      </trkpt>
      <trkpt lat="44.6558" lon="5.26029">
        <ele>520.9</ele>
        <time>2014-05-01T11:27:20Z</time>
      </trkpt>
      <trkpt lat="44.65586" lon="5.26052">
        <ele>521.89</ele>
        <time>2014-05-01T11:27:37Z</time>
      </trkpt>
      <trkpt lat="44.65598" lon="5.26075">
        <ele>524.68</ele>
        <time>2014-05-01T11:27:54Z</time>
      </trkpt>
      <trkpt lat="44.65605" lon="5.26098">
        <ele>527.03</ele>
        <time>2014-05-01T11:28:13Z</time>
      </trkpt>
      <trkpt lat="44.65612" lon="5.26123">
        <ele>529.62</ele>
        <time>2014-05-01T11:28:32Z</time>
      </trkpt>
      <trkpt lat="44.65624" lon="5.26143">
        <ele>531.66</ele>
        <time>2014-05-01T11:28:54Z</time>
      </trkpt>
      <trkpt lat="44.65622" lon="5.26117">
        <ele>531.89</ele>
        <time>2014-05-01T11:29:16Z</time>
      </trkpt>
      <trkpt lat="44.65619" lon="5.26091">
        <ele>532.61</ele>
        <time>2014-05-01T11:29:36Z</time>
      </trkpt>
      <trkpt lat="44.65617" lon="5.26066">
        <ele>534.61</ele>
        <time>2014-05-01T11:29:57Z</time>
      </trkpt>
      <trkpt lat="44.65614" lon="5.26039">
        <ele>535.46</ele>
        <time>2014-05-01T11:30:15Z</time>
      </trkpt>
      <trkpt lat="44.65609" lon="5.26013">
        <ele>540.5</ele>
        <time>2014-05-01T11:30:39Z</time>
      </trkpt>
      <trkpt lat="44.65622" lon="5.26032">
        <ele>546.64</ele>
        <time>2014-05-01T11:31:09Z</time>
      </trkpt>
      <trkpt lat="44.65633" lon="5.26051">
        <ele>550.29</ele>
        <time>2014-05-01T11:31:27Z</time>
      </trkpt>
      <trkpt lat="44.65631" lon="5.26025">
        <ele>553.3</ele>
        <time>2014-05-01T11:31:49Z</time>
      </trkpt>
      <trkpt lat="44.65623" lon="5.26002">
        <ele>554.87</ele>
        <time>2014-05-01T11:32:09Z</time>
      </trkpt>
      <trkpt lat="44.65621" lon="5.25975">
        <ele>556.04</ele>
        <time>2014-05-01T11:32:30Z</time>
      </trkpt>
      <trkpt lat="44.65621" lon="5.25949">
        <ele>559</ele>
        <time>2014-05-01T11:32:45Z</time>
      </trkpt>
      <trkpt lat="44.6562" lon="5.25923">
        <ele>561.5</ele>
        <time>2014-05-01T11:33:03Z</time>
      </trkpt>
      <trkpt lat="44.65619" lon="5.25897">
        <ele>563.51</ele>
        <time>2014-05-01T11:33:28Z</time>
      </trkpt>
      <trkpt lat="44.65614" lon="5.25873">
        <ele>565.71</ele>
        <time>2014-05-01T11:33:47Z</time>
      </trkpt>
      <trkpt lat="44.65605" lon="5.25851">
        <ele>568.5</ele>
        <time>2014-05-01T11:34:12Z</time>
      </trkpt>
      <trkpt lat="44.65589" lon="5.25838">
        <ele>569.1</ele>
        <time>2014-05-01T11:34:32Z</time>
      </trkpt>
      <trkpt lat="44.65576" lon="5.25819">
        <ele>572.72</ele>
        <time>2014-05-01T11:34:54Z</time>
      </trkpt>
      <trkpt lat="44.65594" lon="5.25824">
        <ele>574.98</ele>
        <time>2014-05-01T11:35:26Z</time>
      </trkpt>
      <trkpt lat="44.65613" lon="5.25822">
        <ele>578.02</ele>
        <time>2014-05-01T11:35:50Z</time>
      </trkpt>
      <trkpt lat="44.65631" lon="5.25832">
        <ele>583.03</ele>
        <time>2014-05-01T11:36:10Z</time>
      </trkpt>
      <trkpt lat="44.65646" lon="5.25846">
        <ele>586.07</ele>
        <time>2014-05-01T11:36:28Z</time>
      </trkpt>
      <trkpt lat="44.65664" lon="5.25846">
        <ele>587.34</ele>
        <time>2014-05-01T11:36:49Z</time>
      </trkpt>
      <trkpt lat="44.65682" lon="5.25841">
        <ele>589.07</ele>
        <time>2014-05-01T11:37:04Z</time>
      </trkpt>
      <trkpt lat="44.65684" lon="5.25815">
        <ele>594.92</ele>
        <time>2014-05-01T11:37:35Z</time>
      </trkpt>
      <trkpt lat="44.65688" lon="5.25791">
        <ele>599.88</ele>
        <time>2014-05-01T11:37:59Z</time>
      </trkpt>
      <trkpt lat="44.65695" lon="5.25767">
        <ele>604.63</ele>
        <time>2014-05-01T11:38:35Z</time>
      </trkpt>
      <trkpt lat="44.65708" lon="5.25749">
        <ele>609.12</ele>
        <time>2014-05-01T11:39:01Z</time>
      </trkpt>
      <trkpt lat="44.65718" lon="5.25727">
        <ele>612.57</ele>
        <time>2014-05-01T11:39:17Z</time>
      </trkpt>
      <trkpt lat="44.65726" lon="5.25703">
        <ele>614.41</ele>
        <time>2014-05-01T11:39:43Z</time>
      </trkpt>
      <trkpt lat="44.6573" lon="5.25678">
        <ele>617.34</ele>
        <time>2014-05-01T11:40:09Z</time>
      </trkpt>
      <trkpt lat="44.65736" lon="5.25654">
        <ele>619.39</ele>
        <time>2014-05-01T11:40:24Z</time>
      </trkpt>
      <trkpt lat="44.65736" lon="5.25628">
        <ele>626.48</ele>
        <time>2014-05-01T11:40:59Z</time>
      </trkpt>
      <trkpt lat="44.65719" lon="5.25619">
        <ele>627.24</ele>
        <time>2014-05-01T11:41:26Z</time>
      </trkpt>
      <trkpt lat="44.65701" lon="5.25611">
        <ele>628.31</ele>
        <time>2014-05-01T11:41:53Z</time>
      </trkpt>
      <trkpt lat="44.65684" lon="5.25604">
        <ele>631.62</ele>
        <time>2014-05-01T11:42:17Z</time>
      </trkpt>
      <trkpt lat="44.65666" lon="5.25607">
        <ele>634.3</ele>
        <time>2014-05-01T11:42:37Z</time>
      </trkpt>
      <trkpt lat="44.65647" lon="5.25606">
        <ele>636.18</ele>
        <time>2014-05-01T11:42:53Z</time>
      </trkpt>
      <trkpt lat="44.65658" lon="5.25586">
        <ele>640.66</ele>
        <time>2014-05-01T11:43:20Z</time>
      </trkpt>
      <trkpt lat="44.65664" lon="5.25562">
        <ele>647.78</ele>
        <time>2014-05-01T11:43:37Z</time>
      </trkpt>
      <trkpt lat="44.65681" lon="5.25552">
        <ele>651.79</ele>
        <time>2014-05-01T11:43:54Z</time>
      </trkpt>
      <trkpt lat="44.65699" lon="5.25551">
        <ele>654.95</ele>
        <time>2014-05-01T11:44:16Z</time>
      </trkpt>
      <trkpt lat="44.65715" lon="5.2554">
        <ele>657.53</ele>
        <time>2014-05-01T11:44:47Z</time>
      </trkpt>
      <trkpt lat="44.65733" lon="5.2553">
        <ele>661.04</ele>
        <time>2014-05-01T11:45:07Z</time>
      </trkpt>
      <trkpt lat="44.65748" lon="5.25515">
        <ele>662.99</ele>
        <time>2014-05-01T11:45:23Z</time>
      </trkpt>
      <trkpt lat="44.65766" lon="5.25504">
        <ele>666.12</ele>
        <time>2014-05-01T11:45:43Z</time>
      </trkpt>
      <trkpt lat="44.65784" lon="5.25499">
        <ele>668.24</ele>
        <time>2014-05-01T11:46:10Z</time>
      </trkpt>
      <trkpt lat="44.658" lon="5.25485">
        <ele>671.06</ele>
        <time>2014-05-01T11:46:33Z</time>
      </trkpt>
      <trkpt lat="44.65816" lon="5.25473">
        <ele>672.47</ele>
        <time>2014-05-01T11:46:55Z</time>
      </trkpt>
      <trkpt lat="44.65825" lon="5.25449">
        <ele>673.83</ele>
        <time>2014-05-01T11:47:20Z</time>
      </trkpt>
      <trkpt lat="44.65837" lon="5.2543">
        <ele>676.42</ele>
        <time>2014-05-01T11:47:39Z</time>
      </trkpt>
      <trkpt lat="44.65843" lon="5.25406">
        <ele>679.5</ele>
        <time>2014-05-01T11:48:10Z</time>
      </trkpt>
      <trkpt lat="44.65861" lon="5.25397">
        <ele>677.49</ele>
        <time>2014-05-01T11:48:28Z</time>
      </trkpt>
      <trkpt lat="44.65844" lon="5.25385">
        <ele>681.27</ele>
        <time>2014-05-01T11:49:19Z</time>
      </trkpt>
      <trkpt lat="44.65826" lon="5.25385">
        <ele>682.75</ele>
        <time>2014-05-01T11:49:44Z</time>
      </trkpt>
      <trkpt lat="44.65808" lon="5.25391">
        <ele>685.39</ele>
        <time>2014-05-01T11:50:08Z</time>
      </trkpt>
      <trkpt lat="44.65791" lon="5.254">
        <ele>688.36</ele>
        <time>2014-05-01T11:50:36Z</time>
      </trkpt>
      <trkpt lat="44.65773" lon="5.25405">
        <ele>691.13</ele>
        <time>2014-05-01T11:50:57Z</time>
      </trkpt>
      <trkpt lat="44.65758" lon="5.25419">
        <ele>696.85</ele>
        <time>2014-05-01T11:51:22Z</time>
      </trkpt>
      <trkpt lat="44.6574" lon="5.25417">
        <ele>701.92</ele>
        <time>2014-05-01T11:51:45Z</time>
      </trkpt>
      <trkpt lat="44.65724" lon="5.25405">
        <ele>706.22</ele>
        <time>2014-05-01T11:52:08Z</time>
      </trkpt>
      <trkpt lat="44.65707" lon="5.25392">
        <ele>709.83</ele>
        <time>2014-05-01T11:52:33Z</time>
      </trkpt>
      <trkpt lat="44.6569" lon="5.25384">
        <ele>715.33</ele>
        <time>2014-05-01T11:53:06Z</time>
      </trkpt>
      <trkpt lat="44.65672" lon="5.25379">
        <ele>718.64</ele>
        <time>2014-05-01T11:53:27Z</time>
      </trkpt>
      <trkpt lat="44.65655" lon="5.25368">
        <ele>721.36</ele>
        <time>2014-05-01T11:53:45Z</time>
      </trkpt>
      <trkpt lat="44.65644" lon="5.25347">
        <ele>727</ele>
        <time>2014-05-01T11:54:19Z</time>
      </trkpt>
      <trkpt lat="44.65659" lon="5.2533">
        <ele>727.14</ele>
        <time>2014-05-01T11:54:47Z</time>
      </trkpt>
      <trkpt lat="44.65673" lon="5.25316">
        <ele>728.77</ele>
        <time>2014-05-01T11:55:06Z</time>
      </trkpt>
      <trkpt lat="44.65689" lon="5.25302">
        <ele>731.75</ele>
        <time>2014-05-01T11:55:26Z</time>
      </trkpt>
      <trkpt lat="44.65703" lon="5.25287">
        <ele>734.23</ele>
        <time>2014-05-01T11:55:47Z</time>
      </trkpt>
      <trkpt lat="44.65721" lon="5.25281">
        <ele>737.74</ele>
        <time>2014-05-01T11:56:08Z</time>
      </trkpt>
      <trkpt lat="44.65739" lon="5.25278">
        <ele>739.91</ele>
        <time>2014-05-01T11:56:21Z</time>
      </trkpt>
      <trkpt lat="44.65757" lon="5.25277">
        <ele>744.83</ele>
        <time>2014-05-01T11:56:40Z</time>
      </trkpt>
      <trkpt lat="44.65774" lon="5.25267">
        <ele>748.84</ele>
        <time>2014-05-01T11:57:11Z</time>
      </trkpt>
      <trkpt lat="44.65792" lon="5.2526">
        <ele>752.39</ele>
        <time>2014-05-01T11:57:36Z</time>
      </trkpt>
      <trkpt lat="44.65806" lon="5.25245">
        <ele>754.96</ele>
        <time>2014-05-01T11:57:58Z</time>
      </trkpt>
      <trkpt lat="44.65824" lon="5.25238">
        <ele>759.8</ele>
        <time>2014-05-01T11:58:23Z</time>
      </trkpt>
      <trkpt lat="44.65837" lon="5.2522">
        <ele>761.03</ele>
        <time>2014-05-01T11:58:40Z</time>
      </trkpt>
      <trkpt lat="44.65848" lon="5.252">
        <ele>764.58</ele>
        <time>2014-05-01T11:59:12Z</time>
      </trkpt>
      <trkpt lat="44.65864" lon="5.25187">
        <ele>767.51</ele>
        <time>2014-05-01T11:59:29Z</time>
      </trkpt>
      <trkpt lat="44.65847" lon="5.25179">
        <ele>769.64</ele>
        <time>2014-05-01T12:00:06Z</time>
      </trkpt>
      <trkpt lat="44.65829" lon="5.2518">
        <ele>772.08</ele>
        <time>2014-05-01T12:00:27Z</time>
      </trkpt>
      <trkpt lat="44.65811" lon="5.25173">
        <ele>774.76</ele>
        <time>2014-05-01T12:00:51Z</time>
      </trkpt>
      <trkpt lat="44.65794" lon="5.25183">
        <ele>777.56</ele>
        <time>2014-05-01T12:01:14Z</time>
      </trkpt>
      <trkpt lat="44.65775" lon="5.25184">
        <ele>777.93</ele>
        <time>2014-05-01T12:01:28Z</time>
      </trkpt>
      <trkpt lat="44.65757" lon="5.25176">
        <ele>781.13</ele>
        <time>2014-05-01T12:01:50Z</time>
      </trkpt>
      <trkpt lat="44.6574" lon="5.25171">
        <ele>784.45</ele>
        <time>2014-05-01T12:02:09Z</time>
      </trkpt>
      <trkpt lat="44.65721" lon="5.25174">
        <ele>788.23</ele>
        <time>2014-05-01T12:02:28Z</time>
      </trkpt>
      <trkpt lat="44.65703" lon="5.25169">
        <ele>791.18</ele>
        <time>2014-05-01T12:02:48Z</time>
      </trkpt>
      <trkpt lat="44.65685" lon="5.25167">
        <ele>794.65</ele>
        <time>2014-05-01T12:03:09Z</time>
      </trkpt>
      <trkpt lat="44.65667" lon="5.25165">
        <ele>796.91</ele>
        <time>2014-05-01T12:03:29Z</time>
      </trkpt>
      <trkpt lat="44.65648" lon="5.2517">
        <ele>797.97</ele>
        <time>2014-05-01T12:03:53Z</time>
      </trkpt>
      <trkpt lat="44.65631" lon="5.25177">
        <ele>797.51</ele>
        <time>2014-05-01T12:04:13Z</time>
      </trkpt>
      <trkpt lat="44.65613" lon="5.25185">
        <ele>796.99</ele>
        <time>2014-05-01T12:04:37Z</time>
      </trkpt>
      <trkpt lat="44.65596" lon="5.25193">
        <ele>798.34</ele>
        <time>2014-05-01T12:04:55Z</time>
      </trkpt>
      <trkpt lat="44.65577" lon="5.25194">
        <ele>800.07</ele>
        <time>2014-05-01T12:05:13Z</time>
      </trkpt>
      <trkpt lat="44.65559" lon="5.25199">
        <ele>801.09</ele>
        <time>2014-05-01T12:05:31Z</time>
      </trkpt>
      <trkpt lat="44.6554" lon="5.25203">
        <ele>804.52</ele>
        <time>2014-05-01T12:06:55Z</time>
      </trkpt>
      <trkpt lat="44.65526" lon="5.2522">
        <ele>804.83</ele>
        <time>2014-05-01T12:07:16Z</time>
      </trkpt>
      <trkpt lat="44.65511" lon="5.25234">
        <ele>804.78</ele>
        <time>2014-05-01T12:07:34Z</time>
      </trkpt>
      <trkpt lat="44.65503" lon="5.25257">
        <ele>805.68</ele>
        <time>2014-05-01T12:07:46Z</time>
      </trkpt>
      <trkpt lat="44.65491" lon="5.25278">
        <ele>808.97</ele>
        <time>2014-05-01T12:08:03Z</time>
      </trkpt>
      <trkpt lat="44.65474" lon="5.25288">
        <ele>814.35</ele>
        <time>2014-05-01T12:08:34Z</time>
      </trkpt>
      <trkpt lat="44.65458" lon="5.253">
        <ele>816.05</ele>
        <time>2014-05-01T12:08:53Z</time>
      </trkpt>
      <trkpt lat="44.65448" lon="5.25277">
        <ele>816.15</ele>
        <time>2014-05-01T12:09:30Z</time>
      </trkpt>
      <trkpt lat="44.65433" lon="5.2526">
        <ele>815.29</ele>
        <time>2014-05-01T12:09:44Z</time>
      </trkpt>
      <trkpt lat="44.65418" lon="5.25245">
        <ele>812.65</ele>
        <time>2014-05-01T12:10:01Z</time>
      </trkpt>
      <trkpt lat="44.654" lon="5.25238">
        <ele>812.12</ele>
        <time>2014-05-01T12:10:16Z</time>
      </trkpt>
      <trkpt lat="44.65383" lon="5.25229">
        <ele>811.22</ele>
        <time>2014-05-01T12:10:30Z</time>
      </trkpt>
      <trkpt lat="44.65377" lon="5.25204">
        <ele>808.43</ele>
        <time>2014-05-01T12:10:50Z</time>
      </trkpt>
      <trkpt lat="44.65375" lon="5.25179">
        <ele>806.2</ele>
        <time>2014-05-01T12:11:06Z</time>
      </trkpt>
      <trkpt lat="44.65356" lon="5.25173">
        <ele>804.24</ele>
        <time>2014-05-01T12:11:30Z</time>
      </trkpt>
      <trkpt lat="44.65339" lon="5.25163">
        <ele>802.92</ele>
        <time>2014-05-01T12:11:44Z</time>
      </trkpt>
      <trkpt lat="44.65322" lon="5.25153">
        <ele>800.99</ele>
        <time>2014-05-01T12:11:58Z</time>
      </trkpt>
      <trkpt lat="44.65304" lon="5.25144">
        <ele>798.21</ele>
        <time>2014-05-01T12:12:16Z</time>
      </trkpt>
      <trkpt lat="44.65286" lon="5.25144">
        <ele>795.58</ele>
        <time>2014-05-01T12:12:33Z</time>
      </trkpt>
      <trkpt lat="44.6527" lon="5.25128">
        <ele>792.37</ele>
        <time>2014-05-01T12:12:50Z</time>
      </trkpt>
      <trkpt lat="44.65256" lon="5.25112">
        <ele>788.95</ele>
        <time>2014-05-01T12:13:09Z</time>
      </trkpt>
      <trkpt lat="44.65237" lon="5.25104">
        <ele>784.87</ele>
        <time>2014-05-01T12:13:28Z</time>
      </trkpt>
      <trkpt lat="44.6522" lon="5.25097">
        <ele>782.14</ele>
        <time>2014-05-01T12:13:43Z</time>
      </trkpt>
      <trkpt lat="44.65202" lon="5.25091">
        <ele>778.91</ele>
        <time>2014-05-01T12:13:59Z</time>
      </trkpt>
      <trkpt lat="44.65184" lon="5.25084">
        <ele>775.89</ele>
        <time>2014-05-01T12:14:14Z</time>
      </trkpt>
      <trkpt lat="44.65169" lon="5.2507">
        <ele>773.08</ele>
        <time>2014-05-01T12:14:30Z</time>
      </trkpt>
      <trkpt lat="44.65168" lon="5.25043">
        <ele>770.63</ele>
        <time>2014-05-01T12:14:45Z</time>
      </trkpt>
      <trkpt lat="44.65158" lon="5.25021">
        <ele>768.28</ele>
        <time>2014-05-01T12:15:21Z</time>
      </trkpt>
      <trkpt lat="44.65142" lon="5.25008">
        <ele>768.34</ele>
        <time>2014-05-01T12:15:40Z</time>
      </trkpt>
      <trkpt lat="44.6513" lon="5.24988">
        <ele>767.54</ele>
        <time>2014-05-01T12:16:11Z</time>
      </trkpt>
      <trkpt lat="44.65128" lon="5.24963">
        <ele>767.97</ele>
        <time>2014-05-01T12:16:25Z</time>
      </trkpt>
      <trkpt lat="44.65117" lon="5.24942">
        <ele>765.67</ele>
        <time>2014-05-01T12:16:44Z</time>
      </trkpt>
      <trkpt lat="44.65107" lon="5.2492">
        <ele>764.66</ele>
        <time>2014-05-01T12:17:10Z</time>
      </trkpt>
      <trkpt lat="44.65097" lon="5.24898">
        <ele>762.84</ele>
        <time>2014-05-01T12:17:22Z</time>
      </trkpt>
      <trkpt lat="44.65085" lon="5.24877">
        <ele>760.72</ele>
        <time>2014-05-01T12:17:34Z</time>
      </trkpt>
      <trkpt lat="44.65073" lon="5.24857">
        <ele>757.81</ele>
        <time>2014-05-01T12:17:48Z</time>
      </trkpt>
      <trkpt lat="44.65065" lon="5.24834">
        <ele>756.28</ele>
        <time>2014-05-01T12:18:02Z</time>
      </trkpt>
      <trkpt lat="44.65046" lon="5.24836">
        <ele>752.33</ele>
        <time>2014-05-01T12:18:24Z</time>
      </trkpt>
      <trkpt lat="44.65028" lon="5.24838">
        <ele>748.28</ele>
        <time>2014-05-01T12:19:11Z</time>
      </trkpt>
      <trkpt lat="44.6501" lon="5.24844">
        <ele>746.41</ele>
        <time>2014-05-01T12:19:28Z</time>
      </trkpt>
      <trkpt lat="44.64992" lon="5.24845">
        <ele>746.38</ele>
        <time>2014-05-01T12:19:46Z</time>
      </trkpt>
      <trkpt lat="44.64973" lon="5.24848">
        <ele>746.11</ele>
        <time>2014-05-01T12:20:02Z</time>
      </trkpt>
      <trkpt lat="44.64956" lon="5.24856">
        <ele>746.67</ele>
        <time>2014-05-01T12:20:18Z</time>
      </trkpt>
      <trkpt lat="44.6494" lon="5.24869">
        <ele>748.45</ele>
        <time>2014-05-01T12:20:33Z</time>
      </trkpt>
      <trkpt lat="44.64936" lon="5.24845">
        <ele>752.67</ele>
        <time>2014-05-01T12:21:41Z</time>
      </trkpt>
      <trkpt lat="44.64944" lon="5.24822">
        <ele>754.7</ele>
        <time>2014-05-01T12:22:06Z</time>
      </trkpt>
      <trkpt lat="44.64961" lon="5.2481">
        <ele>756.11</ele>
        <time>2014-05-01T12:22:29Z</time>
      </trkpt>
      <trkpt lat="44.64978" lon="5.248">
        <ele>759.39</ele>
        <time>2014-05-01T12:22:50Z</time>
      </trkpt>
      <trkpt lat="44.64991" lon="5.24782">
        <ele>762.04</ele>
        <time>2014-05-01T12:23:17Z</time>
      </trkpt>
      <trkpt lat="44.65003" lon="5.24761">
        <ele>766.28</ele>
        <time>2014-05-01T12:23:38Z</time>
      </trkpt>
      <trkpt lat="44.65013" lon="5.24741">
        <ele>773.16</ele>
        <time>2014-05-01T12:24:03Z</time>
      </trkpt>
      <trkpt lat="44.65025" lon="5.24719">
        <ele>776.97</ele>
        <time>2014-05-01T12:24:29Z</time>
      </trkpt>
      <trkpt lat="44.65039" lon="5.24702">
        <ele>780.49</ele>
        <time>2014-05-01T12:24:50Z</time>
      </trkpt>
      <trkpt lat="44.6504" lon="5.24677">
        <ele>784.03</ele>
        <time>2014-05-01T12:25:14Z</time>
      </trkpt>
      <trkpt lat="44.65037" lon="5.24652">
        <ele>787.54</ele>
        <time>2014-05-01T12:25:42Z</time>
      </trkpt>
      <trkpt lat="44.65035" lon="5.24626">
        <ele>792.16</ele>
        <time>2014-05-01T12:26:11Z</time>
      </trkpt>
      <trkpt lat="44.6504" lon="5.246">
        <ele>795.82</ele>
        <time>2014-05-01T12:26:31Z</time>
      </trkpt>
      <trkpt lat="44.65055" lon="5.24584">
        <ele>799.86</ele>
        <time>2014-05-01T12:27:06Z</time>
      </trkpt>
      <trkpt lat="44.65073" lon="5.2459">
        <ele>800.69</ele>
        <time>2014-05-01T12:27:32Z</time>
      </trkpt>
      <trkpt lat="44.65091" lon="5.24589">
        <ele>802.39</ele>
        <time>2014-05-01T12:27:51Z</time>
      </trkpt>
      <trkpt lat="44.65104" lon="5.2457">
        <ele>805.57</ele>
        <time>2014-05-01T12:28:16Z</time>
      </trkpt>
      <trkpt lat="44.65116" lon="5.24551">
        <ele>809.49</ele>
        <time>2014-05-01T12:28:37Z</time>
      </trkpt>
      <trkpt lat="44.65116" lon="5.24525">
        <ele>814.3</ele>
        <time>2014-05-01T12:29:03Z</time>
      </trkpt>
      <trkpt lat="44.65126" lon="5.24505">
        <ele>816.97</ele>
        <time>2014-05-01T12:29:31Z</time>
      </trkpt>
      <trkpt lat="44.65128" lon="5.24479">
        <ele>822.61</ele>
        <time>2014-05-01T12:29:55Z</time>
      </trkpt>
      <trkpt lat="44.65132" lon="5.24455">
        <ele>824.54</ele>
        <time>2014-05-01T12:30:13Z</time>
      </trkpt>
      <trkpt lat="44.65142" lon="5.24433">
        <ele>827.52</ele>
        <time>2014-05-01T12:30:38Z</time>
      </trkpt>
      <trkpt lat="44.6516" lon="5.24424">
        <ele>828.9</ele>
        <time>2014-05-01T12:30:56Z</time>
      </trkpt>
      <trkpt lat="44.65178" lon="5.24416">
        <ele>830.34</ele>
        <time>2014-05-01T12:31:21Z</time>
      </trkpt>
      <trkpt lat="44.65197" lon="5.24415">
        <ele>830.36</ele>
        <time>2014-05-01T12:31:34Z</time>
      </trkpt>
      <trkpt lat="44.65215" lon="5.24408">
        <ele>830.79</ele>
        <time>2014-05-01T12:31:54Z</time>
      </trkpt>
      <trkpt lat="44.65231" lon="5.24396">
        <ele>832.87</ele>
        <time>2014-05-01T12:32:10Z</time>
      </trkpt>
      <trkpt lat="44.65249" lon="5.24394">
        <ele>834.14</ele>
        <time>2014-05-01T12:32:36Z</time>
      </trkpt>
      <trkpt lat="44.65267" lon="5.24388">
        <ele>835.98</ele>
        <time>2014-05-01T12:32:53Z</time>
      </trkpt>
      <trkpt lat="44.65275" lon="5.24364">
        <ele>837.43</ele>
        <time>2014-05-01T12:33:34Z</time>
      </trkpt>
      <trkpt lat="44.65264" lon="5.24344">
        <ele>854.39</ele>
        <time>2014-05-01T12:48:00Z</time>
      </trkpt>
      <trkpt lat="44.65258" lon="5.2432">
        <ele>855.01</ele>
        <time>2014-05-01T12:48:15Z</time>
      </trkpt>
      <trkpt lat="44.65251" lon="5.24295">
        <ele>856.22</ele>
        <time>2014-05-01T12:48:32Z</time>
      </trkpt>
      <trkpt lat="44.65241" lon="5.24273">
        <ele>857.88</ele>
        <time>2014-05-01T12:48:50Z</time>
      </trkpt>
      <trkpt lat="44.65233" lon="5.2425">
        <ele>861.53</ele>
        <time>2014-05-01T12:49:22Z</time>
      </trkpt>
      <trkpt lat="44.65229" lon="5.24223">
        <ele>862.33</ele>
        <time>2014-05-01T12:49:39Z</time>
      </trkpt>
      <trkpt lat="44.65234" lon="5.24198">
        <ele>864.33</ele>
        <time>2014-05-01T12:49:56Z</time>
      </trkpt>
      <trkpt lat="44.65232" lon="5.24172">
        <ele>865.5</ele>
        <time>2014-05-01T12:50:17Z</time>
      </trkpt>
      <trkpt lat="44.65235" lon="5.24147">
        <ele>865.63</ele>
        <time>2014-05-01T12:50:32Z</time>
      </trkpt>
      <trkpt lat="44.65239" lon="5.24121">
        <ele>866.07</ele>
        <time>2014-05-01T12:50:48Z</time>
      </trkpt>
      <trkpt lat="44.65244" lon="5.24097">
        <ele>868.15</ele>
        <time>2014-05-01T12:51:08Z</time>
      </trkpt>
      <trkpt lat="44.65249" lon="5.24071">
        <ele>869.16</ele>
        <time>2014-05-01T12:51:29Z</time>
      </trkpt>
      <trkpt lat="44.65256" lon="5.24048">
        <ele>869.58</ele>
        <time>2014-05-01T12:51:45Z</time>
      </trkpt>
      <trkpt lat="44.65264" lon="5.24023">
        <ele>872.24</ele>
        <time>2014-05-01T12:52:02Z</time>
      </trkpt>
      <trkpt lat="44.65246" lon="5.24017">
        <ele>874.09</ele>
        <time>2014-05-01T12:52:26Z</time>
      </trkpt>
      <trkpt lat="44.65235" lon="5.24038">
        <ele>876.57</ele>
        <time>2014-05-01T12:52:43Z</time>
      </trkpt>
      <trkpt lat="44.6522" lon="5.24053">
        <ele>878.71</ele>
        <time>2014-05-01T12:53:04Z</time>
      </trkpt>
      <trkpt lat="44.6521" lon="5.24075">
        <ele>879.48</ele>
        <time>2014-05-01T12:53:17Z</time>
      </trkpt>
      <trkpt lat="44.65197" lon="5.24093">
        <ele>883.04</ele>
        <time>2014-05-01T12:53:40Z</time>
      </trkpt>
      <trkpt lat="44.65185" lon="5.24115">
        <ele>885.22</ele>
        <time>2014-05-01T12:53:55Z</time>
      </trkpt>
      <trkpt lat="44.65171" lon="5.24131">
        <ele>886.69</ele>
        <time>2014-05-01T12:54:11Z</time>
      </trkpt>
      <trkpt lat="44.65156" lon="5.24147">
        <ele>888.02</ele>
        <time>2014-05-01T12:54:35Z</time>
      </trkpt>
      <trkpt lat="44.65142" lon="5.24167">
        <ele>889.1</ele>
        <time>2014-05-01T12:54:53Z</time>
      </trkpt>
      <trkpt lat="44.65155" lon="5.24148">
        <ele>901.96</ele>
        <time>2014-05-01T12:55:39Z</time>
      </trkpt>
      <trkpt lat="44.65162" lon="5.24125">
        <ele>906.06</ele>
        <time>2014-05-01T12:56:00Z</time>
      </trkpt>
      <trkpt lat="44.65176" lon="5.24107">
        <ele>908.25</ele>
        <time>2014-05-01T12:56:19Z</time>
      </trkpt>
      <trkpt lat="44.65184" lon="5.24083">
        <ele>910.27</ele>
        <time>2014-05-01T12:56:40Z</time>
      </trkpt>
      <trkpt lat="44.6518" lon="5.24057">
        <ele>913.02</ele>
        <time>2014-05-01T12:56:58Z</time>
      </trkpt>
      <trkpt lat="44.65167" lon="5.24038">
        <ele>916.47</ele>
        <time>2014-05-01T12:58:37Z</time>
      </trkpt>
      <trkpt lat="44.65149" lon="5.24039">
        <ele>919.1</ele>
        <time>2014-05-01T13:01:37Z</time>
      </trkpt>
      <trkpt lat="44.65132" lon="5.24029">
        <ele>917.46</ele>
        <time>2014-05-01T13:01:59Z</time>
      </trkpt>
      <trkpt lat="44.65114" lon="5.24021">
        <ele>915.01</ele>
        <time>2014-05-01T13:02:18Z</time>
      </trkpt>
      <trkpt lat="44.65096" lon="5.24021">
        <ele>914.93</ele>
        <time>2014-05-01T13:02:36Z</time>
      </trkpt>
      <trkpt lat="44.65078" lon="5.24024">
        <ele>916.45</ele>
        <time>2014-05-01T13:02:55Z</time>
      </trkpt>
      <trkpt lat="44.65064" lon="5.24007">
        <ele>919.16</ele>
        <time>2014-05-01T13:03:16Z</time>
      </trkpt>
      <trkpt lat="44.65046" lon="5.24005">
        <ele>921.47</ele>
        <time>2014-05-01T13:03:43Z</time>
      </trkpt>
      <trkpt lat="44.65029" lon="5.23997">
        <ele>925.18</ele>
        <time>2014-05-01T13:03:58Z</time>
      </trkpt>
      <trkpt lat="44.65017" lon="5.23978">
        <ele>927.46</ele>
        <time>2014-05-01T13:04:18Z</time>
      </trkpt>
      <trkpt lat="44.65007" lon="5.23955">
        <ele>929.25</ele>
        <time>2014-05-01T13:04:35Z</time>
      </trkpt>
      <trkpt lat="44.64996" lon="5.23935">
        <ele>930.46</ele>
        <time>2014-05-01T13:04:50Z</time>
      </trkpt>
      <trkpt lat="44.64978" lon="5.23929">
        <ele>931.87</ele>
        <time>2014-05-01T13:05:10Z</time>
      </trkpt>
      <trkpt lat="44.64965" lon="5.2391">
        <ele>933.6</ele>
        <time>2014-05-01T13:05:27Z</time>
      </trkpt>
      <trkpt lat="44.64948" lon="5.23898">
        <ele>936.38</ele>
        <time>2014-05-01T13:05:50Z</time>
      </trkpt>
      <trkpt lat="44.6493" lon="5.23893">
        <ele>938.12</ele>
        <time>2014-05-01T13:06:07Z</time>
      </trkpt>
      <trkpt lat="44.64914" lon="5.23905">
        <ele>943.82</ele>
        <time>2014-05-01T13:06:57Z</time>
      </trkpt>
      <trkpt lat="44.64895" lon="5.23899">
        <ele>945.43</ele>
        <time>2014-05-01T13:07:25Z</time>
      </trkpt>
      <trkpt lat="44.6488" lon="5.23913">
        <ele>944.34</ele>
        <time>2014-05-01T13:07:39Z</time>
      </trkpt>
      <trkpt lat="44.64862" lon="5.23922">
        <ele>945.07</ele>
        <time>2014-05-01T13:07:58Z</time>
      </trkpt>
      <trkpt lat="44.64846" lon="5.23933">
        <ele>945.18</ele>
        <time>2014-05-01T13:08:22Z</time>
      </trkpt>
      <trkpt lat="44.64828" lon="5.23936">
        <ele>946</ele>
        <time>2014-05-01T13:08:45Z</time>
      </trkpt>
      <trkpt lat="44.64809" lon="5.23936">
        <ele>950.88</ele>
        <time>2014-05-01T13:09:14Z</time>
      </trkpt>
      <trkpt lat="44.64791" lon="5.23943">
        <ele>954.12</ele>
        <time>2014-05-01T13:09:29Z</time>
      </trkpt>
      <trkpt lat="44.64809" lon="5.23939">
        <ele>965.66</ele>
        <time>2014-05-01T13:10:19Z</time>
      </trkpt>
      <trkpt lat="44.64824" lon="5.23952">
        <ele>968.07</ele>
        <time>2014-05-01T13:10:34Z</time>
      </trkpt>
      <trkpt lat="44.64843" lon="5.23953">
        <ele>971.55</ele>
        <time>2014-05-01T13:10:50Z</time>
      </trkpt>
      <trkpt lat="44.64861" lon="5.23961">
        <ele>974.59</ele>
        <time>2014-05-01T13:11:09Z</time>
      </trkpt>
      <trkpt lat="44.64878" lon="5.23968">
        <ele>977.71</ele>
        <time>2014-05-01T13:11:27Z</time>
      </trkpt>
      <trkpt lat="44.64896" lon="5.23975">
        <ele>980.72</ele>
        <time>2014-05-01T13:11:48Z</time>
      </trkpt>
      <trkpt lat="44.64909" lon="5.23995">
        <ele>982.11</ele>
        <time>2014-05-01T13:12:13Z</time>
      </trkpt>
      <trkpt lat="44.64916" lon="5.24019">
        <ele>982.33</ele>
        <time>2014-05-01T13:12:34Z</time>
      </trkpt>
      <trkpt lat="44.64924" lon="5.24042">
        <ele>984.59</ele>
        <time>2014-05-01T13:12:52Z</time>
      </trkpt>
      <trkpt lat="44.64904" lon="5.2404">
        <ele>989.8</ele>
        <time>2014-05-01T13:13:42Z</time>
      </trkpt>
      <trkpt lat="44.64889" lon="5.24055">
        <ele>997.93</ele>
        <time>2014-05-01T13:16:35Z</time>
      </trkpt>
      <trkpt lat="44.64877" lon="5.24076">
        <ele>998.52</ele>
        <time>2014-05-01T13:16:51Z</time>
      </trkpt>
      <trkpt lat="44.64864" lon="5.24094">
        <ele>998.07</ele>
        <time>2014-05-01T13:17:09Z</time>
      </trkpt>
      <trkpt lat="44.64853" lon="5.24114">
        <ele>997.51</ele>
        <time>2014-05-01T13:17:26Z</time>
      </trkpt>
      <trkpt lat="44.64841" lon="5.24134">
        <ele>996.56</ele>
        <time>2014-05-01T13:17:43Z</time>
      </trkpt>
      <trkpt lat="44.64825" lon="5.24151">
        <ele>992.63</ele>
        <time>2014-05-01T13:18:01Z</time>
      </trkpt>
      <trkpt lat="44.64808" lon="5.24163">
        <ele>991.28</ele>
        <time>2014-05-01T13:18:14Z</time>
      </trkpt>
      <trkpt lat="44.64791" lon="5.24181">
        <ele>991.94</ele>
        <time>2014-05-01T13:18:27Z</time>
      </trkpt>
      <trkpt lat="44.64776" lon="5.24195">
        <ele>994.25</ele>
        <time>2014-05-01T13:18:44Z</time>
      </trkpt>
      <trkpt lat="44.64758" lon="5.242">
        <ele>995.07</ele>
        <time>2014-05-01T13:18:56Z</time>
      </trkpt>
      <trkpt lat="44.64743" lon="5.24216">
        <ele>997.33</ele>
        <time>2014-05-01T13:19:11Z</time>
      </trkpt>
      <trkpt lat="44.64729" lon="5.24232">
        <ele>998.41</ele>
        <time>2014-05-01T13:19:27Z</time>
      </trkpt>
      <trkpt lat="44.64718" lon="5.24253">
        <ele>998.54</ele>
        <time>2014-05-01T13:19:42Z</time>
      </trkpt>
      <trkpt lat="44.64705" lon="5.24271">
        <ele>999.87</ele>
        <time>2014-05-01T13:19:59Z</time>
      </trkpt>
      <trkpt lat="44.64689" lon="5.24285">
        <ele>1000.04</ele>
        <time>2014-05-01T13:20:18Z</time>
      </trkpt>
      <trkpt lat="44.64672" lon="5.24296">
        <ele>999.41</ele>
        <time>2014-05-01T13:20:31Z</time>
      </trkpt>
      <trkpt lat="44.64653" lon="5.24299">
        <ele>997.28</ele>
        <time>2014-05-01T13:20:46Z</time>
      </trkpt>
      <trkpt lat="44.64636" lon="5.24312">
        <ele>996.38</ele>
        <time>2014-05-01T13:21:01Z</time>
      </trkpt>
      <trkpt lat="44.64619" lon="5.24323">
        <ele>998.18</ele>
        <time>2014-05-01T13:21:17Z</time>
      </trkpt>
      <trkpt lat="44.646" lon="5.24322">
        <ele>1000.02</ele>
        <time>2014-05-01T13:21:31Z</time>
      </trkpt>
      <trkpt lat="44.64582" lon="5.2433">
        <ele>1000.06</ele>
        <time>2014-05-01T13:22:00Z</time>
      </trkpt>
      <trkpt lat="44.64564" lon="5.24331">
        <ele>1000.19</ele>
        <time>2014-05-01T13:22:17Z</time>
      </trkpt>
      <trkpt lat="44.64545" lon="5.24339">
        <ele>1003.34</ele>
        <time>2014-05-01T13:22:33Z</time>
      </trkpt>
      <trkpt lat="44.64529" lon="5.24351">
        <ele>1004.59</ele>
        <time>2014-05-01T13:22:39Z</time>
      </trkpt>
      <trkpt lat="44.64513" lon="5.24366">
        <ele>1006.43</ele>
        <time>2014-05-01T13:23:00Z</time>
      </trkpt>
      <trkpt lat="44.64494" lon="5.24373">
        <ele>1007.56</ele>
        <time>2014-05-01T13:23:12Z</time>
      </trkpt>
      <trkpt lat="44.64478" lon="5.24386">
        <ele>1008.15</ele>
        <time>2014-05-01T13:23:28Z</time>
      </trkpt>
      <trkpt lat="44.64461" lon="5.24398">
        <ele>1008.5</ele>
        <time>2014-05-01T13:23:40Z</time>
      </trkpt>
      <trkpt lat="44.64446" lon="5.24413">
        <ele>1009.74</ele>
        <time>2014-05-01T13:23:57Z</time>
      </trkpt>
      <trkpt lat="44.64431" lon="5.2443">
        <ele>1009.99</ele>
        <time>2014-05-01T13:24:12Z</time>
      </trkpt>
      <trkpt lat="44.64417" lon="5.24446">
        <ele>1010.65</ele>
        <time>2014-05-01T13:24:30Z</time>
      </trkpt>
      <trkpt lat="44.644" lon="5.24455">
        <ele>1010.19</ele>
        <time>2014-05-01T13:24:47Z</time>
      </trkpt>
      <trkpt lat="44.64383" lon="5.24465">
        <ele>1010.03</ele>
        <time>2014-05-01T13:25:09Z</time>
      </trkpt>
      <trkpt lat="44.64364" lon="5.24462">
        <ele>1011.5</ele>
        <time>2014-05-01T13:25:22Z</time>
      </trkpt>
      <trkpt lat="44.64347" lon="5.24453">
        <ele>1012.9</ele>
        <time>2014-05-01T13:25:35Z</time>
      </trkpt>
      <trkpt lat="44.6433" lon="5.2444">
        <ele>1014.66</ele>
        <time>2014-05-01T13:25:55Z</time>
      </trkpt>
      <trkpt lat="44.64312" lon="5.24441">
        <ele>1015.76</ele>
        <time>2014-05-01T13:26:09Z</time>
      </trkpt>
      <trkpt lat="44.64294" lon="5.24445">
        <ele>1015.84</ele>
        <time>2014-05-01T13:26:28Z</time>
      </trkpt>
      <trkpt lat="44.64278" lon="5.24457">
        <ele>1016.93</ele>
        <time>2014-05-01T13:26:48Z</time>
      </trkpt>
      <trkpt lat="44.64262" lon="5.24472">
        <ele>1019.35</ele>
        <time>2014-05-01T13:27:09Z</time>
      </trkpt>
      <trkpt lat="44.64244" lon="5.24474">
        <ele>1021.35</ele>
        <time>2014-05-01T13:27:31Z</time>
      </trkpt>
      <trkpt lat="44.64226" lon="5.24477">
        <ele>1023.39</ele>
        <time>2014-05-01T13:27:52Z</time>
      </trkpt>
      <trkpt lat="44.64208" lon="5.24476">
        <ele>1025.21</ele>
        <time>2014-05-01T13:28:04Z</time>
      </trkpt>
      <trkpt lat="44.64193" lon="5.24491">
        <ele>1025.02</ele>
        <time>2014-05-01T13:28:24Z</time>
      </trkpt>
      <trkpt lat="44.64173" lon="5.24494">
        <ele>1026.02</ele>
        <time>2014-05-01T13:28:42Z</time>
      </trkpt>
      <trkpt lat="44.64156" lon="5.24505">
        <ele>1027.66</ele>
        <time>2014-05-01T13:28:56Z</time>
      </trkpt>
      <trkpt lat="44.64137" lon="5.24507">
        <ele>1028.39</ele>
        <time>2014-05-01T13:29:18Z</time>
      </trkpt>
      <trkpt lat="44.64119" lon="5.2451">
        <ele>1030.49</ele>
        <time>2014-05-01T13:29:30Z</time>
      </trkpt>
      <trkpt lat="44.641" lon="5.24506">
        <ele>1032.01</ele>
        <time>2014-05-01T13:29:37Z</time>
      </trkpt>
      <trkpt lat="44.64084" lon="5.24495">
        <ele>1033.69</ele>
        <time>2014-05-01T13:30:00Z</time>
      </trkpt>
      <trkpt lat="44.64067" lon="5.24482">
        <ele>1034.61</ele>
        <time>2014-05-01T13:30:18Z</time>
      </trkpt>
      <trkpt lat="44.64051" lon="5.24471">
        <ele>1035.44</ele>
        <time>2014-05-01T13:30:31Z</time>
      </trkpt>
      <trkpt lat="44.64034" lon="5.24462">
        <ele>1038.1</ele>
        <time>2014-05-01T13:32:03Z</time>
      </trkpt>
      <trkpt lat="44.64021" lon="5.24442">
        <ele>1042.74</ele>
        <time>2014-05-01T13:32:22Z</time>
      </trkpt>
      <trkpt lat="44.64008" lon="5.24424">
        <ele>1041.71</ele>
        <time>2014-05-01T13:33:22Z</time>
      </trkpt>
      <trkpt lat="44.63994" lon="5.24407">
        <ele>1042.87</ele>
        <time>2014-05-01T13:35:43Z</time>
      </trkpt>
      <trkpt lat="44.63979" lon="5.24392">
        <ele>1045.1</ele>
        <time>2014-05-01T13:36:07Z</time>
      </trkpt>
      <trkpt lat="44.63963" lon="5.24378">
        <ele>1045.9</ele>
        <time>2014-05-01T13:36:20Z</time>
      </trkpt>
      <trkpt lat="44.63945" lon="5.24372">
        <ele>1045.79</ele>
        <time>2014-05-01T13:36:34Z</time>
      </trkpt>
      <trkpt lat="44.63928" lon="5.24363">
        <ele>1045.5</ele>
        <time>2014-05-01T13:36:49Z</time>
      </trkpt>
      <trkpt lat="44.6391" lon="5.2436">
        <ele>1044.53</ele>
        <time>2014-05-01T13:37:06Z</time>
      </trkpt>
      <trkpt lat="44.63891" lon="5.24359">
        <ele>1041.55</ele>
        <time>2014-05-01T13:37:21Z</time>
      </trkpt>
      <trkpt lat="44.63875" lon="5.24346">
        <ele>1038.67</ele>
        <time>2014-05-01T13:37:41Z</time>
      </trkpt>
      <trkpt lat="44.63857" lon="5.24344">
        <ele>1036.95</ele>
        <time>2014-05-01T13:37:59Z</time>
      </trkpt>
      <trkpt lat="44.63839" lon="5.2434">
        <ele>1034.95</ele>
        <time>2014-05-01T13:38:14Z</time>
      </trkpt>
      <trkpt lat="44.63821" lon="5.24332">
        <ele>1034.37</ele>
        <time>2014-05-01T13:38:24Z</time>
      </trkpt>
      <trkpt lat="44.63803" lon="5.24315">
        <ele>1033.64</ele>
        <time>2014-05-01T13:38:31Z</time>
      </trkpt>
      <trkpt lat="44.63786" lon="5.24304">
        <ele>1031.04</ele>
        <time>2014-05-01T13:38:41Z</time>
      </trkpt>
      <trkpt lat="44.63773" lon="5.24286">
        <ele>1026.77</ele>
        <time>2014-05-01T13:39:00Z</time>
      </trkpt>
      <trkpt lat="44.63761" lon="5.24265">
        <ele>1024.62</ele>
        <time>2014-05-01T13:39:13Z</time>
      </trkpt>
      <trkpt lat="44.63746" lon="5.24249">
        <ele>1022.8</ele>
        <time>2014-05-01T13:39:25Z</time>
      </trkpt>
      <trkpt lat="44.63736" lon="5.24226">
        <ele>1021.62</ele>
        <time>2014-05-01T13:39:38Z</time>
      </trkpt>
      <trkpt lat="44.63724" lon="5.24207">
        <ele>1020.81</ele>
        <time>2014-05-01T13:39:47Z</time>
      </trkpt>
      <trkpt lat="44.63708" lon="5.24194">
        <ele>1018.27</ele>
        <time>2014-05-01T13:40:02Z</time>
      </trkpt>
      <trkpt lat="44.63689" lon="5.24193">
        <ele>1015.48</ele>
        <time>2014-05-01T13:40:14Z</time>
      </trkpt>
      <trkpt lat="44.63671" lon="5.24188">
        <ele>1011.34</ele>
        <time>2014-05-01T13:40:33Z</time>
      </trkpt>
      <trkpt lat="44.63671" lon="5.24163">
        <ele>1009.19</ele>
        <time>2014-05-01T13:41:30Z</time>
      </trkpt>
      <trkpt lat="44.63671" lon="5.24137">
        <ele>1002.84</ele>
        <time>2014-05-01T13:45:07Z</time>
      </trkpt>
      <trkpt lat="44.63675" lon="5.24111">
        <ele>1001.29</ele>
        <time>2014-05-01T13:45:25Z</time>
      </trkpt>
      <trkpt lat="44.63687" lon="5.2409">
        <ele>999.73</ele>
        <time>2014-05-01T13:45:41Z</time>
      </trkpt>
      <trkpt lat="44.63698" lon="5.24068">
        <ele>999.14</ele>
        <time>2014-05-01T13:45:58Z</time>
      </trkpt>
      <trkpt lat="44.63711" lon="5.2405">
        <ele>998.34</ele>
        <time>2014-05-01T13:46:14Z</time>
      </trkpt>
      <trkpt lat="44.63729" lon="5.24044">
        <ele>997.8</ele>
        <time>2014-05-01T13:46:29Z</time>
      </trkpt>
      <trkpt lat="44.63748" lon="5.2404">
        <ele>997.65</ele>
        <time>2014-05-01T13:46:46Z</time>
      </trkpt>
      <trkpt lat="44.63763" lon="5.24025">
        <ele>999.28</ele>
        <time>2014-05-01T13:47:00Z</time>
      </trkpt>
      <trkpt lat="44.63774" lon="5.24005">
        <ele>1000.88</ele>
        <time>2014-05-01T13:47:18Z</time>
      </trkpt>
      <trkpt lat="44.63786" lon="5.23983">
        <ele>1000.75</ele>
        <time>2014-05-01T13:47:36Z</time>
      </trkpt>
      <trkpt lat="44.63793" lon="5.23959">
        <ele>999.6</ele>
        <time>2014-05-01T13:47:52Z</time>
      </trkpt>
      <trkpt lat="44.63806" lon="5.2394">
        <ele>999.88</ele>
        <time>2014-05-01T13:48:17Z</time>
      </trkpt>
      <trkpt lat="44.63816" lon="5.23919">
        <ele>1000.84</ele>
        <time>2014-05-01T13:48:33Z</time>
      </trkpt>
      <trkpt lat="44.63825" lon="5.23894">
        <ele>1000.84</ele>
        <time>2014-05-01T13:48:46Z</time>
      </trkpt>
      <trkpt lat="44.6384" lon="5.23878">
        <ele>999.76</ele>
        <time>2014-05-01T13:49:02Z</time>
      </trkpt>
      <trkpt lat="44.63856" lon="5.23866">
        <ele>1000.65</ele>
        <time>2014-05-01T13:49:15Z</time>
      </trkpt>
      <trkpt lat="44.6387" lon="5.23847">
        <ele>1003.64</ele>
        <time>2014-05-01T13:49:31Z</time>
      </trkpt>
      <trkpt lat="44.63886" lon="5.23834">
        <ele>1005.36</ele>
        <time>2014-05-01T13:49:42Z</time>
      </trkpt>
      <trkpt lat="44.63902" lon="5.23822">
        <ele>1005.82</ele>
        <time>2014-05-01T13:49:55Z</time>
      </trkpt>
      <trkpt lat="44.6391" lon="5.23798">
        <ele>1005.59</ele>
        <time>2014-05-01T13:50:15Z</time>
      </trkpt>
      <trkpt lat="44.639" lon="5.23776">
        <ele>1005.86</ele>
        <time>2014-05-01T13:50:30Z</time>
      </trkpt>
      <trkpt lat="44.6389" lon="5.23753">
        <ele>1005</ele>
        <time>2014-05-01T13:50:44Z</time>
      </trkpt>
      <trkpt lat="44.63888" lon="5.23726">
        <ele>1004.77</ele>
        <time>2014-05-01T13:50:59Z</time>
      </trkpt>
      <trkpt lat="44.63886" lon="5.23701">
        <ele>1003.38</ele>
        <time>2014-05-01T13:51:12Z</time>
      </trkpt>
      <trkpt lat="44.63881" lon="5.23676">
        <ele>1001.12</ele>
        <time>2014-05-01T13:51:28Z</time>
      </trkpt>
      <trkpt lat="44.63878" lon="5.2365">
        <ele>998.76</ele>
        <time>2014-05-01T13:51:42Z</time>
      </trkpt>
      <trkpt lat="44.63874" lon="5.23625">
        <ele>997.97</ele>
        <time>2014-05-01T13:51:55Z</time>
      </trkpt>
      <trkpt lat="44.63882" lon="5.23602">
        <ele>997.83</ele>
        <time>2014-05-01T13:52:12Z</time>
      </trkpt>
      <trkpt lat="44.63896" lon="5.23585">
        <ele>996.99</ele>
        <time>2014-05-01T13:52:22Z</time>
      </trkpt>
      <trkpt lat="44.63912" lon="5.23569">
        <ele>994.29</ele>
        <time>2014-05-01T13:52:37Z</time>
      </trkpt>
      <trkpt lat="44.63929" lon="5.23559">
        <ele>991.11</ele>
        <time>2014-05-01T13:53:01Z</time>
      </trkpt>
      <trkpt lat="44.63943" lon="5.23542">
        <ele>989.61</ele>
        <time>2014-05-01T13:53:13Z</time>
      </trkpt>
      <trkpt lat="44.6396" lon="5.2353">
        <ele>988.49</ele>
        <time>2014-05-01T13:53:25Z</time>
      </trkpt>
      <trkpt lat="44.63972" lon="5.23511">
        <ele>987.49</ele>
        <time>2014-05-01T13:53:38Z</time>
      </trkpt>
      <trkpt lat="44.63987" lon="5.23496">
        <ele>985.74</ele>
        <time>2014-05-01T13:53:50Z</time>
      </trkpt>
      <trkpt lat="44.64004" lon="5.23489">
        <ele>984.11</ele>
        <time>2014-05-01T13:54:01Z</time>
      </trkpt>
      <trkpt lat="44.6402" lon="5.23476">
        <ele>981.84</ele>
        <time>2014-05-01T13:54:19Z</time>
      </trkpt>
      <trkpt lat="44.64018" lon="5.2345">
        <ele>981.11</ele>
        <time>2014-05-01T13:54:31Z</time>
      </trkpt>
      <trkpt lat="44.64008" lon="5.23427">
        <ele>980</ele>
        <time>2014-05-01T13:54:47Z</time>
      </trkpt>
      <trkpt lat="44.64003" lon="5.23402">
        <ele>978.26</ele>
        <time>2014-05-01T13:55:00Z</time>
      </trkpt>
      <trkpt lat="44.63992" lon="5.2338">
        <ele>977.43</ele>
        <time>2014-05-01T13:55:15Z</time>
      </trkpt>
      <trkpt lat="44.63983" lon="5.23357">
        <ele>976.36</ele>
        <time>2014-05-01T13:55:31Z</time>
      </trkpt>
      <trkpt lat="44.6397" lon="5.23338">
        <ele>974.56</ele>
        <time>2014-05-01T13:55:44Z</time>
      </trkpt>
      <trkpt lat="44.63957" lon="5.23319">
        <ele>971.07</ele>
        <time>2014-05-01T13:56:00Z</time>
      </trkpt>
      <trkpt lat="44.63958" lon="5.23293">
        <ele>967.59</ele>
        <time>2014-05-01T13:56:17Z</time>
      </trkpt>
      <trkpt lat="44.63964" lon="5.23269">
        <ele>963.27</ele>
        <time>2014-05-01T13:56:33Z</time>
      </trkpt>
      <trkpt lat="44.63975" lon="5.23247">
        <ele>960.26</ele>
        <time>2014-05-01T13:56:48Z</time>
      </trkpt>
      <trkpt lat="44.63985" lon="5.23225">
        <ele>958.44</ele>
        <time>2014-05-01T13:56:59Z</time>
      </trkpt>
      <trkpt lat="44.63996" lon="5.23205">
        <ele>957.89</ele>
        <time>2014-05-01T13:57:13Z</time>
      </trkpt>
      <trkpt lat="44.64009" lon="5.23184">
        <ele>956.36</ele>
        <time>2014-05-01T13:57:28Z</time>
      </trkpt>
      <trkpt lat="44.64022" lon="5.23165">
        <ele>956.57</ele>
        <time>2014-05-01T13:57:44Z</time>
      </trkpt>
      <trkpt lat="44.6403" lon="5.23142">
        <ele>956.08</ele>
        <time>2014-05-01T13:57:55Z</time>
      </trkpt>
      <trkpt lat="44.64045" lon="5.23124">
        <ele>955.78</ele>
        <time>2014-05-01T13:58:11Z</time>
      </trkpt>
      <trkpt lat="44.64058" lon="5.23107">
        <ele>955.73</ele>
        <time>2014-05-01T13:58:24Z</time>
      </trkpt>
      <trkpt lat="44.64053" lon="5.23081">
        <ele>955.76</ele>
        <time>2014-05-01T13:58:40Z</time>
      </trkpt>
      <trkpt lat="44.64036" lon="5.23072">
        <ele>954.93</ele>
        <time>2014-05-01T13:58:58Z</time>
      </trkpt>
      <trkpt lat="44.64018" lon="5.23068">
        <ele>952.4</ele>
        <time>2014-05-01T13:59:17Z</time>
      </trkpt>
      <trkpt lat="44.63999" lon="5.23066">
        <ele>952.44</ele>
        <time>2014-05-01T13:59:29Z</time>
      </trkpt>
      <trkpt lat="44.63981" lon="5.23062">
        <ele>952.49</ele>
        <time>2014-05-01T13:59:41Z</time>
      </trkpt>
      <trkpt lat="44.63965" lon="5.23048">
        <ele>952.88</ele>
        <time>2014-05-01T13:59:59Z</time>
      </trkpt>
      <trkpt lat="44.63949" lon="5.23035">
        <ele>953.26</ele>
        <time>2014-05-01T14:00:10Z</time>
      </trkpt>
      <trkpt lat="44.63936" lon="5.23015">
        <ele>953.63</ele>
        <time>2014-05-01T14:00:22Z</time>
      </trkpt>
      <trkpt lat="44.63925" lon="5.22994">
        <ele>954.03</ele>
        <time>2014-05-01T14:00:39Z</time>
      </trkpt>
      <trkpt lat="44.6391" lon="5.22978">
        <ele>954.11</ele>
        <time>2014-05-01T14:00:59Z</time>
      </trkpt>
      <trkpt lat="44.63898" lon="5.22958">
        <ele>953.63</ele>
        <time>2014-05-01T14:01:16Z</time>
      </trkpt>
      <trkpt lat="44.63888" lon="5.22935">
        <ele>956.65</ele>
        <time>2014-05-01T14:01:29Z</time>
      </trkpt>
      <trkpt lat="44.63879" lon="5.22908">
        <ele>957.8</ele>
        <time>2014-05-01T14:01:37Z</time>
      </trkpt>
      <trkpt lat="44.63877" lon="5.22881">
        <ele>957.84</ele>
        <time>2014-05-01T14:01:49Z</time>
      </trkpt>
      <trkpt lat="44.63878" lon="5.22855">
        <ele>956.85</ele>
        <time>2014-05-01T14:02:10Z</time>
      </trkpt>
      <trkpt lat="44.63878" lon="5.22829">
        <ele>956.07</ele>
        <time>2014-05-01T14:02:24Z</time>
      </trkpt>
      <trkpt lat="44.63882" lon="5.22804">
        <ele>954.67</ele>
        <time>2014-05-01T14:02:40Z</time>
      </trkpt>
      <trkpt lat="44.63887" lon="5.22778">
        <ele>953.15</ele>
        <time>2014-05-01T14:02:55Z</time>
      </trkpt>
      <trkpt lat="44.63893" lon="5.22753">
        <ele>951.81</ele>
        <time>2014-05-01T14:03:11Z</time>
      </trkpt>
      <trkpt lat="44.63891" lon="5.22728">
        <ele>952.26</ele>
        <time>2014-05-01T14:03:26Z</time>
      </trkpt>
      <trkpt lat="44.63892" lon="5.22702">
        <ele>953.86</ele>
        <time>2014-05-01T14:03:41Z</time>
      </trkpt>
      <trkpt lat="44.63893" lon="5.22677">
        <ele>954.25</ele>
        <time>2014-05-01T14:03:55Z</time>
      </trkpt>
      <trkpt lat="44.63892" lon="5.2265">
        <ele>953.42</ele>
        <time>2014-05-01T14:04:12Z</time>
      </trkpt>
      <trkpt lat="44.63902" lon="5.22627">
        <ele>951.52</ele>
        <time>2014-05-01T14:04:27Z</time>
      </trkpt>
      <trkpt lat="44.63911" lon="5.22604">
        <ele>950.04</ele>
        <time>2014-05-01T14:04:42Z</time>
      </trkpt>
      <trkpt lat="44.63915" lon="5.22578">
        <ele>950.49</ele>
        <time>2014-05-01T14:04:55Z</time>
      </trkpt>
      <trkpt lat="44.63901" lon="5.22559">
        <ele>951.1</ele>
        <time>2014-05-01T14:05:12Z</time>
      </trkpt>
      <trkpt lat="44.63883" lon="5.22551">
        <ele>950.83</ele>
        <time>2014-05-01T14:05:28Z</time>
      </trkpt>
      <trkpt lat="44.63864" lon="5.22549">
        <ele>947.33</ele>
        <time>2014-05-01T14:05:52Z</time>
      </trkpt>
      <trkpt lat="44.63851" lon="5.22531">
        <ele>948.64</ele>
        <time>2014-05-01T14:06:06Z</time>
      </trkpt>
      <trkpt lat="44.63837" lon="5.22511">
        <ele>948.88</ele>
        <time>2014-05-01T14:06:19Z</time>
      </trkpt>
      <trkpt lat="44.63822" lon="5.22494">
        <ele>948.33</ele>
        <time>2014-05-01T14:06:30Z</time>
      </trkpt>
      <trkpt lat="44.63807" lon="5.22479">
        <ele>948.34</ele>
        <time>2014-05-01T14:06:40Z</time>
      </trkpt>
      <trkpt lat="44.63797" lon="5.22457">
        <ele>949.06</ele>
        <time>2014-05-01T14:06:53Z</time>
      </trkpt>
      <trkpt lat="44.63794" lon="5.22431">
        <ele>949.38</ele>
        <time>2014-05-01T14:07:07Z</time>
      </trkpt>
      <trkpt lat="44.6378" lon="5.22414">
        <ele>950.52</ele>
        <time>2014-05-01T14:07:25Z</time>
      </trkpt>
      <trkpt lat="44.63764" lon="5.22402">
        <ele>951.43</ele>
        <time>2014-05-01T14:07:39Z</time>
      </trkpt>
      <trkpt lat="44.63746" lon="5.22397">
        <ele>952.38</ele>
        <time>2014-05-01T14:07:52Z</time>
      </trkpt>
      <trkpt lat="44.6373" lon="5.22383">
        <ele>952.94</ele>
        <time>2014-05-01T14:08:05Z</time>
      </trkpt>
      <trkpt lat="44.63712" lon="5.22381">
        <ele>953.17</ele>
        <time>2014-05-01T14:08:20Z</time>
      </trkpt>
      <trkpt lat="44.63697" lon="5.22367">
        <ele>953.27</ele>
        <time>2014-05-01T14:08:34Z</time>
      </trkpt>
      <trkpt lat="44.63683" lon="5.22348">
        <ele>953.04</ele>
        <time>2014-05-01T14:08:49Z</time>
      </trkpt>
      <trkpt lat="44.63681" lon="5.22323">
        <ele>952.01</ele>
        <time>2014-05-01T14:09:05Z</time>
      </trkpt>
      <trkpt lat="44.63676" lon="5.22298">
        <ele>951.19</ele>
        <time>2014-05-01T14:09:20Z</time>
      </trkpt>
      <trkpt lat="44.63667" lon="5.22274">
        <ele>951.03</ele>
        <time>2014-05-01T14:09:34Z</time>
      </trkpt>
      <trkpt lat="44.63656" lon="5.22252">
        <ele>951.21</ele>
        <time>2014-05-01T14:09:49Z</time>
      </trkpt>
      <trkpt lat="44.63642" lon="5.22235">
        <ele>951.63</ele>
        <time>2014-05-01T14:10:05Z</time>
      </trkpt>
      <trkpt lat="44.63627" lon="5.2222">
        <ele>952.32</ele>
        <time>2014-05-01T14:10:22Z</time>
      </trkpt>
      <trkpt lat="44.63609" lon="5.22215">
        <ele>952.28</ele>
        <time>2014-05-01T14:10:35Z</time>
      </trkpt>
      <trkpt lat="44.63598" lon="5.22194">
        <ele>952.21</ele>
        <time>2014-05-01T14:10:51Z</time>
      </trkpt>
      <trkpt lat="44.63587" lon="5.22172">
        <ele>952.67</ele>
        <time>2014-05-01T14:11:06Z</time>
      </trkpt>
      <trkpt lat="44.63576" lon="5.2215">
        <ele>953.24</ele>
        <time>2014-05-01T14:11:21Z</time>
      </trkpt>
      <trkpt lat="44.6356" lon="5.22139">
        <ele>952.93</ele>
        <time>2014-05-01T14:11:34Z</time>
      </trkpt>
      <trkpt lat="44.63544" lon="5.22123">
        <ele>951.03</ele>
        <time>2014-05-01T14:11:50Z</time>
      </trkpt>
      <trkpt lat="44.6353" lon="5.22105">
        <ele>949.58</ele>
        <time>2014-05-01T14:12:02Z</time>
      </trkpt>
      <trkpt lat="44.63516" lon="5.22087">
        <ele>949.19</ele>
        <time>2014-05-01T14:12:14Z</time>
      </trkpt>
      <trkpt lat="44.635" lon="5.22074">
        <ele>948.24</ele>
        <time>2014-05-01T14:12:27Z</time>
      </trkpt>
      <trkpt lat="44.63487" lon="5.22056">
        <ele>947.09</ele>
        <time>2014-05-01T14:12:42Z</time>
      </trkpt>
      <trkpt lat="44.63476" lon="5.22036">
        <ele>944.67</ele>
        <time>2014-05-01T14:12:57Z</time>
      </trkpt>
      <trkpt lat="44.63459" lon="5.22022">
        <ele>943.64</ele>
        <time>2014-05-01T14:13:12Z</time>
      </trkpt>
      <trkpt lat="44.63447" lon="5.22004">
        <ele>941.91</ele>
        <time>2014-05-01T14:13:23Z</time>
      </trkpt>
      <trkpt lat="44.63433" lon="5.21987">
        <ele>939.7</ele>
        <time>2014-05-01T14:13:36Z</time>
      </trkpt>
      <trkpt lat="44.63413" lon="5.21981">
        <ele>937.31</ele>
        <time>2014-05-01T14:13:50Z</time>
      </trkpt>
      <trkpt lat="44.63396" lon="5.21972">
        <ele>935.81</ele>
        <time>2014-05-01T14:14:06Z</time>
      </trkpt>
      <trkpt lat="44.6338" lon="5.21958">
        <ele>936.71</ele>
        <time>2014-05-01T14:14:20Z</time>
      </trkpt>
      <trkpt lat="44.63366" lon="5.21941">
        <ele>937.9</ele>
        <time>2014-05-01T14:14:34Z</time>
      </trkpt>
      <trkpt lat="44.63356" lon="5.21919">
        <ele>935.83</ele>
        <time>2014-05-01T14:14:46Z</time>
      </trkpt>
      <trkpt lat="44.63349" lon="5.21896">
        <ele>931.95</ele>
        <time>2014-05-01T14:15:03Z</time>
      </trkpt>
      <trkpt lat="44.63346" lon="5.2187">
        <ele>931.64</ele>
        <time>2014-05-01T14:15:16Z</time>
      </trkpt>
      <trkpt lat="44.63347" lon="5.21844">
        <ele>930.95</ele>
        <time>2014-05-01T14:15:25Z</time>
      </trkpt>
      <trkpt lat="44.63331" lon="5.21833">
        <ele>926.36</ele>
        <time>2014-05-01T14:15:48Z</time>
      </trkpt>
      <trkpt lat="44.63312" lon="5.21834">
        <ele>923.21</ele>
        <time>2014-05-01T14:16:02Z</time>
      </trkpt>
      <trkpt lat="44.63294" lon="5.21836">
        <ele>919.79</ele>
        <time>2014-05-01T14:16:53Z</time>
      </trkpt>
      <trkpt lat="44.63277" lon="5.21828">
        <ele>918.26</ele>
        <time>2014-05-01T14:17:24Z</time>
      </trkpt>
      <trkpt lat="44.63257" lon="5.21827">
        <ele>916.78</ele>
        <time>2014-05-01T14:17:38Z</time>
      </trkpt>
      <trkpt lat="44.63239" lon="5.21831">
        <ele>915.04</ele>
        <time>2014-05-01T14:17:55Z</time>
      </trkpt>
      <trkpt lat="44.63221" lon="5.21839">
        <ele>911.97</ele>
        <time>2014-05-01T14:18:13Z</time>
      </trkpt>
      <trkpt lat="44.63226" lon="5.21814">
        <ele>907.6</ele>
        <time>2014-05-01T14:18:39Z</time>
      </trkpt>
      <trkpt lat="44.63234" lon="5.21791">
        <ele>906.03</ele>
        <time>2014-05-01T14:18:57Z</time>
      </trkpt>
      <trkpt lat="44.63242" lon="5.21766">
        <ele>905.58</ele>
        <time>2014-05-01T14:19:08Z</time>
      </trkpt>
      <trkpt lat="44.63252" lon="5.21744">
        <ele>904.76</ele>
        <time>2014-05-01T14:19:22Z</time>
      </trkpt>
      <trkpt lat="44.63264" lon="5.21725">
        <ele>902.9</ele>
        <time>2014-05-01T14:19:39Z</time>
      </trkpt>
      <trkpt lat="44.63282" lon="5.21718">
        <ele>902.49</ele>
        <time>2014-05-01T14:19:54Z</time>
      </trkpt>
      <trkpt lat="44.63277" lon="5.21692">
        <ele>897.4</ele>
        <time>2014-05-01T14:20:33Z</time>
      </trkpt>
      <trkpt lat="44.63262" lon="5.21677">
        <ele>896</ele>
        <time>2014-05-01T14:20:47Z</time>
      </trkpt>
      <trkpt lat="44.63264" lon="5.21652">
        <ele>894.88</ele>
        <time>2014-05-01T14:21:01Z</time>
      </trkpt>
      <trkpt lat="44.63282" lon="5.21647">
        <ele>894.19</ele>
        <time>2014-05-01T14:21:16Z</time>
      </trkpt>
      <trkpt lat="44.633" lon="5.21641">
        <ele>893.25</ele>
        <time>2014-05-01T14:21:32Z</time>
      </trkpt>
      <trkpt lat="44.63302" lon="5.21615">
        <ele>891.4</ele>
        <time>2014-05-01T14:21:48Z</time>
      </trkpt>
      <trkpt lat="44.63305" lon="5.2159">
        <ele>888.37</ele>
        <time>2014-05-01T14:22:05Z</time>
      </trkpt>
      <trkpt lat="44.63315" lon="5.21567">
        <ele>886.26</ele>
        <time>2014-05-01T14:22:21Z</time>
      </trkpt>
      <trkpt lat="44.63324" lon="5.21544">
        <ele>884.67</ele>
        <time>2014-05-01T14:22:33Z</time>
      </trkpt>
      <trkpt lat="44.63322" lon="5.21518">
        <ele>880.79</ele>
        <time>2014-05-01T14:24:26Z</time>
      </trkpt>
      <trkpt lat="44.63304" lon="5.21527">
        <ele>878.6</ele>
        <time>2014-05-01T14:25:19Z</time>
      </trkpt>
      <trkpt lat="44.63289" lon="5.21545">
        <ele>880.14</ele>
        <time>2014-05-01T14:25:42Z</time>
      </trkpt>
      <trkpt lat="44.63271" lon="5.21552">
        <ele>881.96</ele>
        <time>2014-05-01T14:26:00Z</time>
      </trkpt>
      <trkpt lat="44.63254" lon="5.2156">
        <ele>882.05</ele>
        <time>2014-05-01T14:26:21Z</time>
      </trkpt>
      <trkpt lat="44.63238" lon="5.21575">
        <ele>882.49</ele>
        <time>2014-05-01T14:26:44Z</time>
      </trkpt>
      <trkpt lat="44.6322" lon="5.21586">
        <ele>883.19</ele>
        <time>2014-05-01T14:27:01Z</time>
      </trkpt>
      <trkpt lat="44.63207" lon="5.21604">
        <ele>884.5</ele>
        <time>2014-05-01T14:27:16Z</time>
      </trkpt>
      <trkpt lat="44.6319" lon="5.21615">
        <ele>886.37</ele>
        <time>2014-05-01T14:27:44Z</time>
      </trkpt>
      <trkpt lat="44.63203" lon="5.21597">
        <ele>888.68</ele>
        <time>2014-05-01T14:30:36Z</time>
      </trkpt>
      <trkpt lat="44.6319" lon="5.2161">
        <ele>889.66</ele>
        <time>2014-05-01T14:33:26Z</time>
      </trkpt>
      <trkpt lat="44.63207" lon="5.216">
        <ele>887.67</ele>
        <time>2014-05-01T14:38:49Z</time>
      </trkpt>
      <trkpt lat="44.63224" lon="5.21589">
        <ele>887.83</ele>
        <time>2014-05-01T14:39:09Z</time>
      </trkpt>
      <trkpt lat="44.6324" lon="5.21578">
        <ele>885.31</ele>
        <time>2014-05-01T14:39:26Z</time>
      </trkpt>
      <trkpt lat="44.63256" lon="5.21563">
        <ele>884.21</ele>
        <time>2014-05-01T14:39:40Z</time>
      </trkpt>
      <trkpt lat="44.63272" lon="5.21549">
        <ele>882.52</ele>
        <time>2014-05-01T14:39:56Z</time>
      </trkpt>
      <trkpt lat="44.63291" lon="5.21542">
        <ele>880.28</ele>
        <time>2014-05-01T14:40:11Z</time>
      </trkpt>
      <trkpt lat="44.63306" lon="5.21529">
        <ele>880.6</ele>
        <time>2014-05-01T14:40:21Z</time>
      </trkpt>
      <trkpt lat="44.63321" lon="5.21512">
        <ele>879.63</ele>
        <time>2014-05-01T14:40:38Z</time>
      </trkpt>
      <trkpt lat="44.63339" lon="5.21504">
        <ele>878.96</ele>
        <time>2014-05-01T14:40:52Z</time>
      </trkpt>
      <trkpt lat="44.63356" lon="5.2149">
        <ele>878.08</ele>
        <time>2014-05-01T14:41:06Z</time>
      </trkpt>
      <trkpt lat="44.63373" lon="5.21498">
        <ele>878.43</ele>
        <time>2014-05-01T14:41:21Z</time>
      </trkpt>
      <trkpt lat="44.63392" lon="5.21492">
        <ele>879.19</ele>
        <time>2014-05-01T14:41:36Z</time>
      </trkpt>
      <trkpt lat="44.6341" lon="5.2149">
        <ele>879.31</ele>
        <time>2014-05-01T14:41:49Z</time>
      </trkpt>
      <trkpt lat="44.63429" lon="5.21489">
        <ele>877.11</ele>
        <time>2014-05-01T14:42:06Z</time>
      </trkpt>
      <trkpt lat="44.63446" lon="5.21482">
        <ele>876.06</ele>
        <time>2014-05-01T14:42:19Z</time>
      </trkpt>
      <trkpt lat="44.63464" lon="5.21473">
        <ele>875.7</ele>
        <time>2014-05-01T14:42:32Z</time>
      </trkpt>
      <trkpt lat="44.63482" lon="5.21469">
        <ele>874.6</ele>
        <time>2014-05-01T14:42:45Z</time>
      </trkpt>
      <trkpt lat="44.635" lon="5.21464">
        <ele>872.62</ele>
        <time>2014-05-01T14:42:59Z</time>
      </trkpt>
      <trkpt lat="44.63518" lon="5.21462">
        <ele>870.83</ele>
        <time>2014-05-01T14:43:14Z</time>
      </trkpt>
      <trkpt lat="44.63536" lon="5.21456">
        <ele>869.49</ele>
        <time>2014-05-01T14:43:32Z</time>
      </trkpt>
      <trkpt lat="44.63554" lon="5.21452">
        <ele>867.63</ele>
        <time>2014-05-01T14:43:49Z</time>
      </trkpt>
      <trkpt lat="44.63572" lon="5.21448">
        <ele>866.69</ele>
        <time>2014-05-01T14:44:01Z</time>
      </trkpt>
      <trkpt lat="44.63589" lon="5.21442">
        <ele>867.23</ele>
        <time>2014-05-01T14:44:21Z</time>
      </trkpt>
      <trkpt lat="44.63608" lon="5.2144">
        <ele>868.56</ele>
        <time>2014-05-01T14:45:12Z</time>
      </trkpt>
      <trkpt lat="44.63625" lon="5.21429">
        <ele>868.32</ele>
        <time>2014-05-01T14:45:24Z</time>
      </trkpt>
      <trkpt lat="44.63643" lon="5.2142">
        <ele>868.36</ele>
        <time>2014-05-01T14:45:39Z</time>
      </trkpt>
      <trkpt lat="44.63661" lon="5.21415">
        <ele>868.37</ele>
        <time>2014-05-01T14:45:55Z</time>
      </trkpt>
      <trkpt lat="44.63678" lon="5.21404">
        <ele>868.08</ele>
        <time>2014-05-01T14:46:10Z</time>
      </trkpt>
      <trkpt lat="44.63696" lon="5.21401">
        <ele>868.58</ele>
        <time>2014-05-01T14:46:24Z</time>
      </trkpt>
      <trkpt lat="44.63714" lon="5.21393">
        <ele>868.93</ele>
        <time>2014-05-01T14:46:37Z</time>
      </trkpt>
      <trkpt lat="44.6373" lon="5.21381">
        <ele>870.11</ele>
        <time>2014-05-01T14:46:51Z</time>
      </trkpt>
      <trkpt lat="44.63748" lon="5.21393">
        <ele>868.75</ele>
        <time>2014-05-01T14:47:11Z</time>
      </trkpt>
      <trkpt lat="44.63766" lon="5.21394">
        <ele>867.57</ele>
        <time>2014-05-01T14:47:26Z</time>
      </trkpt>
      <trkpt lat="44.63785" lon="5.21393">
        <ele>865.65</ele>
        <time>2014-05-01T14:47:41Z</time>
      </trkpt>
      <trkpt lat="44.63804" lon="5.21392">
        <ele>864.36</ele>
        <time>2014-05-01T14:47:56Z</time>
      </trkpt>
      <trkpt lat="44.63822" lon="5.21395">
        <ele>864.29</ele>
        <time>2014-05-01T14:48:12Z</time>
      </trkpt>
      <trkpt lat="44.6384" lon="5.21399">
        <ele>863.7</ele>
        <time>2014-05-01T14:48:26Z</time>
      </trkpt>
      <trkpt lat="44.63858" lon="5.214">
        <ele>863.51</ele>
        <time>2014-05-01T14:48:41Z</time>
      </trkpt>
      <trkpt lat="44.63877" lon="5.21398">
        <ele>862.61</ele>
        <time>2014-05-01T14:48:55Z</time>
      </trkpt>
      <trkpt lat="44.63895" lon="5.21388">
        <ele>862.43</ele>
        <time>2014-05-01T14:49:10Z</time>
      </trkpt>
      <trkpt lat="44.63909" lon="5.21372">
        <ele>862.61</ele>
        <time>2014-05-01T14:49:32Z</time>
      </trkpt>
      <trkpt lat="44.63919" lon="5.2135">
        <ele>863.87</ele>
        <time>2014-05-01T14:49:46Z</time>
      </trkpt>
      <trkpt lat="44.63919" lon="5.21324">
        <ele>862.99</ele>
        <time>2014-05-01T14:50:00Z</time>
      </trkpt>
      <trkpt lat="44.63927" lon="5.213">
        <ele>862.45</ele>
        <time>2014-05-01T14:50:14Z</time>
      </trkpt>
      <trkpt lat="44.63945" lon="5.21298">
        <ele>862.83</ele>
        <time>2014-05-01T14:50:29Z</time>
      </trkpt>
      <trkpt lat="44.63963" lon="5.21305">
        <ele>861.37</ele>
        <time>2014-05-01T14:50:45Z</time>
      </trkpt>
      <trkpt lat="44.6398" lon="5.21313">
        <ele>860.82</ele>
        <time>2014-05-01T14:51:01Z</time>
      </trkpt>
      <trkpt lat="44.63999" lon="5.21319">
        <ele>859.71</ele>
        <time>2014-05-01T14:51:15Z</time>
      </trkpt>
      <trkpt lat="44.64016" lon="5.21328">
        <ele>859.4</ele>
        <time>2014-05-01T14:51:30Z</time>
      </trkpt>
      <trkpt lat="44.64035" lon="5.21331">
        <ele>859.74</ele>
        <time>2014-05-01T14:51:44Z</time>
      </trkpt>
      <trkpt lat="44.64052" lon="5.21324">
        <ele>859.33</ele>
        <time>2014-05-01T14:51:57Z</time>
      </trkpt>
      <trkpt lat="44.64069" lon="5.21313">
        <ele>858.44</ele>
        <time>2014-05-01T14:52:11Z</time>
      </trkpt>
      <trkpt lat="44.64085" lon="5.21301">
        <ele>857.67</ele>
        <time>2014-05-01T14:52:25Z</time>
      </trkpt>
      <trkpt lat="44.64102" lon="5.2129">
        <ele>857.69</ele>
        <time>2014-05-01T14:52:39Z</time>
      </trkpt>
      <trkpt lat="44.6412" lon="5.21283">
        <ele>856.24</ele>
        <time>2014-05-01T14:52:55Z</time>
      </trkpt>
      <trkpt lat="44.64139" lon="5.21285">
        <ele>855.24</ele>
        <time>2014-05-01T14:53:08Z</time>
      </trkpt>
      <trkpt lat="44.64153" lon="5.21303">
        <ele>854.9</ele>
        <time>2014-05-01T14:53:36Z</time>
      </trkpt>
      <trkpt lat="44.64172" lon="5.21299">
        <ele>853.29</ele>
        <time>2014-05-01T14:54:06Z</time>
      </trkpt>
      <trkpt lat="44.64188" lon="5.21309">
        <ele>851.81</ele>
        <time>2014-05-01T14:54:24Z</time>
      </trkpt>
      <trkpt lat="44.64197" lon="5.21332">
        <ele>850.07</ele>
        <time>2014-05-01T14:54:44Z</time>
      </trkpt>
      <trkpt lat="44.6421" lon="5.21351">
        <ele>847.53</ele>
        <time>2014-05-01T14:55:00Z</time>
      </trkpt>
      <trkpt lat="44.64228" lon="5.21356">
        <ele>844.09</ele>
        <time>2014-05-01T14:55:22Z</time>
      </trkpt>
      <trkpt lat="44.64226" lon="5.21382">
        <ele>841.64</ele>
        <time>2014-05-01T14:55:40Z</time>
      </trkpt>
      <trkpt lat="44.64228" lon="5.21407">
        <ele>838.71</ele>
        <time>2014-05-01T14:55:57Z</time>
      </trkpt>
      <trkpt lat="44.64237" lon="5.21429">
        <ele>836.39</ele>
        <time>2014-05-01T14:56:12Z</time>
      </trkpt>
      <trkpt lat="44.64246" lon="5.2144">
        <ele>831.52</ele>
        <time>2014-05-02T08:35:53Z</time>
      </trkpt>
      <trkpt lat="44.64235" lon="5.21419">
        <ele>830.2</ele>
        <time>2014-05-02T08:36:10Z</time>
      </trkpt>
      <trkpt lat="44.64228" lon="5.21396">
        <ele>829.85</ele>
        <time>2014-05-02T08:36:27Z</time>
      </trkpt>
      <trkpt lat="44.64228" lon="5.21369">
        <ele>831.07</ele>
        <time>2014-05-02T08:36:49Z</time>
      </trkpt>
      <trkpt lat="44.64217" lon="5.2135">
        <ele>834.29</ele>
        <time>2014-05-02T08:37:24Z</time>
      </trkpt>
      <trkpt lat="44.64201" lon="5.21336">
        <ele>836.36</ele>
        <time>2014-05-02T08:37:50Z</time>
      </trkpt>
      <trkpt lat="44.64194" lon="5.21312">
        <ele>837.47</ele>
        <time>2014-05-02T08:38:09Z</time>
      </trkpt>
      <trkpt lat="44.64181" lon="5.21293">
        <ele>838.15</ele>
        <time>2014-05-02T08:38:25Z</time>
      </trkpt>
      <trkpt lat="44.64164" lon="5.21306">
        <ele>842.04</ele>
        <time>2014-05-02T08:38:46Z</time>
      </trkpt>
      <trkpt lat="44.6415" lon="5.21292">
        <ele>845.34</ele>
        <time>2014-05-02T08:39:09Z</time>
      </trkpt>
      <trkpt lat="44.64132" lon="5.21289">
        <ele>849.1</ele>
        <time>2014-05-02T08:39:37Z</time>
      </trkpt>
      <trkpt lat="44.64113" lon="5.21295">
        <ele>851.61</ele>
        <time>2014-05-02T08:39:50Z</time>
      </trkpt>
      <trkpt lat="44.64095" lon="5.21301">
        <ele>852.55</ele>
        <time>2014-05-02T08:40:05Z</time>
      </trkpt>
      <trkpt lat="44.64077" lon="5.21308">
        <ele>853.43</ele>
        <time>2014-05-02T08:40:22Z</time>
      </trkpt>
      <trkpt lat="44.6406" lon="5.21321">
        <ele>854.82</ele>
        <time>2014-05-02T08:40:39Z</time>
      </trkpt>
      <trkpt lat="44.64044" lon="5.21333">
        <ele>856.6</ele>
        <time>2014-05-02T08:40:55Z</time>
      </trkpt>
      <trkpt lat="44.64025" lon="5.21331">
        <ele>858.11</ele>
        <time>2014-05-02T08:41:11Z</time>
      </trkpt>
      <trkpt lat="44.64007" lon="5.21323">
        <ele>858.32</ele>
        <time>2014-05-02T08:41:26Z</time>
      </trkpt>
      <trkpt lat="44.6399" lon="5.21312">
        <ele>858.52</ele>
        <time>2014-05-02T08:41:42Z</time>
      </trkpt>
      <trkpt lat="44.63972" lon="5.21307">
        <ele>858.29</ele>
        <time>2014-05-02T08:41:58Z</time>
      </trkpt>
      <trkpt lat="44.63953" lon="5.21302">
        <ele>858.45</ele>
        <time>2014-05-02T08:42:14Z</time>
      </trkpt>
      <trkpt lat="44.63934" lon="5.21298">
        <ele>859.37</ele>
        <time>2014-05-02T08:42:30Z</time>
      </trkpt>
      <trkpt lat="44.6392" lon="5.21314">
        <ele>860.64</ele>
        <time>2014-05-02T08:42:44Z</time>
      </trkpt>
      <trkpt lat="44.63916" lon="5.2134">
        <ele>861.53</ele>
        <time>2014-05-02T08:43:00Z</time>
      </trkpt>
      <trkpt lat="44.6391" lon="5.21364">
        <ele>862.89</ele>
        <time>2014-05-02T08:43:18Z</time>
      </trkpt>
      <trkpt lat="44.63901" lon="5.21388">
        <ele>863.89</ele>
        <time>2014-05-02T08:43:34Z</time>
      </trkpt>
      <trkpt lat="44.63885" lon="5.214">
        <ele>864.9</ele>
        <time>2014-05-02T08:43:48Z</time>
      </trkpt>
      <trkpt lat="44.63866" lon="5.21403">
        <ele>864.9</ele>
        <time>2014-05-02T08:44:03Z</time>
      </trkpt>
      <trkpt lat="44.63848" lon="5.21404">
        <ele>865.64</ele>
        <time>2014-05-02T08:44:19Z</time>
      </trkpt>
      <trkpt lat="44.63829" lon="5.21398">
        <ele>866.46</ele>
        <time>2014-05-02T08:44:36Z</time>
      </trkpt>
      <trkpt lat="44.6381" lon="5.21396">
        <ele>865.3</ele>
        <time>2014-05-02T08:44:50Z</time>
      </trkpt>
      <trkpt lat="44.63792" lon="5.21395">
        <ele>865.03</ele>
        <time>2014-05-02T08:45:01Z</time>
      </trkpt>
      <trkpt lat="44.63774" lon="5.21393">
        <ele>865.1</ele>
        <time>2014-05-02T08:45:18Z</time>
      </trkpt>
      <trkpt lat="44.63756" lon="5.21397">
        <ele>865.04</ele>
        <time>2014-05-02T08:45:31Z</time>
      </trkpt>
      <trkpt lat="44.63738" lon="5.21389">
        <ele>865.25</ele>
        <time>2014-05-02T08:45:46Z</time>
      </trkpt>
      <trkpt lat="44.63721" lon="5.21378">
        <ele>865.07</ele>
        <time>2014-05-02T08:46:02Z</time>
      </trkpt>
      <trkpt lat="44.63705" lon="5.21392">
        <ele>865.7</ele>
        <time>2014-05-02T08:46:15Z</time>
      </trkpt>
      <trkpt lat="44.6369" lon="5.21406">
        <ele>866.55</ele>
        <time>2014-05-02T08:46:29Z</time>
      </trkpt>
      <trkpt lat="44.63672" lon="5.21416">
        <ele>868.92</ele>
        <time>2014-05-02T08:46:45Z</time>
      </trkpt>
      <trkpt lat="44.63655" lon="5.21422">
        <ele>869.55</ele>
        <time>2014-05-02T08:46:57Z</time>
      </trkpt>
      <trkpt lat="44.63637" lon="5.2143">
        <ele>868.94</ele>
        <time>2014-05-02T08:47:10Z</time>
      </trkpt>
      <trkpt lat="44.63619" lon="5.21438">
        <ele>868.18</ele>
        <time>2014-05-02T08:47:25Z</time>
      </trkpt>
      <trkpt lat="44.63601" lon="5.21444">
        <ele>868</ele>
        <time>2014-05-02T08:47:37Z</time>
      </trkpt>
      <trkpt lat="44.63582" lon="5.21448">
        <ele>868.65</ele>
        <time>2014-05-02T08:47:50Z</time>
      </trkpt>
      <trkpt lat="44.63564" lon="5.2145">
        <ele>869.71</ele>
        <time>2014-05-02T08:48:05Z</time>
      </trkpt>
      <trkpt lat="44.63546" lon="5.21456">
        <ele>870.09</ele>
        <time>2014-05-02T08:48:20Z</time>
      </trkpt>
      <trkpt lat="44.63527" lon="5.21461">
        <ele>870.36</ele>
        <time>2014-05-02T08:48:35Z</time>
      </trkpt>
      <trkpt lat="44.63508" lon="5.21467">
        <ele>870.98</ele>
        <time>2014-05-02T08:48:49Z</time>
      </trkpt>
      <trkpt lat="44.6349" lon="5.21468">
        <ele>871.89</ele>
        <time>2014-05-02T08:49:13Z</time>
      </trkpt>
      <trkpt lat="44.63471" lon="5.21473">
        <ele>871.95</ele>
        <time>2014-05-02T08:49:26Z</time>
      </trkpt>
      <trkpt lat="44.63453" lon="5.21476">
        <ele>872.36</ele>
        <time>2014-05-02T08:49:39Z</time>
      </trkpt>
      <trkpt lat="44.63434" lon="5.2148">
        <ele>872.47</ele>
        <time>2014-05-02T08:49:54Z</time>
      </trkpt>
      <trkpt lat="44.63416" lon="5.21485">
        <ele>873.14</ele>
        <time>2014-05-02T08:50:08Z</time>
      </trkpt>
      <trkpt lat="44.63397" lon="5.21486">
        <ele>873.5</ele>
        <time>2014-05-02T08:50:24Z</time>
      </trkpt>
      <trkpt lat="44.63378" lon="5.21492">
        <ele>874.43</ele>
        <time>2014-05-02T08:50:38Z</time>
      </trkpt>
      <trkpt lat="44.63361" lon="5.21499">
        <ele>876.04</ele>
        <time>2014-05-02T08:50:53Z</time>
      </trkpt>
      <trkpt lat="44.63344" lon="5.21507">
        <ele>877.07</ele>
        <time>2014-05-02T08:51:08Z</time>
      </trkpt>
      <trkpt lat="44.63326" lon="5.21517">
        <ele>878.42</ele>
        <time>2014-05-02T08:51:22Z</time>
      </trkpt>
      <trkpt lat="44.63308" lon="5.21526">
        <ele>879.88</ele>
        <time>2014-05-02T08:51:36Z</time>
      </trkpt>
      <trkpt lat="44.63292" lon="5.2154">
        <ele>880.92</ele>
        <time>2014-05-02T08:51:50Z</time>
      </trkpt>
      <trkpt lat="44.63277" lon="5.21553">
        <ele>882.54</ele>
        <time>2014-05-02T08:52:03Z</time>
      </trkpt>
      <trkpt lat="44.63259" lon="5.21564">
        <ele>883.58</ele>
        <time>2014-05-02T08:52:20Z</time>
      </trkpt>
      <trkpt lat="44.63244" lon="5.21578">
        <ele>884.73</ele>
        <time>2014-05-02T08:52:35Z</time>
      </trkpt>
      <trkpt lat="44.63227" lon="5.21589">
        <ele>886.17</ele>
        <time>2014-05-02T08:52:49Z</time>
      </trkpt>
      <trkpt lat="44.6321" lon="5.21601">
        <ele>887.4</ele>
        <time>2014-05-02T08:53:05Z</time>
      </trkpt>
      <trkpt lat="44.63195" lon="5.21619">
        <ele>888.85</ele>
        <time>2014-05-02T08:53:30Z</time>
      </trkpt>
      <trkpt lat="44.63184" lon="5.21639">
        <ele>889.26</ele>
        <time>2014-05-02T08:53:42Z</time>
      </trkpt>
      <trkpt lat="44.63175" lon="5.21661">
        <ele>888.55</ele>
        <time>2014-05-02T08:53:57Z</time>
      </trkpt>
      <trkpt lat="44.63161" lon="5.21677">
        <ele>886.78</ele>
        <time>2014-05-02T08:54:16Z</time>
      </trkpt>
      <trkpt lat="44.63147" lon="5.21695">
        <ele>884.75</ele>
        <time>2014-05-02T08:54:31Z</time>
      </trkpt>
      <trkpt lat="44.63129" lon="5.21694">
        <ele>881.51</ele>
        <time>2014-05-02T08:54:49Z</time>
      </trkpt>
      <trkpt lat="44.63112" lon="5.21682">
        <ele>876.83</ele>
        <time>2014-05-02T08:55:07Z</time>
      </trkpt>
      <trkpt lat="44.63095" lon="5.21673">
        <ele>874.05</ele>
        <time>2014-05-02T08:55:22Z</time>
      </trkpt>
      <trkpt lat="44.63079" lon="5.2166">
        <ele>869.97</ele>
        <time>2014-05-02T08:55:46Z</time>
      </trkpt>
      <trkpt lat="44.6307" lon="5.21637">
        <ele>865.87</ele>
        <time>2014-05-02T08:56:01Z</time>
      </trkpt>
      <trkpt lat="44.63066" lon="5.21612">
        <ele>862.37</ele>
        <time>2014-05-02T08:56:14Z</time>
      </trkpt>
      <trkpt lat="44.63061" lon="5.21587">
        <ele>858.72</ele>
        <time>2014-05-02T08:56:27Z</time>
      </trkpt>
      <trkpt lat="44.63054" lon="5.21562">
        <ele>855.19</ele>
        <time>2014-05-02T08:56:42Z</time>
      </trkpt>
      <trkpt lat="44.63056" lon="5.21536">
        <ele>851.98</ele>
        <time>2014-05-02T08:56:54Z</time>
      </trkpt>
      <trkpt lat="44.6307" lon="5.21516">
        <ele>846.79</ele>
        <time>2014-05-02T08:57:13Z</time>
      </trkpt>
      <trkpt lat="44.63079" lon="5.21493">
        <ele>840.2</ele>
        <time>2014-05-02T08:57:31Z</time>
      </trkpt>
      <trkpt lat="44.63074" lon="5.21468">
        <ele>838.58</ele>
        <time>2014-05-02T08:57:44Z</time>
      </trkpt>
      <trkpt lat="44.63087" lon="5.2145">
        <ele>834.34</ele>
        <time>2014-05-02T08:58:10Z</time>
      </trkpt>
      <trkpt lat="44.63072" lon="5.21437">
        <ele>828.03</ele>
        <time>2014-05-02T08:58:57Z</time>
      </trkpt>
      <trkpt lat="44.63055" lon="5.2145">
        <ele>828.7</ele>
        <time>2014-05-02T08:59:13Z</time>
      </trkpt>
      <trkpt lat="44.63042" lon="5.21467">
        <ele>829.6</ele>
        <time>2014-05-02T08:59:33Z</time>
      </trkpt>
      <trkpt lat="44.63033" lon="5.21445">
        <ele>831.35</ele>
        <time>2014-05-02T08:59:53Z</time>
      </trkpt>
      <trkpt lat="44.63018" lon="5.2146">
        <ele>835.42</ele>
        <time>2014-05-02T09:00:27Z</time>
      </trkpt>
      <trkpt lat="44.63003" lon="5.21476">
        <ele>836.82</ele>
        <time>2014-05-02T09:00:44Z</time>
      </trkpt>
      <trkpt lat="44.62986" lon="5.21465">
        <ele>838.59</ele>
        <time>2014-05-02T09:00:57Z</time>
      </trkpt>
      <trkpt lat="44.62968" lon="5.21456">
        <ele>839.58</ele>
        <time>2014-05-02T09:01:40Z</time>
      </trkpt>
      <trkpt lat="44.62951" lon="5.21464">
        <ele>843.18</ele>
        <time>2014-05-02T09:01:59Z</time>
      </trkpt>
      <trkpt lat="44.62933" lon="5.21462">
        <ele>846.14</ele>
        <time>2014-05-02T09:02:20Z</time>
      </trkpt>
      <trkpt lat="44.62916" lon="5.2145">
        <ele>848.15</ele>
        <time>2014-05-02T09:02:36Z</time>
      </trkpt>
      <trkpt lat="44.62907" lon="5.21427">
        <ele>849.9</ele>
        <time>2014-05-02T09:02:53Z</time>
      </trkpt>
      <trkpt lat="44.62897" lon="5.21406">
        <ele>851.36</ele>
        <time>2014-05-02T09:03:12Z</time>
      </trkpt>
      <trkpt lat="44.62886" lon="5.21384">
        <ele>854.01</ele>
        <time>2014-05-02T09:06:46Z</time>
      </trkpt>
      <trkpt lat="44.62871" lon="5.2137">
        <ele>856.06</ele>
        <time>2014-05-02T09:07:20Z</time>
      </trkpt>
      <trkpt lat="44.62857" lon="5.21351">
        <ele>855.22</ele>
        <time>2014-05-02T09:07:36Z</time>
      </trkpt>
      <trkpt lat="44.6284" lon="5.21341">
        <ele>853.75</ele>
        <time>2014-05-02T09:07:49Z</time>
      </trkpt>
      <trkpt lat="44.62822" lon="5.2133">
        <ele>852.93</ele>
        <time>2014-05-02T09:08:03Z</time>
      </trkpt>
      <trkpt lat="44.62813" lon="5.21307">
        <ele>851.56</ele>
        <time>2014-05-02T09:08:12Z</time>
      </trkpt>
      <trkpt lat="44.62795" lon="5.21305">
        <ele>849.09</ele>
        <time>2014-05-02T09:08:31Z</time>
      </trkpt>
      <trkpt lat="44.62783" lon="5.21324">
        <ele>848.74</ele>
        <time>2014-05-02T09:08:49Z</time>
      </trkpt>
      <trkpt lat="44.62776" lon="5.21348">
        <ele>849.08</ele>
        <time>2014-05-02T09:09:03Z</time>
      </trkpt>
      <trkpt lat="44.6278" lon="5.21374">
        <ele>849.46</ele>
        <time>2014-05-02T09:09:22Z</time>
      </trkpt>
      <trkpt lat="44.62789" lon="5.21396">
        <ele>849.52</ele>
        <time>2014-05-02T09:09:39Z</time>
      </trkpt>
      <trkpt lat="44.62795" lon="5.2142">
        <ele>849.9</ele>
        <time>2014-05-02T09:10:02Z</time>
      </trkpt>
      <trkpt lat="44.62778" lon="5.21411">
        <ele>850.93</ele>
        <time>2014-05-02T09:10:25Z</time>
      </trkpt>
      <trkpt lat="44.62785" lon="5.21435">
        <ele>856.56</ele>
        <time>2014-05-02T09:11:09Z</time>
      </trkpt>
      <trkpt lat="44.62773" lon="5.21455">
        <ele>857.91</ele>
        <time>2014-05-02T09:11:33Z</time>
      </trkpt>
      <trkpt lat="44.62756" lon="5.21463">
        <ele>857.03</ele>
        <time>2014-05-02T09:11:48Z</time>
      </trkpt>
      <trkpt lat="44.62762" lon="5.21489">
        <ele>857.36</ele>
        <time>2014-05-02T09:12:06Z</time>
      </trkpt>
      <trkpt lat="44.62765" lon="5.21514">
        <ele>859.86</ele>
        <time>2014-05-02T09:12:25Z</time>
      </trkpt>
      <trkpt lat="44.62762" lon="5.2154">
        <ele>861.23</ele>
        <time>2014-05-02T09:12:42Z</time>
      </trkpt>
      <trkpt lat="44.62759" lon="5.21566">
        <ele>863.51</ele>
        <time>2014-05-02T09:13:01Z</time>
      </trkpt>
      <trkpt lat="44.62763" lon="5.2159">
        <ele>864.84</ele>
        <time>2014-05-02T09:13:22Z</time>
      </trkpt>
      <trkpt lat="44.62772" lon="5.21613">
        <ele>865.97</ele>
        <time>2014-05-02T09:13:42Z</time>
      </trkpt>
      <trkpt lat="44.62755" lon="5.21603">
        <ele>868.8</ele>
        <time>2014-05-02T09:14:02Z</time>
      </trkpt>
      <trkpt lat="44.62741" lon="5.21584">
        <ele>870.98</ele>
        <time>2014-05-02T09:14:21Z</time>
      </trkpt>
      <trkpt lat="44.62735" lon="5.21559">
        <ele>873.05</ele>
        <time>2014-05-02T09:14:37Z</time>
      </trkpt>
      <trkpt lat="44.62734" lon="5.21532">
        <ele>873.37</ele>
        <time>2014-05-02T09:14:50Z</time>
      </trkpt>
      <trkpt lat="44.62722" lon="5.21512">
        <ele>874.43</ele>
        <time>2014-05-02T09:15:08Z</time>
      </trkpt>
      <trkpt lat="44.62706" lon="5.21498">
        <ele>875.1</ele>
        <time>2014-05-02T09:15:23Z</time>
      </trkpt>
      <trkpt lat="44.6269" lon="5.21483">
        <ele>875.5</ele>
        <time>2014-05-02T09:15:41Z</time>
      </trkpt>
      <trkpt lat="44.62673" lon="5.21473">
        <ele>877.54</ele>
        <time>2014-05-02T09:15:57Z</time>
      </trkpt>
      <trkpt lat="44.62655" lon="5.21467">
        <ele>879.28</ele>
        <time>2014-05-02T09:16:11Z</time>
      </trkpt>
      <trkpt lat="44.62638" lon="5.21456">
        <ele>880.37</ele>
        <time>2014-05-02T09:16:25Z</time>
      </trkpt>
      <trkpt lat="44.62631" lon="5.21432">
        <ele>880.85</ele>
        <time>2014-05-02T09:16:46Z</time>
      </trkpt>
      <trkpt lat="44.62648" lon="5.21421">
        <ele>880.71</ele>
        <time>2014-05-02T09:17:00Z</time>
      </trkpt>
      <trkpt lat="44.62663" lon="5.21406">
        <ele>881.11</ele>
        <time>2014-05-02T09:17:16Z</time>
      </trkpt>
      <trkpt lat="44.6266" lon="5.2138">
        <ele>882</ele>
        <time>2014-05-02T09:17:35Z</time>
      </trkpt>
      <trkpt lat="44.62654" lon="5.21356">
        <ele>884.13</ele>
        <time>2014-05-02T09:17:55Z</time>
      </trkpt>
      <trkpt lat="44.62646" lon="5.21334">
        <ele>886.65</ele>
        <time>2014-05-02T09:18:16Z</time>
      </trkpt>
      <trkpt lat="44.62641" lon="5.21308">
        <ele>888.67</ele>
        <time>2014-05-02T09:18:37Z</time>
      </trkpt>
      <trkpt lat="44.62628" lon="5.2129">
        <ele>890.98</ele>
        <time>2014-05-02T09:19:01Z</time>
      </trkpt>
      <trkpt lat="44.6261" lon="5.21288">
        <ele>893.16</ele>
        <time>2014-05-02T09:19:16Z</time>
      </trkpt>
      <trkpt lat="44.62592" lon="5.21285">
        <ele>895.9</ele>
        <time>2014-05-02T09:19:34Z</time>
      </trkpt>
      <trkpt lat="44.62574" lon="5.21277">
        <ele>897.35</ele>
        <time>2014-05-02T09:19:51Z</time>
      </trkpt>
      <trkpt lat="44.62557" lon="5.21268">
        <ele>899.07</ele>
        <time>2014-05-02T09:20:11Z</time>
      </trkpt>
      <trkpt lat="44.62547" lon="5.21247">
        <ele>901.15</ele>
        <time>2014-05-02T09:20:32Z</time>
      </trkpt>
      <trkpt lat="44.62548" lon="5.21221">
        <ele>904.56</ele>
        <time>2014-05-02T09:20:53Z</time>
      </trkpt>
      <trkpt lat="44.62551" lon="5.21196">
        <ele>906.26</ele>
        <time>2014-05-02T09:21:10Z</time>
      </trkpt>
      <trkpt lat="44.62559" lon="5.21173">
        <ele>908.79</ele>
        <time>2014-05-02T09:21:33Z</time>
      </trkpt>
      <trkpt lat="44.6257" lon="5.21152">
        <ele>911.09</ele>
        <time>2014-05-02T09:21:54Z</time>
      </trkpt>
      <trkpt lat="44.62587" lon="5.21138">
        <ele>913.15</ele>
        <time>2014-05-02T09:22:16Z</time>
      </trkpt>
      <trkpt lat="44.62601" lon="5.21121">
        <ele>914.96</ele>
        <time>2014-05-02T09:22:35Z</time>
      </trkpt>
      <trkpt lat="44.62602" lon="5.21096">
        <ele>916.66</ele>
        <time>2014-05-02T09:22:55Z</time>
      </trkpt>
      <trkpt lat="44.62597" lon="5.21071">
        <ele>919.29</ele>
        <time>2014-05-02T09:23:17Z</time>
      </trkpt>
      <trkpt lat="44.62588" lon="5.21048">
        <ele>921.39</ele>
        <time>2014-05-02T09:23:39Z</time>
      </trkpt>
      <trkpt lat="44.6258" lon="5.21025">
        <ele>923.91</ele>
        <time>2014-05-02T09:23:56Z</time>
      </trkpt>
      <trkpt lat="44.6257" lon="5.21003">
        <ele>925.95</ele>
        <time>2014-05-02T09:24:15Z</time>
      </trkpt>
      <trkpt lat="44.62557" lon="5.20985">
        <ele>926.91</ele>
        <time>2014-05-02T09:24:35Z</time>
      </trkpt>
      <trkpt lat="44.62545" lon="5.20966">
        <ele>929.24</ele>
        <time>2014-05-02T09:24:56Z</time>
      </trkpt>
      <trkpt lat="44.62536" lon="5.20943">
        <ele>931.74</ele>
        <time>2014-05-02T09:25:15Z</time>
      </trkpt>
      <trkpt lat="44.62528" lon="5.20921">
        <ele>933.82</ele>
        <time>2014-05-02T09:25:37Z</time>
      </trkpt>
      <trkpt lat="44.62513" lon="5.20936">
        <ele>941.5</ele>
        <time>2014-05-02T09:26:18Z</time>
      </trkpt>
      <trkpt lat="44.62517" lon="5.20961">
        <ele>944.9</ele>
        <time>2014-05-02T09:26:40Z</time>
      </trkpt>
      <trkpt lat="44.62523" lon="5.20985">
        <ele>946.73</ele>
        <time>2014-05-02T09:26:58Z</time>
      </trkpt>
      <trkpt lat="44.62516" lon="5.21009">
        <ele>948.81</ele>
        <time>2014-05-02T09:27:14Z</time>
      </trkpt>
      <trkpt lat="44.62502" lon="5.21024">
        <ele>952.31</ele>
        <time>2014-05-02T09:27:33Z</time>
      </trkpt>
      <trkpt lat="44.62496" lon="5.21048">
        <ele>955.47</ele>
        <time>2014-05-02T09:27:51Z</time>
      </trkpt>
      <trkpt lat="44.62485" lon="5.21069">
        <ele>957.19</ele>
        <time>2014-05-02T09:28:10Z</time>
      </trkpt>
      <trkpt lat="44.62475" lon="5.2109">
        <ele>958.78</ele>
        <time>2014-05-02T09:28:27Z</time>
      </trkpt>
      <trkpt lat="44.62463" lon="5.21069">
        <ele>960.28</ele>
        <time>2014-05-02T09:29:03Z</time>
      </trkpt>
      <trkpt lat="44.62462" lon="5.21043">
        <ele>961.34</ele>
        <time>2014-05-02T09:29:20Z</time>
      </trkpt>
      <trkpt lat="44.62452" lon="5.21022">
        <ele>962.8</ele>
        <time>2014-05-02T09:29:39Z</time>
      </trkpt>
      <trkpt lat="44.6245" lon="5.20996">
        <ele>964.78</ele>
        <time>2014-05-02T09:30:22Z</time>
      </trkpt>
      <trkpt lat="44.62449" lon="5.20971">
        <ele>964.69</ele>
        <time>2014-05-02T09:30:51Z</time>
      </trkpt>
      <trkpt lat="44.6245" lon="5.20944">
        <ele>965.88</ele>
        <time>2014-05-02T09:31:06Z</time>
      </trkpt>
      <trkpt lat="44.62447" lon="5.20918">
        <ele>968.89</ele>
        <time>2014-05-02T09:31:26Z</time>
      </trkpt>
      <trkpt lat="44.62451" lon="5.20894">
        <ele>971.13</ele>
        <time>2014-05-02T09:31:42Z</time>
      </trkpt>
      <trkpt lat="44.62456" lon="5.20868">
        <ele>973.59</ele>
        <time>2014-05-02T09:31:59Z</time>
      </trkpt>
      <trkpt lat="44.62446" lon="5.20846">
        <ele>975.1</ele>
        <time>2014-05-02T09:32:13Z</time>
      </trkpt>
      <trkpt lat="44.62431" lon="5.2083">
        <ele>977.12</ele>
        <time>2014-05-02T09:32:29Z</time>
      </trkpt>
      <trkpt lat="44.6243" lon="5.20856">
        <ele>980.43</ele>
        <time>2014-05-02T09:33:07Z</time>
      </trkpt>
      <trkpt lat="44.62433" lon="5.20884">
        <ele>980.56</ele>
        <time>2014-05-02T09:33:26Z</time>
      </trkpt>
      <trkpt lat="44.62425" lon="5.20906">
        <ele>982.07</ele>
        <time>2014-05-02T09:33:42Z</time>
      </trkpt>
      <trkpt lat="44.62412" lon="5.20925">
        <ele>983.82</ele>
        <time>2014-05-02T09:33:56Z</time>
      </trkpt>
      <trkpt lat="44.62408" lon="5.2095">
        <ele>984.76</ele>
        <time>2014-05-02T09:34:12Z</time>
      </trkpt>
      <trkpt lat="44.62401" lon="5.20974">
        <ele>986.15</ele>
        <time>2014-05-02T09:34:27Z</time>
      </trkpt>
      <trkpt lat="44.62387" lon="5.20991">
        <ele>987.65</ele>
        <time>2014-05-02T09:34:43Z</time>
      </trkpt>
      <trkpt lat="44.62371" lon="5.21004">
        <ele>989.14</ele>
        <time>2014-05-02T09:34:57Z</time>
      </trkpt>
      <trkpt lat="44.62358" lon="5.21022">
        <ele>990.15</ele>
        <time>2014-05-02T09:35:12Z</time>
      </trkpt>
      <trkpt lat="44.62344" lon="5.21039">
        <ele>990.58</ele>
        <time>2014-05-02T09:35:26Z</time>
      </trkpt>
      <trkpt lat="44.62327" lon="5.2105">
        <ele>989.57</ele>
        <time>2014-05-02T09:35:42Z</time>
      </trkpt>
      <trkpt lat="44.62309" lon="5.21054">
        <ele>990.35</ele>
        <time>2014-05-02T09:35:55Z</time>
      </trkpt>
      <trkpt lat="44.62291" lon="5.21058">
        <ele>991.94</ele>
        <time>2014-05-02T09:36:09Z</time>
      </trkpt>
      <trkpt lat="44.62275" lon="5.21071">
        <ele>992.35</ele>
        <time>2014-05-02T09:36:22Z</time>
      </trkpt>
      <trkpt lat="44.62257" lon="5.2108">
        <ele>992.86</ele>
        <time>2014-05-02T09:36:37Z</time>
      </trkpt>
      <trkpt lat="44.62243" lon="5.21097">
        <ele>991.62</ele>
        <time>2014-05-02T09:36:56Z</time>
      </trkpt>
      <trkpt lat="44.62229" lon="5.21114">
        <ele>992.44</ele>
        <time>2014-05-02T09:37:09Z</time>
      </trkpt>
      <trkpt lat="44.62212" lon="5.21125">
        <ele>992.72</ele>
        <time>2014-05-02T09:37:29Z</time>
      </trkpt>
      <trkpt lat="44.62194" lon="5.21131">
        <ele>992.54</ele>
        <time>2014-05-02T09:37:47Z</time>
      </trkpt>
      <trkpt lat="44.62176" lon="5.21136">
        <ele>992.06</ele>
        <time>2014-05-02T09:38:06Z</time>
      </trkpt>
      <trkpt lat="44.6216" lon="5.21148">
        <ele>994.27</ele>
        <time>2014-05-02T09:38:24Z</time>
      </trkpt>
      <trkpt lat="44.62146" lon="5.21163">
        <ele>997.48</ele>
        <time>2014-05-02T09:38:42Z</time>
      </trkpt>
      <trkpt lat="44.62134" lon="5.21183">
        <ele>1000.36</ele>
        <time>2014-05-02T09:39:02Z</time>
      </trkpt>
      <trkpt lat="44.62118" lon="5.21194">
        <ele>1003.43</ele>
        <time>2014-05-02T09:39:23Z</time>
      </trkpt>
      <trkpt lat="44.62099" lon="5.21197">
        <ele>1005.65</ele>
        <time>2014-05-02T09:39:44Z</time>
      </trkpt>
      <trkpt lat="44.62085" lon="5.21214">
        <ele>1008.32</ele>
        <time>2014-05-02T09:40:04Z</time>
      </trkpt>
      <trkpt lat="44.62071" lon="5.21232">
        <ele>1010.32</ele>
        <time>2014-05-02T09:40:20Z</time>
      </trkpt>
      <trkpt lat="44.62055" lon="5.21247">
        <ele>1012.49</ele>
        <time>2014-05-02T09:40:39Z</time>
      </trkpt>
      <trkpt lat="44.62039" lon="5.21259">
        <ele>1013.47</ele>
        <time>2014-05-02T09:40:59Z</time>
      </trkpt>
      <trkpt lat="44.62023" lon="5.21272">
        <ele>1014.61</ele>
        <time>2014-05-02T09:41:16Z</time>
      </trkpt>
      <trkpt lat="44.62015" lon="5.21295">
        <ele>1017.25</ele>
        <time>2014-05-02T09:41:35Z</time>
      </trkpt>
      <trkpt lat="44.62008" lon="5.21319">
        <ele>1019.5</ele>
        <time>2014-05-02T09:41:53Z</time>
      </trkpt>
      <trkpt lat="44.62006" lon="5.21345">
        <ele>1020.44</ele>
        <time>2014-05-02T09:42:11Z</time>
      </trkpt>
      <trkpt lat="44.61996" lon="5.21368">
        <ele>1021.92</ele>
        <time>2014-05-02T09:42:28Z</time>
      </trkpt>
      <trkpt lat="44.61989" lon="5.21391">
        <ele>1023.66</ele>
        <time>2014-05-02T09:42:44Z</time>
      </trkpt>
      <trkpt lat="44.61989" lon="5.21419">
        <ele>1024.2</ele>
        <time>2014-05-02T09:42:58Z</time>
      </trkpt>
      <trkpt lat="44.61999" lon="5.21441">
        <ele>1024.09</ele>
        <time>2014-05-02T09:43:18Z</time>
      </trkpt>
      <trkpt lat="44.62018" lon="5.21448">
        <ele>1027.8</ele>
        <time>2014-05-02T09:43:32Z</time>
      </trkpt>
      <trkpt lat="44.62034" lon="5.21462">
        <ele>1031.51</ele>
        <time>2014-05-02T09:43:44Z</time>
      </trkpt>
      <trkpt lat="44.62042" lon="5.21487">
        <ele>1031.99</ele>
        <time>2014-05-02T09:44:01Z</time>
      </trkpt>
      <trkpt lat="44.62055" lon="5.21506">
        <ele>1034.67</ele>
        <time>2014-05-02T09:44:18Z</time>
      </trkpt>
      <trkpt lat="44.62064" lon="5.21527">
        <ele>1036.21</ele>
        <time>2014-05-02T09:44:37Z</time>
      </trkpt>
      <trkpt lat="44.62075" lon="5.21548">
        <ele>1036.77</ele>
        <time>2014-05-02T09:44:54Z</time>
      </trkpt>
      <trkpt lat="44.62085" lon="5.21571">
        <ele>1037.7</ele>
        <time>2014-05-02T09:45:13Z</time>
      </trkpt>
      <trkpt lat="44.62073" lon="5.21591">
        <ele>1039.74</ele>
        <time>2014-05-02T09:45:35Z</time>
      </trkpt>
      <trkpt lat="44.62055" lon="5.21599">
        <ele>1041.33</ele>
        <time>2014-05-02T09:45:52Z</time>
      </trkpt>
      <trkpt lat="44.62044" lon="5.21621">
        <ele>1044.28</ele>
        <time>2014-05-02T09:46:10Z</time>
      </trkpt>
      <trkpt lat="44.62047" lon="5.21647">
        <ele>1043.82</ele>
        <time>2014-05-02T09:46:26Z</time>
      </trkpt>
      <trkpt lat="44.62041" lon="5.21672">
        <ele>1043.92</ele>
        <time>2014-05-02T09:46:47Z</time>
      </trkpt>
      <trkpt lat="44.62031" lon="5.21693">
        <ele>1046.65</ele>
        <time>2014-05-02T09:47:06Z</time>
      </trkpt>
      <trkpt lat="44.62027" lon="5.2172">
        <ele>1048.96</ele>
        <time>2014-05-02T09:47:22Z</time>
      </trkpt>
      <trkpt lat="44.6202" lon="5.21744">
        <ele>1052.53</ele>
        <time>2014-05-02T09:47:44Z</time>
      </trkpt>
      <trkpt lat="44.62032" lon="5.21763">
        <ele>1058.76</ele>
        <time>2014-05-02T09:48:10Z</time>
      </trkpt>
      <trkpt lat="44.6205" lon="5.21763">
        <ele>1060.25</ele>
        <time>2014-05-02T09:48:25Z</time>
      </trkpt>
      <trkpt lat="44.62068" lon="5.21772">
        <ele>1061.18</ele>
        <time>2014-05-02T09:48:40Z</time>
      </trkpt>
      <trkpt lat="44.62082" lon="5.21789">
        <ele>1061.23</ele>
        <time>2014-05-02T09:48:55Z</time>
      </trkpt>
      <trkpt lat="44.62088" lon="5.21814">
        <ele>1059.94</ele>
        <time>2014-05-02T09:49:09Z</time>
      </trkpt>
      <trkpt lat="44.62099" lon="5.21835">
        <ele>1060.23</ele>
        <time>2014-05-02T09:49:27Z</time>
      </trkpt>
      <trkpt lat="44.62086" lon="5.21852">
        <ele>1062.22</ele>
        <time>2014-05-02T09:49:57Z</time>
      </trkpt>
      <trkpt lat="44.6207" lon="5.21838">
        <ele>1063.31</ele>
        <time>2014-05-02T09:50:17Z</time>
      </trkpt>
      <trkpt lat="44.62055" lon="5.21821">
        <ele>1063.78</ele>
        <time>2014-05-02T09:50:35Z</time>
      </trkpt>
      <trkpt lat="44.62038" lon="5.21811">
        <ele>1065.68</ele>
        <time>2014-05-02T09:50:53Z</time>
      </trkpt>
      <trkpt lat="44.6204" lon="5.21837">
        <ele>1068.57</ele>
        <time>2014-05-02T09:51:17Z</time>
      </trkpt>
      <trkpt lat="44.62052" lon="5.21855">
        <ele>1070.5</ele>
        <time>2014-05-02T09:51:33Z</time>
      </trkpt>
      <trkpt lat="44.62067" lon="5.21871">
        <ele>1071.99</ele>
        <time>2014-05-02T09:51:50Z</time>
      </trkpt>
      <trkpt lat="44.62083" lon="5.21886">
        <ele>1075.03</ele>
        <time>2014-05-02T09:52:09Z</time>
      </trkpt>
      <trkpt lat="44.6207" lon="5.21903">
        <ele>1077.61</ele>
        <time>2014-05-02T09:52:43Z</time>
      </trkpt>
      <trkpt lat="44.62054" lon="5.21889">
        <ele>1078.01</ele>
        <time>2014-05-02T09:52:59Z</time>
      </trkpt>
      <trkpt lat="44.62037" lon="5.21876">
        <ele>1078.91</ele>
        <time>2014-05-02T09:53:19Z</time>
      </trkpt>
      <trkpt lat="44.6202" lon="5.21866">
        <ele>1082.13</ele>
        <time>2014-05-02T09:53:40Z</time>
      </trkpt>
      <trkpt lat="44.62001" lon="5.21862">
        <ele>1084.99</ele>
        <time>2014-05-02T09:53:58Z</time>
      </trkpt>
      <trkpt lat="44.61982" lon="5.21866">
        <ele>1087.44</ele>
        <time>2014-05-02T09:54:16Z</time>
      </trkpt>
      <trkpt lat="44.61965" lon="5.21874">
        <ele>1090.24</ele>
        <time>2014-05-02T09:54:34Z</time>
      </trkpt>
      <trkpt lat="44.61947" lon="5.21879">
        <ele>1092.51</ele>
        <time>2014-05-02T09:54:51Z</time>
      </trkpt>
      <trkpt lat="44.61927" lon="5.21879">
        <ele>1095.42</ele>
        <time>2014-05-02T09:55:09Z</time>
      </trkpt>
      <trkpt lat="44.61909" lon="5.21878">
        <ele>1097.63</ele>
        <time>2014-05-02T09:55:28Z</time>
      </trkpt>
      <trkpt lat="44.61916" lon="5.21902">
        <ele>1100.76</ele>
        <time>2014-05-02T09:56:25Z</time>
      </trkpt>
      <trkpt lat="44.6193" lon="5.21919">
        <ele>1103.52</ele>
        <time>2014-05-02T09:57:03Z</time>
      </trkpt>
      <trkpt lat="44.6193" lon="5.21945">
        <ele>1105.29</ele>
        <time>2014-05-02T09:57:32Z</time>
      </trkpt>
      <trkpt lat="44.6192" lon="5.21968">
        <ele>1107.1</ele>
        <time>2014-05-02T09:57:51Z</time>
      </trkpt>
      <trkpt lat="44.61933" lon="5.21984">
        <ele>1108.74</ele>
        <time>2014-05-02T09:58:11Z</time>
      </trkpt>
      <trkpt lat="44.6193" lon="5.2201">
        <ele>1114.06</ele>
        <time>2014-05-02T09:58:48Z</time>
      </trkpt>
      <trkpt lat="44.61929" lon="5.22035">
        <ele>1115.15</ele>
        <time>2014-05-02T09:59:06Z</time>
      </trkpt>
      <trkpt lat="44.61933" lon="5.2206">
        <ele>1115.46</ele>
        <time>2014-05-02T09:59:27Z</time>
      </trkpt>
      <trkpt lat="44.61935" lon="5.22086">
        <ele>1117.87</ele>
        <time>2014-05-02T09:59:46Z</time>
      </trkpt>
      <trkpt lat="44.61916" lon="5.22084">
        <ele>1123.01</ele>
        <time>2014-05-02T10:00:17Z</time>
      </trkpt>
      <trkpt lat="44.619" lon="5.22071">
        <ele>1125.61</ele>
        <time>2014-05-02T10:00:40Z</time>
      </trkpt>
      <trkpt lat="44.61882" lon="5.2207">
        <ele>1130.13</ele>
        <time>2014-05-02T10:00:58Z</time>
      </trkpt>
      <trkpt lat="44.61864" lon="5.22076">
        <ele>1135.95</ele>
        <time>2014-05-02T10:01:23Z</time>
      </trkpt>
      <trkpt lat="44.61846" lon="5.22076">
        <ele>1138.63</ele>
        <time>2014-05-02T10:01:46Z</time>
      </trkpt>
      <trkpt lat="44.61828" lon="5.22076">
        <ele>1140.37</ele>
        <time>2014-05-02T10:02:03Z</time>
      </trkpt>
      <trkpt lat="44.61808" lon="5.22073">
        <ele>1140.58</ele>
        <time>2014-05-02T10:02:19Z</time>
      </trkpt>
      <trkpt lat="44.6179" lon="5.22066">
        <ele>1139.77</ele>
        <time>2014-05-02T10:02:35Z</time>
      </trkpt>
      <trkpt lat="44.61773" lon="5.22053">
        <ele>1138.94</ele>
        <time>2014-05-02T10:02:50Z</time>
      </trkpt>
      <trkpt lat="44.61758" lon="5.22037">
        <ele>1137.6</ele>
        <time>2014-05-02T10:03:04Z</time>
      </trkpt>
      <trkpt lat="44.6174" lon="5.22029">
        <ele>1136.67</ele>
        <time>2014-05-02T10:03:19Z</time>
      </trkpt>
      <trkpt lat="44.61723" lon="5.22019">
        <ele>1135.89</ele>
        <time>2014-05-02T10:03:34Z</time>
      </trkpt>
      <trkpt lat="44.61704" lon="5.22017">
        <ele>1136.23</ele>
        <time>2014-05-02T10:03:49Z</time>
      </trkpt>
      <trkpt lat="44.61686" lon="5.22012">
        <ele>1136.29</ele>
        <time>2014-05-02T10:04:04Z</time>
      </trkpt>
      <trkpt lat="44.61667" lon="5.22007">
        <ele>1135.64</ele>
        <time>2014-05-02T10:04:19Z</time>
      </trkpt>
      <trkpt lat="44.61649" lon="5.22012">
        <ele>1134.46</ele>
        <time>2014-05-02T10:04:33Z</time>
      </trkpt>
      <trkpt lat="44.61631" lon="5.22019">
        <ele>1133.79</ele>
        <time>2014-05-02T10:04:46Z</time>
      </trkpt>
      <trkpt lat="44.61612" lon="5.22014">
        <ele>1132.59</ele>
        <time>2014-05-02T10:05:02Z</time>
      </trkpt>
      <trkpt lat="44.61594" lon="5.22013">
        <ele>1130.25</ele>
        <time>2014-05-02T10:05:16Z</time>
      </trkpt>
      <trkpt lat="44.61575" lon="5.22014">
        <ele>1127.15</ele>
        <time>2014-05-02T10:05:31Z</time>
      </trkpt>
      <trkpt lat="44.61555" lon="5.22011">
        <ele>1124.19</ele>
        <time>2014-05-02T10:05:46Z</time>
      </trkpt>
      <trkpt lat="44.61538" lon="5.22003">
        <ele>1120.11</ele>
        <time>2014-05-02T10:06:03Z</time>
      </trkpt>
      <trkpt lat="44.61521" lon="5.21995">
        <ele>1116.75</ele>
        <time>2014-05-02T10:06:16Z</time>
      </trkpt>
      <trkpt lat="44.61503" lon="5.21998">
        <ele>1114.99</ele>
        <time>2014-05-02T10:06:27Z</time>
      </trkpt>
      <trkpt lat="44.61486" lon="5.22008">
        <ele>1112.49</ele>
        <time>2014-05-02T10:06:43Z</time>
      </trkpt>
      <trkpt lat="44.61469" lon="5.22017">
        <ele>1111.36</ele>
        <time>2014-05-02T10:06:56Z</time>
      </trkpt>
      <trkpt lat="44.61451" lon="5.22022">
        <ele>1109.98</ele>
        <time>2014-05-02T10:07:10Z</time>
      </trkpt>
      <trkpt lat="44.61433" lon="5.22027">
        <ele>1106.87</ele>
        <time>2014-05-02T10:07:23Z</time>
      </trkpt>
      <trkpt lat="44.61414" lon="5.22033">
        <ele>1105.15</ele>
        <time>2014-05-02T10:07:37Z</time>
      </trkpt>
      <trkpt lat="44.61397" lon="5.22042">
        <ele>1102.09</ele>
        <time>2014-05-02T10:07:52Z</time>
      </trkpt>
      <trkpt lat="44.6138" lon="5.22056">
        <ele>1098.27</ele>
        <time>2014-05-02T10:08:07Z</time>
      </trkpt>
      <trkpt lat="44.61365" lon="5.22071">
        <ele>1096.97</ele>
        <time>2014-05-02T10:08:22Z</time>
      </trkpt>
      <trkpt lat="44.61355" lon="5.22092">
        <ele>1095.29</ele>
        <time>2014-05-02T10:08:33Z</time>
      </trkpt>
      <trkpt lat="44.61342" lon="5.22111">
        <ele>1091.41</ele>
        <time>2014-05-02T10:08:47Z</time>
      </trkpt>
      <trkpt lat="44.61337" lon="5.22136">
        <ele>1087.87</ele>
        <time>2014-05-02T10:09:01Z</time>
      </trkpt>
      <trkpt lat="44.61333" lon="5.22161">
        <ele>1085.67</ele>
        <time>2014-05-02T10:09:15Z</time>
      </trkpt>
      <trkpt lat="44.61333" lon="5.22188">
        <ele>1084.11</ele>
        <time>2014-05-02T10:09:29Z</time>
      </trkpt>
      <trkpt lat="44.61341" lon="5.22212">
        <ele>1082.91</ele>
        <time>2014-05-02T10:09:43Z</time>
      </trkpt>
      <trkpt lat="44.6134" lon="5.22239">
        <ele>1082.18</ele>
        <time>2014-05-02T10:09:58Z</time>
      </trkpt>
      <trkpt lat="44.61348" lon="5.22262">
        <ele>1081.68</ele>
        <time>2014-05-02T10:10:12Z</time>
      </trkpt>
      <trkpt lat="44.61363" lon="5.2228">
        <ele>1083.52</ele>
        <time>2014-05-02T10:10:26Z</time>
      </trkpt>
      <trkpt lat="44.61378" lon="5.22298">
        <ele>1084.04</ele>
        <time>2014-05-02T10:10:43Z</time>
      </trkpt>
      <trkpt lat="44.61393" lon="5.22316">
        <ele>1083.35</ele>
        <time>2014-05-02T10:10:58Z</time>
      </trkpt>
      <trkpt lat="44.61406" lon="5.22338">
        <ele>1083.12</ele>
        <time>2014-05-02T10:11:11Z</time>
      </trkpt>
      <trkpt lat="44.61415" lon="5.22361">
        <ele>1082.72</ele>
        <time>2014-05-02T10:11:25Z</time>
      </trkpt>
      <trkpt lat="44.61423" lon="5.22384">
        <ele>1081.97</ele>
        <time>2014-05-02T10:11:41Z</time>
      </trkpt>
      <trkpt lat="44.61405" lon="5.22382">
        <ele>1081.27</ele>
        <time>2014-05-02T10:12:01Z</time>
      </trkpt>
      <trkpt lat="44.61386" lon="5.22377">
        <ele>1081.19</ele>
        <time>2014-05-02T10:12:15Z</time>
      </trkpt>
      <trkpt lat="44.61366" lon="5.22373">
        <ele>1081.04</ele>
        <time>2014-05-02T10:12:30Z</time>
      </trkpt>
      <trkpt lat="44.61349" lon="5.2237">
        <ele>1079.63</ele>
        <time>2014-05-02T10:12:45Z</time>
      </trkpt>
      <trkpt lat="44.61331" lon="5.2237">
        <ele>1078.08</ele>
        <time>2014-05-02T10:13:01Z</time>
      </trkpt>
      <trkpt lat="44.61312" lon="5.2237">
        <ele>1076.72</ele>
        <time>2014-05-02T10:13:14Z</time>
      </trkpt>
      <trkpt lat="44.61294" lon="5.2237">
        <ele>1075.23</ele>
        <time>2014-05-02T10:13:34Z</time>
      </trkpt>
      <trkpt lat="44.61275" lon="5.22372">
        <ele>1072.79</ele>
        <time>2014-05-02T10:13:48Z</time>
      </trkpt>
      <trkpt lat="44.61257" lon="5.22373">
        <ele>1070.99</ele>
        <time>2014-05-02T10:14:01Z</time>
      </trkpt>
      <trkpt lat="44.61239" lon="5.22377">
        <ele>1069.3</ele>
        <time>2014-05-02T10:14:13Z</time>
      </trkpt>
      <trkpt lat="44.61223" lon="5.22391">
        <ele>1066.83</ele>
        <time>2014-05-02T10:14:27Z</time>
      </trkpt>
      <trkpt lat="44.61209" lon="5.22408">
        <ele>1062.5</ele>
        <time>2014-05-02T10:14:42Z</time>
      </trkpt>
      <trkpt lat="44.61194" lon="5.22422">
        <ele>1059.73</ele>
        <time>2014-05-02T10:14:55Z</time>
      </trkpt>
      <trkpt lat="44.61186" lon="5.22446">
        <ele>1055.58</ele>
        <time>2014-05-02T10:15:11Z</time>
      </trkpt>
      <trkpt lat="44.6119" lon="5.22473">
        <ele>1052.88</ele>
        <time>2014-05-02T10:15:25Z</time>
      </trkpt>
      <trkpt lat="44.61184" lon="5.22499">
        <ele>1049.93</ele>
        <time>2014-05-02T10:15:38Z</time>
      </trkpt>
      <trkpt lat="44.61171" lon="5.22519">
        <ele>1047.76</ele>
        <time>2014-05-02T10:15:52Z</time>
      </trkpt>
      <trkpt lat="44.61158" lon="5.22538">
        <ele>1046.3</ele>
        <time>2014-05-02T10:16:08Z</time>
      </trkpt>
      <trkpt lat="44.61142" lon="5.22552">
        <ele>1045.62</ele>
        <time>2014-05-02T10:16:23Z</time>
      </trkpt>
      <trkpt lat="44.61125" lon="5.22565">
        <ele>1042.47</ele>
        <time>2014-05-02T10:16:36Z</time>
      </trkpt>
      <trkpt lat="44.61111" lon="5.22582">
        <ele>1040.43</ele>
        <time>2014-05-02T10:16:49Z</time>
      </trkpt>
      <trkpt lat="44.611" lon="5.22602">
        <ele>1039.37</ele>
        <time>2014-05-02T10:17:02Z</time>
      </trkpt>
      <trkpt lat="44.61095" lon="5.22627">
        <ele>1039.04</ele>
        <time>2014-05-02T10:17:15Z</time>
      </trkpt>
      <trkpt lat="44.61097" lon="5.22654">
        <ele>1038.98</ele>
        <time>2014-05-02T10:17:28Z</time>
      </trkpt>
      <trkpt lat="44.61087" lon="5.22675">
        <ele>1038.95</ele>
        <time>2014-05-02T10:17:42Z</time>
      </trkpt>
      <trkpt lat="44.61079" lon="5.22698">
        <ele>1038.18</ele>
        <time>2014-05-02T10:17:55Z</time>
      </trkpt>
      <trkpt lat="44.61073" lon="5.22722">
        <ele>1037.23</ele>
        <time>2014-05-02T10:18:09Z</time>
      </trkpt>
      <trkpt lat="44.61062" lon="5.22744">
        <ele>1036.48</ele>
        <time>2014-05-02T10:18:23Z</time>
      </trkpt>
      <trkpt lat="44.61047" lon="5.22762">
        <ele>1036.68</ele>
        <time>2014-05-02T10:18:42Z</time>
      </trkpt>
      <trkpt lat="44.6103" lon="5.22766">
        <ele>1037.18</ele>
        <time>2014-05-02T10:18:56Z</time>
      </trkpt>
      <trkpt lat="44.61016" lon="5.22784">
        <ele>1036.54</ele>
        <time>2014-05-02T10:19:09Z</time>
      </trkpt>
      <trkpt lat="44.61012" lon="5.2281">
        <ele>1036.09</ele>
        <time>2014-05-02T10:19:23Z</time>
      </trkpt>
      <trkpt lat="44.61005" lon="5.22834">
        <ele>1036.01</ele>
        <time>2014-05-02T10:20:07Z</time>
      </trkpt>
      <trkpt lat="44.60987" lon="5.22841">
        <ele>1036.56</ele>
        <time>2014-05-02T10:20:22Z</time>
      </trkpt>
      <trkpt lat="44.6097" lon="5.22853">
        <ele>1036.26</ele>
        <time>2014-05-02T10:20:37Z</time>
      </trkpt>
      <trkpt lat="44.60956" lon="5.2287">
        <ele>1036.06</ele>
        <time>2014-05-02T10:20:51Z</time>
      </trkpt>
      <trkpt lat="44.60951" lon="5.22896">
        <ele>1036.02</ele>
        <time>2014-05-02T10:21:08Z</time>
      </trkpt>
      <trkpt lat="44.60951" lon="5.22923">
        <ele>1035.84</ele>
        <time>2014-05-02T10:21:21Z</time>
      </trkpt>
      <trkpt lat="44.60943" lon="5.22946">
        <ele>1035.29</ele>
        <time>2014-05-02T10:21:36Z</time>
      </trkpt>
      <trkpt lat="44.60929" lon="5.22963">
        <ele>1034.87</ele>
        <time>2014-05-02T10:21:49Z</time>
      </trkpt>
      <trkpt lat="44.60916" lon="5.22983">
        <ele>1034.42</ele>
        <time>2014-05-02T10:22:02Z</time>
      </trkpt>
      <trkpt lat="44.60904" lon="5.23003">
        <ele>1034.51</ele>
        <time>2014-05-02T10:22:18Z</time>
      </trkpt>
      <trkpt lat="44.60889" lon="5.23017">
        <ele>1034.44</ele>
        <time>2014-05-02T10:22:31Z</time>
      </trkpt>
      <trkpt lat="44.60873" lon="5.23029">
        <ele>1034.27</ele>
        <time>2014-05-02T10:22:44Z</time>
      </trkpt>
      <trkpt lat="44.6087" lon="5.23055">
        <ele>1033.21</ele>
        <time>2014-05-02T10:22:56Z</time>
      </trkpt>
      <trkpt lat="44.60878" lon="5.23079">
        <ele>1032.48</ele>
        <time>2014-05-02T10:23:10Z</time>
      </trkpt>
      <trkpt lat="44.60881" lon="5.23105">
        <ele>1030.79</ele>
        <time>2014-05-02T10:23:24Z</time>
      </trkpt>
      <trkpt lat="44.60879" lon="5.2313">
        <ele>1029.59</ele>
        <time>2014-05-02T10:23:38Z</time>
      </trkpt>
      <trkpt lat="44.60879" lon="5.23156">
        <ele>1028.75</ele>
        <time>2014-05-02T10:23:51Z</time>
      </trkpt>
      <trkpt lat="44.60875" lon="5.23183">
        <ele>1029.38</ele>
        <time>2014-05-02T10:24:06Z</time>
      </trkpt>
      <trkpt lat="44.60886" lon="5.23205">
        <ele>1029.23</ele>
        <time>2014-05-02T10:24:21Z</time>
      </trkpt>
      <trkpt lat="44.60886" lon="5.23231">
        <ele>1028.33</ele>
        <time>2014-05-02T10:24:37Z</time>
      </trkpt>
      <trkpt lat="44.60871" lon="5.23246">
        <ele>1028.37</ele>
        <time>2014-05-02T10:24:51Z</time>
      </trkpt>
      <trkpt lat="44.60859" lon="5.23265">
        <ele>1028.03</ele>
        <time>2014-05-02T10:25:05Z</time>
      </trkpt>
      <trkpt lat="44.60846" lon="5.23282">
        <ele>1027.65</ele>
        <time>2014-05-02T10:25:18Z</time>
      </trkpt>
      <trkpt lat="44.60833" lon="5.23301">
        <ele>1026.99</ele>
        <time>2014-05-02T10:25:33Z</time>
      </trkpt>
      <trkpt lat="44.6082" lon="5.2332">
        <ele>1026.44</ele>
        <time>2014-05-02T10:25:46Z</time>
      </trkpt>
      <trkpt lat="44.60817" lon="5.23345">
        <ele>1025.36</ele>
        <time>2014-05-02T10:26:00Z</time>
      </trkpt>
      <trkpt lat="44.60818" lon="5.23371">
        <ele>1024.85</ele>
        <time>2014-05-02T10:26:14Z</time>
      </trkpt>
      <trkpt lat="44.60816" lon="5.23397">
        <ele>1025.1</ele>
        <time>2014-05-02T10:26:27Z</time>
      </trkpt>
      <trkpt lat="44.60816" lon="5.23424">
        <ele>1023.76</ele>
        <time>2014-05-02T10:26:41Z</time>
      </trkpt>
      <trkpt lat="44.60815" lon="5.2345">
        <ele>1023.06</ele>
        <time>2014-05-02T10:26:54Z</time>
      </trkpt>
      <trkpt lat="44.60808" lon="5.23475">
        <ele>1022.42</ele>
        <time>2014-05-02T10:27:09Z</time>
      </trkpt>
      <trkpt lat="44.6081" lon="5.23502">
        <ele>1022.48</ele>
        <time>2014-05-02T10:27:22Z</time>
      </trkpt>
      <trkpt lat="44.60814" lon="5.23528">
        <ele>1022.47</ele>
        <time>2014-05-02T10:27:36Z</time>
      </trkpt>
      <trkpt lat="44.60809" lon="5.23553">
        <ele>1021.39</ele>
        <time>2014-05-02T10:27:52Z</time>
      </trkpt>
      <trkpt lat="44.60794" lon="5.23568">
        <ele>1021.27</ele>
        <time>2014-05-02T10:28:18Z</time>
      </trkpt>
      <trkpt lat="44.60779" lon="5.23584">
        <ele>1020.65</ele>
        <time>2014-05-02T10:28:32Z</time>
      </trkpt>
      <trkpt lat="44.60763" lon="5.23598">
        <ele>1019.35</ele>
        <time>2014-05-02T10:28:45Z</time>
      </trkpt>
      <trkpt lat="44.60748" lon="5.23613">
        <ele>1018.25</ele>
        <time>2014-05-02T10:29:01Z</time>
      </trkpt>
      <trkpt lat="44.6073" lon="5.23623">
        <ele>1017.79</ele>
        <time>2014-05-02T10:29:14Z</time>
      </trkpt>
      <trkpt lat="44.60713" lon="5.23634">
        <ele>1017.77</ele>
        <time>2014-05-02T10:29:28Z</time>
      </trkpt>
      <trkpt lat="44.60698" lon="5.23649">
        <ele>1016.53</ele>
        <time>2014-05-02T10:29:42Z</time>
      </trkpt>
      <trkpt lat="44.60685" lon="5.23667">
        <ele>1015.33</ele>
        <time>2014-05-02T10:29:56Z</time>
      </trkpt>
      <trkpt lat="44.60672" lon="5.23686">
        <ele>1013.62</ele>
        <time>2014-05-02T10:30:11Z</time>
      </trkpt>
      <trkpt lat="44.60657" lon="5.23702">
        <ele>1011.96</ele>
        <time>2014-05-02T10:30:24Z</time>
      </trkpt>
      <trkpt lat="44.60645" lon="5.23722">
        <ele>1009.55</ele>
        <time>2014-05-02T10:30:38Z</time>
      </trkpt>
      <trkpt lat="44.60633" lon="5.23744">
        <ele>1006.96</ele>
        <time>2014-05-02T10:30:53Z</time>
      </trkpt>
      <trkpt lat="44.60621" lon="5.23763">
        <ele>1005.17</ele>
        <time>2014-05-02T10:31:07Z</time>
      </trkpt>
      <trkpt lat="44.60613" lon="5.23786">
        <ele>1002.92</ele>
        <time>2014-05-02T10:31:20Z</time>
      </trkpt>
      <trkpt lat="44.60603" lon="5.23809">
        <ele>1000.35</ele>
        <time>2014-05-02T10:31:36Z</time>
      </trkpt>
      <trkpt lat="44.60588" lon="5.23824">
        <ele>998.88</ele>
        <time>2014-05-02T10:31:51Z</time>
      </trkpt>
      <trkpt lat="44.6058" lon="5.23847">
        <ele>996.94</ele>
        <time>2014-05-02T10:32:04Z</time>
      </trkpt>
      <trkpt lat="44.60574" lon="5.23873">
        <ele>995.05</ele>
        <time>2014-05-02T10:32:18Z</time>
      </trkpt>
      <trkpt lat="44.60564" lon="5.23895">
        <ele>993.74</ele>
        <time>2014-05-02T10:32:33Z</time>
      </trkpt>
      <trkpt lat="44.60551" lon="5.23911">
        <ele>992.68</ele>
        <time>2014-05-02T10:32:50Z</time>
      </trkpt>
      <trkpt lat="44.60533" lon="5.23921">
        <ele>991.14</ele>
        <time>2014-05-02T10:33:02Z</time>
      </trkpt>
      <trkpt lat="44.60516" lon="5.2393">
        <ele>988.94</ele>
        <time>2014-05-02T10:33:14Z</time>
      </trkpt>
      <trkpt lat="44.605" lon="5.23943">
        <ele>987.41</ele>
        <time>2014-05-02T10:33:26Z</time>
      </trkpt>
      <trkpt lat="44.60485" lon="5.23961">
        <ele>986.28</ele>
        <time>2014-05-02T10:33:40Z</time>
      </trkpt>
      <trkpt lat="44.60468" lon="5.2397">
        <ele>983.93</ele>
        <time>2014-05-02T10:33:55Z</time>
      </trkpt>
      <trkpt lat="44.60486" lon="5.23978">
        <ele>979.64</ele>
        <time>2014-05-02T10:34:27Z</time>
      </trkpt>
      <trkpt lat="44.60503" lon="5.23973">
        <ele>977.52</ele>
        <time>2014-05-02T10:34:40Z</time>
      </trkpt>
      <trkpt lat="44.6052" lon="5.23962">
        <ele>975.44</ele>
        <time>2014-05-02T10:34:56Z</time>
      </trkpt>
      <trkpt lat="44.60537" lon="5.23952">
        <ele>973.88</ele>
        <time>2014-05-02T10:35:34Z</time>
      </trkpt>
      <trkpt lat="44.60555" lon="5.23943">
        <ele>972.21</ele>
        <time>2014-05-02T10:35:48Z</time>
      </trkpt>
      <trkpt lat="44.60574" lon="5.23943">
        <ele>970.91</ele>
        <time>2014-05-02T10:36:03Z</time>
      </trkpt>
      <trkpt lat="44.60592" lon="5.23947">
        <ele>969.96</ele>
        <time>2014-05-02T10:36:18Z</time>
      </trkpt>
      <trkpt lat="44.60611" lon="5.23945">
        <ele>968.42</ele>
        <time>2014-05-02T10:36:31Z</time>
      </trkpt>
      <trkpt lat="44.60615" lon="5.23971">
        <ele>966.02</ele>
        <time>2014-05-02T10:36:47Z</time>
      </trkpt>
      <trkpt lat="44.60602" lon="5.23989">
        <ele>964.3</ele>
        <time>2014-05-02T10:37:00Z</time>
      </trkpt>
      <trkpt lat="44.60586" lon="5.24003">
        <ele>962.22</ele>
        <time>2014-05-02T10:37:16Z</time>
      </trkpt>
      <trkpt lat="44.60567" lon="5.24002">
        <ele>960.87</ele>
        <time>2014-05-02T10:37:30Z</time>
      </trkpt>
      <trkpt lat="44.60552" lon="5.24017">
        <ele>959</ele>
        <time>2014-05-02T10:37:43Z</time>
      </trkpt>
      <trkpt lat="44.60543" lon="5.2404">
        <ele>955.86</ele>
        <time>2014-05-02T10:38:03Z</time>
      </trkpt>
      <trkpt lat="44.60532" lon="5.24061">
        <ele>953.1</ele>
        <time>2014-05-02T10:38:19Z</time>
      </trkpt>
      <trkpt lat="44.60516" lon="5.24076">
        <ele>951.43</ele>
        <time>2014-05-02T10:38:32Z</time>
      </trkpt>
      <trkpt lat="44.60534" lon="5.24082">
        <ele>947.17</ele>
        <time>2014-05-02T10:38:56Z</time>
      </trkpt>
      <trkpt lat="44.60551" lon="5.24071">
        <ele>945.99</ele>
        <time>2014-05-02T10:39:11Z</time>
      </trkpt>
      <trkpt lat="44.60569" lon="5.24066">
        <ele>945.27</ele>
        <time>2014-05-02T10:39:25Z</time>
      </trkpt>
      <trkpt lat="44.60583" lon="5.24082">
        <ele>943.99</ele>
        <time>2014-05-02T10:39:38Z</time>
      </trkpt>
      <trkpt lat="44.60568" lon="5.24096">
        <ele>940.61</ele>
        <time>2014-05-02T10:40:14Z</time>
      </trkpt>
      <trkpt lat="44.6055" lon="5.24106">
        <ele>939.29</ele>
        <time>2014-05-02T10:40:27Z</time>
      </trkpt>
      <trkpt lat="44.60539" lon="5.24126">
        <ele>937.25</ele>
        <time>2014-05-02T10:40:39Z</time>
      </trkpt>
      <trkpt lat="44.60526" lon="5.24144">
        <ele>934.97</ele>
        <time>2014-05-02T10:40:54Z</time>
      </trkpt>
      <trkpt lat="44.6051" lon="5.24158">
        <ele>932.86</ele>
        <time>2014-05-02T10:41:10Z</time>
      </trkpt>
      <trkpt lat="44.60493" lon="5.24169">
        <ele>930.76</ele>
        <time>2014-05-02T10:41:45Z</time>
      </trkpt>
      <trkpt lat="44.60476" lon="5.2418">
        <ele>928.37</ele>
        <time>2014-05-02T10:41:58Z</time>
      </trkpt>
      <trkpt lat="44.60462" lon="5.24199">
        <ele>926.07</ele>
        <time>2014-05-02T10:42:12Z</time>
      </trkpt>
      <trkpt lat="44.60453" lon="5.24222">
        <ele>924.43</ele>
        <time>2014-05-02T10:42:25Z</time>
      </trkpt>
      <trkpt lat="44.60443" lon="5.24244">
        <ele>921.88</ele>
        <time>2014-05-02T10:42:41Z</time>
      </trkpt>
      <trkpt lat="44.60428" lon="5.24259">
        <ele>918.75</ele>
        <time>2014-05-02T10:42:57Z</time>
      </trkpt>
      <trkpt lat="44.60409" lon="5.2426">
        <ele>916.8</ele>
        <time>2014-05-02T10:43:12Z</time>
      </trkpt>
      <trkpt lat="44.6039" lon="5.24264">
        <ele>914.91</ele>
        <time>2014-05-02T10:43:26Z</time>
      </trkpt>
      <trkpt lat="44.60372" lon="5.24269">
        <ele>912.14</ele>
        <time>2014-05-02T10:43:39Z</time>
      </trkpt>
      <trkpt lat="44.60356" lon="5.2428">
        <ele>909.74</ele>
        <time>2014-05-02T10:43:52Z</time>
      </trkpt>
      <trkpt lat="44.60339" lon="5.24291">
        <ele>907.66</ele>
        <time>2014-05-02T10:44:07Z</time>
      </trkpt>
      <trkpt lat="44.6032" lon="5.2429">
        <ele>906.46</ele>
        <time>2014-05-02T10:44:22Z</time>
      </trkpt>
      <trkpt lat="44.60301" lon="5.24284">
        <ele>905.26</ele>
        <time>2014-05-02T10:44:35Z</time>
      </trkpt>
      <trkpt lat="44.60283" lon="5.24278">
        <ele>903.39</ele>
        <time>2014-05-02T10:44:49Z</time>
      </trkpt>
      <trkpt lat="44.60266" lon="5.24269">
        <ele>901.23</ele>
        <time>2014-05-02T10:45:04Z</time>
      </trkpt>
      <trkpt lat="44.60252" lon="5.24285">
        <ele>900.09</ele>
        <time>2014-05-02T10:45:22Z</time>
      </trkpt>
      <trkpt lat="44.60256" lon="5.2431">
        <ele>897.57</ele>
        <time>2014-05-02T10:45:35Z</time>
      </trkpt>
      <trkpt lat="44.60262" lon="5.24334">
        <ele>894.94</ele>
        <time>2014-05-02T10:45:50Z</time>
      </trkpt>
      <trkpt lat="44.6027" lon="5.24357">
        <ele>893.43</ele>
        <time>2014-05-02T10:46:03Z</time>
      </trkpt>
      <trkpt lat="44.6028" lon="5.2438">
        <ele>892.29</ele>
        <time>2014-05-02T10:46:18Z</time>
      </trkpt>
      <trkpt lat="44.60283" lon="5.24405">
        <ele>892.04</ele>
        <time>2014-05-02T10:46:31Z</time>
      </trkpt>
      <trkpt lat="44.60279" lon="5.2443">
        <ele>890.36</ele>
        <time>2014-05-02T10:46:44Z</time>
      </trkpt>
      <trkpt lat="44.6027" lon="5.24452">
        <ele>889.63</ele>
        <time>2014-05-02T10:46:57Z</time>
      </trkpt>
      <trkpt lat="44.60259" lon="5.24473">
        <ele>889.11</ele>
        <time>2014-05-02T10:47:11Z</time>
      </trkpt>
      <trkpt lat="44.60245" lon="5.24488">
        <ele>888.2</ele>
        <time>2014-05-02T10:47:24Z</time>
      </trkpt>
      <trkpt lat="44.60226" lon="5.24492">
        <ele>886.73</ele>
        <time>2014-05-02T10:47:38Z</time>
      </trkpt>
      <trkpt lat="44.60208" lon="5.24495">
        <ele>886.14</ele>
        <time>2014-05-02T10:47:52Z</time>
      </trkpt>
      <trkpt lat="44.60191" lon="5.24504">
        <ele>884.7</ele>
        <time>2014-05-02T10:48:05Z</time>
      </trkpt>
      <trkpt lat="44.60173" lon="5.24508">
        <ele>882.41</ele>
        <time>2014-05-02T10:48:27Z</time>
      </trkpt>
      <trkpt lat="44.60155" lon="5.24516">
        <ele>878.25</ele>
        <time>2014-05-02T10:50:01Z</time>
      </trkpt>
      <trkpt lat="44.60134" lon="5.24514">
        <ele>878.2</ele>
        <time>2014-05-02T10:50:15Z</time>
      </trkpt>
      <trkpt lat="44.60116" lon="5.24509">
        <ele>877.92</ele>
        <time>2014-05-02T10:50:22Z</time>
      </trkpt>
      <trkpt lat="44.60099" lon="5.24502">
        <ele>877.72</ele>
        <time>2014-05-02T10:50:30Z</time>
      </trkpt>
      <trkpt lat="44.60079" lon="5.24499">
        <ele>877.09</ele>
        <time>2014-05-02T10:50:39Z</time>
      </trkpt>
      <trkpt lat="44.6006" lon="5.24501">
        <ele>876.31</ele>
        <time>2014-05-02T10:50:50Z</time>
      </trkpt>
      <trkpt lat="44.60042" lon="5.2451">
        <ele>875.65</ele>
        <time>2014-05-02T10:50:58Z</time>
      </trkpt>
      <trkpt lat="44.60026" lon="5.24527">
        <ele>875.03</ele>
        <time>2014-05-02T10:51:06Z</time>
      </trkpt>
      <trkpt lat="44.60013" lon="5.24545">
        <ele>874.17</ele>
        <time>2014-05-02T10:51:14Z</time>
      </trkpt>
      <trkpt lat="44.59997" lon="5.24561">
        <ele>872.93</ele>
        <time>2014-05-02T10:51:27Z</time>
      </trkpt>
      <trkpt lat="44.59979" lon="5.24573">
        <ele>872.41</ele>
        <time>2014-05-02T10:51:38Z</time>
      </trkpt>
      <trkpt lat="44.59962" lon="5.24583">
        <ele>871.31</ele>
        <time>2014-05-02T10:51:50Z</time>
      </trkpt>
      <trkpt lat="44.59944" lon="5.24591">
        <ele>870.19</ele>
        <time>2014-05-02T10:52:01Z</time>
      </trkpt>
      <trkpt lat="44.59923" lon="5.24592">
        <ele>869.44</ele>
        <time>2014-05-02T10:52:09Z</time>
      </trkpt>
      <trkpt lat="44.59906" lon="5.24585">
        <ele>868.26</ele>
        <time>2014-05-02T10:52:18Z</time>
      </trkpt>
      <trkpt lat="44.59887" lon="5.2459">
        <ele>866.69</ele>
        <time>2014-05-02T10:52:29Z</time>
      </trkpt>
      <trkpt lat="44.5987" lon="5.24602">
        <ele>865.61</ele>
        <time>2014-05-02T10:52:37Z</time>
      </trkpt>
      <trkpt lat="44.59857" lon="5.2462">
        <ele>863.76</ele>
        <time>2014-05-02T10:52:49Z</time>
      </trkpt>
      <trkpt lat="44.59842" lon="5.24638">
        <ele>861.27</ele>
        <time>2014-05-02T10:53:07Z</time>
      </trkpt>
      <trkpt lat="44.59826" lon="5.24653">
        <ele>859.39</ele>
        <time>2014-05-02T10:53:23Z</time>
      </trkpt>
      <trkpt lat="44.59817" lon="5.24675">
        <ele>857.02</ele>
        <time>2014-05-02T10:53:37Z</time>
      </trkpt>
      <trkpt lat="44.59805" lon="5.24694">
        <ele>855.91</ele>
        <time>2014-05-02T10:53:48Z</time>
      </trkpt>
      <trkpt lat="44.59787" lon="5.24706">
        <ele>857</ele>
        <time>2014-05-02T10:59:16Z</time>
      </trkpt>
      <trkpt lat="44.59802" lon="5.24691">
        <ele>862.62</ele>
        <time>2014-05-02T11:16:22Z</time>
      </trkpt>
      <trkpt lat="44.59817" lon="5.24675">
        <ele>860.73</ele>
        <time>2014-05-02T11:21:30Z</time>
      </trkpt>
      <trkpt lat="44.5981" lon="5.24651">
        <ele>856.37</ele>
        <time>2014-05-02T11:21:55Z</time>
      </trkpt>
      <trkpt lat="44.59798" lon="5.2463">
        <ele>853.79</ele>
        <time>2014-05-02T11:22:11Z</time>
      </trkpt>
      <trkpt lat="44.59786" lon="5.2461">
        <ele>851.94</ele>
        <time>2014-05-02T11:22:27Z</time>
      </trkpt>
      <trkpt lat="44.59777" lon="5.24587">
        <ele>850.42</ele>
        <time>2014-05-02T11:22:41Z</time>
      </trkpt>
      <trkpt lat="44.59764" lon="5.24567">
        <ele>850.04</ele>
        <time>2014-05-02T11:22:57Z</time>
      </trkpt>
      <trkpt lat="44.59753" lon="5.24545">
        <ele>850.39</ele>
        <time>2014-05-02T11:23:11Z</time>
      </trkpt>
      <trkpt lat="44.59746" lon="5.24522">
        <ele>850.69</ele>
        <time>2014-05-02T11:23:25Z</time>
      </trkpt>
      <trkpt lat="44.59735" lon="5.24501">
        <ele>850.53</ele>
        <time>2014-05-02T11:23:39Z</time>
      </trkpt>
      <trkpt lat="44.59725" lon="5.24479">
        <ele>850.26</ele>
        <time>2014-05-02T11:23:52Z</time>
      </trkpt>
      <trkpt lat="44.59711" lon="5.24463">
        <ele>849.13</ele>
        <time>2014-05-02T11:24:05Z</time>
      </trkpt>
      <trkpt lat="44.59699" lon="5.24442">
        <ele>847.92</ele>
        <time>2014-05-02T11:24:22Z</time>
      </trkpt>
      <trkpt lat="44.59693" lon="5.24416">
        <ele>846.66</ele>
        <time>2014-05-02T11:24:35Z</time>
      </trkpt>
      <trkpt lat="44.59676" lon="5.24406">
        <ele>845.34</ele>
        <time>2014-05-02T11:25:10Z</time>
      </trkpt>
      <trkpt lat="44.59659" lon="5.244">
        <ele>844.06</ele>
        <time>2014-05-02T11:25:32Z</time>
      </trkpt>
      <trkpt lat="44.5964" lon="5.24395">
        <ele>844.68</ele>
        <time>2014-05-02T11:25:52Z</time>
      </trkpt>
      <trkpt lat="44.59632" lon="5.24373">
        <ele>848.83</ele>
        <time>2014-05-02T11:26:38Z</time>
      </trkpt>
      <trkpt lat="44.5964" lon="5.2435">
        <ele>854.55</ele>
        <time>2014-05-02T11:27:43Z</time>
      </trkpt>
      <trkpt lat="44.59658" lon="5.24344">
        <ele>856.51</ele>
        <time>2014-05-02T11:28:05Z</time>
      </trkpt>
      <trkpt lat="44.59676" lon="5.24341">
        <ele>860</ele>
        <time>2014-05-02T11:28:32Z</time>
      </trkpt>
      <trkpt lat="44.59661" lon="5.24328">
        <ele>868.47</ele>
        <time>2014-05-02T11:29:13Z</time>
      </trkpt>
      <trkpt lat="44.59643" lon="5.2432">
        <ele>870.88</ele>
        <time>2014-05-02T11:29:33Z</time>
      </trkpt>
      <trkpt lat="44.5966" lon="5.24308">
        <ele>875.78</ele>
        <time>2014-05-02T11:30:11Z</time>
      </trkpt>
      <trkpt lat="44.59644" lon="5.24294">
        <ele>884.91</ele>
        <time>2014-05-02T11:30:57Z</time>
      </trkpt>
      <trkpt lat="44.59627" lon="5.24291">
        <ele>891.7</ele>
        <time>2014-05-02T11:31:27Z</time>
      </trkpt>
      <trkpt lat="44.59609" lon="5.24285">
        <ele>897.06</ele>
        <time>2014-05-02T11:31:58Z</time>
      </trkpt>
      <trkpt lat="44.59592" lon="5.24275">
        <ele>902.35</ele>
        <time>2014-05-02T11:32:27Z</time>
      </trkpt>
      <trkpt lat="44.59582" lon="5.24254">
        <ele>906.14</ele>
        <time>2014-05-02T11:33:02Z</time>
      </trkpt>
      <trkpt lat="44.59565" lon="5.24244">
        <ele>909.67</ele>
        <time>2014-05-02T11:33:24Z</time>
      </trkpt>
      <trkpt lat="44.5957" lon="5.2422">
        <ele>915.83</ele>
        <time>2014-05-02T11:34:01Z</time>
      </trkpt>
      <trkpt lat="44.59582" lon="5.242">
        <ele>920.78</ele>
        <time>2014-05-02T11:34:32Z</time>
      </trkpt>
      <trkpt lat="44.59599" lon="5.24191">
        <ele>926.94</ele>
        <time>2014-05-02T11:35:08Z</time>
      </trkpt>
      <trkpt lat="44.59604" lon="5.24165">
        <ele>933.48</ele>
        <time>2014-05-02T11:35:47Z</time>
      </trkpt>
      <trkpt lat="44.59599" lon="5.2414">
        <ele>936.76</ele>
        <time>2014-05-02T11:36:09Z</time>
      </trkpt>
      <trkpt lat="44.59598" lon="5.24115">
        <ele>938.78</ele>
        <time>2014-05-02T11:36:26Z</time>
      </trkpt>
      <trkpt lat="44.59597" lon="5.24088">
        <ele>940.39</ele>
        <time>2014-05-02T11:36:43Z</time>
      </trkpt>
      <trkpt lat="44.59582" lon="5.24072">
        <ele>942.81</ele>
        <time>2014-05-02T11:37:01Z</time>
      </trkpt>
      <trkpt lat="44.59567" lon="5.24058">
        <ele>944.68</ele>
        <time>2014-05-02T11:37:21Z</time>
      </trkpt>
      <trkpt lat="44.5955" lon="5.24047">
        <ele>946.51</ele>
        <time>2014-05-02T11:37:42Z</time>
      </trkpt>
      <trkpt lat="44.59533" lon="5.24036">
        <ele>947.26</ele>
        <time>2014-05-02T11:38:01Z</time>
      </trkpt>
      <trkpt lat="44.59517" lon="5.24023">
        <ele>948.87</ele>
        <time>2014-05-02T11:38:23Z</time>
      </trkpt>
      <trkpt lat="44.59499" lon="5.24016">
        <ele>952.48</ele>
        <time>2014-05-02T11:38:43Z</time>
      </trkpt>
      <trkpt lat="44.59481" lon="5.24012">
        <ele>953.79</ele>
        <time>2014-05-02T11:39:01Z</time>
      </trkpt>
      <trkpt lat="44.59462" lon="5.24009">
        <ele>953.89</ele>
        <time>2014-05-02T11:39:17Z</time>
      </trkpt>
      <trkpt lat="44.59448" lon="5.23993">
        <ele>954.31</ele>
        <time>2014-05-02T11:39:50Z</time>
      </trkpt>
      <trkpt lat="44.59433" lon="5.23976">
        <ele>955.97</ele>
        <time>2014-05-02T11:40:07Z</time>
      </trkpt>
      <trkpt lat="44.59421" lon="5.23958">
        <ele>958.08</ele>
        <time>2014-05-02T11:40:27Z</time>
      </trkpt>
      <trkpt lat="44.5941" lon="5.23936">
        <ele>960.01</ele>
        <time>2014-05-02T11:40:45Z</time>
      </trkpt>
      <trkpt lat="44.59394" lon="5.23921">
        <ele>961.27</ele>
        <time>2014-05-02T11:41:01Z</time>
      </trkpt>
      <trkpt lat="44.59382" lon="5.23902">
        <ele>961.18</ele>
        <time>2014-05-02T11:41:17Z</time>
      </trkpt>
      <trkpt lat="44.59368" lon="5.23886">
        <ele>961.28</ele>
        <time>2014-05-02T11:41:36Z</time>
      </trkpt>
      <trkpt lat="44.59351" lon="5.23877">
        <ele>961.23</ele>
        <time>2014-05-02T11:41:53Z</time>
      </trkpt>
      <trkpt lat="44.59338" lon="5.23859">
        <ele>961.28</ele>
        <time>2014-05-02T11:42:08Z</time>
      </trkpt>
      <trkpt lat="44.59334" lon="5.23834">
        <ele>962.98</ele>
        <time>2014-05-02T11:42:37Z</time>
      </trkpt>
      <trkpt lat="44.59324" lon="5.23812">
        <ele>963.75</ele>
        <time>2014-05-02T11:42:57Z</time>
      </trkpt>
      <trkpt lat="44.59317" lon="5.23789">
        <ele>966.07</ele>
        <time>2014-05-02T11:43:28Z</time>
      </trkpt>
      <trkpt lat="44.59301" lon="5.23775">
        <ele>969.68</ele>
        <time>2014-05-02T11:43:58Z</time>
      </trkpt>
      <trkpt lat="44.5929" lon="5.23795">
        <ele>973.57</ele>
        <time>2014-05-02T11:44:15Z</time>
      </trkpt>
      <trkpt lat="44.59272" lon="5.23795">
        <ele>974.09</ele>
        <time>2014-05-02T11:46:48Z</time>
      </trkpt>
      <trkpt lat="44.59253" lon="5.23798">
        <ele>974.16</ele>
        <time>2014-05-02T11:47:02Z</time>
      </trkpt>
      <trkpt lat="44.59235" lon="5.23805">
        <ele>973.72</ele>
        <time>2014-05-02T11:47:18Z</time>
      </trkpt>
      <trkpt lat="44.59217" lon="5.23805">
        <ele>972.67</ele>
        <time>2014-05-02T11:47:32Z</time>
      </trkpt>
      <trkpt lat="44.59214" lon="5.2383">
        <ele>971.15</ele>
        <time>2014-05-02T11:47:58Z</time>
      </trkpt>
      <trkpt lat="44.59213" lon="5.23857">
        <ele>971.63</ele>
        <time>2014-05-02T11:48:14Z</time>
      </trkpt>
      <trkpt lat="44.59201" lon="5.23876">
        <ele>971.4</ele>
        <time>2014-05-02T11:48:28Z</time>
      </trkpt>
      <trkpt lat="44.59184" lon="5.23889">
        <ele>971.3</ele>
        <time>2014-05-02T11:48:49Z</time>
      </trkpt>
      <trkpt lat="44.59176" lon="5.23912">
        <ele>972.98</ele>
        <time>2014-05-02T11:49:08Z</time>
      </trkpt>
      <trkpt lat="44.59175" lon="5.23938">
        <ele>974.59</ele>
        <time>2014-05-02T11:49:34Z</time>
      </trkpt>
      <trkpt lat="44.59162" lon="5.23955">
        <ele>975.71</ele>
        <time>2014-05-02T11:49:51Z</time>
      </trkpt>
      <trkpt lat="44.59159" lon="5.2398">
        <ele>978.36</ele>
        <time>2014-05-02T11:50:18Z</time>
      </trkpt>
      <trkpt lat="44.59147" lon="5.23999">
        <ele>981.29</ele>
        <time>2014-05-02T11:50:39Z</time>
      </trkpt>
      <trkpt lat="44.59131" lon="5.24014">
        <ele>983.85</ele>
        <time>2014-05-02T11:50:53Z</time>
      </trkpt>
      <trkpt lat="44.59121" lon="5.24035">
        <ele>988.14</ele>
        <time>2014-05-02T11:51:19Z</time>
      </trkpt>
      <trkpt lat="44.59104" lon="5.24046">
        <ele>992.84</ele>
        <time>2014-05-02T11:51:51Z</time>
      </trkpt>
      <trkpt lat="44.59088" lon="5.2406">
        <ele>995.71</ele>
        <time>2014-05-02T11:52:14Z</time>
      </trkpt>
      <trkpt lat="44.59081" lon="5.24083">
        <ele>998.75</ele>
        <time>2014-05-02T11:52:41Z</time>
      </trkpt>
      <trkpt lat="44.59064" lon="5.24092">
        <ele>1005.01</ele>
        <time>2014-05-02T11:53:13Z</time>
      </trkpt>
      <trkpt lat="44.59045" lon="5.24093">
        <ele>1011.64</ele>
        <time>2014-05-02T11:53:42Z</time>
      </trkpt>
      <trkpt lat="44.59027" lon="5.24097">
        <ele>1015.4</ele>
        <time>2014-05-02T11:54:04Z</time>
      </trkpt>
      <trkpt lat="44.59014" lon="5.24115">
        <ele>1020.18</ele>
        <time>2014-05-02T11:54:30Z</time>
      </trkpt>
      <trkpt lat="44.59001" lon="5.24135">
        <ele>1023.73</ele>
        <time>2014-05-02T11:54:49Z</time>
      </trkpt>
      <trkpt lat="44.58983" lon="5.24141">
        <ele>1028.95</ele>
        <time>2014-05-02T11:55:43Z</time>
      </trkpt>
      <trkpt lat="44.58967" lon="5.2413">
        <ele>1033.05</ele>
        <time>2014-05-02T11:56:32Z</time>
      </trkpt>
      <trkpt lat="44.58952" lon="5.24115">
        <ele>1034.89</ele>
        <time>2014-05-02T11:56:53Z</time>
      </trkpt>
      <trkpt lat="44.5894" lon="5.24095">
        <ele>1038.58</ele>
        <time>2014-05-02T11:57:21Z</time>
      </trkpt>
      <trkpt lat="44.58925" lon="5.2408">
        <ele>1043.69</ele>
        <time>2014-05-02T11:57:47Z</time>
      </trkpt>
      <trkpt lat="44.58908" lon="5.24071">
        <ele>1045.7</ele>
        <time>2014-05-02T11:58:02Z</time>
      </trkpt>
      <trkpt lat="44.5889" lon="5.24064">
        <ele>1047.36</ele>
        <time>2014-05-02T11:58:19Z</time>
      </trkpt>
      <trkpt lat="44.58872" lon="5.24059">
        <ele>1049.46</ele>
        <time>2014-05-02T11:58:39Z</time>
      </trkpt>
      <trkpt lat="44.58854" lon="5.24054">
        <ele>1051.45</ele>
        <time>2014-05-02T11:58:57Z</time>
      </trkpt>
      <trkpt lat="44.58835" lon="5.24048">
        <ele>1052.85</ele>
        <time>2014-05-02T11:59:14Z</time>
      </trkpt>
      <trkpt lat="44.58817" lon="5.24044">
        <ele>1055.23</ele>
        <time>2014-05-02T12:00:07Z</time>
      </trkpt>
      <trkpt lat="44.58799" lon="5.24041">
        <ele>1056.81</ele>
        <time>2014-05-02T12:00:25Z</time>
      </trkpt>
      <trkpt lat="44.58781" lon="5.24038">
        <ele>1059.14</ele>
        <time>2014-05-02T12:00:46Z</time>
      </trkpt>
      <trkpt lat="44.58767" lon="5.24022">
        <ele>1059.98</ele>
        <time>2014-05-02T12:01:42Z</time>
      </trkpt>
      <trkpt lat="44.58758" lon="5.24">
        <ele>1064.2</ele>
        <time>2014-05-02T12:02:27Z</time>
      </trkpt>
      <trkpt lat="44.58742" lon="5.23985">
        <ele>1067.35</ele>
        <time>2014-05-02T12:02:51Z</time>
      </trkpt>
      <trkpt lat="44.58731" lon="5.23964">
        <ele>1072.42</ele>
        <time>2014-05-02T12:04:33Z</time>
      </trkpt>
      <trkpt lat="44.58738" lon="5.23939">
        <ele>1074.09</ele>
        <time>2014-05-02T12:04:51Z</time>
      </trkpt>
      <trkpt lat="44.5874" lon="5.23914">
        <ele>1075.83</ele>
        <time>2014-05-02T12:05:06Z</time>
      </trkpt>
      <trkpt lat="44.5873" lon="5.23892">
        <ele>1075.72</ele>
        <time>2014-05-02T12:05:20Z</time>
      </trkpt>
      <trkpt lat="44.58718" lon="5.23872">
        <ele>1075.46</ele>
        <time>2014-05-02T12:05:35Z</time>
      </trkpt>
      <trkpt lat="44.58707" lon="5.23853">
        <ele>1075.1</ele>
        <time>2014-05-02T12:05:50Z</time>
      </trkpt>
      <trkpt lat="44.58688" lon="5.23845">
        <ele>1075.78</ele>
        <time>2014-05-02T12:06:07Z</time>
      </trkpt>
      <trkpt lat="44.58671" lon="5.23835">
        <ele>1075.65</ele>
        <time>2014-05-02T12:06:20Z</time>
      </trkpt>
      <trkpt lat="44.58654" lon="5.23822">
        <ele>1075.77</ele>
        <time>2014-05-02T12:06:37Z</time>
      </trkpt>
      <trkpt lat="44.58637" lon="5.23811">
        <ele>1075.23</ele>
        <time>2014-05-02T12:06:51Z</time>
      </trkpt>
      <trkpt lat="44.58619" lon="5.23803">
        <ele>1074.95</ele>
        <time>2014-05-02T12:07:06Z</time>
      </trkpt>
      <trkpt lat="44.58601" lon="5.23801">
        <ele>1075.27</ele>
        <time>2014-05-02T12:07:23Z</time>
      </trkpt>
      <trkpt lat="44.58582" lon="5.23802">
        <ele>1075.37</ele>
        <time>2014-05-02T12:07:37Z</time>
      </trkpt>
      <trkpt lat="44.58565" lon="5.23791">
        <ele>1075.06</ele>
        <time>2014-05-02T12:07:52Z</time>
      </trkpt>
      <trkpt lat="44.58546" lon="5.23791">
        <ele>1074.01</ele>
        <time>2014-05-02T12:08:08Z</time>
      </trkpt>
      <trkpt lat="44.58528" lon="5.23798">
        <ele>1073.34</ele>
        <time>2014-05-02T12:08:20Z</time>
      </trkpt>
      <trkpt lat="44.5851" lon="5.23792">
        <ele>1072.55</ele>
        <time>2014-05-02T12:08:34Z</time>
      </trkpt>
      <trkpt lat="44.58494" lon="5.23779">
        <ele>1071.34</ele>
        <time>2014-05-02T12:08:48Z</time>
      </trkpt>
      <trkpt lat="44.58476" lon="5.2377">
        <ele>1070.06</ele>
        <time>2014-05-02T12:09:03Z</time>
      </trkpt>
      <trkpt lat="44.58468" lon="5.23792">
        <ele>1068.04</ele>
        <time>2014-05-02T12:09:17Z</time>
      </trkpt>
      <trkpt lat="44.5845" lon="5.23804">
        <ele>1065.78</ele>
        <time>2014-05-02T12:09:32Z</time>
      </trkpt>
      <trkpt lat="44.58434" lon="5.23815">
        <ele>1064.12</ele>
        <time>2014-05-02T12:09:46Z</time>
      </trkpt>
      <trkpt lat="44.58418" lon="5.23831">
        <ele>1062.81</ele>
        <time>2014-05-02T12:10:02Z</time>
      </trkpt>
      <trkpt lat="44.58403" lon="5.23847">
        <ele>1061.42</ele>
        <time>2014-05-02T12:10:16Z</time>
      </trkpt>
      <trkpt lat="44.5839" lon="5.23865">
        <ele>1060.19</ele>
        <time>2014-05-02T12:10:30Z</time>
      </trkpt>
      <trkpt lat="44.58375" lon="5.2388">
        <ele>1058.15</ele>
        <time>2014-05-02T12:10:46Z</time>
      </trkpt>
      <trkpt lat="44.5836" lon="5.23896">
        <ele>1056.22</ele>
        <time>2014-05-02T12:10:59Z</time>
      </trkpt>
      <trkpt lat="44.58344" lon="5.23911">
        <ele>1053.81</ele>
        <time>2014-05-02T12:11:13Z</time>
      </trkpt>
      <trkpt lat="44.58329" lon="5.23925">
        <ele>1052.28</ele>
        <time>2014-05-02T12:11:26Z</time>
      </trkpt>
      <trkpt lat="44.5831" lon="5.23924">
        <ele>1050.37</ele>
        <time>2014-05-02T12:11:50Z</time>
      </trkpt>
      <trkpt lat="44.58293" lon="5.23915">
        <ele>1049.95</ele>
        <time>2014-05-02T12:12:13Z</time>
      </trkpt>
      <trkpt lat="44.58275" lon="5.23917">
        <ele>1051.28</ele>
        <time>2014-05-02T12:12:35Z</time>
      </trkpt>
      <trkpt lat="44.58258" lon="5.23925">
        <ele>1052.97</ele>
        <time>2014-05-02T12:12:52Z</time>
      </trkpt>
      <trkpt lat="44.5824" lon="5.23931">
        <ele>1055.24</ele>
        <time>2014-05-02T12:13:10Z</time>
      </trkpt>
      <trkpt lat="44.58223" lon="5.23941">
        <ele>1056.01</ele>
        <time>2014-05-02T12:13:24Z</time>
      </trkpt>
      <trkpt lat="44.58203" lon="5.23946">
        <ele>1056.36</ele>
        <time>2014-05-02T12:13:43Z</time>
      </trkpt>
      <trkpt lat="44.58185" lon="5.23952">
        <ele>1057.08</ele>
        <time>2014-05-02T12:13:58Z</time>
      </trkpt>
      <trkpt lat="44.58173" lon="5.23972">
        <ele>1056.85</ele>
        <time>2014-05-02T12:14:12Z</time>
      </trkpt>
      <trkpt lat="44.58159" lon="5.2399">
        <ele>1055.28</ele>
        <time>2014-05-02T12:14:25Z</time>
      </trkpt>
      <trkpt lat="44.58152" lon="5.24014">
        <ele>1055.87</ele>
        <time>2014-05-02T12:14:41Z</time>
      </trkpt>
      <trkpt lat="44.58147" lon="5.24039">
        <ele>1056.22</ele>
        <time>2014-05-02T12:14:55Z</time>
      </trkpt>
      <trkpt lat="44.58142" lon="5.24064">
        <ele>1055.96</ele>
        <time>2014-05-02T12:15:10Z</time>
      </trkpt>
      <trkpt lat="44.58138" lon="5.24089">
        <ele>1054.79</ele>
        <time>2014-05-02T12:15:23Z</time>
      </trkpt>
      <trkpt lat="44.58139" lon="5.24115">
        <ele>1054.12</ele>
        <time>2014-05-02T12:15:44Z</time>
      </trkpt>
      <trkpt lat="44.58144" lon="5.24142">
        <ele>1053.27</ele>
        <time>2014-05-02T12:15:57Z</time>
      </trkpt>
      <trkpt lat="44.58144" lon="5.24167">
        <ele>1052.09</ele>
        <time>2014-05-02T12:16:10Z</time>
      </trkpt>
      <trkpt lat="44.58141" lon="5.24193">
        <ele>1051.95</ele>
        <time>2014-05-02T12:16:25Z</time>
      </trkpt>
      <trkpt lat="44.58126" lon="5.24208">
        <ele>1052.07</ele>
        <time>2014-05-02T12:16:39Z</time>
      </trkpt>
      <trkpt lat="44.58108" lon="5.24215">
        <ele>1050.84</ele>
        <time>2014-05-02T12:16:57Z</time>
      </trkpt>
      <trkpt lat="44.58092" lon="5.24229">
        <ele>1047.62</ele>
        <time>2014-05-02T12:17:10Z</time>
      </trkpt>
      <trkpt lat="44.58079" lon="5.24246">
        <ele>1043.94</ele>
        <time>2014-05-02T12:17:27Z</time>
      </trkpt>
      <trkpt lat="44.58068" lon="5.24269">
        <ele>1042.47</ele>
        <time>2014-05-02T12:17:43Z</time>
      </trkpt>
      <trkpt lat="44.58062" lon="5.24295">
        <ele>1040.54</ele>
        <time>2014-05-02T12:17:57Z</time>
      </trkpt>
      <trkpt lat="44.58052" lon="5.24317">
        <ele>1039.92</ele>
        <time>2014-05-02T12:18:11Z</time>
      </trkpt>
      <trkpt lat="44.5804" lon="5.24337">
        <ele>1038.61</ele>
        <time>2014-05-02T12:18:24Z</time>
      </trkpt>
      <trkpt lat="44.58031" lon="5.24361">
        <ele>1036.98</ele>
        <time>2014-05-02T12:18:40Z</time>
      </trkpt>
      <trkpt lat="44.58024" lon="5.24385">
        <ele>1036.2</ele>
        <time>2014-05-02T12:18:55Z</time>
      </trkpt>
      <trkpt lat="44.58009" lon="5.244">
        <ele>1034.66</ele>
        <time>2014-05-02T12:19:11Z</time>
      </trkpt>
      <trkpt lat="44.57991" lon="5.24406">
        <ele>1034.46</ele>
        <time>2014-05-02T12:19:27Z</time>
      </trkpt>
      <trkpt lat="44.57972" lon="5.24402">
        <ele>1033.44</ele>
        <time>2014-05-02T12:19:39Z</time>
      </trkpt>
      <trkpt lat="44.57954" lon="5.24408">
        <ele>1031.54</ele>
        <time>2014-05-02T12:19:55Z</time>
      </trkpt>
      <trkpt lat="44.57935" lon="5.2441">
        <ele>1030.23</ele>
        <time>2014-05-02T12:20:12Z</time>
      </trkpt>
      <trkpt lat="44.57917" lon="5.24414">
        <ele>1027.91</ele>
        <time>2014-05-02T12:20:25Z</time>
      </trkpt>
      <trkpt lat="44.579" lon="5.24422">
        <ele>1027.06</ele>
        <time>2014-05-02T12:20:37Z</time>
      </trkpt>
      <trkpt lat="44.57884" lon="5.24434">
        <ele>1024.78</ele>
        <time>2014-05-02T12:20:51Z</time>
      </trkpt>
      <trkpt lat="44.57866" lon="5.2444">
        <ele>1021.4</ele>
        <time>2014-05-02T12:21:05Z</time>
      </trkpt>
      <trkpt lat="44.57851" lon="5.24457">
        <ele>1017.78</ele>
        <time>2014-05-02T12:21:23Z</time>
      </trkpt>
      <trkpt lat="44.57836" lon="5.24472">
        <ele>1014.27</ele>
        <time>2014-05-02T12:21:38Z</time>
      </trkpt>
      <trkpt lat="44.57818" lon="5.24478">
        <ele>1009.69</ele>
        <time>2014-05-02T12:21:54Z</time>
      </trkpt>
      <trkpt lat="44.57808" lon="5.24499">
        <ele>1004.05</ele>
        <time>2014-05-02T12:22:11Z</time>
      </trkpt>
      <trkpt lat="44.57804" lon="5.24524">
        <ele>996.81</ele>
        <time>2014-05-02T12:22:46Z</time>
      </trkpt>
      <trkpt lat="44.5779" lon="5.24542">
        <ele>991.93</ele>
        <time>2014-05-02T12:23:05Z</time>
      </trkpt>
      <trkpt lat="44.57773" lon="5.24551">
        <ele>987.81</ele>
        <time>2014-05-02T12:23:20Z</time>
      </trkpt>
      <trkpt lat="44.57755" lon="5.24543">
        <ele>977.49</ele>
        <time>2014-05-02T12:26:06Z</time>
      </trkpt>
      <trkpt lat="44.57736" lon="5.2454">
        <ele>975.96</ele>
        <time>2014-05-02T12:26:23Z</time>
      </trkpt>
      <trkpt lat="44.5772" lon="5.24527">
        <ele>974.05</ele>
        <time>2014-05-02T12:26:40Z</time>
      </trkpt>
      <trkpt lat="44.57705" lon="5.24513">
        <ele>972.94</ele>
        <time>2014-05-02T12:26:57Z</time>
      </trkpt>
      <trkpt lat="44.5769" lon="5.24496">
        <ele>971.84</ele>
        <time>2014-05-02T12:27:14Z</time>
      </trkpt>
      <trkpt lat="44.5768" lon="5.24474">
        <ele>970.35</ele>
        <time>2014-05-02T12:27:28Z</time>
      </trkpt>
      <trkpt lat="44.57663" lon="5.24466">
        <ele>969.23</ele>
        <time>2014-05-02T12:27:45Z</time>
      </trkpt>
      <trkpt lat="44.57647" lon="5.24454">
        <ele>967.12</ele>
        <time>2014-05-02T12:27:58Z</time>
      </trkpt>
      <trkpt lat="44.57636" lon="5.24433">
        <ele>965.17</ele>
        <time>2014-05-02T12:28:20Z</time>
      </trkpt>
      <trkpt lat="44.57619" lon="5.24423">
        <ele>965.27</ele>
        <time>2014-05-02T12:28:40Z</time>
      </trkpt>
      <trkpt lat="44.57601" lon="5.24425">
        <ele>965.28</ele>
        <time>2014-05-02T12:29:03Z</time>
      </trkpt>
      <trkpt lat="44.57583" lon="5.24435">
        <ele>967.16</ele>
        <time>2014-05-02T12:29:23Z</time>
      </trkpt>
      <trkpt lat="44.57567" lon="5.24448">
        <ele>970.88</ele>
        <time>2014-05-02T12:29:41Z</time>
      </trkpt>
      <trkpt lat="44.57549" lon="5.24454">
        <ele>972.84</ele>
        <time>2014-05-02T12:29:56Z</time>
      </trkpt>
      <trkpt lat="44.5753" lon="5.24452">
        <ele>975.89</ele>
        <time>2014-05-02T12:30:16Z</time>
      </trkpt>
      <trkpt lat="44.57512" lon="5.2445">
        <ele>978.11</ele>
        <time>2014-05-02T12:30:37Z</time>
      </trkpt>
      <trkpt lat="44.57494" lon="5.24446">
        <ele>979.38</ele>
        <time>2014-05-02T12:30:54Z</time>
      </trkpt>
      <trkpt lat="44.57476" lon="5.24439">
        <ele>980.81</ele>
        <time>2014-05-02T12:31:15Z</time>
      </trkpt>
      <trkpt lat="44.57458" lon="5.24432">
        <ele>982.54</ele>
        <time>2014-05-02T12:31:35Z</time>
      </trkpt>
      <trkpt lat="44.57443" lon="5.24418">
        <ele>985.69</ele>
        <time>2014-05-02T12:31:55Z</time>
      </trkpt>
      <trkpt lat="44.57428" lon="5.24403">
        <ele>988.57</ele>
        <time>2014-05-02T12:32:12Z</time>
      </trkpt>
      <trkpt lat="44.57413" lon="5.24384">
        <ele>990.41</ele>
        <time>2014-05-02T12:32:26Z</time>
      </trkpt>
      <trkpt lat="44.57397" lon="5.24373">
        <ele>989.16</ele>
        <time>2014-05-02T12:32:42Z</time>
      </trkpt>
      <trkpt lat="44.57379" lon="5.24369">
        <ele>988.11</ele>
        <time>2014-05-02T12:32:56Z</time>
      </trkpt>
      <trkpt lat="44.57362" lon="5.2436">
        <ele>987.8</ele>
        <time>2014-05-02T12:33:13Z</time>
      </trkpt>
      <trkpt lat="44.57344" lon="5.24358">
        <ele>986.5</ele>
        <time>2014-05-02T12:33:29Z</time>
      </trkpt>
      <trkpt lat="44.57325" lon="5.24356">
        <ele>986.7</ele>
        <time>2014-05-02T12:33:47Z</time>
      </trkpt>
      <trkpt lat="44.57307" lon="5.24353">
        <ele>988.03</ele>
        <time>2014-05-02T12:34:09Z</time>
      </trkpt>
      <trkpt lat="44.57289" lon="5.24349">
        <ele>990.01</ele>
        <time>2014-05-02T12:34:29Z</time>
      </trkpt>
      <trkpt lat="44.57272" lon="5.24342">
        <ele>991.15</ele>
        <time>2014-05-02T12:34:50Z</time>
      </trkpt>
      <trkpt lat="44.57256" lon="5.24328">
        <ele>993.17</ele>
        <time>2014-05-02T12:35:08Z</time>
      </trkpt>
      <trkpt lat="44.57241" lon="5.24313">
        <ele>995.46</ele>
        <time>2014-05-02T12:35:24Z</time>
      </trkpt>
      <trkpt lat="44.57222" lon="5.24308">
        <ele>998.3</ele>
        <time>2014-05-02T12:35:44Z</time>
      </trkpt>
      <trkpt lat="44.57204" lon="5.24298">
        <ele>999.96</ele>
        <time>2014-05-02T12:36:00Z</time>
      </trkpt>
      <trkpt lat="44.57188" lon="5.24286">
        <ele>1000.12</ele>
        <time>2014-05-02T12:36:16Z</time>
      </trkpt>
      <trkpt lat="44.57172" lon="5.24272">
        <ele>999.67</ele>
        <time>2014-05-02T12:36:33Z</time>
      </trkpt>
      <trkpt lat="44.57163" lon="5.24251">
        <ele>998.29</ele>
        <time>2014-05-02T12:36:48Z</time>
      </trkpt>
      <trkpt lat="44.57154" lon="5.24227">
        <ele>996.99</ele>
        <time>2014-05-02T12:37:04Z</time>
      </trkpt>
      <trkpt lat="44.57137" lon="5.24216">
        <ele>994.68</ele>
        <time>2014-05-02T12:37:33Z</time>
      </trkpt>
      <trkpt lat="44.5712" lon="5.24209">
        <ele>995.71</ele>
        <time>2014-05-02T12:37:49Z</time>
      </trkpt>
      <trkpt lat="44.57102" lon="5.24206">
        <ele>997.24</ele>
        <time>2014-05-02T12:38:19Z</time>
      </trkpt>
      <trkpt lat="44.57086" lon="5.24194">
        <ele>999.44</ele>
        <time>2014-05-02T12:38:50Z</time>
      </trkpt>
      <trkpt lat="44.57068" lon="5.2419">
        <ele>1001.73</ele>
        <time>2014-05-02T12:39:19Z</time>
      </trkpt>
      <trkpt lat="44.57052" lon="5.24204">
        <ele>1004.37</ele>
        <time>2014-05-02T12:39:42Z</time>
      </trkpt>
      <trkpt lat="44.5704" lon="5.24223">
        <ele>1005.56</ele>
        <time>2014-05-02T12:40:00Z</time>
      </trkpt>
      <trkpt lat="44.57032" lon="5.24246">
        <ele>1007.27</ele>
        <time>2014-05-02T12:40:17Z</time>
      </trkpt>
      <trkpt lat="44.5702" lon="5.24267">
        <ele>1008.68</ele>
        <time>2014-05-02T12:40:33Z</time>
      </trkpt>
      <trkpt lat="44.57009" lon="5.24289">
        <ele>1011.65</ele>
        <time>2014-05-02T12:45:46Z</time>
      </trkpt>
      <trkpt lat="44.57011" lon="5.24315">
        <ele>1013.28</ele>
        <time>2014-05-02T12:46:05Z</time>
      </trkpt>
      <trkpt lat="44.57021" lon="5.24337">
        <ele>1014.57</ele>
        <time>2014-05-02T12:46:16Z</time>
      </trkpt>
      <trkpt lat="44.57029" lon="5.24361">
        <ele>1014.86</ele>
        <time>2014-05-02T12:46:34Z</time>
      </trkpt>
      <trkpt lat="44.57029" lon="5.24388">
        <ele>1014.84</ele>
        <time>2014-05-02T12:46:48Z</time>
      </trkpt>
      <trkpt lat="44.57022" lon="5.24413">
        <ele>1013.73</ele>
        <time>2014-05-02T12:47:07Z</time>
      </trkpt>
      <trkpt lat="44.57016" lon="5.24437">
        <ele>1012.82</ele>
        <time>2014-05-02T12:47:22Z</time>
      </trkpt>
      <trkpt lat="44.57006" lon="5.24458">
        <ele>1012.17</ele>
        <time>2014-05-02T12:47:34Z</time>
      </trkpt>
      <trkpt lat="44.56997" lon="5.24481">
        <ele>1011.09</ele>
        <time>2014-05-02T12:47:49Z</time>
      </trkpt>
      <trkpt lat="44.5699" lon="5.24504">
        <ele>1010.51</ele>
        <time>2014-05-02T12:48:03Z</time>
      </trkpt>
      <trkpt lat="44.56979" lon="5.24526">
        <ele>1009.18</ele>
        <time>2014-05-02T12:48:17Z</time>
      </trkpt>
      <trkpt lat="44.56974" lon="5.2455">
        <ele>1005.79</ele>
        <time>2014-05-02T12:48:38Z</time>
      </trkpt>
      <trkpt lat="44.56971" lon="5.24578">
        <ele>1005.59</ele>
        <time>2014-05-02T12:48:51Z</time>
      </trkpt>
      <trkpt lat="44.56971" lon="5.24605">
        <ele>1004.82</ele>
        <time>2014-05-02T12:49:08Z</time>
      </trkpt>
      <trkpt lat="44.56972" lon="5.24631">
        <ele>1004.63</ele>
        <time>2014-05-02T12:49:21Z</time>
      </trkpt>
      <trkpt lat="44.56967" lon="5.24656">
        <ele>1003.85</ele>
        <time>2014-05-02T12:49:34Z</time>
      </trkpt>
      <trkpt lat="44.56969" lon="5.24682">
        <ele>1002.62</ele>
        <time>2014-05-02T12:49:47Z</time>
      </trkpt>
      <trkpt lat="44.5697" lon="5.24707">
        <ele>1001.42</ele>
        <time>2014-05-02T12:50:01Z</time>
      </trkpt>
      <trkpt lat="44.56974" lon="5.24733">
        <ele>999.93</ele>
        <time>2014-05-02T12:50:18Z</time>
      </trkpt>
      <trkpt lat="44.56982" lon="5.24757">
        <ele>998.92</ele>
        <time>2014-05-02T12:50:29Z</time>
      </trkpt>
      <trkpt lat="44.56983" lon="5.24782">
        <ele>996.42</ele>
        <time>2014-05-02T12:50:42Z</time>
      </trkpt>
      <trkpt lat="44.56987" lon="5.24809">
        <ele>993.64</ele>
        <time>2014-05-02T12:50:56Z</time>
      </trkpt>
      <trkpt lat="44.56994" lon="5.24833">
        <ele>990.59</ele>
        <time>2014-05-02T12:51:11Z</time>
      </trkpt>
      <trkpt lat="44.57" lon="5.24858">
        <ele>985.05</ele>
        <time>2014-05-02T12:51:30Z</time>
      </trkpt>
      <trkpt lat="44.57004" lon="5.24883">
        <ele>978.65</ele>
        <time>2014-05-02T12:51:50Z</time>
      </trkpt>
      <trkpt lat="44.56999" lon="5.24908">
        <ele>971.04</ele>
        <time>2014-05-02T12:52:10Z</time>
      </trkpt>
      <trkpt lat="44.56988" lon="5.24929">
        <ele>965.53</ele>
        <time>2014-05-02T12:52:28Z</time>
      </trkpt>
      <trkpt lat="44.56999" lon="5.24949">
        <ele>956.68</ele>
        <time>2014-05-02T12:52:58Z</time>
      </trkpt>
      <trkpt lat="44.57013" lon="5.24966">
        <ele>951.49</ele>
        <time>2014-05-02T12:53:15Z</time>
      </trkpt>
      <trkpt lat="44.57023" lon="5.24989">
        <ele>946.19</ele>
        <time>2014-05-02T12:53:31Z</time>
      </trkpt>
      <trkpt lat="44.57039" lon="5.25002">
        <ele>940.96</ele>
        <time>2014-05-02T12:53:47Z</time>
      </trkpt>
      <trkpt lat="44.57044" lon="5.25026">
        <ele>936.16</ele>
        <time>2014-05-02T12:54:01Z</time>
      </trkpt>
      <trkpt lat="44.57049" lon="5.25051">
        <ele>930.17</ele>
        <time>2014-05-02T12:54:19Z</time>
      </trkpt>
      <trkpt lat="44.57065" lon="5.25065">
        <ele>924.31</ele>
        <time>2014-05-02T12:54:37Z</time>
      </trkpt>
      <trkpt lat="44.5708" lon="5.2508">
        <ele>920</ele>
        <time>2014-05-02T12:54:51Z</time>
      </trkpt>
      <trkpt lat="44.57093" lon="5.25097">
        <ele>917.09</ele>
        <time>2014-05-02T12:55:04Z</time>
      </trkpt>
      <trkpt lat="44.57108" lon="5.25115">
        <ele>914.16</ele>
        <time>2014-05-02T12:55:18Z</time>
      </trkpt>
      <trkpt lat="44.57121" lon="5.25135">
        <ele>910.74</ele>
        <time>2014-05-02T12:55:32Z</time>
      </trkpt>
      <trkpt lat="44.57124" lon="5.25162">
        <ele>907.1</ele>
        <time>2014-05-02T12:55:47Z</time>
      </trkpt>
      <trkpt lat="44.57133" lon="5.25185">
        <ele>902.4</ele>
        <time>2014-05-02T12:56:25Z</time>
      </trkpt>
      <trkpt lat="44.57145" lon="5.25206">
        <ele>898.62</ele>
        <time>2014-05-02T12:56:40Z</time>
      </trkpt>
      <trkpt lat="44.57158" lon="5.25224">
        <ele>894.64</ele>
        <time>2014-05-02T12:56:55Z</time>
      </trkpt>
      <trkpt lat="44.57166" lon="5.25248">
        <ele>891.25</ele>
        <time>2014-05-02T12:57:09Z</time>
      </trkpt>
      <trkpt lat="44.57157" lon="5.25271">
        <ele>888.38</ele>
        <time>2014-05-02T12:57:23Z</time>
      </trkpt>
      <trkpt lat="44.57148" lon="5.25295">
        <ele>886.05</ele>
        <time>2014-05-02T12:57:41Z</time>
      </trkpt>
      <trkpt lat="44.57139" lon="5.25318">
        <ele>884.87</ele>
        <time>2014-05-02T12:57:57Z</time>
      </trkpt>
      <trkpt lat="44.57132" lon="5.25343">
        <ele>884.45</ele>
        <time>2014-05-02T12:58:11Z</time>
      </trkpt>
      <trkpt lat="44.57128" lon="5.25368">
        <ele>883.28</ele>
        <time>2014-05-02T12:58:26Z</time>
      </trkpt>
      <trkpt lat="44.57131" lon="5.25393">
        <ele>882.89</ele>
        <time>2014-05-02T12:58:44Z</time>
      </trkpt>
      <trkpt lat="44.57125" lon="5.25418">
        <ele>881.96</ele>
        <time>2014-05-02T12:58:59Z</time>
      </trkpt>
      <trkpt lat="44.57117" lon="5.25442">
        <ele>881.17</ele>
        <time>2014-05-02T12:59:10Z</time>
      </trkpt>
      <trkpt lat="44.5711" lon="5.25466">
        <ele>879.9</ele>
        <time>2014-05-02T12:59:22Z</time>
      </trkpt>
      <trkpt lat="44.57101" lon="5.2549">
        <ele>878.2</ele>
        <time>2014-05-02T12:59:37Z</time>
      </trkpt>
      <trkpt lat="44.57096" lon="5.25514">
        <ele>877.26</ele>
        <time>2014-05-02T12:59:48Z</time>
      </trkpt>
      <trkpt lat="44.57086" lon="5.25537">
        <ele>875.88</ele>
        <time>2014-05-02T13:00:06Z</time>
      </trkpt>
      <trkpt lat="44.57085" lon="5.25563">
        <ele>875.56</ele>
        <time>2014-05-02T13:00:20Z</time>
      </trkpt>
      <trkpt lat="44.57084" lon="5.25589">
        <ele>874.83</ele>
        <time>2014-05-02T13:00:36Z</time>
      </trkpt>
      <trkpt lat="44.57081" lon="5.25615">
        <ele>874.75</ele>
        <time>2014-05-02T13:00:55Z</time>
      </trkpt>
      <trkpt lat="44.57075" lon="5.2564">
        <ele>875.02</ele>
        <time>2014-05-02T13:01:10Z</time>
      </trkpt>
      <trkpt lat="44.57074" lon="5.25665">
        <ele>874.73</ele>
        <time>2014-05-02T13:01:21Z</time>
      </trkpt>
      <trkpt lat="44.57073" lon="5.25691">
        <ele>874.74</ele>
        <time>2014-05-02T13:01:36Z</time>
      </trkpt>
      <trkpt lat="44.57074" lon="5.25719">
        <ele>874.91</ele>
        <time>2014-05-02T13:01:56Z</time>
      </trkpt>
      <trkpt lat="44.57076" lon="5.25745">
        <ele>874.9</ele>
        <time>2014-05-02T13:02:12Z</time>
      </trkpt>
      <trkpt lat="44.57078" lon="5.25771">
        <ele>874.49</ele>
        <time>2014-05-02T13:02:29Z</time>
      </trkpt>
      <trkpt lat="44.57081" lon="5.25797">
        <ele>875.24</ele>
        <time>2014-05-02T13:02:48Z</time>
      </trkpt>
      <trkpt lat="44.57088" lon="5.2582">
        <ele>876.86</ele>
        <time>2014-05-02T13:03:08Z</time>
      </trkpt>
      <trkpt lat="44.57086" lon="5.25846">
        <ele>879.35</ele>
        <time>2014-05-02T13:03:33Z</time>
      </trkpt>
      <trkpt lat="44.57083" lon="5.25871">
        <ele>881.78</ele>
        <time>2014-05-02T13:03:52Z</time>
      </trkpt>
      <trkpt lat="44.57082" lon="5.25897">
        <ele>881.97</ele>
        <time>2014-05-02T13:04:23Z</time>
      </trkpt>
      <trkpt lat="44.57096" lon="5.25914">
        <ele>880.78</ele>
        <time>2014-05-02T13:04:43Z</time>
      </trkpt>
      <trkpt lat="44.57105" lon="5.25936">
        <ele>879.01</ele>
        <time>2014-05-02T13:04:59Z</time>
      </trkpt>
      <trkpt lat="44.57117" lon="5.25955">
        <ele>875.87</ele>
        <time>2014-05-02T13:05:15Z</time>
      </trkpt>
      <trkpt lat="44.57127" lon="5.25979">
        <ele>873.45</ele>
        <time>2014-05-02T13:05:31Z</time>
      </trkpt>
      <trkpt lat="44.57144" lon="5.25988">
        <ele>869.83</ele>
        <time>2014-05-02T13:05:48Z</time>
      </trkpt>
      <trkpt lat="44.57157" lon="5.26009">
        <ele>866.92</ele>
        <time>2014-05-02T13:06:04Z</time>
      </trkpt>
      <trkpt lat="44.57164" lon="5.26033">
        <ele>863.02</ele>
        <time>2014-05-02T13:06:21Z</time>
      </trkpt>
      <trkpt lat="44.57177" lon="5.26052">
        <ele>859.76</ele>
        <time>2014-05-02T13:06:38Z</time>
      </trkpt>
      <trkpt lat="44.57186" lon="5.26074">
        <ele>854.28</ele>
        <time>2014-05-02T13:06:55Z</time>
      </trkpt>
      <trkpt lat="44.5719" lon="5.26099">
        <ele>848.25</ele>
        <time>2014-05-02T13:07:21Z</time>
      </trkpt>
      <trkpt lat="44.57187" lon="5.26124">
        <ele>845.34</ele>
        <time>2014-05-02T13:07:42Z</time>
      </trkpt>
      <trkpt lat="44.57196" lon="5.26146">
        <ele>842.52</ele>
        <time>2014-05-02T13:08:16Z</time>
      </trkpt>
      <trkpt lat="44.57213" lon="5.26152">
        <ele>846.82</ele>
        <time>2014-05-02T13:11:06Z</time>
      </trkpt>
      <trkpt lat="44.57231" lon="5.26161">
        <ele>846.57</ele>
        <time>2014-05-02T13:11:33Z</time>
      </trkpt>
      <trkpt lat="44.57247" lon="5.26172">
        <ele>844.92</ele>
        <time>2014-05-02T13:12:02Z</time>
      </trkpt>
      <trkpt lat="44.57262" lon="5.26188">
        <ele>841.35</ele>
        <time>2014-05-02T13:12:23Z</time>
      </trkpt>
      <trkpt lat="44.57278" lon="5.26201">
        <ele>838.34</ele>
        <time>2014-05-02T13:12:39Z</time>
      </trkpt>
      <trkpt lat="44.57294" lon="5.26212">
        <ele>834.23</ele>
        <time>2014-05-02T13:12:55Z</time>
      </trkpt>
      <trkpt lat="44.57309" lon="5.26228">
        <ele>830.96</ele>
        <time>2014-05-02T13:13:11Z</time>
      </trkpt>
      <trkpt lat="44.57324" lon="5.26243">
        <ele>827.66</ele>
        <time>2014-05-02T13:13:28Z</time>
      </trkpt>
      <trkpt lat="44.5734" lon="5.26254">
        <ele>823.62</ele>
        <time>2014-05-02T13:13:52Z</time>
      </trkpt>
      <trkpt lat="44.57347" lon="5.26278">
        <ele>818.69</ele>
        <time>2014-05-02T13:14:14Z</time>
      </trkpt>
      <trkpt lat="44.57356" lon="5.26301">
        <ele>815.23</ele>
        <time>2014-05-02T13:14:29Z</time>
      </trkpt>
      <trkpt lat="44.5737" lon="5.26318">
        <ele>810.99</ele>
        <time>2014-05-02T13:14:46Z</time>
      </trkpt>
      <trkpt lat="44.5738" lon="5.2634">
        <ele>807.89</ele>
        <time>2014-05-02T13:15:02Z</time>
      </trkpt>
      <trkpt lat="44.5739" lon="5.26362">
        <ele>804.31</ele>
        <time>2014-05-02T13:15:19Z</time>
      </trkpt>
      <trkpt lat="44.57396" lon="5.26387">
        <ele>801.92</ele>
        <time>2014-05-02T13:15:34Z</time>
      </trkpt>
      <trkpt lat="44.574" lon="5.26412">
        <ele>799.5</ele>
        <time>2014-05-02T13:15:52Z</time>
      </trkpt>
      <trkpt lat="44.57403" lon="5.26438">
        <ele>796.09</ele>
        <time>2014-05-02T13:16:11Z</time>
      </trkpt>
      <trkpt lat="44.574" lon="5.26463">
        <ele>792.57</ele>
        <time>2014-05-02T13:16:55Z</time>
      </trkpt>
      <trkpt lat="44.57403" lon="5.26489">
        <ele>789.72</ele>
        <time>2014-05-02T13:17:11Z</time>
      </trkpt>
      <trkpt lat="44.57407" lon="5.26513">
        <ele>786.95</ele>
        <time>2014-05-02T13:17:26Z</time>
      </trkpt>
      <trkpt lat="44.57408" lon="5.26539">
        <ele>785.93</ele>
        <time>2014-05-02T13:17:40Z</time>
      </trkpt>
      <trkpt lat="44.57414" lon="5.26564">
        <ele>783.67</ele>
        <time>2014-05-02T13:17:56Z</time>
      </trkpt>
      <trkpt lat="44.57412" lon="5.2659">
        <ele>782.78</ele>
        <time>2014-05-02T13:18:10Z</time>
      </trkpt>
      <trkpt lat="44.57417" lon="5.26615">
        <ele>782.23</ele>
        <time>2014-05-02T13:18:25Z</time>
      </trkpt>
      <trkpt lat="44.57417" lon="5.26642">
        <ele>780.07</ele>
        <time>2014-05-02T13:18:41Z</time>
      </trkpt>
      <trkpt lat="44.57418" lon="5.26667">
        <ele>778.59</ele>
        <time>2014-05-02T13:18:56Z</time>
      </trkpt>
      <trkpt lat="44.57422" lon="5.26693">
        <ele>774.67</ele>
        <time>2014-05-02T13:19:15Z</time>
      </trkpt>
      <trkpt lat="44.57429" lon="5.26717">
        <ele>769.13</ele>
        <time>2014-05-02T13:19:43Z</time>
      </trkpt>
      <trkpt lat="44.57439" lon="5.26739">
        <ele>765.38</ele>
        <time>2014-05-02T13:19:59Z</time>
      </trkpt>
      <trkpt lat="44.57444" lon="5.26765">
        <ele>761.98</ele>
        <time>2014-05-02T13:20:17Z</time>
      </trkpt>
      <trkpt lat="44.57443" lon="5.26791">
        <ele>757.11</ele>
        <time>2014-05-02T13:20:39Z</time>
      </trkpt>
      <trkpt lat="44.57431" lon="5.26812">
        <ele>754.61</ele>
        <time>2014-05-02T13:20:52Z</time>
      </trkpt>
      <trkpt lat="44.57417" lon="5.2683">
        <ele>751.57</ele>
        <time>2014-05-02T13:21:07Z</time>
      </trkpt>
      <trkpt lat="44.57401" lon="5.26841">
        <ele>750.3</ele>
        <time>2014-05-02T13:21:14Z</time>
      </trkpt>
      <trkpt lat="44.57384" lon="5.26852">
        <ele>748.65</ele>
        <time>2014-05-02T13:21:22Z</time>
      </trkpt>
      <trkpt lat="44.57369" lon="5.26868">
        <ele>739.07</ele>
        <time>2014-05-02T13:24:50Z</time>
      </trkpt>
      <trkpt lat="44.5735" lon="5.26873">
        <ele>735.47</ele>
        <time>2014-05-02T13:25:12Z</time>
      </trkpt>
      <trkpt lat="44.57335" lon="5.26887">
        <ele>734.13</ele>
        <time>2014-05-02T13:25:26Z</time>
      </trkpt>
      <trkpt lat="44.57345" lon="5.2691">
        <ele>730.23</ele>
        <time>2014-05-02T13:25:46Z</time>
      </trkpt>
      <trkpt lat="44.57361" lon="5.26923">
        <ele>727.24</ele>
        <time>2014-05-02T13:26:01Z</time>
      </trkpt>
      <trkpt lat="44.57348" lon="5.26941">
        <ele>722.14</ele>
        <time>2014-05-02T13:26:30Z</time>
      </trkpt>
      <trkpt lat="44.57331" lon="5.26953">
        <ele>717.84</ele>
        <time>2014-05-02T13:26:46Z</time>
      </trkpt>
      <trkpt lat="44.57313" lon="5.26945">
        <ele>714.58</ele>
        <time>2014-05-02T13:26:58Z</time>
      </trkpt>
      <trkpt lat="44.57296" lon="5.2694">
        <ele>712.19</ele>
        <time>2014-05-02T13:27:11Z</time>
      </trkpt>
      <trkpt lat="44.57277" lon="5.26943">
        <ele>710.32</ele>
        <time>2014-05-02T13:27:25Z</time>
      </trkpt>
      <trkpt lat="44.57261" lon="5.26958">
        <ele>707.97</ele>
        <time>2014-05-02T13:27:38Z</time>
      </trkpt>
      <trkpt lat="44.57254" lon="5.26982">
        <ele>703.63</ele>
        <time>2014-05-02T13:27:56Z</time>
      </trkpt>
      <trkpt lat="44.57251" lon="5.27007">
        <ele>698.75</ele>
        <time>2014-05-02T13:28:20Z</time>
      </trkpt>
      <trkpt lat="44.57243" lon="5.27032">
        <ele>696.34</ele>
        <time>2014-05-02T13:28:32Z</time>
      </trkpt>
      <trkpt lat="44.57243" lon="5.27058">
        <ele>693.86</ele>
        <time>2014-05-02T13:28:45Z</time>
      </trkpt>
      <trkpt lat="44.57232" lon="5.27079">
        <ele>691.18</ele>
        <time>2014-05-02T13:29:01Z</time>
      </trkpt>
      <trkpt lat="44.57219" lon="5.27098">
        <ele>688.62</ele>
        <time>2014-05-02T13:29:17Z</time>
      </trkpt>
      <trkpt lat="44.57203" lon="5.27111">
        <ele>686.39</ele>
        <time>2014-05-02T13:29:35Z</time>
      </trkpt>
      <trkpt lat="44.57219" lon="5.27125">
        <ele>683.79</ele>
        <time>2014-05-02T13:29:59Z</time>
      </trkpt>
      <trkpt lat="44.57237" lon="5.27125">
        <ele>682.66</ele>
        <time>2014-05-02T13:30:14Z</time>
      </trkpt>
      <trkpt lat="44.57252" lon="5.27112">
        <ele>681.15</ele>
        <time>2014-05-02T13:30:30Z</time>
      </trkpt>
      <trkpt lat="44.57268" lon="5.27099">
        <ele>679.39</ele>
        <time>2014-05-02T13:30:49Z</time>
      </trkpt>
      <trkpt lat="44.57284" lon="5.2711">
        <ele>678.13</ele>
        <time>2014-05-02T13:31:06Z</time>
      </trkpt>
      <trkpt lat="44.57301" lon="5.27122">
        <ele>676.62</ele>
        <time>2014-05-02T13:31:22Z</time>
      </trkpt>
      <trkpt lat="44.57318" lon="5.27133">
        <ele>675.22</ele>
        <time>2014-05-02T13:31:38Z</time>
      </trkpt>
      <trkpt lat="44.5733" lon="5.27153">
        <ele>672.55</ele>
        <time>2014-05-02T13:31:57Z</time>
      </trkpt>
      <trkpt lat="44.57347" lon="5.27163">
        <ele>670.63</ele>
        <time>2014-05-02T13:32:11Z</time>
      </trkpt>
      <trkpt lat="44.57364" lon="5.27173">
        <ele>668.66</ele>
        <time>2014-05-02T13:32:27Z</time>
      </trkpt>
      <trkpt lat="44.57381" lon="5.27186">
        <ele>665.58</ele>
        <time>2014-05-02T13:32:42Z</time>
      </trkpt>
      <trkpt lat="44.57399" lon="5.27192">
        <ele>664.82</ele>
        <time>2014-05-02T13:32:59Z</time>
      </trkpt>
      <trkpt lat="44.57417" lon="5.27191">
        <ele>664.87</ele>
        <time>2014-05-02T13:33:14Z</time>
      </trkpt>
      <trkpt lat="44.57434" lon="5.27201">
        <ele>664.57</ele>
        <time>2014-05-02T13:33:29Z</time>
      </trkpt>
      <trkpt lat="44.57452" lon="5.27205">
        <ele>662.49</ele>
        <time>2014-05-02T13:33:44Z</time>
      </trkpt>
      <trkpt lat="44.5747" lon="5.27214">
        <ele>660.12</ele>
        <time>2014-05-02T13:33:59Z</time>
      </trkpt>
      <trkpt lat="44.57488" lon="5.27222">
        <ele>656.68</ele>
        <time>2014-05-02T13:34:13Z</time>
      </trkpt>
      <trkpt lat="44.57504" lon="5.27234">
        <ele>653.79</ele>
        <time>2014-05-02T13:34:30Z</time>
      </trkpt>
      <trkpt lat="44.57486" lon="5.27243">
        <ele>650.47</ele>
        <time>2014-05-02T13:34:46Z</time>
      </trkpt>
      <trkpt lat="44.57469" lon="5.27255">
        <ele>648.06</ele>
        <time>2014-05-02T13:35:01Z</time>
      </trkpt>
      <trkpt lat="44.57453" lon="5.27265">
        <ele>646.86</ele>
        <time>2014-05-02T13:35:17Z</time>
      </trkpt>
      <trkpt lat="44.57435" lon="5.27274">
        <ele>645.89</ele>
        <time>2014-05-02T13:35:30Z</time>
      </trkpt>
      <trkpt lat="44.57421" lon="5.27289">
        <ele>644.39</ele>
        <time>2014-05-02T13:35:46Z</time>
      </trkpt>
      <trkpt lat="44.57402" lon="5.27289">
        <ele>643.76</ele>
        <time>2014-05-02T13:36:00Z</time>
      </trkpt>
      <trkpt lat="44.57382" lon="5.27286">
        <ele>643.07</ele>
        <time>2014-05-02T13:36:14Z</time>
      </trkpt>
      <trkpt lat="44.57365" lon="5.27278">
        <ele>641.32</ele>
        <time>2014-05-02T13:36:33Z</time>
      </trkpt>
      <trkpt lat="44.57348" lon="5.27268">
        <ele>639.57</ele>
        <time>2014-05-02T13:36:46Z</time>
      </trkpt>
      <trkpt lat="44.57332" lon="5.27255">
        <ele>637.83</ele>
        <time>2014-05-02T13:37:00Z</time>
      </trkpt>
      <trkpt lat="44.57314" lon="5.27247">
        <ele>635.18</ele>
        <time>2014-05-02T13:37:14Z</time>
      </trkpt>
      <trkpt lat="44.573" lon="5.27264">
        <ele>633.59</ele>
        <time>2014-05-02T13:37:27Z</time>
      </trkpt>
      <trkpt lat="44.57284" lon="5.27278">
        <ele>633.12</ele>
        <time>2014-05-02T13:37:40Z</time>
      </trkpt>
      <trkpt lat="44.57268" lon="5.27293">
        <ele>631.7</ele>
        <time>2014-05-02T13:37:55Z</time>
      </trkpt>
      <trkpt lat="44.57252" lon="5.27307">
        <ele>629.83</ele>
        <time>2014-05-02T13:38:09Z</time>
      </trkpt>
      <trkpt lat="44.57233" lon="5.27312">
        <ele>629.21</ele>
        <time>2014-05-02T13:38:23Z</time>
      </trkpt>
      <trkpt lat="44.57215" lon="5.27319">
        <ele>628.47</ele>
        <time>2014-05-02T13:38:39Z</time>
      </trkpt>
      <trkpt lat="44.57197" lon="5.27322">
        <ele>626.8</ele>
        <time>2014-05-02T13:38:52Z</time>
      </trkpt>
      <trkpt lat="44.57181" lon="5.27336">
        <ele>624.48</ele>
        <time>2014-05-02T13:39:08Z</time>
      </trkpt>
      <trkpt lat="44.57164" lon="5.27345">
        <ele>622.75</ele>
        <time>2014-05-02T13:39:27Z</time>
      </trkpt>
      <trkpt lat="44.57144" lon="5.27342">
        <ele>622.04</ele>
        <time>2014-05-02T13:39:43Z</time>
      </trkpt>
      <trkpt lat="44.5715" lon="5.27366">
        <ele>619.95</ele>
        <time>2014-05-02T13:40:03Z</time>
      </trkpt>
      <trkpt lat="44.57136" lon="5.27383">
        <ele>617.4</ele>
        <time>2014-05-02T13:40:25Z</time>
      </trkpt>
      <trkpt lat="44.57118" lon="5.27391">
        <ele>614.92</ele>
        <time>2014-05-02T13:40:40Z</time>
      </trkpt>
      <trkpt lat="44.571" lon="5.27391">
        <ele>611.89</ele>
        <time>2014-05-02T13:40:57Z</time>
      </trkpt>
      <trkpt lat="44.57081" lon="5.27385">
        <ele>609.84</ele>
        <time>2014-05-02T13:41:11Z</time>
      </trkpt>
      <trkpt lat="44.57067" lon="5.27369">
        <ele>607.63</ele>
        <time>2014-05-02T13:41:27Z</time>
      </trkpt>
      <trkpt lat="44.57052" lon="5.27353">
        <ele>605.35</ele>
        <time>2014-05-02T13:41:40Z</time>
      </trkpt>
      <trkpt lat="44.57036" lon="5.27338">
        <ele>601.96</ele>
        <time>2014-05-02T13:41:55Z</time>
      </trkpt>
      <trkpt lat="44.57026" lon="5.27316">
        <ele>598.5</ele>
        <time>2014-05-02T13:42:11Z</time>
      </trkpt>
      <trkpt lat="44.57016" lon="5.27294">
        <ele>595.91</ele>
        <time>2014-05-02T13:42:25Z</time>
      </trkpt>
      <trkpt lat="44.57006" lon="5.27272">
        <ele>593.66</ele>
        <time>2014-05-02T13:42:40Z</time>
      </trkpt>
      <trkpt lat="44.56996" lon="5.2725">
        <ele>590.03</ele>
        <time>2014-05-02T13:43:46Z</time>
      </trkpt>
      <trkpt lat="44.56984" lon="5.2723">
        <ele>587.84</ele>
        <time>2014-05-02T13:44:10Z</time>
      </trkpt>
      <trkpt lat="44.56974" lon="5.27208">
        <ele>586.66</ele>
        <time>2014-05-02T13:44:25Z</time>
      </trkpt>
      <trkpt lat="44.5696" lon="5.27191">
        <ele>585.48</ele>
        <time>2014-05-02T13:44:43Z</time>
      </trkpt>
      <trkpt lat="44.56951" lon="5.27215">
        <ele>583.43</ele>
        <time>2014-05-02T13:45:21Z</time>
      </trkpt>
      <trkpt lat="44.56955" lon="5.27241">
        <ele>582.1</ele>
        <time>2014-05-02T13:45:35Z</time>
      </trkpt>
      <trkpt lat="44.5696" lon="5.27267">
        <ele>580.35</ele>
        <time>2014-05-02T13:45:51Z</time>
      </trkpt>
      <trkpt lat="44.56958" lon="5.27295">
        <ele>578.11</ele>
        <time>2014-05-02T13:46:12Z</time>
      </trkpt>
      <trkpt lat="44.56958" lon="5.27322">
        <ele>576.12</ele>
        <time>2014-05-02T13:46:22Z</time>
      </trkpt>
      <trkpt lat="44.56957" lon="5.27348">
        <ele>573.19</ele>
        <time>2014-05-02T13:46:35Z</time>
      </trkpt>
      <trkpt lat="44.56964" lon="5.27373">
        <ele>570.02</ele>
        <time>2014-05-02T13:46:51Z</time>
      </trkpt>
      <trkpt lat="44.56973" lon="5.27395">
        <ele>567.78</ele>
        <time>2014-05-02T13:47:05Z</time>
      </trkpt>
      <trkpt lat="44.5698" lon="5.27419">
        <ele>565.46</ele>
        <time>2014-05-02T13:47:29Z</time>
      </trkpt>
      <trkpt lat="44.56988" lon="5.27442">
        <ele>564.97</ele>
        <time>2014-05-02T13:47:43Z</time>
      </trkpt>
      <trkpt lat="44.56995" lon="5.27465">
        <ele>563.86</ele>
        <time>2014-05-02T13:48:19Z</time>
      </trkpt>
      <trkpt lat="44.56984" lon="5.27485">
        <ele>563</ele>
        <time>2014-05-02T13:50:14Z</time>
      </trkpt>
      <trkpt lat="44.56974" lon="5.27506">
        <ele>562.8</ele>
        <time>2014-05-02T13:51:27Z</time>
      </trkpt>
      <trkpt lat="44.56964" lon="5.27527">
        <ele>564.45</ele>
        <time>2014-05-02T13:54:43Z</time>
      </trkpt>
      <trkpt lat="44.56977" lon="5.27545">
        <ele>565.84</ele>
        <time>2014-05-02T13:55:25Z</time>
      </trkpt>
      <trkpt lat="44.56973" lon="5.2757">
        <ele>564.89</ele>
        <time>2014-05-02T13:55:41Z</time>
      </trkpt>
      <trkpt lat="44.56972" lon="5.27596">
        <ele>566.49</ele>
        <time>2014-05-02T13:58:35Z</time>
      </trkpt>
      <trkpt lat="44.56961" lon="5.27617">
        <ele>567.53</ele>
        <time>2014-05-02T13:58:58Z</time>
      </trkpt>
      <trkpt lat="44.56949" lon="5.27636">
        <ele>568.66</ele>
        <time>2014-05-02T13:59:33Z</time>
      </trkpt>
      <trkpt lat="44.56933" lon="5.27649">
        <ele>571.5</ele>
        <time>2014-05-02T13:59:50Z</time>
      </trkpt>
      <trkpt lat="44.56937" lon="5.27655">
        <ele>563.44</ele>
        <time>2014-05-03T06:11:27Z</time>
      </trkpt>
      <trkpt lat="44.56952" lon="5.27632">
        <ele>566.24</ele>
        <time>2014-05-03T06:12:11Z</time>
      </trkpt>
      <trkpt lat="44.56936" lon="5.27648">
        <ele>597.14</ele>
        <time>2014-05-03T06:14:39Z</time>
      </trkpt>
      <trkpt lat="44.56934" lon="5.27673">
        <ele>595.61</ele>
        <time>2014-05-03T06:15:05Z</time>
      </trkpt>
      <trkpt lat="44.56945" lon="5.27692">
        <ele>594.29</ele>
        <time>2014-05-03T06:15:38Z</time>
      </trkpt>
      <trkpt lat="44.5694" lon="5.27717">
        <ele>593.28</ele>
        <time>2014-05-03T06:16:10Z</time>
      </trkpt>
      <trkpt lat="44.56936" lon="5.27742">
        <ele>592.66</ele>
        <time>2014-05-03T06:16:43Z</time>
      </trkpt>
      <trkpt lat="44.56941" lon="5.27767">
        <ele>592.5</ele>
        <time>2014-05-03T06:17:25Z</time>
      </trkpt>
      <trkpt lat="44.56933" lon="5.27789">
        <ele>593.33</ele>
        <time>2014-05-03T06:18:32Z</time>
      </trkpt>
      <trkpt lat="44.56926" lon="5.27814">
        <ele>593.31</ele>
        <time>2014-05-03T06:18:49Z</time>
      </trkpt>
      <trkpt lat="44.56922" lon="5.27839">
        <ele>593.33</ele>
        <time>2014-05-03T06:19:06Z</time>
      </trkpt>
      <trkpt lat="44.56919" lon="5.27864">
        <ele>593.53</ele>
        <time>2014-05-03T06:19:21Z</time>
      </trkpt>
      <trkpt lat="44.56916" lon="5.27891">
        <ele>593.92</ele>
        <time>2014-05-03T06:19:37Z</time>
      </trkpt>
      <trkpt lat="44.56914" lon="5.27916">
        <ele>594.44</ele>
        <time>2014-05-03T06:19:52Z</time>
      </trkpt>
      <trkpt lat="44.56912" lon="5.27942">
        <ele>594.8</ele>
        <time>2014-05-03T06:20:07Z</time>
      </trkpt>
      <trkpt lat="44.56911" lon="5.27968">
        <ele>595.25</ele>
        <time>2014-05-03T06:20:22Z</time>
      </trkpt>
      <trkpt lat="44.5691" lon="5.27994">
        <ele>595.72</ele>
        <time>2014-05-03T06:20:38Z</time>
      </trkpt>
      <trkpt lat="44.56908" lon="5.28019">
        <ele>596.28</ele>
        <time>2014-05-03T06:21:00Z</time>
      </trkpt>
      <trkpt lat="44.56912" lon="5.28044">
        <ele>597.58</ele>
        <time>2014-05-03T06:21:38Z</time>
      </trkpt>
      <trkpt lat="44.56909" lon="5.2807">
        <ele>598.93</ele>
        <time>2014-05-03T06:22:06Z</time>
      </trkpt>
      <trkpt lat="44.56904" lon="5.28095">
        <ele>600.12</ele>
        <time>2014-05-03T06:22:30Z</time>
      </trkpt>
      <trkpt lat="44.56894" lon="5.28117">
        <ele>601.54</ele>
        <time>2014-05-03T06:22:57Z</time>
      </trkpt>
      <trkpt lat="44.56892" lon="5.28142">
        <ele>603.46</ele>
        <time>2014-05-03T06:23:27Z</time>
      </trkpt>
      <trkpt lat="44.56897" lon="5.28167">
        <ele>605.45</ele>
        <time>2014-05-03T06:23:58Z</time>
      </trkpt>
      <trkpt lat="44.56894" lon="5.28192">
        <ele>607.75</ele>
        <time>2014-05-03T06:24:28Z</time>
      </trkpt>
      <trkpt lat="44.5689" lon="5.28217">
        <ele>609.6</ele>
        <time>2014-05-03T06:24:53Z</time>
      </trkpt>
      <trkpt lat="44.56908" lon="5.2822">
        <ele>613.65</ele>
        <time>2014-05-03T06:25:44Z</time>
      </trkpt>
      <trkpt lat="44.56926" lon="5.28213">
        <ele>618.44</ele>
        <time>2014-05-03T06:26:47Z</time>
      </trkpt>
      <trkpt lat="44.56944" lon="5.28204">
        <ele>619.97</ele>
        <time>2014-05-03T06:27:07Z</time>
      </trkpt>
      <trkpt lat="44.56962" lon="5.28203">
        <ele>621.72</ele>
        <time>2014-05-03T06:27:30Z</time>
      </trkpt>
      <trkpt lat="44.56975" lon="5.28222">
        <ele>624.57</ele>
        <time>2014-05-03T06:28:06Z</time>
      </trkpt>
      <trkpt lat="44.5699" lon="5.28237">
        <ele>626.4</ele>
        <time>2014-05-03T06:28:27Z</time>
      </trkpt>
      <trkpt lat="44.57006" lon="5.28251">
        <ele>628.14</ele>
        <time>2014-05-03T06:28:46Z</time>
      </trkpt>
      <trkpt lat="44.57017" lon="5.28272">
        <ele>630.16</ele>
        <time>2014-05-03T06:29:07Z</time>
      </trkpt>
      <trkpt lat="44.57031" lon="5.28287">
        <ele>632.49</ele>
        <time>2014-05-03T06:29:32Z</time>
      </trkpt>
      <trkpt lat="44.57047" lon="5.283">
        <ele>634.61</ele>
        <time>2014-05-03T06:29:55Z</time>
      </trkpt>
      <trkpt lat="44.57061" lon="5.28317">
        <ele>636.11</ele>
        <time>2014-05-03T06:30:11Z</time>
      </trkpt>
      <trkpt lat="44.57074" lon="5.28336">
        <ele>637.81</ele>
        <time>2014-05-03T06:30:29Z</time>
      </trkpt>
      <trkpt lat="44.57091" lon="5.28344">
        <ele>639.75</ele>
        <time>2014-05-03T06:30:51Z</time>
      </trkpt>
      <trkpt lat="44.57109" lon="5.28352">
        <ele>647</ele>
        <time>2014-05-03T06:32:15Z</time>
      </trkpt>
      <trkpt lat="44.57126" lon="5.2836">
        <ele>649.82</ele>
        <time>2014-05-03T06:32:47Z</time>
      </trkpt>
      <trkpt lat="44.5712" lon="5.28385">
        <ele>654.23</ele>
        <time>2014-05-03T06:33:33Z</time>
      </trkpt>
      <trkpt lat="44.57107" lon="5.28402">
        <ele>656.63</ele>
        <time>2014-05-03T06:33:59Z</time>
      </trkpt>
      <trkpt lat="44.57126" lon="5.284">
        <ele>662.08</ele>
        <time>2014-05-03T06:34:58Z</time>
      </trkpt>
      <trkpt lat="44.57144" lon="5.28398">
        <ele>663.44</ele>
        <time>2014-05-03T06:35:14Z</time>
      </trkpt>
      <trkpt lat="44.57162" lon="5.28398">
        <ele>664.77</ele>
        <time>2014-05-03T06:35:30Z</time>
      </trkpt>
      <trkpt lat="44.57181" lon="5.28404">
        <ele>666.12</ele>
        <time>2014-05-03T06:35:46Z</time>
      </trkpt>
      <trkpt lat="44.57199" lon="5.28409">
        <ele>667.36</ele>
        <time>2014-05-03T06:36:01Z</time>
      </trkpt>
      <trkpt lat="44.57218" lon="5.28411">
        <ele>668.85</ele>
        <time>2014-05-03T06:36:18Z</time>
      </trkpt>
      <trkpt lat="44.57236" lon="5.28409">
        <ele>670.19</ele>
        <time>2014-05-03T06:36:34Z</time>
      </trkpt>
      <trkpt lat="44.57254" lon="5.28403">
        <ele>671.86</ele>
        <time>2014-05-03T06:36:53Z</time>
      </trkpt>
      <trkpt lat="44.57272" lon="5.28407">
        <ele>673.2</ele>
        <time>2014-05-03T06:37:09Z</time>
      </trkpt>
      <trkpt lat="44.57288" lon="5.28421">
        <ele>674.59</ele>
        <time>2014-05-03T06:37:25Z</time>
      </trkpt>
      <trkpt lat="44.57304" lon="5.28434">
        <ele>675.9</ele>
        <time>2014-05-03T06:37:40Z</time>
      </trkpt>
      <trkpt lat="44.5732" lon="5.28445">
        <ele>677.46</ele>
        <time>2014-05-03T06:37:59Z</time>
      </trkpt>
      <trkpt lat="44.57332" lon="5.28465">
        <ele>678.87</ele>
        <time>2014-05-03T06:38:15Z</time>
      </trkpt>
      <trkpt lat="44.5734" lon="5.28489">
        <ele>680.25</ele>
        <time>2014-05-03T06:38:31Z</time>
      </trkpt>
      <trkpt lat="44.57348" lon="5.28511">
        <ele>681.65</ele>
        <time>2014-05-03T06:38:46Z</time>
      </trkpt>
      <trkpt lat="44.57359" lon="5.28532">
        <ele>683.04</ele>
        <time>2014-05-03T06:39:01Z</time>
      </trkpt>
      <trkpt lat="44.57364" lon="5.28557">
        <ele>684.38</ele>
        <time>2014-05-03T06:39:17Z</time>
      </trkpt>
      <trkpt lat="44.57372" lon="5.28581">
        <ele>685.6</ele>
        <time>2014-05-03T06:39:33Z</time>
      </trkpt>
      <trkpt lat="44.57386" lon="5.28598">
        <ele>687.54</ele>
        <time>2014-05-03T06:39:58Z</time>
      </trkpt>
      <trkpt lat="44.574" lon="5.28617">
        <ele>689.11</ele>
        <time>2014-05-03T06:40:17Z</time>
      </trkpt>
      <trkpt lat="44.57413" lon="5.28635">
        <ele>690.33</ele>
        <time>2014-05-03T06:40:33Z</time>
      </trkpt>
      <trkpt lat="44.57424" lon="5.28656">
        <ele>691.82</ele>
        <time>2014-05-03T06:40:51Z</time>
      </trkpt>
      <trkpt lat="44.57437" lon="5.28676">
        <ele>693.38</ele>
        <time>2014-05-03T06:41:10Z</time>
      </trkpt>
      <trkpt lat="44.57448" lon="5.28697">
        <ele>694.99</ele>
        <time>2014-05-03T06:41:30Z</time>
      </trkpt>
      <trkpt lat="44.57461" lon="5.28715">
        <ele>696.61</ele>
        <time>2014-05-03T06:41:49Z</time>
      </trkpt>
      <trkpt lat="44.57478" lon="5.28728">
        <ele>698.46</ele>
        <time>2014-05-03T06:42:10Z</time>
      </trkpt>
      <trkpt lat="44.57493" lon="5.28743">
        <ele>701.3</ele>
        <time>2014-05-03T06:42:43Z</time>
      </trkpt>
      <trkpt lat="44.57511" lon="5.28751">
        <ele>702.85</ele>
        <time>2014-05-03T06:43:02Z</time>
      </trkpt>
      <trkpt lat="44.57529" lon="5.28755">
        <ele>704.12</ele>
        <time>2014-05-03T06:43:18Z</time>
      </trkpt>
      <trkpt lat="44.57548" lon="5.28755">
        <ele>705.61</ele>
        <time>2014-05-03T06:43:37Z</time>
      </trkpt>
      <trkpt lat="44.57566" lon="5.28756">
        <ele>707.12</ele>
        <time>2014-05-03T06:43:56Z</time>
      </trkpt>
      <trkpt lat="44.57585" lon="5.28756">
        <ele>708.62</ele>
        <time>2014-05-03T06:44:15Z</time>
      </trkpt>
      <trkpt lat="44.57603" lon="5.28761">
        <ele>710.02</ele>
        <time>2014-05-03T06:44:33Z</time>
      </trkpt>
      <trkpt lat="44.57621" lon="5.28767">
        <ele>711.65</ele>
        <time>2014-05-03T06:44:53Z</time>
      </trkpt>
      <trkpt lat="44.57639" lon="5.28772">
        <ele>713.32</ele>
        <time>2014-05-03T06:45:13Z</time>
      </trkpt>
      <trkpt lat="44.57655" lon="5.28785">
        <ele>714.99</ele>
        <time>2014-05-03T06:45:33Z</time>
      </trkpt>
      <trkpt lat="44.57669" lon="5.28802">
        <ele>716.93</ele>
        <time>2014-05-03T06:45:55Z</time>
      </trkpt>
      <trkpt lat="44.57686" lon="5.28811">
        <ele>719.51</ele>
        <time>2014-05-03T06:46:24Z</time>
      </trkpt>
      <trkpt lat="44.57702" lon="5.28823">
        <ele>721.76</ele>
        <time>2014-05-03T06:46:49Z</time>
      </trkpt>
      <trkpt lat="44.57718" lon="5.28835">
        <ele>723.83</ele>
        <time>2014-05-03T06:47:11Z</time>
      </trkpt>
      <trkpt lat="44.57735" lon="5.28846">
        <ele>725.82</ele>
        <time>2014-05-03T06:47:32Z</time>
      </trkpt>
      <trkpt lat="44.57753" lon="5.28853">
        <ele>727.47</ele>
        <time>2014-05-03T06:47:50Z</time>
      </trkpt>
      <trkpt lat="44.57771" lon="5.28856">
        <ele>729.12</ele>
        <time>2014-05-03T06:48:08Z</time>
      </trkpt>
      <trkpt lat="44.5779" lon="5.28854">
        <ele>730.77</ele>
        <time>2014-05-03T06:48:27Z</time>
      </trkpt>
      <trkpt lat="44.57809" lon="5.28852">
        <ele>732.48</ele>
        <time>2014-05-03T06:48:46Z</time>
      </trkpt>
      <trkpt lat="44.57827" lon="5.2885">
        <ele>734.33</ele>
        <time>2014-05-03T06:49:05Z</time>
      </trkpt>
      <trkpt lat="44.5783" lon="5.28876">
        <ele>736.91</ele>
        <time>2014-05-03T06:49:30Z</time>
      </trkpt>
      <trkpt lat="44.57823" lon="5.289">
        <ele>738.27</ele>
        <time>2014-05-03T06:49:45Z</time>
      </trkpt>
      <trkpt lat="44.57815" lon="5.28923">
        <ele>739.73</ele>
        <time>2014-05-03T06:50:01Z</time>
      </trkpt>
      <trkpt lat="44.57805" lon="5.28947">
        <ele>740.85</ele>
        <time>2014-05-03T06:50:15Z</time>
      </trkpt>
      <trkpt lat="44.57796" lon="5.28971">
        <ele>742.03</ele>
        <time>2014-05-03T06:50:31Z</time>
      </trkpt>
      <trkpt lat="44.57788" lon="5.28993">
        <ele>742.93</ele>
        <time>2014-05-03T06:50:45Z</time>
      </trkpt>
      <trkpt lat="44.57778" lon="5.29016">
        <ele>743.93</ele>
        <time>2014-05-03T06:51:01Z</time>
      </trkpt>
      <trkpt lat="44.57767" lon="5.29037">
        <ele>745.05</ele>
        <time>2014-05-03T06:51:20Z</time>
      </trkpt>
      <trkpt lat="44.5776" lon="5.29062">
        <ele>746.02</ele>
        <time>2014-05-03T06:51:37Z</time>
      </trkpt>
      <trkpt lat="44.57752" lon="5.29085">
        <ele>746.53</ele>
        <time>2014-05-03T06:51:51Z</time>
      </trkpt>
      <trkpt lat="44.57741" lon="5.29106">
        <ele>747.04</ele>
        <time>2014-05-03T06:52:06Z</time>
      </trkpt>
      <trkpt lat="44.57727" lon="5.29124">
        <ele>747.65</ele>
        <time>2014-05-03T06:52:21Z</time>
      </trkpt>
      <trkpt lat="44.57714" lon="5.29142">
        <ele>747.98</ele>
        <time>2014-05-03T06:52:35Z</time>
      </trkpt>
      <trkpt lat="44.57704" lon="5.29165">
        <ele>748.34</ele>
        <time>2014-05-03T06:52:50Z</time>
      </trkpt>
      <trkpt lat="44.57694" lon="5.29188">
        <ele>748.74</ele>
        <time>2014-05-03T06:53:05Z</time>
      </trkpt>
      <trkpt lat="44.57683" lon="5.29209">
        <ele>749.15</ele>
        <time>2014-05-03T06:53:20Z</time>
      </trkpt>
      <trkpt lat="44.57673" lon="5.29231">
        <ele>749.65</ele>
        <time>2014-05-03T06:53:35Z</time>
      </trkpt>
      <trkpt lat="44.5767" lon="5.29256">
        <ele>750.19</ele>
        <time>2014-05-03T06:53:51Z</time>
      </trkpt>
      <trkpt lat="44.57688" lon="5.29265">
        <ele>752.02</ele>
        <time>2014-05-03T06:54:34Z</time>
      </trkpt>
      <trkpt lat="44.57686" lon="5.29291">
        <ele>752.54</ele>
        <time>2014-05-03T06:54:59Z</time>
      </trkpt>
      <trkpt lat="44.57682" lon="5.29316">
        <ele>752.83</ele>
        <time>2014-05-03T06:55:15Z</time>
      </trkpt>
      <trkpt lat="44.57682" lon="5.29342">
        <ele>753.28</ele>
        <time>2014-05-03T06:55:31Z</time>
      </trkpt>
      <trkpt lat="44.5768" lon="5.29367">
        <ele>753.58</ele>
        <time>2014-05-03T06:55:46Z</time>
      </trkpt>
      <trkpt lat="44.57676" lon="5.29393">
        <ele>753.81</ele>
        <time>2014-05-03T06:56:02Z</time>
      </trkpt>
      <trkpt lat="44.57671" lon="5.29418">
        <ele>754.02</ele>
        <time>2014-05-03T06:56:18Z</time>
      </trkpt>
      <trkpt lat="44.57665" lon="5.29443">
        <ele>754.11</ele>
        <time>2014-05-03T06:56:33Z</time>
      </trkpt>
      <trkpt lat="44.57664" lon="5.29469">
        <ele>754.38</ele>
        <time>2014-05-03T06:56:49Z</time>
      </trkpt>
      <trkpt lat="44.57678" lon="5.29487">
        <ele>754.99</ele>
        <time>2014-05-03T06:57:09Z</time>
      </trkpt>
      <trkpt lat="44.57691" lon="5.29505">
        <ele>755.43</ele>
        <time>2014-05-03T06:57:25Z</time>
      </trkpt>
      <trkpt lat="44.57701" lon="5.29528">
        <ele>755.94</ele>
        <time>2014-05-03T06:57:41Z</time>
      </trkpt>
      <trkpt lat="44.57708" lon="5.29553">
        <ele>756.29</ele>
        <time>2014-05-03T06:57:57Z</time>
      </trkpt>
      <trkpt lat="44.57715" lon="5.29576">
        <ele>756.67</ele>
        <time>2014-05-03T06:58:12Z</time>
      </trkpt>
      <trkpt lat="44.5772" lon="5.296">
        <ele>757.05</ele>
        <time>2014-05-03T06:58:26Z</time>
      </trkpt>
      <trkpt lat="44.57725" lon="5.29626">
        <ele>757.24</ele>
        <time>2014-05-03T06:58:40Z</time>
      </trkpt>
      <trkpt lat="44.57728" lon="5.29652">
        <ele>757.48</ele>
        <time>2014-05-03T06:58:55Z</time>
      </trkpt>
      <trkpt lat="44.57732" lon="5.29677">
        <ele>757.68</ele>
        <time>2014-05-03T06:59:09Z</time>
      </trkpt>
      <trkpt lat="44.57734" lon="5.29703">
        <ele>757.83</ele>
        <time>2014-05-03T06:59:23Z</time>
      </trkpt>
      <trkpt lat="44.57735" lon="5.29729">
        <ele>757.96</ele>
        <time>2014-05-03T06:59:39Z</time>
      </trkpt>
      <trkpt lat="44.57731" lon="5.29755">
        <ele>757.92</ele>
        <time>2014-05-03T06:59:57Z</time>
      </trkpt>
      <trkpt lat="44.57737" lon="5.29779">
        <ele>757.88</ele>
        <time>2014-05-03T07:00:11Z</time>
      </trkpt>
      <trkpt lat="44.57748" lon="5.29802">
        <ele>757.86</ele>
        <time>2014-05-03T07:00:27Z</time>
      </trkpt>
      <trkpt lat="44.57763" lon="5.29817">
        <ele>758.04</ele>
        <time>2014-05-03T07:00:44Z</time>
      </trkpt>
      <trkpt lat="44.57781" lon="5.29811">
        <ele>758.01</ele>
        <time>2014-05-03T07:00:59Z</time>
      </trkpt>
      <trkpt lat="44.578" lon="5.2981">
        <ele>757.83</ele>
        <time>2014-05-03T07:01:16Z</time>
      </trkpt>
      <trkpt lat="44.57818" lon="5.2981">
        <ele>757.85</ele>
        <time>2014-05-03T07:01:30Z</time>
      </trkpt>
      <trkpt lat="44.57837" lon="5.2981">
        <ele>757.8</ele>
        <time>2014-05-03T07:01:43Z</time>
      </trkpt>
      <trkpt lat="44.57856" lon="5.29809">
        <ele>757.75</ele>
        <time>2014-05-03T07:01:57Z</time>
      </trkpt>
      <trkpt lat="44.57874" lon="5.29809">
        <ele>757.56</ele>
        <time>2014-05-03T07:02:12Z</time>
      </trkpt>
      <trkpt lat="44.57893" lon="5.29808">
        <ele>757.37</ele>
        <time>2014-05-03T07:02:29Z</time>
      </trkpt>
      <trkpt lat="44.5791" lon="5.29798">
        <ele>757.41</ele>
        <time>2014-05-03T07:02:48Z</time>
      </trkpt>
      <trkpt lat="44.57928" lon="5.29788">
        <ele>757.4</ele>
        <time>2014-05-03T07:03:03Z</time>
      </trkpt>
      <trkpt lat="44.57946" lon="5.29784">
        <ele>757.41</ele>
        <time>2014-05-03T07:03:18Z</time>
      </trkpt>
      <trkpt lat="44.57964" lon="5.29777">
        <ele>757.48</ele>
        <time>2014-05-03T07:03:33Z</time>
      </trkpt>
      <trkpt lat="44.5798" lon="5.29764">
        <ele>757.52</ele>
        <time>2014-05-03T07:03:51Z</time>
      </trkpt>
      <trkpt lat="44.5797" lon="5.29785">
        <ele>756.81</ele>
        <time>2014-05-03T07:04:34Z</time>
      </trkpt>
      <trkpt lat="44.57954" lon="5.29798">
        <ele>756.51</ele>
        <time>2014-05-03T07:04:51Z</time>
      </trkpt>
      <trkpt lat="44.5794" lon="5.29815">
        <ele>756.39</ele>
        <time>2014-05-03T07:05:07Z</time>
      </trkpt>
      <trkpt lat="44.57926" lon="5.2983">
        <ele>756.34</ele>
        <time>2014-05-03T07:05:24Z</time>
      </trkpt>
      <trkpt lat="44.57909" lon="5.2984">
        <ele>756.14</ele>
        <time>2014-05-03T07:05:40Z</time>
      </trkpt>
      <trkpt lat="44.57892" lon="5.2985">
        <ele>755.84</ele>
        <time>2014-05-03T07:05:57Z</time>
      </trkpt>
      <trkpt lat="44.57875" lon="5.29859">
        <ele>755.83</ele>
        <time>2014-05-03T07:06:14Z</time>
      </trkpt>
      <trkpt lat="44.57858" lon="5.29871">
        <ele>755.56</ele>
        <time>2014-05-03T07:06:32Z</time>
      </trkpt>
      <trkpt lat="44.57842" lon="5.29883">
        <ele>755.41</ele>
        <time>2014-05-03T07:06:50Z</time>
      </trkpt>
      <trkpt lat="44.57825" lon="5.29896">
        <ele>755.17</ele>
        <time>2014-05-03T07:07:07Z</time>
      </trkpt>
      <trkpt lat="44.57809" lon="5.29907">
        <ele>754.91</ele>
        <time>2014-05-03T07:07:24Z</time>
      </trkpt>
      <trkpt lat="44.57792" lon="5.29917">
        <ele>754.8</ele>
        <time>2014-05-03T07:07:43Z</time>
      </trkpt>
      <trkpt lat="44.57778" lon="5.29934">
        <ele>755.21</ele>
        <time>2014-05-03T07:08:02Z</time>
      </trkpt>
      <trkpt lat="44.57771" lon="5.29958">
        <ele>755.83</ele>
        <time>2014-05-03T07:08:24Z</time>
      </trkpt>
      <trkpt lat="44.57787" lon="5.2997">
        <ele>757.08</ele>
        <time>2014-05-03T07:08:54Z</time>
      </trkpt>
      <trkpt lat="44.57804" lon="5.29961">
        <ele>758.17</ele>
        <time>2014-05-03T07:09:08Z</time>
      </trkpt>
      <trkpt lat="44.57821" lon="5.2995">
        <ele>759.59</ele>
        <time>2014-05-03T07:09:27Z</time>
      </trkpt>
      <trkpt lat="44.57839" lon="5.29944">
        <ele>761.2</ele>
        <time>2014-05-03T07:09:50Z</time>
      </trkpt>
      <trkpt lat="44.57857" lon="5.29948">
        <ele>762.35</ele>
        <time>2014-05-03T07:10:09Z</time>
      </trkpt>
      <trkpt lat="44.57876" lon="5.2995">
        <ele>763.63</ele>
        <time>2014-05-03T07:10:28Z</time>
      </trkpt>
      <trkpt lat="44.5786" lon="5.29964">
        <ele>765.05</ele>
        <time>2014-05-03T07:10:52Z</time>
      </trkpt>
      <trkpt lat="44.57844" lon="5.29975">
        <ele>765.96</ele>
        <time>2014-05-03T07:11:11Z</time>
      </trkpt>
      <trkpt lat="44.57829" lon="5.29991">
        <ele>766.93</ele>
        <time>2014-05-03T07:11:30Z</time>
      </trkpt>
      <trkpt lat="44.57821" lon="5.30015">
        <ele>768.08</ele>
        <time>2014-05-03T07:11:51Z</time>
      </trkpt>
      <trkpt lat="44.57812" lon="5.30037">
        <ele>768.96</ele>
        <time>2014-05-03T07:12:07Z</time>
      </trkpt>
      <trkpt lat="44.578" lon="5.30056">
        <ele>769.77</ele>
        <time>2014-05-03T07:12:22Z</time>
      </trkpt>
      <trkpt lat="44.57788" lon="5.30076">
        <ele>770.89</ele>
        <time>2014-05-03T07:12:43Z</time>
      </trkpt>
      <trkpt lat="44.5777" lon="5.3008">
        <ele>772.59</ele>
        <time>2014-05-03T07:13:13Z</time>
      </trkpt>
      <trkpt lat="44.57753" lon="5.30076">
        <ele>774.21</ele>
        <time>2014-05-03T07:13:38Z</time>
      </trkpt>
      <trkpt lat="44.57735" lon="5.30074">
        <ele>776.72</ele>
        <time>2014-05-03T07:14:30Z</time>
      </trkpt>
      <trkpt lat="44.57716" lon="5.30079">
        <ele>777.31</ele>
        <time>2014-05-03T07:14:44Z</time>
      </trkpt>
      <trkpt lat="44.57699" lon="5.30088">
        <ele>778.28</ele>
        <time>2014-05-03T07:14:50Z</time>
      </trkpt>
      <trkpt lat="44.57682" lon="5.30098">
        <ele>782.36</ele>
        <time>2014-05-03T07:15:02Z</time>
      </trkpt>
      <trkpt lat="44.57663" lon="5.30104">
        <ele>786.15</ele>
        <time>2014-05-03T07:15:15Z</time>
      </trkpt>
      <trkpt lat="44.57645" lon="5.30106">
        <ele>789.64</ele>
        <time>2014-05-03T07:15:29Z</time>
      </trkpt>
      <trkpt lat="44.5763" lon="5.30091">
        <ele>795.49</ele>
        <time>2014-05-03T07:16:02Z</time>
      </trkpt>
      <trkpt lat="44.57625" lon="5.30066">
        <ele>798.37</ele>
        <time>2014-05-03T07:16:25Z</time>
      </trkpt>
      <trkpt lat="44.57615" lon="5.30044">
        <ele>800.92</ele>
        <time>2014-05-03T07:16:44Z</time>
      </trkpt>
      <trkpt lat="44.57601" lon="5.30028">
        <ele>803.38</ele>
        <time>2014-05-03T07:17:02Z</time>
      </trkpt>
      <trkpt lat="44.57586" lon="5.30013">
        <ele>807.12</ele>
        <time>2014-05-03T07:17:25Z</time>
      </trkpt>
      <trkpt lat="44.5757" lon="5.30001">
        <ele>810.95</ele>
        <time>2014-05-03T07:17:54Z</time>
      </trkpt>
      <trkpt lat="44.57558" lon="5.29982">
        <ele>816.3</ele>
        <time>2014-05-03T07:18:27Z</time>
      </trkpt>
      <trkpt lat="44.5755" lon="5.29958">
        <ele>820.4</ele>
        <time>2014-05-03T07:18:58Z</time>
      </trkpt>
      <trkpt lat="44.5754" lon="5.29937">
        <ele>826.73</ele>
        <time>2014-05-03T07:19:35Z</time>
      </trkpt>
      <trkpt lat="44.57539" lon="5.29911">
        <ele>831.66</ele>
        <time>2014-05-03T07:20:05Z</time>
      </trkpt>
      <trkpt lat="44.57527" lon="5.29892">
        <ele>839.04</ele>
        <time>2014-05-03T07:20:50Z</time>
      </trkpt>
      <trkpt lat="44.57528" lon="5.29866">
        <ele>843.86</ele>
        <time>2014-05-03T07:21:23Z</time>
      </trkpt>
      <trkpt lat="44.57533" lon="5.29841">
        <ele>849.14</ele>
        <time>2014-05-03T07:21:56Z</time>
      </trkpt>
      <trkpt lat="44.57537" lon="5.29816">
        <ele>853.59</ele>
        <time>2014-05-03T07:22:29Z</time>
      </trkpt>
      <trkpt lat="44.57542" lon="5.29792">
        <ele>859</ele>
        <time>2014-05-03T07:23:07Z</time>
      </trkpt>
      <trkpt lat="44.57547" lon="5.29767">
        <ele>862.79</ele>
        <time>2014-05-03T07:23:31Z</time>
      </trkpt>
      <trkpt lat="44.57553" lon="5.29743">
        <ele>866.17</ele>
        <time>2014-05-03T07:24:01Z</time>
      </trkpt>
      <trkpt lat="44.57559" lon="5.29719">
        <ele>869.8</ele>
        <time>2014-05-03T07:24:30Z</time>
      </trkpt>
      <trkpt lat="44.57567" lon="5.29695">
        <ele>874.63</ele>
        <time>2014-05-03T07:25:01Z</time>
      </trkpt>
      <trkpt lat="44.57555" lon="5.29675">
        <ele>882.49</ele>
        <time>2014-05-03T07:25:34Z</time>
      </trkpt>
      <trkpt lat="44.57539" lon="5.29663">
        <ele>886.08</ele>
        <time>2014-05-03T07:25:56Z</time>
      </trkpt>
      <trkpt lat="44.57521" lon="5.29665">
        <ele>888.25</ele>
        <time>2014-05-03T07:26:23Z</time>
      </trkpt>
      <trkpt lat="44.57502" lon="5.29658">
        <ele>890.7</ele>
        <time>2014-05-03T07:26:49Z</time>
      </trkpt>
      <trkpt lat="44.57487" lon="5.29642">
        <ele>895.75</ele>
        <time>2014-05-03T07:27:12Z</time>
      </trkpt>
      <trkpt lat="44.57473" lon="5.29626">
        <ele>899.43</ele>
        <time>2014-05-03T07:27:34Z</time>
      </trkpt>
      <trkpt lat="44.57458" lon="5.29611">
        <ele>902.57</ele>
        <time>2014-05-03T07:27:55Z</time>
      </trkpt>
      <trkpt lat="44.57459" lon="5.29585">
        <ele>904.22</ele>
        <time>2014-05-03T07:28:14Z</time>
      </trkpt>
      <trkpt lat="44.5745" lon="5.29562">
        <ele>905.72</ele>
        <time>2014-05-03T07:28:33Z</time>
      </trkpt>
      <trkpt lat="44.57447" lon="5.29537">
        <ele>907.55</ele>
        <time>2014-05-03T07:28:55Z</time>
      </trkpt>
      <trkpt lat="44.57444" lon="5.29512">
        <ele>909.44</ele>
        <time>2014-05-03T07:29:14Z</time>
      </trkpt>
      <trkpt lat="44.57437" lon="5.29488">
        <ele>911.37</ele>
        <time>2014-05-03T07:29:33Z</time>
      </trkpt>
      <trkpt lat="44.57425" lon="5.29469">
        <ele>913.49</ele>
        <time>2014-05-03T07:29:53Z</time>
      </trkpt>
      <trkpt lat="44.57426" lon="5.29495">
        <ele>915.1</ele>
        <time>2014-05-03T07:31:43Z</time>
      </trkpt>
      <trkpt lat="44.57421" lon="5.29519">
        <ele>915.61</ele>
        <time>2014-05-03T07:32:06Z</time>
      </trkpt>
      <trkpt lat="44.57413" lon="5.29543">
        <ele>918.6</ele>
        <time>2014-05-03T07:34:19Z</time>
      </trkpt>
      <trkpt lat="44.5741" lon="5.29568">
        <ele>920.13</ele>
        <time>2014-05-03T07:34:44Z</time>
      </trkpt>
      <trkpt lat="44.57403" lon="5.29591">
        <ele>922.41</ele>
        <time>2014-05-03T07:35:11Z</time>
      </trkpt>
      <trkpt lat="44.574" lon="5.29616">
        <ele>927.23</ele>
        <time>2014-05-03T07:35:47Z</time>
      </trkpt>
      <trkpt lat="44.57391" lon="5.29638">
        <ele>932.44</ele>
        <time>2014-05-03T07:36:23Z</time>
      </trkpt>
      <trkpt lat="44.57379" lon="5.29657">
        <ele>936.1</ele>
        <time>2014-05-03T07:36:48Z</time>
      </trkpt>
      <trkpt lat="44.57363" lon="5.29672">
        <ele>939.73</ele>
        <time>2014-05-03T07:37:23Z</time>
      </trkpt>
      <trkpt lat="44.57345" lon="5.29671">
        <ele>940.59</ele>
        <time>2014-05-03T07:37:41Z</time>
      </trkpt>
      <trkpt lat="44.57326" lon="5.29676">
        <ele>940.36</ele>
        <time>2014-05-03T07:37:56Z</time>
      </trkpt>
      <trkpt lat="44.57308" lon="5.2968">
        <ele>939.2</ele>
        <time>2014-05-03T07:38:10Z</time>
      </trkpt>
      <trkpt lat="44.57291" lon="5.2969">
        <ele>936.72</ele>
        <time>2014-05-03T07:38:28Z</time>
      </trkpt>
      <trkpt lat="44.57275" lon="5.29706">
        <ele>935.56</ele>
        <time>2014-05-03T07:38:45Z</time>
      </trkpt>
      <trkpt lat="44.57258" lon="5.29713">
        <ele>934.58</ele>
        <time>2014-05-03T07:39:00Z</time>
      </trkpt>
      <trkpt lat="44.57241" lon="5.29724">
        <ele>933.51</ele>
        <time>2014-05-03T07:39:16Z</time>
      </trkpt>
      <trkpt lat="44.57223" lon="5.29732">
        <ele>933.17</ele>
        <time>2014-05-03T07:39:39Z</time>
      </trkpt>
      <trkpt lat="44.57207" lon="5.29744">
        <ele>933.89</ele>
        <time>2014-05-03T07:39:58Z</time>
      </trkpt>
      <trkpt lat="44.57191" lon="5.29756">
        <ele>935.4</ele>
        <time>2014-05-03T07:40:18Z</time>
      </trkpt>
      <trkpt lat="44.57176" lon="5.2977">
        <ele>936.53</ele>
        <time>2014-05-03T07:40:36Z</time>
      </trkpt>
      <trkpt lat="44.57162" lon="5.29785">
        <ele>937.54</ele>
        <time>2014-05-03T07:40:53Z</time>
      </trkpt>
      <trkpt lat="44.57148" lon="5.29803">
        <ele>938.95</ele>
        <time>2014-05-03T07:41:16Z</time>
      </trkpt>
      <trkpt lat="44.57135" lon="5.29821">
        <ele>941.42</ele>
        <time>2014-05-03T07:41:43Z</time>
      </trkpt>
      <trkpt lat="44.57126" lon="5.29844">
        <ele>944.61</ele>
        <time>2014-05-03T07:42:11Z</time>
      </trkpt>
      <trkpt lat="44.57121" lon="5.29868">
        <ele>951.99</ele>
        <time>2014-05-03T07:42:49Z</time>
      </trkpt>
      <trkpt lat="44.57107" lon="5.29886">
        <ele>958.15</ele>
        <time>2014-05-03T07:43:27Z</time>
      </trkpt>
      <trkpt lat="44.57094" lon="5.29904">
        <ele>962.14</ele>
        <time>2014-05-03T07:43:54Z</time>
      </trkpt>
      <trkpt lat="44.57081" lon="5.29922">
        <ele>966.73</ele>
        <time>2014-05-03T07:44:38Z</time>
      </trkpt>
      <trkpt lat="44.57066" lon="5.29936">
        <ele>968.52</ele>
        <time>2014-05-03T07:44:54Z</time>
      </trkpt>
      <trkpt lat="44.5705" lon="5.2995">
        <ele>969.84</ele>
        <time>2014-05-03T07:45:14Z</time>
      </trkpt>
      <trkpt lat="44.57034" lon="5.29963">
        <ele>970.62</ele>
        <time>2014-05-03T07:45:32Z</time>
      </trkpt>
      <trkpt lat="44.57017" lon="5.29971">
        <ele>970.86</ele>
        <time>2014-05-03T07:45:49Z</time>
      </trkpt>
      <trkpt lat="44.56999" lon="5.29972">
        <ele>971.32</ele>
        <time>2014-05-03T07:46:05Z</time>
      </trkpt>
      <trkpt lat="44.56982" lon="5.29984">
        <ele>971.27</ele>
        <time>2014-05-03T07:46:19Z</time>
      </trkpt>
      <trkpt lat="44.56965" lon="5.29993">
        <ele>970.69</ele>
        <time>2014-05-03T07:46:33Z</time>
      </trkpt>
      <trkpt lat="44.56945" lon="5.29998">
        <ele>969.22</ele>
        <time>2014-05-03T07:46:49Z</time>
      </trkpt>
      <trkpt lat="44.56927" lon="5.30003">
        <ele>968.2</ele>
        <time>2014-05-03T07:47:04Z</time>
      </trkpt>
      <trkpt lat="44.56909" lon="5.30006">
        <ele>967.47</ele>
        <time>2014-05-03T07:47:20Z</time>
      </trkpt>
      <trkpt lat="44.56893" lon="5.30019">
        <ele>966.56</ele>
        <time>2014-05-03T07:47:34Z</time>
      </trkpt>
      <trkpt lat="44.56874" lon="5.30027">
        <ele>965.61</ele>
        <time>2014-05-03T07:47:55Z</time>
      </trkpt>
      <trkpt lat="44.56857" lon="5.30036">
        <ele>964.77</ele>
        <time>2014-05-03T07:48:11Z</time>
      </trkpt>
      <trkpt lat="44.5684" lon="5.30047">
        <ele>964.56</ele>
        <time>2014-05-03T07:48:27Z</time>
      </trkpt>
      <trkpt lat="44.56826" lon="5.30063">
        <ele>964.12</ele>
        <time>2014-05-03T07:48:42Z</time>
      </trkpt>
      <trkpt lat="44.5681" lon="5.30075">
        <ele>963.2</ele>
        <time>2014-05-03T07:48:59Z</time>
      </trkpt>
      <trkpt lat="44.56795" lon="5.3009">
        <ele>962.62</ele>
        <time>2014-05-03T07:49:18Z</time>
      </trkpt>
      <trkpt lat="44.56779" lon="5.30105">
        <ele>964.59</ele>
        <time>2014-05-03T07:49:39Z</time>
      </trkpt>
      <trkpt lat="44.56763" lon="5.30117">
        <ele>965.83</ele>
        <time>2014-05-03T07:49:56Z</time>
      </trkpt>
      <trkpt lat="44.56746" lon="5.30128">
        <ele>967.6</ele>
        <time>2014-05-03T07:50:12Z</time>
      </trkpt>
      <trkpt lat="44.5673" lon="5.30141">
        <ele>968.8</ele>
        <time>2014-05-03T07:50:30Z</time>
      </trkpt>
      <trkpt lat="44.56714" lon="5.30156">
        <ele>969.89</ele>
        <time>2014-05-03T07:50:49Z</time>
      </trkpt>
      <trkpt lat="44.56698" lon="5.30169">
        <ele>971.16</ele>
        <time>2014-05-03T07:51:08Z</time>
      </trkpt>
      <trkpt lat="44.56682" lon="5.30185">
        <ele>971.84</ele>
        <time>2014-05-03T07:51:22Z</time>
      </trkpt>
      <trkpt lat="44.56668" lon="5.30199">
        <ele>973.06</ele>
        <time>2014-05-03T07:51:40Z</time>
      </trkpt>
      <trkpt lat="44.56651" lon="5.30211">
        <ele>974.21</ele>
        <time>2014-05-03T07:51:56Z</time>
      </trkpt>
      <trkpt lat="44.56636" lon="5.30226">
        <ele>975.36</ele>
        <time>2014-05-03T07:52:13Z</time>
      </trkpt>
      <trkpt lat="44.56622" lon="5.30242">
        <ele>977.19</ele>
        <time>2014-05-03T07:52:35Z</time>
      </trkpt>
      <trkpt lat="44.56606" lon="5.30253">
        <ele>979.35</ele>
        <time>2014-05-03T07:52:54Z</time>
      </trkpt>
      <trkpt lat="44.5659" lon="5.30266">
        <ele>981.18</ele>
        <time>2014-05-03T07:53:16Z</time>
      </trkpt>
      <trkpt lat="44.56573" lon="5.30276">
        <ele>983.24</ele>
        <time>2014-05-03T07:53:40Z</time>
      </trkpt>
      <trkpt lat="44.56555" lon="5.30285">
        <ele>985.89</ele>
        <time>2014-05-03T07:53:55Z</time>
      </trkpt>
      <trkpt lat="44.56537" lon="5.30285">
        <ele>988.56</ele>
        <time>2014-05-03T07:55:06Z</time>
      </trkpt>
      <trkpt lat="44.56519" lon="5.3029">
        <ele>988.51</ele>
        <time>2014-05-03T07:55:24Z</time>
      </trkpt>
      <trkpt lat="44.56501" lon="5.30288">
        <ele>988.04</ele>
        <time>2014-05-03T07:55:42Z</time>
      </trkpt>
      <trkpt lat="44.56484" lon="5.30298">
        <ele>987.08</ele>
        <time>2014-05-03T07:55:58Z</time>
      </trkpt>
      <trkpt lat="44.56465" lon="5.30303">
        <ele>987.1</ele>
        <time>2014-05-03T07:56:14Z</time>
      </trkpt>
      <trkpt lat="44.56448" lon="5.30313">
        <ele>986.31</ele>
        <time>2014-05-03T07:56:33Z</time>
      </trkpt>
      <trkpt lat="44.56432" lon="5.30325">
        <ele>987.4</ele>
        <time>2014-05-03T07:56:55Z</time>
      </trkpt>
      <trkpt lat="44.56414" lon="5.30322">
        <ele>990.97</ele>
        <time>2014-05-03T07:57:19Z</time>
      </trkpt>
      <trkpt lat="44.56398" lon="5.30333">
        <ele>994.16</ele>
        <time>2014-05-03T07:57:46Z</time>
      </trkpt>
      <trkpt lat="44.56379" lon="5.30332">
        <ele>998.31</ele>
        <time>2014-05-03T07:58:27Z</time>
      </trkpt>
      <trkpt lat="44.56361" lon="5.3034">
        <ele>999.11</ele>
        <time>2014-05-03T07:58:46Z</time>
      </trkpt>
      <trkpt lat="44.56355" lon="5.30364">
        <ele>999.47</ele>
        <time>2014-05-03T07:59:01Z</time>
      </trkpt>
      <trkpt lat="44.56349" lon="5.30389">
        <ele>999.69</ele>
        <time>2014-05-03T07:59:19Z</time>
      </trkpt>
      <trkpt lat="44.56346" lon="5.30415">
        <ele>999.25</ele>
        <time>2014-05-03T07:59:45Z</time>
      </trkpt>
      <trkpt lat="44.56336" lon="5.30438">
        <ele>997.31</ele>
        <time>2014-05-03T08:00:03Z</time>
      </trkpt>
      <trkpt lat="44.56324" lon="5.30457">
        <ele>995.32</ele>
        <time>2014-05-03T08:00:18Z</time>
      </trkpt>
      <trkpt lat="44.56311" lon="5.30475">
        <ele>993.2</ele>
        <time>2014-05-03T08:00:33Z</time>
      </trkpt>
      <trkpt lat="44.56299" lon="5.30495">
        <ele>990.84</ele>
        <time>2014-05-03T08:00:49Z</time>
      </trkpt>
      <trkpt lat="44.56289" lon="5.30516">
        <ele>988.87</ele>
        <time>2014-05-03T08:01:04Z</time>
      </trkpt>
      <trkpt lat="44.5628" lon="5.3054">
        <ele>985.73</ele>
        <time>2014-05-03T08:01:20Z</time>
      </trkpt>
      <trkpt lat="44.56271" lon="5.30563">
        <ele>983.18</ele>
        <time>2014-05-03T08:01:35Z</time>
      </trkpt>
      <trkpt lat="44.56258" lon="5.3058">
        <ele>979.61</ele>
        <time>2014-05-03T08:01:51Z</time>
      </trkpt>
      <trkpt lat="44.56243" lon="5.30595">
        <ele>976.09</ele>
        <time>2014-05-03T08:02:08Z</time>
      </trkpt>
      <trkpt lat="44.56237" lon="5.30571">
        <ele>970.74</ele>
        <time>2014-05-03T08:02:31Z</time>
      </trkpt>
      <trkpt lat="44.5624" lon="5.30544">
        <ele>967.84</ele>
        <time>2014-05-03T08:02:47Z</time>
      </trkpt>
      <trkpt lat="44.56222" lon="5.30547">
        <ele>964.57</ele>
        <time>2014-05-03T08:03:20Z</time>
      </trkpt>
      <trkpt lat="44.56208" lon="5.30564">
        <ele>963.26</ele>
        <time>2014-05-03T08:03:34Z</time>
      </trkpt>
      <trkpt lat="44.56194" lon="5.30583">
        <ele>961.24</ele>
        <time>2014-05-03T08:03:50Z</time>
      </trkpt>
      <trkpt lat="44.56181" lon="5.30602">
        <ele>958.27</ele>
        <time>2014-05-03T08:04:06Z</time>
      </trkpt>
      <trkpt lat="44.56163" lon="5.30612">
        <ele>955.05</ele>
        <time>2014-05-03T08:04:21Z</time>
      </trkpt>
      <trkpt lat="44.56144" lon="5.30617">
        <ele>952.04</ele>
        <time>2014-05-03T08:04:37Z</time>
      </trkpt>
      <trkpt lat="44.56126" lon="5.30621">
        <ele>949.15</ele>
        <time>2014-05-03T08:04:51Z</time>
      </trkpt>
      <trkpt lat="44.56108" lon="5.30627">
        <ele>945.75</ele>
        <time>2014-05-03T08:05:05Z</time>
      </trkpt>
      <trkpt lat="44.5609" lon="5.30636">
        <ele>942.53</ele>
        <time>2014-05-03T08:05:21Z</time>
      </trkpt>
      <trkpt lat="44.56074" lon="5.30644">
        <ele>941.57</ele>
        <time>2014-05-03T08:05:35Z</time>
      </trkpt>
      <trkpt lat="44.56056" lon="5.30657">
        <ele>941.01</ele>
        <time>2014-05-03T08:05:49Z</time>
      </trkpt>
      <trkpt lat="44.56044" lon="5.30676">
        <ele>937.71</ele>
        <time>2014-05-03T08:06:06Z</time>
      </trkpt>
      <trkpt lat="44.5603" lon="5.30693">
        <ele>935.5</ele>
        <time>2014-05-03T08:06:21Z</time>
      </trkpt>
      <trkpt lat="44.56016" lon="5.30712">
        <ele>933.68</ele>
        <time>2014-05-03T08:06:37Z</time>
      </trkpt>
      <trkpt lat="44.56009" lon="5.30688">
        <ele>924.92</ele>
        <time>2014-05-03T08:07:19Z</time>
      </trkpt>
      <trkpt lat="44.56008" lon="5.30662">
        <ele>922.67</ele>
        <time>2014-05-03T08:07:34Z</time>
      </trkpt>
      <trkpt lat="44.56008" lon="5.30637">
        <ele>920.84</ele>
        <time>2014-05-03T08:07:46Z</time>
      </trkpt>
      <trkpt lat="44.56011" lon="5.30611">
        <ele>918.67</ele>
        <time>2014-05-03T08:08:02Z</time>
      </trkpt>
      <trkpt lat="44.56014" lon="5.30585">
        <ele>916.46</ele>
        <time>2014-05-03T08:08:16Z</time>
      </trkpt>
      <trkpt lat="44.56019" lon="5.3056">
        <ele>914.14</ele>
        <time>2014-05-03T08:08:31Z</time>
      </trkpt>
      <trkpt lat="44.56027" lon="5.30537">
        <ele>912.22</ele>
        <time>2014-05-03T08:08:45Z</time>
      </trkpt>
      <trkpt lat="44.56039" lon="5.30518">
        <ele>910.21</ele>
        <time>2014-05-03T08:08:58Z</time>
      </trkpt>
      <trkpt lat="44.56053" lon="5.30501">
        <ele>907.96</ele>
        <time>2014-05-03T08:09:12Z</time>
      </trkpt>
      <trkpt lat="44.56034" lon="5.30494">
        <ele>904.48</ele>
        <time>2014-05-03T08:10:03Z</time>
      </trkpt>
      <trkpt lat="44.56016" lon="5.30497">
        <ele>903.57</ele>
        <time>2014-05-03T08:10:17Z</time>
      </trkpt>
      <trkpt lat="44.55999" lon="5.30504">
        <ele>902.61</ele>
        <time>2014-05-03T08:10:29Z</time>
      </trkpt>
      <trkpt lat="44.55982" lon="5.30516">
        <ele>901.01</ele>
        <time>2014-05-03T08:10:41Z</time>
      </trkpt>
      <trkpt lat="44.55966" lon="5.30529">
        <ele>898.65</ele>
        <time>2014-05-03T08:10:54Z</time>
      </trkpt>
      <trkpt lat="44.55951" lon="5.30543">
        <ele>896.27</ele>
        <time>2014-05-03T08:11:06Z</time>
      </trkpt>
      <trkpt lat="44.55941" lon="5.30565">
        <ele>893.24</ele>
        <time>2014-05-03T08:11:26Z</time>
      </trkpt>
      <trkpt lat="44.55927" lon="5.30583">
        <ele>889.84</ele>
        <time>2014-05-03T08:11:41Z</time>
      </trkpt>
      <trkpt lat="44.55911" lon="5.30596">
        <ele>887.06</ele>
        <time>2014-05-03T08:11:54Z</time>
      </trkpt>
      <trkpt lat="44.55896" lon="5.30611">
        <ele>884.24</ele>
        <time>2014-05-03T08:12:07Z</time>
      </trkpt>
      <trkpt lat="44.55888" lon="5.30633">
        <ele>882.26</ele>
        <time>2014-05-03T08:12:21Z</time>
      </trkpt>
      <trkpt lat="44.55884" lon="5.30659">
        <ele>880.72</ele>
        <time>2014-05-03T08:12:36Z</time>
      </trkpt>
      <trkpt lat="44.55865" lon="5.30658">
        <ele>877.72</ele>
        <time>2014-05-03T08:12:50Z</time>
      </trkpt>
      <trkpt lat="44.55847" lon="5.3066">
        <ele>874.84</ele>
        <time>2014-05-03T08:13:04Z</time>
      </trkpt>
      <trkpt lat="44.55831" lon="5.30676">
        <ele>872.04</ele>
        <time>2014-05-03T08:13:17Z</time>
      </trkpt>
      <trkpt lat="44.55813" lon="5.30678">
        <ele>868.83</ele>
        <time>2014-05-03T08:13:31Z</time>
      </trkpt>
      <trkpt lat="44.55796" lon="5.3069">
        <ele>865.8</ele>
        <time>2014-05-03T08:13:45Z</time>
      </trkpt>
      <trkpt lat="44.55779" lon="5.30703">
        <ele>863.28</ele>
        <time>2014-05-03T08:13:57Z</time>
      </trkpt>
      <trkpt lat="44.55763" lon="5.30716">
        <ele>859.96</ele>
        <time>2014-05-03T08:14:10Z</time>
      </trkpt>
      <trkpt lat="44.55746" lon="5.30728">
        <ele>856.77</ele>
        <time>2014-05-03T08:14:23Z</time>
      </trkpt>
      <trkpt lat="44.55727" lon="5.30734">
        <ele>852.61</ele>
        <time>2014-05-03T08:14:36Z</time>
      </trkpt>
      <trkpt lat="44.55712" lon="5.30749">
        <ele>849.81</ele>
        <time>2014-05-03T08:14:51Z</time>
      </trkpt>
      <trkpt lat="44.55703" lon="5.30726">
        <ele>845.11</ele>
        <time>2014-05-03T08:15:24Z</time>
      </trkpt>
      <trkpt lat="44.55687" lon="5.3071">
        <ele>842.73</ele>
        <time>2014-05-03T08:15:41Z</time>
      </trkpt>
      <trkpt lat="44.55669" lon="5.30711">
        <ele>839.59</ele>
        <time>2014-05-03T08:15:57Z</time>
      </trkpt>
      <trkpt lat="44.55652" lon="5.307">
        <ele>836.43</ele>
        <time>2014-05-03T08:16:12Z</time>
      </trkpt>
      <trkpt lat="44.55638" lon="5.30681">
        <ele>831.82</ele>
        <time>2014-05-03T08:16:32Z</time>
      </trkpt>
      <trkpt lat="44.55621" lon="5.30689">
        <ele>830.12</ele>
        <time>2014-05-03T08:16:47Z</time>
      </trkpt>
      <trkpt lat="44.55604" lon="5.30701">
        <ele>827.92</ele>
        <time>2014-05-03T08:17:03Z</time>
      </trkpt>
      <trkpt lat="44.55597" lon="5.30725">
        <ele>825.29</ele>
        <time>2014-05-03T08:17:18Z</time>
      </trkpt>
      <trkpt lat="44.5559" lon="5.30748">
        <ele>820.7</ele>
        <time>2014-05-03T08:17:41Z</time>
      </trkpt>
      <trkpt lat="44.55572" lon="5.30752">
        <ele>818.07</ele>
        <time>2014-05-03T08:17:57Z</time>
      </trkpt>
      <trkpt lat="44.55554" lon="5.30744">
        <ele>814.2</ele>
        <time>2014-05-03T08:18:17Z</time>
      </trkpt>
      <trkpt lat="44.55536" lon="5.30749">
        <ele>810.88</ele>
        <time>2014-05-03T08:18:30Z</time>
      </trkpt>
      <trkpt lat="44.55518" lon="5.30753">
        <ele>806.83</ele>
        <time>2014-05-03T08:18:51Z</time>
      </trkpt>
      <trkpt lat="44.55503" lon="5.30769">
        <ele>803.93</ele>
        <time>2014-05-03T08:19:08Z</time>
      </trkpt>
      <trkpt lat="44.55496" lon="5.30793">
        <ele>801.96</ele>
        <time>2014-05-03T08:19:21Z</time>
      </trkpt>
      <trkpt lat="44.5548" lon="5.30808">
        <ele>801.05</ele>
        <time>2014-05-03T08:19:37Z</time>
      </trkpt>
      <trkpt lat="44.55467" lon="5.30826">
        <ele>798.7</ele>
        <time>2014-05-03T08:29:55Z</time>
      </trkpt>
      <trkpt lat="44.55449" lon="5.30833">
        <ele>799.01</ele>
        <time>2014-05-03T08:30:08Z</time>
      </trkpt>
      <trkpt lat="44.55431" lon="5.3084">
        <ele>798.78</ele>
        <time>2014-05-03T08:30:24Z</time>
      </trkpt>
      <trkpt lat="44.55412" lon="5.30844">
        <ele>797.98</ele>
        <time>2014-05-03T08:30:40Z</time>
      </trkpt>
      <trkpt lat="44.55399" lon="5.30862">
        <ele>797.74</ele>
        <time>2014-05-03T08:30:53Z</time>
      </trkpt>
      <trkpt lat="44.55381" lon="5.30868">
        <ele>797.91</ele>
        <time>2014-05-03T08:31:10Z</time>
      </trkpt>
      <trkpt lat="44.55364" lon="5.30879">
        <ele>797.41</ele>
        <time>2014-05-03T08:31:26Z</time>
      </trkpt>
      <trkpt lat="44.55347" lon="5.30891">
        <ele>796.71</ele>
        <time>2014-05-03T08:31:40Z</time>
      </trkpt>
      <trkpt lat="44.55329" lon="5.30903">
        <ele>795.72</ele>
        <time>2014-05-03T08:31:57Z</time>
      </trkpt>
      <trkpt lat="44.55312" lon="5.30912">
        <ele>795.09</ele>
        <time>2014-05-03T08:32:12Z</time>
      </trkpt>
      <trkpt lat="44.55294" lon="5.30904">
        <ele>794.14</ele>
        <time>2014-05-03T08:32:27Z</time>
      </trkpt>
      <trkpt lat="44.55276" lon="5.30898">
        <ele>793.23</ele>
        <time>2014-05-03T08:32:44Z</time>
      </trkpt>
      <trkpt lat="44.55259" lon="5.30891">
        <ele>793.22</ele>
        <time>2014-05-03T08:32:58Z</time>
      </trkpt>
      <trkpt lat="44.5524" lon="5.30893">
        <ele>791.95</ele>
        <time>2014-05-03T08:33:14Z</time>
      </trkpt>
      <trkpt lat="44.55223" lon="5.30903">
        <ele>791.82</ele>
        <time>2014-05-03T08:33:29Z</time>
      </trkpt>
      <trkpt lat="44.5521" lon="5.30922">
        <ele>792.7</ele>
        <time>2014-05-03T08:33:44Z</time>
      </trkpt>
      <trkpt lat="44.55199" lon="5.30942">
        <ele>793.59</ele>
        <time>2014-05-03T08:33:59Z</time>
      </trkpt>
      <trkpt lat="44.55186" lon="5.30961">
        <ele>794.43</ele>
        <time>2014-05-03T08:34:16Z</time>
      </trkpt>
      <trkpt lat="44.55169" lon="5.30973">
        <ele>795.52</ele>
        <time>2014-05-03T08:34:34Z</time>
      </trkpt>
      <trkpt lat="44.55151" lon="5.30979">
        <ele>798.03</ele>
        <time>2014-05-03T08:34:53Z</time>
      </trkpt>
      <trkpt lat="44.55133" lon="5.30984">
        <ele>798.93</ele>
        <time>2014-05-03T08:35:11Z</time>
      </trkpt>
      <trkpt lat="44.55117" lon="5.30996">
        <ele>800.6</ele>
        <time>2014-05-03T08:35:31Z</time>
      </trkpt>
      <trkpt lat="44.55115" lon="5.31021">
        <ele>802.54</ele>
        <time>2014-05-03T08:35:48Z</time>
      </trkpt>
      <trkpt lat="44.55113" lon="5.31047">
        <ele>804.12</ele>
        <time>2014-05-03T08:36:05Z</time>
      </trkpt>
      <trkpt lat="44.55099" lon="5.31063">
        <ele>806.65</ele>
        <time>2014-05-03T08:36:27Z</time>
      </trkpt>
      <trkpt lat="44.55083" lon="5.31076">
        <ele>808.27</ele>
        <time>2014-05-03T08:36:44Z</time>
      </trkpt>
      <trkpt lat="44.55068" lon="5.3109">
        <ele>810.14</ele>
        <time>2014-05-03T08:37:03Z</time>
      </trkpt>
      <trkpt lat="44.5505" lon="5.31093">
        <ele>811.52</ele>
        <time>2014-05-03T08:37:19Z</time>
      </trkpt>
      <trkpt lat="44.55032" lon="5.31089">
        <ele>813.72</ele>
        <time>2014-05-03T08:37:37Z</time>
      </trkpt>
      <trkpt lat="44.55014" lon="5.31096">
        <ele>815.8</ele>
        <time>2014-05-03T08:37:56Z</time>
      </trkpt>
      <trkpt lat="44.54996" lon="5.31104">
        <ele>817.37</ele>
        <time>2014-05-03T08:38:15Z</time>
      </trkpt>
      <trkpt lat="44.54978" lon="5.31112">
        <ele>819.18</ele>
        <time>2014-05-03T08:38:33Z</time>
      </trkpt>
      <trkpt lat="44.54962" lon="5.31099">
        <ele>820.68</ele>
        <time>2014-05-03T08:38:50Z</time>
      </trkpt>
      <trkpt lat="44.54945" lon="5.31107">
        <ele>822</ele>
        <time>2014-05-03T08:39:12Z</time>
      </trkpt>
      <trkpt lat="44.54932" lon="5.31125">
        <ele>823.35</ele>
        <time>2014-05-03T08:39:29Z</time>
      </trkpt>
      <trkpt lat="44.54918" lon="5.31141">
        <ele>824.49</ele>
        <time>2014-05-03T08:39:45Z</time>
      </trkpt>
      <trkpt lat="44.54901" lon="5.31149">
        <ele>825.49</ele>
        <time>2014-05-03T08:40:02Z</time>
      </trkpt>
      <trkpt lat="44.54882" lon="5.31151">
        <ele>826.17</ele>
        <time>2014-05-03T08:40:17Z</time>
      </trkpt>
      <trkpt lat="44.54866" lon="5.31164">
        <ele>827.2</ele>
        <time>2014-05-03T08:40:32Z</time>
      </trkpt>
      <trkpt lat="44.54849" lon="5.31171">
        <ele>828.78</ele>
        <time>2014-05-03T08:40:48Z</time>
      </trkpt>
      <trkpt lat="44.54834" lon="5.31187">
        <ele>829.97</ele>
        <time>2014-05-03T08:41:04Z</time>
      </trkpt>
      <trkpt lat="44.54816" lon="5.31199">
        <ele>830.71</ele>
        <time>2014-05-03T08:41:21Z</time>
      </trkpt>
      <trkpt lat="44.54801" lon="5.31212">
        <ele>831.69</ele>
        <time>2014-05-03T08:41:37Z</time>
      </trkpt>
      <trkpt lat="44.54787" lon="5.3123">
        <ele>833.16</ele>
        <time>2014-05-03T08:41:57Z</time>
      </trkpt>
      <trkpt lat="44.54772" lon="5.31245">
        <ele>834.55</ele>
        <time>2014-05-03T08:42:10Z</time>
      </trkpt>
      <trkpt lat="44.54757" lon="5.31258">
        <ele>835.64</ele>
        <time>2014-05-03T08:42:27Z</time>
      </trkpt>
      <trkpt lat="44.54741" lon="5.31271">
        <ele>836.9</ele>
        <time>2014-05-03T08:42:44Z</time>
      </trkpt>
      <trkpt lat="44.54725" lon="5.31283">
        <ele>838.46</ele>
        <time>2014-05-03T08:43:00Z</time>
      </trkpt>
      <trkpt lat="44.54709" lon="5.31294">
        <ele>839.53</ele>
        <time>2014-05-03T08:43:16Z</time>
      </trkpt>
      <trkpt lat="44.54694" lon="5.31311">
        <ele>840.64</ele>
        <time>2014-05-03T08:43:33Z</time>
      </trkpt>
      <trkpt lat="44.54679" lon="5.31326">
        <ele>842.03</ele>
        <time>2014-05-03T08:43:49Z</time>
      </trkpt>
      <trkpt lat="44.54663" lon="5.31337">
        <ele>843.61</ele>
        <time>2014-05-03T08:44:05Z</time>
      </trkpt>
      <trkpt lat="44.54648" lon="5.3135">
        <ele>845.12</ele>
        <time>2014-05-03T08:44:21Z</time>
      </trkpt>
      <trkpt lat="44.54632" lon="5.31364">
        <ele>846.84</ele>
        <time>2014-05-03T08:44:38Z</time>
      </trkpt>
      <trkpt lat="44.54614" lon="5.31372">
        <ele>848.17</ele>
        <time>2014-05-03T08:44:55Z</time>
      </trkpt>
      <trkpt lat="44.54595" lon="5.31377">
        <ele>848.82</ele>
        <time>2014-05-03T08:45:11Z</time>
      </trkpt>
      <trkpt lat="44.54577" lon="5.3138">
        <ele>849.7</ele>
        <time>2014-05-03T08:45:27Z</time>
      </trkpt>
      <trkpt lat="44.54558" lon="5.31384">
        <ele>850.78</ele>
        <time>2014-05-03T08:45:44Z</time>
      </trkpt>
      <trkpt lat="44.5454" lon="5.31386">
        <ele>851.42</ele>
        <time>2014-05-03T08:46:01Z</time>
      </trkpt>
      <trkpt lat="44.54523" lon="5.31395">
        <ele>852.96</ele>
        <time>2014-05-03T08:46:20Z</time>
      </trkpt>
      <trkpt lat="44.54507" lon="5.3141">
        <ele>853.93</ele>
        <time>2014-05-03T08:46:35Z</time>
      </trkpt>
      <trkpt lat="44.5449" lon="5.31418">
        <ele>855.71</ele>
        <time>2014-05-03T08:46:54Z</time>
      </trkpt>
      <trkpt lat="44.54473" lon="5.31425">
        <ele>857.23</ele>
        <time>2014-05-03T08:47:12Z</time>
      </trkpt>
      <trkpt lat="44.54489" lon="5.31438">
        <ele>860.38</ele>
        <time>2014-05-03T08:47:54Z</time>
      </trkpt>
      <trkpt lat="44.54506" lon="5.31446">
        <ele>860.9</ele>
        <time>2014-05-03T08:48:10Z</time>
      </trkpt>
      <trkpt lat="44.54524" lon="5.31448">
        <ele>863</ele>
        <time>2014-05-03T08:48:31Z</time>
      </trkpt>
      <trkpt lat="44.54542" lon="5.31453">
        <ele>865.2</ele>
        <time>2014-05-03T08:48:50Z</time>
      </trkpt>
      <trkpt lat="44.5456" lon="5.31456">
        <ele>868.05</ele>
        <time>2014-05-03T08:49:15Z</time>
      </trkpt>
      <trkpt lat="44.54579" lon="5.31462">
        <ele>870.34</ele>
        <time>2014-05-03T08:49:32Z</time>
      </trkpt>
      <trkpt lat="44.54595" lon="5.31472">
        <ele>871.49</ele>
        <time>2014-05-03T08:49:47Z</time>
      </trkpt>
      <trkpt lat="44.54613" lon="5.31481">
        <ele>873.1</ele>
        <time>2014-05-03T08:50:06Z</time>
      </trkpt>
      <trkpt lat="44.5463" lon="5.3149">
        <ele>874.57</ele>
        <time>2014-05-03T08:50:23Z</time>
      </trkpt>
      <trkpt lat="44.54648" lon="5.31501">
        <ele>875.39</ele>
        <time>2014-05-03T08:50:40Z</time>
      </trkpt>
      <trkpt lat="44.54665" lon="5.31509">
        <ele>877.92</ele>
        <time>2014-05-03T08:51:28Z</time>
      </trkpt>
      <trkpt lat="44.54649" lon="5.31524">
        <ele>881.19</ele>
        <time>2014-05-03T08:55:11Z</time>
      </trkpt>
      <trkpt lat="44.54633" lon="5.31536">
        <ele>881.11</ele>
        <time>2014-05-03T08:55:27Z</time>
      </trkpt>
      <trkpt lat="44.54616" lon="5.31545">
        <ele>880.55</ele>
        <time>2014-05-03T08:55:42Z</time>
      </trkpt>
      <trkpt lat="44.54598" lon="5.31554">
        <ele>879.82</ele>
        <time>2014-05-03T08:55:57Z</time>
      </trkpt>
      <trkpt lat="44.54579" lon="5.31562">
        <ele>877.99</ele>
        <time>2014-05-03T08:56:12Z</time>
      </trkpt>
      <trkpt lat="44.54562" lon="5.31575">
        <ele>875.51</ele>
        <time>2014-05-03T08:56:27Z</time>
      </trkpt>
      <trkpt lat="44.54546" lon="5.31586">
        <ele>873.28</ele>
        <time>2014-05-03T08:56:40Z</time>
      </trkpt>
      <trkpt lat="44.54528" lon="5.31598">
        <ele>870.25</ele>
        <time>2014-05-03T08:56:55Z</time>
      </trkpt>
      <trkpt lat="44.54512" lon="5.31611">
        <ele>867.29</ele>
        <time>2014-05-03T08:57:09Z</time>
      </trkpt>
      <trkpt lat="44.54497" lon="5.31626">
        <ele>865.14</ele>
        <time>2014-05-03T08:57:23Z</time>
      </trkpt>
      <trkpt lat="44.54483" lon="5.31642">
        <ele>862.53</ele>
        <time>2014-05-03T08:57:38Z</time>
      </trkpt>
      <trkpt lat="44.54469" lon="5.31658">
        <ele>860.29</ele>
        <time>2014-05-03T08:57:51Z</time>
      </trkpt>
      <trkpt lat="44.54456" lon="5.31678">
        <ele>857.6</ele>
        <time>2014-05-03T08:58:05Z</time>
      </trkpt>
      <trkpt lat="44.54441" lon="5.31695">
        <ele>855.58</ele>
        <time>2014-05-03T08:58:20Z</time>
      </trkpt>
      <trkpt lat="44.54427" lon="5.31713">
        <ele>853.11</ele>
        <time>2014-05-03T08:58:34Z</time>
      </trkpt>
      <trkpt lat="44.54411" lon="5.31728">
        <ele>851.24</ele>
        <time>2014-05-03T08:58:49Z</time>
      </trkpt>
      <trkpt lat="44.54393" lon="5.31733">
        <ele>849.71</ele>
        <time>2014-05-03T08:59:02Z</time>
      </trkpt>
      <trkpt lat="44.54407" lon="5.3175">
        <ele>847.92</ele>
        <time>2014-05-03T08:59:17Z</time>
      </trkpt>
      <trkpt lat="44.54425" lon="5.31749">
        <ele>846.96</ele>
        <time>2014-05-03T08:59:29Z</time>
      </trkpt>
      <trkpt lat="44.54444" lon="5.31743">
        <ele>845.81</ele>
        <time>2014-05-03T08:59:44Z</time>
      </trkpt>
      <trkpt lat="44.54463" lon="5.31738">
        <ele>844.11</ele>
        <time>2014-05-03T08:59:57Z</time>
      </trkpt>
      <trkpt lat="44.54482" lon="5.31733">
        <ele>842.23</ele>
        <time>2014-05-03T09:00:12Z</time>
      </trkpt>
      <trkpt lat="44.54499" lon="5.31723">
        <ele>841.49</ele>
        <time>2014-05-03T09:00:25Z</time>
      </trkpt>
      <trkpt lat="44.54516" lon="5.31712">
        <ele>840.28</ele>
        <time>2014-05-03T09:00:37Z</time>
      </trkpt>
      <trkpt lat="44.54533" lon="5.31703">
        <ele>838.87</ele>
        <time>2014-05-03T09:00:51Z</time>
      </trkpt>
      <trkpt lat="44.54526" lon="5.31726">
        <ele>833.41</ele>
        <time>2014-05-03T09:01:29Z</time>
      </trkpt>
      <trkpt lat="44.54513" lon="5.31744">
        <ele>830.76</ele>
        <time>2014-05-03T09:01:43Z</time>
      </trkpt>
      <trkpt lat="44.54499" lon="5.31763">
        <ele>828.01</ele>
        <time>2014-05-03T09:01:57Z</time>
      </trkpt>
      <trkpt lat="44.54487" lon="5.31782">
        <ele>825.9</ele>
        <time>2014-05-03T09:02:10Z</time>
      </trkpt>
      <trkpt lat="44.54475" lon="5.31803">
        <ele>823.24</ele>
        <time>2014-05-03T09:02:23Z</time>
      </trkpt>
      <trkpt lat="44.54464" lon="5.31823">
        <ele>820.77</ele>
        <time>2014-05-03T09:02:36Z</time>
      </trkpt>
      <trkpt lat="44.54453" lon="5.31843">
        <ele>818.71</ele>
        <time>2014-05-03T09:02:49Z</time>
      </trkpt>
      <trkpt lat="44.54469" lon="5.31855">
        <ele>814.92</ele>
        <time>2014-05-03T09:03:17Z</time>
      </trkpt>
      <trkpt lat="44.54485" lon="5.3184">
        <ele>813.69</ele>
        <time>2014-05-03T09:03:32Z</time>
      </trkpt>
      <trkpt lat="44.545" lon="5.31824">
        <ele>812.79</ele>
        <time>2014-05-03T09:03:46Z</time>
      </trkpt>
      <trkpt lat="44.54516" lon="5.31811">
        <ele>811.9</ele>
        <time>2014-05-03T09:03:59Z</time>
      </trkpt>
      <trkpt lat="44.54509" lon="5.31835">
        <ele>808.74</ele>
        <time>2014-05-03T09:04:32Z</time>
      </trkpt>
      <trkpt lat="44.54501" lon="5.31859">
        <ele>807.34</ele>
        <time>2014-05-03T09:04:46Z</time>
      </trkpt>
      <trkpt lat="44.54499" lon="5.31884">
        <ele>805.07</ele>
        <time>2014-05-03T09:05:01Z</time>
      </trkpt>
      <trkpt lat="44.54498" lon="5.3191">
        <ele>801.66</ele>
        <time>2014-05-03T09:05:16Z</time>
      </trkpt>
      <trkpt lat="44.54494" lon="5.31935">
        <ele>798.32</ele>
        <time>2014-05-03T09:05:31Z</time>
      </trkpt>
      <trkpt lat="44.54486" lon="5.31959">
        <ele>794.62</ele>
        <time>2014-05-03T09:05:47Z</time>
      </trkpt>
      <trkpt lat="44.54489" lon="5.31985">
        <ele>789.61</ele>
        <time>2014-05-03T09:06:07Z</time>
      </trkpt>
      <trkpt lat="44.54486" lon="5.3201">
        <ele>785.22</ele>
        <time>2014-05-03T09:06:24Z</time>
      </trkpt>
      <trkpt lat="44.54476" lon="5.3203">
        <ele>780.94</ele>
        <time>2014-05-03T09:06:38Z</time>
      </trkpt>
      <trkpt lat="44.54466" lon="5.32053">
        <ele>776.86</ele>
        <time>2014-05-03T09:06:54Z</time>
      </trkpt>
      <trkpt lat="44.5446" lon="5.32078">
        <ele>773.68</ele>
        <time>2014-05-03T09:07:10Z</time>
      </trkpt>
      <trkpt lat="44.54449" lon="5.32099">
        <ele>770.09</ele>
        <time>2014-05-03T09:07:31Z</time>
      </trkpt>
      <trkpt lat="44.54462" lon="5.32119">
        <ele>767.84</ele>
        <time>2014-05-03T09:07:52Z</time>
      </trkpt>
      <trkpt lat="44.54475" lon="5.32138">
        <ele>766.8</ele>
        <time>2014-05-03T09:08:23Z</time>
      </trkpt>
      <trkpt lat="44.54476" lon="5.32163">
        <ele>768.41</ele>
        <time>2014-05-03T09:08:38Z</time>
      </trkpt>
      <trkpt lat="44.54479" lon="5.32189">
        <ele>769.16</ele>
        <time>2014-05-03T09:08:57Z</time>
      </trkpt>
      <trkpt lat="44.54482" lon="5.32215">
        <ele>769.73</ele>
        <time>2014-05-03T09:09:14Z</time>
      </trkpt>
      <trkpt lat="44.54479" lon="5.32241">
        <ele>771.21</ele>
        <time>2014-05-03T09:09:38Z</time>
      </trkpt>
      <trkpt lat="44.54461" lon="5.32232">
        <ele>773.02</ele>
        <time>2014-05-03T09:09:50Z</time>
      </trkpt>
      <trkpt lat="44.54447" lon="5.32217">
        <ele>775.7</ele>
        <time>2014-05-03T09:10:09Z</time>
      </trkpt>
      <trkpt lat="44.54429" lon="5.3221">
        <ele>777.23</ele>
        <time>2014-05-03T09:10:22Z</time>
      </trkpt>
      <trkpt lat="44.54412" lon="5.3222">
        <ele>779.1</ele>
        <time>2014-05-03T09:10:41Z</time>
      </trkpt>
      <trkpt lat="44.544" lon="5.32242">
        <ele>779.97</ele>
        <time>2014-05-03T09:10:56Z</time>
      </trkpt>
      <trkpt lat="44.5439" lon="5.32262">
        <ele>780.73</ele>
        <time>2014-05-03T09:11:11Z</time>
      </trkpt>
      <trkpt lat="44.54384" lon="5.32287">
        <ele>781.28</ele>
        <time>2014-05-03T09:11:26Z</time>
      </trkpt>
      <trkpt lat="44.54382" lon="5.32312">
        <ele>781.66</ele>
        <time>2014-05-03T09:11:40Z</time>
      </trkpt>
      <trkpt lat="44.54379" lon="5.32338">
        <ele>782.08</ele>
        <time>2014-05-03T09:11:55Z</time>
      </trkpt>
      <trkpt lat="44.54374" lon="5.32364">
        <ele>782.4</ele>
        <time>2014-05-03T09:12:11Z</time>
      </trkpt>
      <trkpt lat="44.54371" lon="5.3239">
        <ele>782.74</ele>
        <time>2014-05-03T09:12:26Z</time>
      </trkpt>
      <trkpt lat="44.54367" lon="5.32415">
        <ele>782.98</ele>
        <time>2014-05-03T09:12:41Z</time>
      </trkpt>
      <trkpt lat="44.54363" lon="5.32441">
        <ele>783.5</ele>
        <time>2014-05-03T09:12:57Z</time>
      </trkpt>
      <trkpt lat="44.54359" lon="5.32465">
        <ele>784.46</ele>
        <time>2014-05-03T09:13:13Z</time>
      </trkpt>
      <trkpt lat="44.54354" lon="5.3249">
        <ele>785.81</ele>
        <time>2014-05-03T09:13:28Z</time>
      </trkpt>
      <trkpt lat="44.54347" lon="5.32515">
        <ele>786.93</ele>
        <time>2014-05-03T09:13:43Z</time>
      </trkpt>
      <trkpt lat="44.54341" lon="5.3254">
        <ele>787.37</ele>
        <time>2014-05-03T09:13:57Z</time>
      </trkpt>
      <trkpt lat="44.54334" lon="5.32563">
        <ele>787.79</ele>
        <time>2014-05-03T09:14:12Z</time>
      </trkpt>
      <trkpt lat="44.54329" lon="5.32589">
        <ele>788.45</ele>
        <time>2014-05-03T09:14:28Z</time>
      </trkpt>
      <trkpt lat="44.54325" lon="5.32615">
        <ele>789.13</ele>
        <time>2014-05-03T09:14:42Z</time>
      </trkpt>
      <trkpt lat="44.54316" lon="5.32638">
        <ele>789.81</ele>
        <time>2014-05-03T09:14:58Z</time>
      </trkpt>
      <trkpt lat="44.54313" lon="5.32664">
        <ele>790.49</ele>
        <time>2014-05-03T09:15:15Z</time>
      </trkpt>
      <trkpt lat="44.54308" lon="5.3269">
        <ele>791</ele>
        <time>2014-05-03T09:15:29Z</time>
      </trkpt>
      <trkpt lat="44.54302" lon="5.32714">
        <ele>791.55</ele>
        <time>2014-05-03T09:15:45Z</time>
      </trkpt>
      <trkpt lat="44.54295" lon="5.32739">
        <ele>791.03</ele>
        <time>2014-05-03T09:16:03Z</time>
      </trkpt>
      <trkpt lat="44.54289" lon="5.32765">
        <ele>791.41</ele>
        <time>2014-05-03T09:16:19Z</time>
      </trkpt>
      <trkpt lat="44.54288" lon="5.32791">
        <ele>792.19</ele>
        <time>2014-05-03T09:16:33Z</time>
      </trkpt>
      <trkpt lat="44.54287" lon="5.32816">
        <ele>792.6</ele>
        <time>2014-05-03T09:16:46Z</time>
      </trkpt>
      <trkpt lat="44.54288" lon="5.32843">
        <ele>792.46</ele>
        <time>2014-05-03T09:17:15Z</time>
      </trkpt>
      <trkpt lat="44.54287" lon="5.32868">
        <ele>792.52</ele>
        <time>2014-05-03T09:17:26Z</time>
      </trkpt>
      <trkpt lat="44.54284" lon="5.32893">
        <ele>792.63</ele>
        <time>2014-05-03T09:17:37Z</time>
      </trkpt>
      <trkpt lat="44.54282" lon="5.3292">
        <ele>792.76</ele>
        <time>2014-05-03T09:17:50Z</time>
      </trkpt>
      <trkpt lat="44.54276" lon="5.32947">
        <ele>792.08</ele>
        <time>2014-05-03T09:18:03Z</time>
      </trkpt>
      <trkpt lat="44.54269" lon="5.3297">
        <ele>791.89</ele>
        <time>2014-05-03T09:18:16Z</time>
      </trkpt>
      <trkpt lat="44.54267" lon="5.32995">
        <ele>791.62</ele>
        <time>2014-05-03T09:18:29Z</time>
      </trkpt>
      <trkpt lat="44.54263" lon="5.33021">
        <ele>791.05</ele>
        <time>2014-05-03T09:18:44Z</time>
      </trkpt>
      <trkpt lat="44.5426" lon="5.33047">
        <ele>790.65</ele>
        <time>2014-05-03T09:18:58Z</time>
      </trkpt>
      <trkpt lat="44.54262" lon="5.33073">
        <ele>789.84</ele>
        <time>2014-05-03T09:19:50Z</time>
      </trkpt>
      <trkpt lat="44.54264" lon="5.33098">
        <ele>790.37</ele>
        <time>2014-05-03T09:20:08Z</time>
      </trkpt>
      <trkpt lat="44.54269" lon="5.33124">
        <ele>791.34</ele>
        <time>2014-05-03T09:20:25Z</time>
      </trkpt>
      <trkpt lat="44.54274" lon="5.33149">
        <ele>793.14</ele>
        <time>2014-05-03T09:20:40Z</time>
      </trkpt>
      <trkpt lat="44.54276" lon="5.33176">
        <ele>793.39</ele>
        <time>2014-05-03T09:20:56Z</time>
      </trkpt>
      <trkpt lat="44.54272" lon="5.33202">
        <ele>793.45</ele>
        <time>2014-05-03T09:21:10Z</time>
      </trkpt>
      <trkpt lat="44.54272" lon="5.33228">
        <ele>794.41</ele>
        <time>2014-05-03T09:21:24Z</time>
      </trkpt>
      <trkpt lat="44.54274" lon="5.33254">
        <ele>795.46</ele>
        <time>2014-05-03T09:21:40Z</time>
      </trkpt>
      <trkpt lat="44.54281" lon="5.33279">
        <ele>795.75</ele>
        <time>2014-05-03T09:21:56Z</time>
      </trkpt>
      <trkpt lat="44.54293" lon="5.333">
        <ele>795.56</ele>
        <time>2014-05-03T09:22:10Z</time>
      </trkpt>
      <trkpt lat="44.54307" lon="5.33316">
        <ele>794.65</ele>
        <time>2014-05-03T09:22:23Z</time>
      </trkpt>
      <trkpt lat="44.54324" lon="5.33326">
        <ele>794.52</ele>
        <time>2014-05-03T09:22:38Z</time>
      </trkpt>
      <trkpt lat="44.54342" lon="5.33327">
        <ele>794.3</ele>
        <time>2014-05-03T09:22:54Z</time>
      </trkpt>
      <trkpt lat="44.54356" lon="5.33346">
        <ele>794.07</ele>
        <time>2014-05-03T09:23:09Z</time>
      </trkpt>
      <trkpt lat="44.54356" lon="5.33371">
        <ele>794.65</ele>
        <time>2014-05-03T09:23:24Z</time>
      </trkpt>
      <trkpt lat="44.54354" lon="5.33397">
        <ele>795.3</ele>
        <time>2014-05-03T09:23:39Z</time>
      </trkpt>
      <trkpt lat="44.54349" lon="5.33423">
        <ele>796.46</ele>
        <time>2014-05-03T09:23:55Z</time>
      </trkpt>
      <trkpt lat="44.54348" lon="5.3345">
        <ele>797.7</ele>
        <time>2014-05-03T09:24:09Z</time>
      </trkpt>
      <trkpt lat="44.54348" lon="5.33475">
        <ele>798.07</ele>
        <time>2014-05-03T09:24:22Z</time>
      </trkpt>
      <trkpt lat="44.54344" lon="5.335">
        <ele>799.42</ele>
        <time>2014-05-03T09:24:39Z</time>
      </trkpt>
      <trkpt lat="44.54336" lon="5.33524">
        <ele>799.83</ele>
        <time>2014-05-03T09:24:54Z</time>
      </trkpt>
      <trkpt lat="44.54328" lon="5.33547">
        <ele>799.72</ele>
        <time>2014-05-03T09:25:09Z</time>
      </trkpt>
      <trkpt lat="44.54321" lon="5.33572">
        <ele>799.92</ele>
        <time>2014-05-03T09:25:24Z</time>
      </trkpt>
      <trkpt lat="44.54323" lon="5.33599">
        <ele>800.71</ele>
        <time>2014-05-03T09:25:41Z</time>
      </trkpt>
      <trkpt lat="44.5433" lon="5.33624">
        <ele>800.88</ele>
        <time>2014-05-03T09:25:55Z</time>
      </trkpt>
      <trkpt lat="44.54337" lon="5.33648">
        <ele>801</ele>
        <time>2014-05-03T09:26:11Z</time>
      </trkpt>
      <trkpt lat="44.54347" lon="5.33669">
        <ele>801.45</ele>
        <time>2014-05-03T09:26:24Z</time>
      </trkpt>
      <trkpt lat="44.54357" lon="5.33691">
        <ele>802.06</ele>
        <time>2014-05-03T09:26:39Z</time>
      </trkpt>
      <trkpt lat="44.54365" lon="5.33715">
        <ele>802.28</ele>
        <time>2014-05-03T09:26:54Z</time>
      </trkpt>
      <trkpt lat="44.54373" lon="5.33737">
        <ele>802.94</ele>
        <time>2014-05-03T09:27:10Z</time>
      </trkpt>
      <trkpt lat="44.54378" lon="5.33762">
        <ele>803.14</ele>
        <time>2014-05-03T09:27:24Z</time>
      </trkpt>
      <trkpt lat="44.54383" lon="5.33786">
        <ele>804</ele>
        <time>2014-05-03T09:27:40Z</time>
      </trkpt>
      <trkpt lat="44.54396" lon="5.33805">
        <ele>804.46</ele>
        <time>2014-05-03T09:27:55Z</time>
      </trkpt>
      <trkpt lat="44.54408" lon="5.33825">
        <ele>804.99</ele>
        <time>2014-05-03T09:28:10Z</time>
      </trkpt>
      <trkpt lat="44.54419" lon="5.33846">
        <ele>805.3</ele>
        <time>2014-05-03T09:28:25Z</time>
      </trkpt>
      <trkpt lat="44.54429" lon="5.33868">
        <ele>806.23</ele>
        <time>2014-05-03T09:28:41Z</time>
      </trkpt>
      <trkpt lat="44.54438" lon="5.33892">
        <ele>807.25</ele>
        <time>2014-05-03T09:28:57Z</time>
      </trkpt>
      <trkpt lat="44.54449" lon="5.33912">
        <ele>808.01</ele>
        <time>2014-05-03T09:29:11Z</time>
      </trkpt>
      <trkpt lat="44.5446" lon="5.33934">
        <ele>808.18</ele>
        <time>2014-05-03T09:29:25Z</time>
      </trkpt>
      <trkpt lat="44.54471" lon="5.33955">
        <ele>808.99</ele>
        <time>2014-05-03T09:29:41Z</time>
      </trkpt>
      <trkpt lat="44.54482" lon="5.33977">
        <ele>809.26</ele>
        <time>2014-05-03T09:29:55Z</time>
      </trkpt>
      <trkpt lat="44.54494" lon="5.33997">
        <ele>810.38</ele>
        <time>2014-05-03T09:30:11Z</time>
      </trkpt>
      <trkpt lat="44.54507" lon="5.34015">
        <ele>810.99</ele>
        <time>2014-05-03T09:30:25Z</time>
      </trkpt>
      <trkpt lat="44.54519" lon="5.34035">
        <ele>811.48</ele>
        <time>2014-05-03T09:30:39Z</time>
      </trkpt>
      <trkpt lat="44.54528" lon="5.34057">
        <ele>812.33</ele>
        <time>2014-05-03T09:30:54Z</time>
      </trkpt>
      <trkpt lat="44.54536" lon="5.3408">
        <ele>813.15</ele>
        <time>2014-05-03T09:31:09Z</time>
      </trkpt>
      <trkpt lat="44.54542" lon="5.34105">
        <ele>813.73</ele>
        <time>2014-05-03T09:31:24Z</time>
      </trkpt>
      <trkpt lat="44.54554" lon="5.34125">
        <ele>813.97</ele>
        <time>2014-05-03T09:31:38Z</time>
      </trkpt>
      <trkpt lat="44.5457" lon="5.34141">
        <ele>814.42</ele>
        <time>2014-05-03T09:31:54Z</time>
      </trkpt>
      <trkpt lat="44.54585" lon="5.34155">
        <ele>814.64</ele>
        <time>2014-05-03T09:32:08Z</time>
      </trkpt>
      <trkpt lat="44.54601" lon="5.34169">
        <ele>815.09</ele>
        <time>2014-05-03T09:32:22Z</time>
      </trkpt>
      <trkpt lat="44.54611" lon="5.34189">
        <ele>815.76</ele>
        <time>2014-05-03T09:32:36Z</time>
      </trkpt>
      <trkpt lat="44.54625" lon="5.34208">
        <ele>815.95</ele>
        <time>2014-05-03T09:32:50Z</time>
      </trkpt>
      <trkpt lat="44.54634" lon="5.34232">
        <ele>816.16</ele>
        <time>2014-05-03T09:33:04Z</time>
      </trkpt>
      <trkpt lat="44.54644" lon="5.34253">
        <ele>817.11</ele>
        <time>2014-05-03T09:33:19Z</time>
      </trkpt>
      <trkpt lat="44.54658" lon="5.3427">
        <ele>817.35</ele>
        <time>2014-05-03T09:33:32Z</time>
      </trkpt>
      <trkpt lat="44.5467" lon="5.34291">
        <ele>817.24</ele>
        <time>2014-05-03T09:33:47Z</time>
      </trkpt>
      <trkpt lat="44.54681" lon="5.34313">
        <ele>817.31</ele>
        <time>2014-05-03T09:34:01Z</time>
      </trkpt>
      <trkpt lat="44.5469" lon="5.34336">
        <ele>817.67</ele>
        <time>2014-05-03T09:34:16Z</time>
      </trkpt>
      <trkpt lat="44.54703" lon="5.34354">
        <ele>817.87</ele>
        <time>2014-05-03T09:34:31Z</time>
      </trkpt>
      <trkpt lat="44.54716" lon="5.34373">
        <ele>818.16</ele>
        <time>2014-05-03T09:34:46Z</time>
      </trkpt>
      <trkpt lat="44.54727" lon="5.34394">
        <ele>818.78</ele>
        <time>2014-05-03T09:35:00Z</time>
      </trkpt>
      <trkpt lat="44.5474" lon="5.34411">
        <ele>819.08</ele>
        <time>2014-05-03T09:35:14Z</time>
      </trkpt>
      <trkpt lat="44.54754" lon="5.3443">
        <ele>819.5</ele>
        <time>2014-05-03T09:35:29Z</time>
      </trkpt>
      <trkpt lat="44.54766" lon="5.34451">
        <ele>820.89</ele>
        <time>2014-05-03T09:35:44Z</time>
      </trkpt>
      <trkpt lat="44.54774" lon="5.34475">
        <ele>822.6</ele>
        <time>2014-05-03T09:36:00Z</time>
      </trkpt>
      <trkpt lat="44.54784" lon="5.34497">
        <ele>823.33</ele>
        <time>2014-05-03T09:36:14Z</time>
      </trkpt>
      <trkpt lat="44.54801" lon="5.3451">
        <ele>823.69</ele>
        <time>2014-05-03T09:36:30Z</time>
      </trkpt>
      <trkpt lat="44.54818" lon="5.34522">
        <ele>823.7</ele>
        <time>2014-05-03T09:36:46Z</time>
      </trkpt>
      <trkpt lat="44.54833" lon="5.34535">
        <ele>823.86</ele>
        <time>2014-05-03T09:37:01Z</time>
      </trkpt>
      <trkpt lat="44.54848" lon="5.34552">
        <ele>824.19</ele>
        <time>2014-05-03T09:37:15Z</time>
      </trkpt>
      <trkpt lat="44.54856" lon="5.34575">
        <ele>825.06</ele>
        <time>2014-05-03T09:37:30Z</time>
      </trkpt>
      <trkpt lat="44.54861" lon="5.34601">
        <ele>825.6</ele>
        <time>2014-05-03T09:37:45Z</time>
      </trkpt>
      <trkpt lat="44.54869" lon="5.34624">
        <ele>826.3</ele>
        <time>2014-05-03T09:38:08Z</time>
      </trkpt>
      <trkpt lat="44.54882" lon="5.34643">
        <ele>826.65</ele>
        <time>2014-05-03T09:38:19Z</time>
      </trkpt>
      <trkpt lat="44.54894" lon="5.34662">
        <ele>827.12</ele>
        <time>2014-05-03T09:38:32Z</time>
      </trkpt>
      <trkpt lat="44.54906" lon="5.34682">
        <ele>827.48</ele>
        <time>2014-05-03T09:38:45Z</time>
      </trkpt>
      <trkpt lat="44.54919" lon="5.34702">
        <ele>828.62</ele>
        <time>2014-05-03T09:38:57Z</time>
      </trkpt>
      <trkpt lat="44.54931" lon="5.34722">
        <ele>829.65</ele>
        <time>2014-05-03T09:39:10Z</time>
      </trkpt>
      <trkpt lat="44.54944" lon="5.3474">
        <ele>830.35</ele>
        <time>2014-05-03T09:39:24Z</time>
      </trkpt>
      <trkpt lat="44.5496" lon="5.34757">
        <ele>830.75</ele>
        <time>2014-05-03T09:39:40Z</time>
      </trkpt>
      <trkpt lat="44.54976" lon="5.3477">
        <ele>830.95</ele>
        <time>2014-05-03T09:39:54Z</time>
      </trkpt>
      <trkpt lat="44.54994" lon="5.34779">
        <ele>831.2</ele>
        <time>2014-05-03T09:40:10Z</time>
      </trkpt>
      <trkpt lat="44.55011" lon="5.34789">
        <ele>831.1</ele>
        <time>2014-05-03T09:40:25Z</time>
      </trkpt>
      <trkpt lat="44.55027" lon="5.34802">
        <ele>831.32</ele>
        <time>2014-05-03T09:40:40Z</time>
      </trkpt>
      <trkpt lat="44.55044" lon="5.34813">
        <ele>831.54</ele>
        <time>2014-05-03T09:40:58Z</time>
      </trkpt>
      <trkpt lat="44.55061" lon="5.34824">
        <ele>832.33</ele>
        <time>2014-05-03T09:41:12Z</time>
      </trkpt>
      <trkpt lat="44.55077" lon="5.34839">
        <ele>832.45</ele>
        <time>2014-05-03T09:41:28Z</time>
      </trkpt>
      <trkpt lat="44.55091" lon="5.34856">
        <ele>832.6</ele>
        <time>2014-05-03T09:41:41Z</time>
      </trkpt>
      <trkpt lat="44.55102" lon="5.34876">
        <ele>833.72</ele>
        <time>2014-05-03T09:41:59Z</time>
      </trkpt>
      <trkpt lat="44.55113" lon="5.34898">
        <ele>835.34</ele>
        <time>2014-05-03T09:42:19Z</time>
      </trkpt>
      <trkpt lat="44.55127" lon="5.34915">
        <ele>836.86</ele>
        <time>2014-05-03T09:42:36Z</time>
      </trkpt>
      <trkpt lat="44.55142" lon="5.34929">
        <ele>836.9</ele>
        <time>2014-05-03T09:42:51Z</time>
      </trkpt>
      <trkpt lat="44.55156" lon="5.34947">
        <ele>836.87</ele>
        <time>2014-05-03T09:43:07Z</time>
      </trkpt>
      <trkpt lat="44.55169" lon="5.34964">
        <ele>836.86</ele>
        <time>2014-05-03T09:43:22Z</time>
      </trkpt>
      <trkpt lat="44.55186" lon="5.34975">
        <ele>837.4</ele>
        <time>2014-05-03T09:43:38Z</time>
      </trkpt>
      <trkpt lat="44.55204" lon="5.34983">
        <ele>837.73</ele>
        <time>2014-05-03T09:43:53Z</time>
      </trkpt>
      <trkpt lat="44.55222" lon="5.34989">
        <ele>838.07</ele>
        <time>2014-05-03T09:44:08Z</time>
      </trkpt>
      <trkpt lat="44.5524" lon="5.34994">
        <ele>839.17</ele>
        <time>2014-05-03T09:44:24Z</time>
      </trkpt>
      <trkpt lat="44.55258" lon="5.34996">
        <ele>840.36</ele>
        <time>2014-05-03T09:44:39Z</time>
      </trkpt>
      <trkpt lat="44.55277" lon="5.34998">
        <ele>841.53</ele>
        <time>2014-05-03T09:44:56Z</time>
      </trkpt>
      <trkpt lat="44.55295" lon="5.35">
        <ele>842.84</ele>
        <time>2014-05-03T09:45:12Z</time>
      </trkpt>
      <trkpt lat="44.55314" lon="5.35003">
        <ele>844.01</ele>
        <time>2014-05-03T09:45:29Z</time>
      </trkpt>
      <trkpt lat="44.55333" lon="5.35006">
        <ele>845.87</ele>
        <time>2014-05-03T09:45:45Z</time>
      </trkpt>
      <trkpt lat="44.55351" lon="5.35014">
        <ele>847.18</ele>
        <time>2014-05-03T09:45:59Z</time>
      </trkpt>
      <trkpt lat="44.55366" lon="5.35027">
        <ele>848.81</ele>
        <time>2014-05-03T09:46:12Z</time>
      </trkpt>
      <trkpt lat="44.55378" lon="5.35047">
        <ele>850.5</ele>
        <time>2014-05-03T09:46:27Z</time>
      </trkpt>
      <trkpt lat="44.55392" lon="5.35029">
        <ele>854.56</ele>
        <time>2014-05-03T09:52:00Z</time>
      </trkpt>
      <trkpt lat="44.55406" lon="5.35012">
        <ele>857.02</ele>
        <time>2014-05-03T09:52:17Z</time>
      </trkpt>
      <trkpt lat="44.55423" lon="5.35">
        <ele>857.83</ele>
        <time>2014-05-03T09:52:36Z</time>
      </trkpt>
      <trkpt lat="44.55441" lon="5.34992">
        <ele>856.86</ele>
        <time>2014-05-03T09:52:53Z</time>
      </trkpt>
      <trkpt lat="44.55459" lon="5.34983">
        <ele>856.11</ele>
        <time>2014-05-03T09:53:12Z</time>
      </trkpt>
      <trkpt lat="44.55476" lon="5.34976">
        <ele>856.79</ele>
        <time>2014-05-03T09:53:33Z</time>
      </trkpt>
      <trkpt lat="44.55494" lon="5.34967">
        <ele>858.47</ele>
        <time>2014-05-03T09:53:53Z</time>
      </trkpt>
      <trkpt lat="44.55511" lon="5.34956">
        <ele>859.42</ele>
        <time>2014-05-03T09:54:12Z</time>
      </trkpt>
      <trkpt lat="44.55527" lon="5.34944">
        <ele>859.78</ele>
        <time>2014-05-03T09:54:31Z</time>
      </trkpt>
      <trkpt lat="44.55539" lon="5.34925">
        <ele>863.58</ele>
        <time>2014-05-03T09:54:52Z</time>
      </trkpt>
      <trkpt lat="44.5555" lon="5.34904">
        <ele>869.12</ele>
        <time>2014-05-03T09:55:15Z</time>
      </trkpt>
      <trkpt lat="44.55563" lon="5.34886">
        <ele>872.01</ele>
        <time>2014-05-03T09:55:37Z</time>
      </trkpt>
      <trkpt lat="44.55577" lon="5.3487">
        <ele>874.54</ele>
        <time>2014-05-03T09:55:57Z</time>
      </trkpt>
      <trkpt lat="44.55593" lon="5.34857">
        <ele>875.16</ele>
        <time>2014-05-03T09:56:16Z</time>
      </trkpt>
      <trkpt lat="44.55611" lon="5.34854">
        <ele>876.83</ele>
        <time>2014-05-03T09:56:35Z</time>
      </trkpt>
      <trkpt lat="44.55627" lon="5.3487">
        <ele>878.05</ele>
        <time>2014-05-03T09:56:54Z</time>
      </trkpt>
      <trkpt lat="44.55637" lon="5.34891">
        <ele>879.88</ele>
        <time>2014-05-03T09:57:11Z</time>
      </trkpt>
      <trkpt lat="44.55645" lon="5.34914">
        <ele>883.75</ele>
        <time>2014-05-03T10:08:36Z</time>
      </trkpt>
      <trkpt lat="44.55657" lon="5.34933">
        <ele>885.73</ele>
        <time>2014-05-03T10:08:55Z</time>
      </trkpt>
      <trkpt lat="44.55675" lon="5.3494">
        <ele>886.62</ele>
        <time>2014-05-03T10:09:12Z</time>
      </trkpt>
      <trkpt lat="44.55692" lon="5.34952">
        <ele>887.99</ele>
        <time>2014-05-03T10:09:36Z</time>
      </trkpt>
      <trkpt lat="44.55705" lon="5.3497">
        <ele>889.11</ele>
        <time>2014-05-03T10:10:08Z</time>
      </trkpt>
      <trkpt lat="44.55715" lon="5.34991">
        <ele>890.48</ele>
        <time>2014-05-03T10:10:27Z</time>
      </trkpt>
      <trkpt lat="44.55725" lon="5.35013">
        <ele>892.59</ele>
        <time>2014-05-03T10:10:47Z</time>
      </trkpt>
      <trkpt lat="44.55735" lon="5.35034">
        <ele>895.23</ele>
        <time>2014-05-03T10:11:06Z</time>
      </trkpt>
      <trkpt lat="44.55746" lon="5.35055">
        <ele>897.59</ele>
        <time>2014-05-03T10:11:23Z</time>
      </trkpt>
      <trkpt lat="44.55761" lon="5.3507">
        <ele>900.29</ele>
        <time>2014-05-03T10:11:45Z</time>
      </trkpt>
      <trkpt lat="44.55777" lon="5.35082">
        <ele>902.32</ele>
        <time>2014-05-03T10:12:05Z</time>
      </trkpt>
      <trkpt lat="44.55769" lon="5.35104">
        <ele>905.85</ele>
        <time>2014-05-03T10:12:29Z</time>
      </trkpt>
      <trkpt lat="44.55752" lon="5.35118">
        <ele>908.33</ele>
        <time>2014-05-03T10:12:47Z</time>
      </trkpt>
      <trkpt lat="44.55743" lon="5.35139">
        <ele>909.78</ele>
        <time>2014-05-03T10:13:06Z</time>
      </trkpt>
      <trkpt lat="44.55736" lon="5.35164">
        <ele>911.63</ele>
        <time>2014-05-03T10:13:26Z</time>
      </trkpt>
      <trkpt lat="44.55738" lon="5.35189">
        <ele>914.41</ele>
        <time>2014-05-03T10:13:46Z</time>
      </trkpt>
      <trkpt lat="44.55744" lon="5.35214">
        <ele>918.25</ele>
        <time>2014-05-03T10:14:06Z</time>
      </trkpt>
      <trkpt lat="44.5575" lon="5.35237">
        <ele>921.94</ele>
        <time>2014-05-03T10:14:27Z</time>
      </trkpt>
      <trkpt lat="44.55768" lon="5.35234">
        <ele>924.77</ele>
        <time>2014-05-03T10:14:55Z</time>
      </trkpt>
      <trkpt lat="44.55786" lon="5.35225">
        <ele>926.92</ele>
        <time>2014-05-03T10:15:13Z</time>
      </trkpt>
      <trkpt lat="44.55804" lon="5.35219">
        <ele>929.97</ele>
        <time>2014-05-03T10:15:38Z</time>
      </trkpt>
      <trkpt lat="44.55822" lon="5.35214">
        <ele>932.28</ele>
        <time>2014-05-03T10:16:01Z</time>
      </trkpt>
      <trkpt lat="44.55838" lon="5.35203">
        <ele>934.16</ele>
        <time>2014-05-03T10:16:19Z</time>
      </trkpt>
      <trkpt lat="44.55854" lon="5.35191">
        <ele>936.8</ele>
        <time>2014-05-03T10:16:38Z</time>
      </trkpt>
      <trkpt lat="44.55872" lon="5.35185">
        <ele>938.33</ele>
        <time>2014-05-03T10:16:56Z</time>
      </trkpt>
      <trkpt lat="44.55891" lon="5.35182">
        <ele>939.78</ele>
        <time>2014-05-03T10:17:17Z</time>
      </trkpt>
      <trkpt lat="44.55909" lon="5.35179">
        <ele>941.82</ele>
        <time>2014-05-03T10:17:38Z</time>
      </trkpt>
      <trkpt lat="44.55925" lon="5.35168">
        <ele>944.57</ele>
        <time>2014-05-03T10:18:00Z</time>
      </trkpt>
      <trkpt lat="44.55943" lon="5.35161">
        <ele>947.87</ele>
        <time>2014-05-03T10:18:31Z</time>
      </trkpt>
      <trkpt lat="44.55961" lon="5.35158">
        <ele>949.86</ele>
        <time>2014-05-03T10:18:50Z</time>
      </trkpt>
      <trkpt lat="44.5598" lon="5.35151">
        <ele>951.7</ele>
        <time>2014-05-03T10:19:08Z</time>
      </trkpt>
      <trkpt lat="44.55996" lon="5.35141">
        <ele>954.36</ele>
        <time>2014-05-03T10:19:39Z</time>
      </trkpt>
      <trkpt lat="44.56014" lon="5.3513">
        <ele>956.16</ele>
        <time>2014-05-03T10:19:56Z</time>
      </trkpt>
      <trkpt lat="44.56031" lon="5.3512">
        <ele>957.87</ele>
        <time>2014-05-03T10:20:13Z</time>
      </trkpt>
      <trkpt lat="44.56049" lon="5.35114">
        <ele>959.42</ele>
        <time>2014-05-03T10:20:31Z</time>
      </trkpt>
      <trkpt lat="44.56067" lon="5.35111">
        <ele>961.37</ele>
        <time>2014-05-03T10:20:51Z</time>
      </trkpt>
      <trkpt lat="44.56085" lon="5.35112">
        <ele>963.54</ele>
        <time>2014-05-03T10:21:11Z</time>
      </trkpt>
      <trkpt lat="44.561" lon="5.35126">
        <ele>966.27</ele>
        <time>2014-05-03T10:21:31Z</time>
      </trkpt>
      <trkpt lat="44.56117" lon="5.35135">
        <ele>968.67</ele>
        <time>2014-05-03T10:21:50Z</time>
      </trkpt>
      <trkpt lat="44.56133" lon="5.3515">
        <ele>971.52</ele>
        <time>2014-05-03T10:22:10Z</time>
      </trkpt>
      <trkpt lat="44.56151" lon="5.35158">
        <ele>973.92</ele>
        <time>2014-05-03T10:22:29Z</time>
      </trkpt>
      <trkpt lat="44.5617" lon="5.35163">
        <ele>976.47</ele>
        <time>2014-05-03T10:22:50Z</time>
      </trkpt>
      <trkpt lat="44.56159" lon="5.35184">
        <ele>981.91</ele>
        <time>2014-05-03T10:24:04Z</time>
      </trkpt>
      <trkpt lat="44.56142" lon="5.35194">
        <ele>983.78</ele>
        <time>2014-05-03T10:24:22Z</time>
      </trkpt>
      <trkpt lat="44.56128" lon="5.35211">
        <ele>985.53</ele>
        <time>2014-05-03T10:24:41Z</time>
      </trkpt>
      <trkpt lat="44.56117" lon="5.35232">
        <ele>987.23</ele>
        <time>2014-05-03T10:25:00Z</time>
      </trkpt>
      <trkpt lat="44.56103" lon="5.3525">
        <ele>989.07</ele>
        <time>2014-05-03T10:25:21Z</time>
      </trkpt>
      <trkpt lat="44.56098" lon="5.35274">
        <ele>991.62</ele>
        <time>2014-05-03T10:25:47Z</time>
      </trkpt>
      <trkpt lat="44.56093" lon="5.35295">
        <ele>1011.31</ele>
        <time>2014-05-03T10:45:20Z</time>
      </trkpt>
      <trkpt lat="44.56106" lon="5.35284">
        <ele>997.83</ele>
        <time>2014-05-03T11:01:54Z</time>
      </trkpt>
      <trkpt lat="44.56095" lon="5.35303">
        <ele>1002.67</ele>
        <time>2014-05-03T11:17:40Z</time>
      </trkpt>
      <trkpt lat="44.56092" lon="5.35328">
        <ele>1002.63</ele>
        <time>2014-05-03T11:18:02Z</time>
      </trkpt>
      <trkpt lat="44.56086" lon="5.35353">
        <ele>1002.69</ele>
        <time>2014-05-03T11:18:22Z</time>
      </trkpt>
      <trkpt lat="44.5608" lon="5.35378">
        <ele>1002.82</ele>
        <time>2014-05-03T11:18:42Z</time>
      </trkpt>
      <trkpt lat="44.56076" lon="5.35403">
        <ele>1003.01</ele>
        <time>2014-05-03T11:19:00Z</time>
      </trkpt>
      <trkpt lat="44.56076" lon="5.35429">
        <ele>1003.32</ele>
        <time>2014-05-03T11:19:19Z</time>
      </trkpt>
      <trkpt lat="44.56085" lon="5.35451">
        <ele>1003.6</ele>
        <time>2014-05-03T11:19:36Z</time>
      </trkpt>
      <trkpt lat="44.56092" lon="5.35476">
        <ele>1004.11</ele>
        <time>2014-05-03T11:19:57Z</time>
      </trkpt>
      <trkpt lat="44.56105" lon="5.35494">
        <ele>1005.21</ele>
        <time>2014-05-03T11:20:31Z</time>
      </trkpt>
      <trkpt lat="44.56115" lon="5.35471">
        <ele>1005.81</ele>
        <time>2014-05-03T11:20:53Z</time>
      </trkpt>
      <trkpt lat="44.56125" lon="5.35451">
        <ele>1006.49</ele>
        <time>2014-05-03T11:21:12Z</time>
      </trkpt>
      <trkpt lat="44.5614" lon="5.35436">
        <ele>1007.13</ele>
        <time>2014-05-03T11:21:32Z</time>
      </trkpt>
      <trkpt lat="44.56156" lon="5.35422">
        <ele>1007.92</ele>
        <time>2014-05-03T11:21:52Z</time>
      </trkpt>
      <trkpt lat="44.56173" lon="5.35412">
        <ele>1008.67</ele>
        <time>2014-05-03T11:22:09Z</time>
      </trkpt>
      <trkpt lat="44.56189" lon="5.354">
        <ele>1009.49</ele>
        <time>2014-05-03T11:22:27Z</time>
      </trkpt>
      <trkpt lat="44.56206" lon="5.3539">
        <ele>1010.34</ele>
        <time>2014-05-03T11:22:46Z</time>
      </trkpt>
      <trkpt lat="44.56223" lon="5.35379">
        <ele>1011.12</ele>
        <time>2014-05-03T11:23:03Z</time>
      </trkpt>
      <trkpt lat="44.56241" lon="5.35373">
        <ele>1012</ele>
        <time>2014-05-03T11:23:21Z</time>
      </trkpt>
      <trkpt lat="44.56259" lon="5.35369">
        <ele>1012.76</ele>
        <time>2014-05-03T11:23:37Z</time>
      </trkpt>
      <trkpt lat="44.56278" lon="5.35367">
        <ele>1013.62</ele>
        <time>2014-05-03T11:23:55Z</time>
      </trkpt>
      <trkpt lat="44.56296" lon="5.35365">
        <ele>1014.61</ele>
        <time>2014-05-03T11:24:13Z</time>
      </trkpt>
      <trkpt lat="44.56314" lon="5.35361">
        <ele>1015.73</ele>
        <time>2014-05-03T11:24:32Z</time>
      </trkpt>
      <trkpt lat="44.56332" lon="5.3536">
        <ele>1017.09</ele>
        <time>2014-05-03T11:24:52Z</time>
      </trkpt>
      <trkpt lat="44.5635" lon="5.35359">
        <ele>1018.21</ele>
        <time>2014-05-03T11:25:09Z</time>
      </trkpt>
      <trkpt lat="44.56369" lon="5.35358">
        <ele>1019.39</ele>
        <time>2014-05-03T11:25:27Z</time>
      </trkpt>
      <trkpt lat="44.56387" lon="5.35356">
        <ele>1020.64</ele>
        <time>2014-05-03T11:25:46Z</time>
      </trkpt>
      <trkpt lat="44.56405" lon="5.35351">
        <ele>1022.11</ele>
        <time>2014-05-03T11:26:07Z</time>
      </trkpt>
      <trkpt lat="44.56422" lon="5.35343">
        <ele>1023.59</ele>
        <time>2014-05-03T11:26:27Z</time>
      </trkpt>
      <trkpt lat="44.5644" lon="5.35339">
        <ele>1025.2</ele>
        <time>2014-05-03T11:26:48Z</time>
      </trkpt>
      <trkpt lat="44.56458" lon="5.35336">
        <ele>1026.68</ele>
        <time>2014-05-03T11:27:07Z</time>
      </trkpt>
      <trkpt lat="44.56477" lon="5.35337">
        <ele>1028.37</ele>
        <time>2014-05-03T11:27:28Z</time>
      </trkpt>
      <trkpt lat="44.56495" lon="5.35342">
        <ele>1030.08</ele>
        <time>2014-05-03T11:27:49Z</time>
      </trkpt>
      <trkpt lat="44.56514" lon="5.35347">
        <ele>1031.99</ele>
        <time>2014-05-03T11:28:11Z</time>
      </trkpt>
      <trkpt lat="44.56532" lon="5.3535">
        <ele>1033.95</ele>
        <time>2014-05-03T11:28:31Z</time>
      </trkpt>
      <trkpt lat="44.5655" lon="5.35353">
        <ele>1035.87</ele>
        <time>2014-05-03T11:28:51Z</time>
      </trkpt>
      <trkpt lat="44.56569" lon="5.35357">
        <ele>1037.63</ele>
        <time>2014-05-03T11:29:10Z</time>
      </trkpt>
      <trkpt lat="44.56587" lon="5.35361">
        <ele>1039.44</ele>
        <time>2014-05-03T11:29:30Z</time>
      </trkpt>
      <trkpt lat="44.56604" lon="5.35369">
        <ele>1041.48</ele>
        <time>2014-05-03T11:29:52Z</time>
      </trkpt>
      <trkpt lat="44.56622" lon="5.35374">
        <ele>1043.45</ele>
        <time>2014-05-03T11:30:13Z</time>
      </trkpt>
      <trkpt lat="44.5664" lon="5.35378">
        <ele>1045.24</ele>
        <time>2014-05-03T11:30:33Z</time>
      </trkpt>
      <trkpt lat="44.56658" lon="5.3538">
        <ele>1047.27</ele>
        <time>2014-05-03T11:30:55Z</time>
      </trkpt>
      <trkpt lat="44.56677" lon="5.35383">
        <ele>1049.68</ele>
        <time>2014-05-03T11:31:19Z</time>
      </trkpt>
      <trkpt lat="44.56695" lon="5.35386">
        <ele>1051.62</ele>
        <time>2014-05-03T11:31:39Z</time>
      </trkpt>
      <trkpt lat="44.56717" lon="5.35393">
        <ele>1054.37</ele>
        <time>2014-05-03T11:32:07Z</time>
      </trkpt>
      <trkpt lat="44.56735" lon="5.35399">
        <ele>1056.27</ele>
        <time>2014-05-03T11:32:28Z</time>
      </trkpt>
      <trkpt lat="44.56754" lon="5.354">
        <ele>1058.27</ele>
        <time>2014-05-03T11:32:48Z</time>
      </trkpt>
      <trkpt lat="44.56772" lon="5.35404">
        <ele>1060.11</ele>
        <time>2014-05-03T11:33:07Z</time>
      </trkpt>
      <trkpt lat="44.56791" lon="5.35406">
        <ele>1062.07</ele>
        <time>2014-05-03T11:33:27Z</time>
      </trkpt>
      <trkpt lat="44.56809" lon="5.35408">
        <ele>1064.27</ele>
        <time>2014-05-03T11:33:50Z</time>
      </trkpt>
      <trkpt lat="44.56827" lon="5.35407">
        <ele>1066.12</ele>
        <time>2014-05-03T11:34:09Z</time>
      </trkpt>
      <trkpt lat="44.56845" lon="5.35405">
        <ele>1067.96</ele>
        <time>2014-05-03T11:34:27Z</time>
      </trkpt>
      <trkpt lat="44.56863" lon="5.35397">
        <ele>1069.95</ele>
        <time>2014-05-03T11:34:47Z</time>
      </trkpt>
      <trkpt lat="44.5688" lon="5.35391">
        <ele>1072.3</ele>
        <time>2014-05-03T11:35:10Z</time>
      </trkpt>
      <trkpt lat="44.56897" lon="5.35378">
        <ele>1074.1</ele>
        <time>2014-05-03T11:35:29Z</time>
      </trkpt>
      <trkpt lat="44.56912" lon="5.35363">
        <ele>1075.55</ele>
        <time>2014-05-03T11:35:44Z</time>
      </trkpt>
      <trkpt lat="44.56929" lon="5.3535">
        <ele>1077.32</ele>
        <time>2014-05-03T11:36:02Z</time>
      </trkpt>
      <trkpt lat="44.56944" lon="5.35335">
        <ele>1079.18</ele>
        <time>2014-05-03T11:36:22Z</time>
      </trkpt>
      <trkpt lat="44.5696" lon="5.35322">
        <ele>1080.71</ele>
        <time>2014-05-03T11:36:40Z</time>
      </trkpt>
      <trkpt lat="44.56978" lon="5.35315">
        <ele>1082.05</ele>
        <time>2014-05-03T11:36:55Z</time>
      </trkpt>
      <trkpt lat="44.56996" lon="5.35313">
        <ele>1083.52</ele>
        <time>2014-05-03T11:37:11Z</time>
      </trkpt>
      <trkpt lat="44.57015" lon="5.35319">
        <ele>1085.5</ele>
        <time>2014-05-03T11:37:32Z</time>
      </trkpt>
      <trkpt lat="44.57033" lon="5.35324">
        <ele>1087.46</ele>
        <time>2014-05-03T11:37:53Z</time>
      </trkpt>
      <trkpt lat="44.57051" lon="5.35323">
        <ele>1089.36</ele>
        <time>2014-05-03T11:38:13Z</time>
      </trkpt>
      <trkpt lat="44.5707" lon="5.35322">
        <ele>1091.51</ele>
        <time>2014-05-03T11:38:35Z</time>
      </trkpt>
      <trkpt lat="44.57089" lon="5.35324">
        <ele>1093.65</ele>
        <time>2014-05-03T11:38:57Z</time>
      </trkpt>
      <trkpt lat="44.57107" lon="5.35328">
        <ele>1095.76</ele>
        <time>2014-05-03T11:39:18Z</time>
      </trkpt>
      <trkpt lat="44.57125" lon="5.35332">
        <ele>1097.86</ele>
        <time>2014-05-03T11:39:39Z</time>
      </trkpt>
      <trkpt lat="44.57142" lon="5.35341">
        <ele>1099.99</ele>
        <time>2014-05-03T11:40:00Z</time>
      </trkpt>
      <trkpt lat="44.57158" lon="5.35355">
        <ele>1102.28</ele>
        <time>2014-05-03T11:40:22Z</time>
      </trkpt>
      <trkpt lat="44.57171" lon="5.35373">
        <ele>1104.51</ele>
        <time>2014-05-03T11:40:43Z</time>
      </trkpt>
      <trkpt lat="44.57177" lon="5.35397">
        <ele>1107.05</ele>
        <time>2014-05-03T11:41:06Z</time>
      </trkpt>
      <trkpt lat="44.57191" lon="5.35416">
        <ele>1109.55</ele>
        <time>2014-05-03T11:41:28Z</time>
      </trkpt>
      <trkpt lat="44.57205" lon="5.35431">
        <ele>1111.88</ele>
        <time>2014-05-03T11:41:48Z</time>
      </trkpt>
      <trkpt lat="44.5722" lon="5.35446">
        <ele>1114.43</ele>
        <time>2014-05-03T11:42:10Z</time>
      </trkpt>
      <trkpt lat="44.57238" lon="5.35453">
        <ele>1116.85</ele>
        <time>2014-05-03T11:42:31Z</time>
      </trkpt>
      <trkpt lat="44.57256" lon="5.3546">
        <ele>1118.99</ele>
        <time>2014-05-03T11:42:50Z</time>
      </trkpt>
      <trkpt lat="44.57273" lon="5.35469">
        <ele>1121.35</ele>
        <time>2014-05-03T11:43:11Z</time>
      </trkpt>
      <trkpt lat="44.57291" lon="5.35472">
        <ele>1124.21</ele>
        <time>2014-05-03T11:43:36Z</time>
      </trkpt>
      <trkpt lat="44.57309" lon="5.35472">
        <ele>1127.16</ele>
        <time>2014-05-03T11:44:01Z</time>
      </trkpt>
      <trkpt lat="44.57328" lon="5.35471">
        <ele>1129.71</ele>
        <time>2014-05-03T11:44:23Z</time>
      </trkpt>
      <trkpt lat="44.57346" lon="5.35471">
        <ele>1132.19</ele>
        <time>2014-05-03T11:44:44Z</time>
      </trkpt>
      <trkpt lat="44.57364" lon="5.35477">
        <ele>1134.74</ele>
        <time>2014-05-03T11:45:06Z</time>
      </trkpt>
      <trkpt lat="44.57382" lon="5.35483">
        <ele>1136.97</ele>
        <time>2014-05-03T11:45:25Z</time>
      </trkpt>
      <trkpt lat="44.57401" lon="5.35488">
        <ele>1139.12</ele>
        <time>2014-05-03T11:45:43Z</time>
      </trkpt>
      <trkpt lat="44.57419" lon="5.35494">
        <ele>1141.73</ele>
        <time>2014-05-03T11:46:05Z</time>
      </trkpt>
      <trkpt lat="44.57414" lon="5.35519">
        <ele>1146.88</ele>
        <time>2014-05-03T11:46:48Z</time>
      </trkpt>
      <trkpt lat="44.57399" lon="5.35532">
        <ele>1149.08</ele>
        <time>2014-05-03T11:47:06Z</time>
      </trkpt>
      <trkpt lat="44.57385" lon="5.35551">
        <ele>1151.23</ele>
        <time>2014-05-03T11:47:24Z</time>
      </trkpt>
      <trkpt lat="44.57373" lon="5.35569">
        <ele>1153.43</ele>
        <time>2014-05-03T11:47:43Z</time>
      </trkpt>
      <trkpt lat="44.57361" lon="5.3559">
        <ele>1155.45</ele>
        <time>2014-05-03T11:48:00Z</time>
      </trkpt>
      <trkpt lat="44.57352" lon="5.35613">
        <ele>1157.59</ele>
        <time>2014-05-03T11:48:18Z</time>
      </trkpt>
      <trkpt lat="44.57349" lon="5.35638">
        <ele>1159.68</ele>
        <time>2014-05-03T11:48:36Z</time>
      </trkpt>
      <trkpt lat="44.57362" lon="5.35655">
        <ele>1174.42</ele>
        <time>2014-05-03T11:51:08Z</time>
      </trkpt>
      <trkpt lat="44.5738" lon="5.35662">
        <ele>1176.05</ele>
        <time>2014-05-03T11:51:27Z</time>
      </trkpt>
      <trkpt lat="44.57398" lon="5.35667">
        <ele>1177.7</ele>
        <time>2014-05-03T11:51:46Z</time>
      </trkpt>
      <trkpt lat="44.57417" lon="5.35669">
        <ele>1179.38</ele>
        <time>2014-05-03T11:52:05Z</time>
      </trkpt>
      <trkpt lat="44.57436" lon="5.35665">
        <ele>1180.82</ele>
        <time>2014-05-03T11:52:21Z</time>
      </trkpt>
      <trkpt lat="44.57454" lon="5.35659">
        <ele>1182.91</ele>
        <time>2014-05-03T11:52:45Z</time>
      </trkpt>
      <trkpt lat="44.57471" lon="5.35669">
        <ele>1184.4</ele>
        <time>2014-05-03T11:53:02Z</time>
      </trkpt>
      <trkpt lat="44.57488" lon="5.3568">
        <ele>1185.93</ele>
        <time>2014-05-03T11:53:19Z</time>
      </trkpt>
      <trkpt lat="44.57506" lon="5.35688">
        <ele>1187.46</ele>
        <time>2014-05-03T11:53:36Z</time>
      </trkpt>
      <trkpt lat="44.57524" lon="5.35698">
        <ele>1189.03</ele>
        <time>2014-05-03T11:53:53Z</time>
      </trkpt>
      <trkpt lat="44.57542" lon="5.35702">
        <ele>1190.3</ele>
        <time>2014-05-03T11:54:07Z</time>
      </trkpt>
      <trkpt lat="44.57561" lon="5.35709">
        <ele>1191.73</ele>
        <time>2014-05-03T11:54:23Z</time>
      </trkpt>
      <trkpt lat="44.57577" lon="5.35719">
        <ele>1193.17</ele>
        <time>2014-05-03T11:54:39Z</time>
      </trkpt>
      <trkpt lat="44.57595" lon="5.35729">
        <ele>1194.72</ele>
        <time>2014-05-03T11:54:56Z</time>
      </trkpt>
      <trkpt lat="44.57611" lon="5.3574">
        <ele>1196.41</ele>
        <time>2014-05-03T11:55:14Z</time>
      </trkpt>
      <trkpt lat="44.57626" lon="5.35755">
        <ele>1198.03</ele>
        <time>2014-05-03T11:55:31Z</time>
      </trkpt>
      <trkpt lat="44.57641" lon="5.3577">
        <ele>1199.9</ele>
        <time>2014-05-03T11:55:50Z</time>
      </trkpt>
      <trkpt lat="44.57656" lon="5.35785">
        <ele>1201.94</ele>
        <time>2014-05-03T11:56:11Z</time>
      </trkpt>
      <trkpt lat="44.57672" lon="5.35799">
        <ele>1204.75</ele>
        <time>2014-05-03T11:56:39Z</time>
      </trkpt>
      <trkpt lat="44.57687" lon="5.35812">
        <ele>1206.22</ele>
        <time>2014-05-03T11:56:54Z</time>
      </trkpt>
      <trkpt lat="44.57705" lon="5.35822">
        <ele>1208.03</ele>
        <time>2014-05-03T11:57:12Z</time>
      </trkpt>
      <trkpt lat="44.57723" lon="5.35826">
        <ele>1209.71</ele>
        <time>2014-05-03T11:57:29Z</time>
      </trkpt>
      <trkpt lat="44.5774" lon="5.35833">
        <ele>1211.62</ele>
        <time>2014-05-03T11:57:48Z</time>
      </trkpt>
      <trkpt lat="44.57736" lon="5.35859">
        <ele>1213.81</ele>
        <time>2014-05-03T11:58:09Z</time>
      </trkpt>
      <trkpt lat="44.57729" lon="5.35883">
        <ele>1215.54</ele>
        <time>2014-05-03T11:58:26Z</time>
      </trkpt>
      <trkpt lat="44.57722" lon="5.35907">
        <ele>1217.3</ele>
        <time>2014-05-03T11:58:43Z</time>
      </trkpt>
      <trkpt lat="44.57716" lon="5.35932">
        <ele>1218.95</ele>
        <time>2014-05-03T11:58:59Z</time>
      </trkpt>
      <trkpt lat="44.57715" lon="5.35958">
        <ele>1220.76</ele>
        <time>2014-05-03T11:59:16Z</time>
      </trkpt>
      <trkpt lat="44.57716" lon="5.35984">
        <ele>1222.58</ele>
        <time>2014-05-03T11:59:33Z</time>
      </trkpt>
      <trkpt lat="44.57716" lon="5.3601">
        <ele>1224.49</ele>
        <time>2014-05-03T11:59:51Z</time>
      </trkpt>
      <trkpt lat="44.5772" lon="5.36036">
        <ele>1226.58</ele>
        <time>2014-05-03T12:00:11Z</time>
      </trkpt>
      <trkpt lat="44.57724" lon="5.36062">
        <ele>1228.28</ele>
        <time>2014-05-03T12:00:27Z</time>
      </trkpt>
      <trkpt lat="44.57733" lon="5.36085">
        <ele>1230.13</ele>
        <time>2014-05-03T12:00:44Z</time>
      </trkpt>
      <trkpt lat="44.57745" lon="5.36105">
        <ele>1232.11</ele>
        <time>2014-05-03T12:01:02Z</time>
      </trkpt>
      <trkpt lat="44.57755" lon="5.36127">
        <ele>1233.97</ele>
        <time>2014-05-03T12:01:19Z</time>
      </trkpt>
      <trkpt lat="44.57765" lon="5.36149">
        <ele>1235.68</ele>
        <time>2014-05-03T12:01:35Z</time>
      </trkpt>
      <trkpt lat="44.57777" lon="5.36169">
        <ele>1237.23</ele>
        <time>2014-05-03T12:01:50Z</time>
      </trkpt>
      <trkpt lat="44.57787" lon="5.36191">
        <ele>1238.55</ele>
        <time>2014-05-03T12:02:03Z</time>
      </trkpt>
      <trkpt lat="44.57801" lon="5.36208">
        <ele>1239.98</ele>
        <time>2014-05-03T12:02:18Z</time>
      </trkpt>
      <trkpt lat="44.57816" lon="5.36223">
        <ele>1241.25</ele>
        <time>2014-05-03T12:02:32Z</time>
      </trkpt>
      <trkpt lat="44.57833" lon="5.36235">
        <ele>1242.7</ele>
        <time>2014-05-03T12:02:49Z</time>
      </trkpt>
      <trkpt lat="44.5786" lon="5.36248">
        <ele>1244.26</ele>
        <time>2014-05-03T12:03:07Z</time>
      </trkpt>
      <trkpt lat="44.57878" lon="5.36255">
        <ele>1245.14</ele>
        <time>2014-05-03T12:03:20Z</time>
      </trkpt>
      <trkpt lat="44.57897" lon="5.36261">
        <ele>1246.05</ele>
        <time>2014-05-03T12:03:34Z</time>
      </trkpt>
      <trkpt lat="44.57914" lon="5.36271">
        <ele>1246.88</ele>
        <time>2014-05-03T12:03:47Z</time>
      </trkpt>
      <trkpt lat="44.57932" lon="5.36281">
        <ele>1247.64</ele>
        <time>2014-05-03T12:04:00Z</time>
      </trkpt>
      <trkpt lat="44.57949" lon="5.36287">
        <ele>1248.37</ele>
        <time>2014-05-03T12:04:14Z</time>
      </trkpt>
      <trkpt lat="44.57968" lon="5.36291">
        <ele>1249.08</ele>
        <time>2014-05-03T12:04:28Z</time>
      </trkpt>
      <trkpt lat="44.57987" lon="5.36294">
        <ele>1249.7</ele>
        <time>2014-05-03T12:04:42Z</time>
      </trkpt>
      <trkpt lat="44.58006" lon="5.36298">
        <ele>1250.33</ele>
        <time>2014-05-03T12:04:57Z</time>
      </trkpt>
      <trkpt lat="44.58024" lon="5.36301">
        <ele>1250.87</ele>
        <time>2014-05-03T12:05:11Z</time>
      </trkpt>
      <trkpt lat="44.58043" lon="5.36306">
        <ele>1251.36</ele>
        <time>2014-05-03T12:05:25Z</time>
      </trkpt>
      <trkpt lat="44.58061" lon="5.36311">
        <ele>1251.75</ele>
        <time>2014-05-03T12:05:38Z</time>
      </trkpt>
      <trkpt lat="44.58078" lon="5.36322">
        <ele>1252.2</ele>
        <time>2014-05-03T12:05:53Z</time>
      </trkpt>
      <trkpt lat="44.58095" lon="5.36332">
        <ele>1252.52</ele>
        <time>2014-05-03T12:06:06Z</time>
      </trkpt>
      <trkpt lat="44.58111" lon="5.36346">
        <ele>1252.85</ele>
        <time>2014-05-03T12:06:21Z</time>
      </trkpt>
      <trkpt lat="44.58128" lon="5.36358">
        <ele>1253.11</ele>
        <time>2014-05-03T12:06:37Z</time>
      </trkpt>
      <trkpt lat="44.58145" lon="5.36369">
        <ele>1253.3</ele>
        <time>2014-05-03T12:06:51Z</time>
      </trkpt>
      <trkpt lat="44.58162" lon="5.36378">
        <ele>1253.47</ele>
        <time>2014-05-03T12:07:07Z</time>
      </trkpt>
      <trkpt lat="44.58176" lon="5.36395">
        <ele>1253.69</ele>
        <time>2014-05-03T12:07:24Z</time>
      </trkpt>
      <trkpt lat="44.58181" lon="5.3642">
        <ele>1254.22</ele>
        <time>2014-05-03T12:08:04Z</time>
      </trkpt>
      <trkpt lat="44.58193" lon="5.36439">
        <ele>1254.32</ele>
        <time>2014-05-03T12:08:19Z</time>
      </trkpt>
      <trkpt lat="44.58207" lon="5.36456">
        <ele>1254.45</ele>
        <time>2014-05-03T12:08:34Z</time>
      </trkpt>
      <trkpt lat="44.58224" lon="5.36466">
        <ele>1254.54</ele>
        <time>2014-05-03T12:08:47Z</time>
      </trkpt>
      <trkpt lat="44.58239" lon="5.3648">
        <ele>1254.58</ele>
        <time>2014-05-03T12:09:01Z</time>
      </trkpt>
      <trkpt lat="44.58251" lon="5.36501">
        <ele>1254.65</ele>
        <time>2014-05-03T12:09:17Z</time>
      </trkpt>
      <trkpt lat="44.58261" lon="5.36525">
        <ele>1254.73</ele>
        <time>2014-05-03T12:09:32Z</time>
      </trkpt>
      <trkpt lat="44.58267" lon="5.3655">
        <ele>1254.72</ele>
        <time>2014-05-03T12:09:46Z</time>
      </trkpt>
      <trkpt lat="44.58275" lon="5.36573">
        <ele>1254.78</ele>
        <time>2014-05-03T12:10:02Z</time>
      </trkpt>
      <trkpt lat="44.58284" lon="5.36595">
        <ele>1254.98</ele>
        <time>2014-05-03T12:10:20Z</time>
      </trkpt>
      <trkpt lat="44.58297" lon="5.36614">
        <ele>1255.25</ele>
        <time>2014-05-03T12:10:36Z</time>
      </trkpt>
      <trkpt lat="44.58312" lon="5.36629">
        <ele>1255.47</ele>
        <time>2014-05-03T12:10:52Z</time>
      </trkpt>
      <trkpt lat="44.58329" lon="5.3664">
        <ele>1255.71</ele>
        <time>2014-05-03T12:11:07Z</time>
      </trkpt>
      <trkpt lat="44.58344" lon="5.36656">
        <ele>1256.07</ele>
        <time>2014-05-03T12:11:23Z</time>
      </trkpt>
      <trkpt lat="44.58355" lon="5.36676">
        <ele>1256.37</ele>
        <time>2014-05-03T12:11:37Z</time>
      </trkpt>
      <trkpt lat="44.58364" lon="5.36699">
        <ele>1256.78</ele>
        <time>2014-05-03T12:11:54Z</time>
      </trkpt>
      <trkpt lat="44.58375" lon="5.36721">
        <ele>1257.18</ele>
        <time>2014-05-03T12:12:09Z</time>
      </trkpt>
      <trkpt lat="44.58386" lon="5.36742">
        <ele>1257.54</ele>
        <time>2014-05-03T12:12:23Z</time>
      </trkpt>
      <trkpt lat="44.58401" lon="5.36756">
        <ele>1257.97</ele>
        <time>2014-05-03T12:12:38Z</time>
      </trkpt>
      <trkpt lat="44.58418" lon="5.36767">
        <ele>1258.41</ele>
        <time>2014-05-03T12:12:53Z</time>
      </trkpt>
      <trkpt lat="44.58434" lon="5.36778">
        <ele>1258.91</ele>
        <time>2014-05-03T12:13:10Z</time>
      </trkpt>
      <trkpt lat="44.58451" lon="5.36789">
        <ele>1259.55</ele>
        <time>2014-05-03T12:13:29Z</time>
      </trkpt>
      <trkpt lat="44.58467" lon="5.36801">
        <ele>1260.22</ele>
        <time>2014-05-03T12:13:48Z</time>
      </trkpt>
      <trkpt lat="44.58481" lon="5.36817">
        <ele>1260.71</ele>
        <time>2014-05-03T12:14:02Z</time>
      </trkpt>
      <trkpt lat="44.58493" lon="5.36837">
        <ele>1261.21</ele>
        <time>2014-05-03T12:14:17Z</time>
      </trkpt>
      <trkpt lat="44.5851" lon="5.3685">
        <ele>1261.77</ele>
        <time>2014-05-03T12:14:33Z</time>
      </trkpt>
      <trkpt lat="44.58527" lon="5.36862">
        <ele>1262.31</ele>
        <time>2014-05-03T12:14:50Z</time>
      </trkpt>
      <trkpt lat="44.58543" lon="5.36876">
        <ele>1262.92</ele>
        <time>2014-05-03T12:15:06Z</time>
      </trkpt>
      <trkpt lat="44.58558" lon="5.3689">
        <ele>1263.54</ele>
        <time>2014-05-03T12:15:22Z</time>
      </trkpt>
      <trkpt lat="44.58574" lon="5.36906">
        <ele>1264.22</ele>
        <time>2014-05-03T12:15:39Z</time>
      </trkpt>
      <trkpt lat="44.58592" lon="5.36914">
        <ele>1264.93</ele>
        <time>2014-05-03T12:15:56Z</time>
      </trkpt>
      <trkpt lat="44.58607" lon="5.36928">
        <ele>1265.68</ele>
        <time>2014-05-03T12:16:13Z</time>
      </trkpt>
      <trkpt lat="44.58621" lon="5.36944">
        <ele>1266.41</ele>
        <time>2014-05-03T12:16:29Z</time>
      </trkpt>
      <trkpt lat="44.58635" lon="5.36962">
        <ele>1267.13</ele>
        <time>2014-05-03T12:16:45Z</time>
      </trkpt>
      <trkpt lat="44.58647" lon="5.36983">
        <ele>1267.84</ele>
        <time>2014-05-03T12:17:01Z</time>
      </trkpt>
      <trkpt lat="44.58662" lon="5.37">
        <ele>1268.55</ele>
        <time>2014-05-03T12:17:17Z</time>
      </trkpt>
      <trkpt lat="44.5868" lon="5.36998">
        <ele>1269.19</ele>
        <time>2014-05-03T12:17:32Z</time>
      </trkpt>
      <trkpt lat="44.58699" lon="5.36996">
        <ele>1269.84</ele>
        <time>2014-05-03T12:17:47Z</time>
      </trkpt>
      <trkpt lat="44.58714" lon="5.3701">
        <ele>1270.59</ele>
        <time>2014-05-03T12:18:04Z</time>
      </trkpt>
      <trkpt lat="44.58729" lon="5.37026">
        <ele>1271.4</ele>
        <time>2014-05-03T12:18:21Z</time>
      </trkpt>
      <trkpt lat="44.58745" lon="5.3704">
        <ele>1272.24</ele>
        <time>2014-05-03T12:18:38Z</time>
      </trkpt>
      <trkpt lat="44.58764" lon="5.37048">
        <ele>1273.12</ele>
        <time>2014-05-03T12:18:54Z</time>
      </trkpt>
      <trkpt lat="44.58782" lon="5.37053">
        <ele>1273.87</ele>
        <time>2014-05-03T12:19:09Z</time>
      </trkpt>
      <trkpt lat="44.588" lon="5.37059">
        <ele>1274.69</ele>
        <time>2014-05-03T12:19:24Z</time>
      </trkpt>
      <trkpt lat="44.58819" lon="5.37061">
        <ele>1275.51</ele>
        <time>2014-05-03T12:19:40Z</time>
      </trkpt>
      <trkpt lat="44.58837" lon="5.37056">
        <ele>1276.47</ele>
        <time>2014-05-03T12:19:58Z</time>
      </trkpt>
      <trkpt lat="44.58856" lon="5.37056">
        <ele>1290.5</ele>
        <time>2014-05-03T12:25:38Z</time>
      </trkpt>
      <trkpt lat="44.58874" lon="5.37061">
        <ele>1290.95</ele>
        <time>2014-05-03T12:25:55Z</time>
      </trkpt>
      <trkpt lat="44.58893" lon="5.37067">
        <ele>1291.44</ele>
        <time>2014-05-03T12:26:11Z</time>
      </trkpt>
      <trkpt lat="44.5891" lon="5.37074">
        <ele>1291.89</ele>
        <time>2014-05-03T12:26:26Z</time>
      </trkpt>
      <trkpt lat="44.58929" lon="5.37076">
        <ele>1292.36</ele>
        <time>2014-05-03T12:26:43Z</time>
      </trkpt>
      <trkpt lat="44.58947" lon="5.37083">
        <ele>1292.83</ele>
        <time>2014-05-03T12:26:58Z</time>
      </trkpt>
      <trkpt lat="44.58966" lon="5.37086">
        <ele>1293.28</ele>
        <time>2014-05-03T12:27:16Z</time>
      </trkpt>
      <trkpt lat="44.58985" lon="5.37089">
        <ele>1293.78</ele>
        <time>2014-05-03T12:27:31Z</time>
      </trkpt>
      <trkpt lat="44.59004" lon="5.37093">
        <ele>1294.19</ele>
        <time>2014-05-03T12:27:46Z</time>
      </trkpt>
      <trkpt lat="44.59022" lon="5.37094">
        <ele>1294.7</ele>
        <time>2014-05-03T12:28:01Z</time>
      </trkpt>
      <trkpt lat="44.5904" lon="5.37094">
        <ele>1295.13</ele>
        <time>2014-05-03T12:28:17Z</time>
      </trkpt>
      <trkpt lat="44.59059" lon="5.37095">
        <ele>1295.5</ele>
        <time>2014-05-03T12:28:31Z</time>
      </trkpt>
      <trkpt lat="44.59078" lon="5.37097">
        <ele>1296.06</ele>
        <time>2014-05-03T12:28:49Z</time>
      </trkpt>
      <trkpt lat="44.59096" lon="5.37101">
        <ele>1296.5</ele>
        <time>2014-05-03T12:29:02Z</time>
      </trkpt>
      <trkpt lat="44.59114" lon="5.37105">
        <ele>1297.02</ele>
        <time>2014-05-03T12:29:18Z</time>
      </trkpt>
      <trkpt lat="44.59132" lon="5.37108">
        <ele>1297.56</ele>
        <time>2014-05-03T12:29:34Z</time>
      </trkpt>
      <trkpt lat="44.59151" lon="5.37113">
        <ele>1298.12</ele>
        <time>2014-05-03T12:29:50Z</time>
      </trkpt>
      <trkpt lat="44.59169" lon="5.37113">
        <ele>1298.69</ele>
        <time>2014-05-03T12:30:05Z</time>
      </trkpt>
      <trkpt lat="44.59188" lon="5.37113">
        <ele>1299.42</ele>
        <time>2014-05-03T12:30:22Z</time>
      </trkpt>
      <trkpt lat="44.59207" lon="5.37113">
        <ele>1300</ele>
        <time>2014-05-03T12:30:38Z</time>
      </trkpt>
      <trkpt lat="44.59225" lon="5.37112">
        <ele>1300.6</ele>
        <time>2014-05-03T12:30:54Z</time>
      </trkpt>
      <trkpt lat="44.59244" lon="5.37113">
        <ele>1301.08</ele>
        <time>2014-05-03T12:31:08Z</time>
      </trkpt>
      <trkpt lat="44.59263" lon="5.37117">
        <ele>1301.68</ele>
        <time>2014-05-03T12:31:23Z</time>
      </trkpt>
      <trkpt lat="44.59281" lon="5.37113">
        <ele>1302.31</ele>
        <time>2014-05-03T12:31:38Z</time>
      </trkpt>
      <trkpt lat="44.593" lon="5.37107">
        <ele>1302.87</ele>
        <time>2014-05-03T12:31:53Z</time>
      </trkpt>
      <trkpt lat="44.59316" lon="5.37094">
        <ele>1303.39</ele>
        <time>2014-05-03T12:32:08Z</time>
      </trkpt>
      <trkpt lat="44.59329" lon="5.37077">
        <ele>1303.88</ele>
        <time>2014-05-03T12:32:22Z</time>
      </trkpt>
      <trkpt lat="44.59345" lon="5.37067">
        <ele>1304.41</ele>
        <time>2014-05-03T12:32:38Z</time>
      </trkpt>
      <trkpt lat="44.59363" lon="5.37057">
        <ele>1305.02</ele>
        <time>2014-05-03T12:32:55Z</time>
      </trkpt>
      <trkpt lat="44.59371" lon="5.37032">
        <ele>1305.8</ele>
        <time>2014-05-03T12:33:14Z</time>
      </trkpt>
      <trkpt lat="44.59374" lon="5.37006">
        <ele>1306.44</ele>
        <time>2014-05-03T12:33:30Z</time>
      </trkpt>
      <trkpt lat="44.59379" lon="5.36981">
        <ele>1307.15</ele>
        <time>2014-05-03T12:33:46Z</time>
      </trkpt>
      <trkpt lat="44.59384" lon="5.36956">
        <ele>1307.78</ele>
        <time>2014-05-03T12:34:01Z</time>
      </trkpt>
      <trkpt lat="44.59389" lon="5.3693">
        <ele>1308.49</ele>
        <time>2014-05-03T12:34:17Z</time>
      </trkpt>
      <trkpt lat="44.59397" lon="5.36907">
        <ele>1309.28</ele>
        <time>2014-05-03T12:34:34Z</time>
      </trkpt>
      <trkpt lat="44.59415" lon="5.36902">
        <ele>1310.15</ele>
        <time>2014-05-03T12:34:52Z</time>
      </trkpt>
      <trkpt lat="44.59433" lon="5.36907">
        <ele>1311.04</ele>
        <time>2014-05-03T12:35:10Z</time>
      </trkpt>
      <trkpt lat="44.59452" lon="5.369">
        <ele>1311.9</ele>
        <time>2014-05-03T12:35:28Z</time>
      </trkpt>
      <trkpt lat="44.59467" lon="5.36885">
        <ele>1312.47</ele>
        <time>2014-05-03T12:35:42Z</time>
      </trkpt>
      <trkpt lat="44.5948" lon="5.36868">
        <ele>1312.94</ele>
        <time>2014-05-03T12:35:54Z</time>
      </trkpt>
      <trkpt lat="44.59495" lon="5.36852">
        <ele>1313.42</ele>
        <time>2014-05-03T12:36:08Z</time>
      </trkpt>
      <trkpt lat="44.59516" lon="5.36832">
        <ele>1314.52</ele>
        <time>2014-05-03T12:36:38Z</time>
      </trkpt>
      <trkpt lat="44.59531" lon="5.36817">
        <ele>1316.1</ele>
        <time>2014-05-03T12:36:45Z</time>
      </trkpt>
      <trkpt lat="44.59547" lon="5.36801">
        <ele>1317.44</ele>
        <time>2014-05-03T12:36:53Z</time>
      </trkpt>
      <trkpt lat="44.59562" lon="5.36787">
        <ele>1318.5</ele>
        <time>2014-05-03T12:37:02Z</time>
      </trkpt>
      <trkpt lat="44.59577" lon="5.3677">
        <ele>1319.87</ele>
        <time>2014-05-03T12:37:16Z</time>
      </trkpt>
      <trkpt lat="44.59592" lon="5.36754">
        <ele>1320.82</ele>
        <time>2014-05-03T12:37:30Z</time>
      </trkpt>
      <trkpt lat="44.59608" lon="5.36739">
        <ele>1321.93</ele>
        <time>2014-05-03T12:37:44Z</time>
      </trkpt>
      <trkpt lat="44.59623" lon="5.36725">
        <ele>1322.56</ele>
        <time>2014-05-03T12:37:58Z</time>
      </trkpt>
      <trkpt lat="44.5964" lon="5.36713">
        <ele>1323.06</ele>
        <time>2014-05-03T12:38:11Z</time>
      </trkpt>
      <trkpt lat="44.59651" lon="5.36692">
        <ele>1322.71</ele>
        <time>2014-05-03T12:38:26Z</time>
      </trkpt>
      <trkpt lat="44.59653" lon="5.36666">
        <ele>1321.84</ele>
        <time>2014-05-03T12:38:41Z</time>
      </trkpt>
      <trkpt lat="44.59652" lon="5.36639">
        <ele>1320.78</ele>
        <time>2014-05-03T12:38:54Z</time>
      </trkpt>
      <trkpt lat="44.5966" lon="5.36616">
        <ele>1318.82</ele>
        <time>2014-05-03T12:39:08Z</time>
      </trkpt>
      <trkpt lat="44.59673" lon="5.36597">
        <ele>1317.47</ele>
        <time>2014-05-03T12:39:22Z</time>
      </trkpt>
      <trkpt lat="44.59685" lon="5.36578">
        <ele>1316.26</ele>
        <time>2014-05-03T12:39:36Z</time>
      </trkpt>
      <trkpt lat="44.59698" lon="5.36559">
        <ele>1315.49</ele>
        <time>2014-05-03T12:39:50Z</time>
      </trkpt>
      <trkpt lat="44.59707" lon="5.36535">
        <ele>1314.53</ele>
        <time>2014-05-03T12:40:07Z</time>
      </trkpt>
      <trkpt lat="44.59711" lon="5.3651">
        <ele>1314.03</ele>
        <time>2014-05-03T12:40:21Z</time>
      </trkpt>
      <trkpt lat="44.59723" lon="5.3649">
        <ele>1313.57</ele>
        <time>2014-05-03T12:40:34Z</time>
      </trkpt>
      <trkpt lat="44.59738" lon="5.36475">
        <ele>1313.42</ele>
        <time>2014-05-03T12:40:48Z</time>
      </trkpt>
      <trkpt lat="44.59754" lon="5.36462">
        <ele>1312.71</ele>
        <time>2014-05-03T12:41:04Z</time>
      </trkpt>
      <trkpt lat="44.59772" lon="5.36453">
        <ele>1311.57</ele>
        <time>2014-05-03T12:41:18Z</time>
      </trkpt>
      <trkpt lat="44.59791" lon="5.36446">
        <ele>1310.83</ele>
        <time>2014-05-03T12:41:32Z</time>
      </trkpt>
      <trkpt lat="44.59809" lon="5.36441">
        <ele>1309.54</ele>
        <time>2014-05-03T12:41:46Z</time>
      </trkpt>
      <trkpt lat="44.59827" lon="5.36448">
        <ele>1308.67</ele>
        <time>2014-05-03T12:41:59Z</time>
      </trkpt>
      <trkpt lat="44.59845" lon="5.36457">
        <ele>1307.97</ele>
        <time>2014-05-03T12:42:14Z</time>
      </trkpt>
      <trkpt lat="44.59863" lon="5.36461">
        <ele>1307.42</ele>
        <time>2014-05-03T12:42:27Z</time>
      </trkpt>
      <trkpt lat="44.59882" lon="5.36456">
        <ele>1306.33</ele>
        <time>2014-05-03T12:42:42Z</time>
      </trkpt>
      <trkpt lat="44.59894" lon="5.36435">
        <ele>1305.24</ele>
        <time>2014-05-03T12:42:55Z</time>
      </trkpt>
      <trkpt lat="44.59906" lon="5.36415">
        <ele>1304.1</ele>
        <time>2014-05-03T12:43:10Z</time>
      </trkpt>
      <trkpt lat="44.59923" lon="5.36402">
        <ele>1302.84</ele>
        <time>2014-05-03T12:43:25Z</time>
      </trkpt>
      <trkpt lat="44.59938" lon="5.36388">
        <ele>1302.27</ele>
        <time>2014-05-03T12:43:39Z</time>
      </trkpt>
      <trkpt lat="44.59952" lon="5.36371">
        <ele>1301.71</ele>
        <time>2014-05-03T12:43:53Z</time>
      </trkpt>
      <trkpt lat="44.59965" lon="5.36353">
        <ele>1301.28</ele>
        <time>2014-05-03T12:44:07Z</time>
      </trkpt>
      <trkpt lat="44.59976" lon="5.36333">
        <ele>1301.13</ele>
        <time>2014-05-03T12:44:20Z</time>
      </trkpt>
      <trkpt lat="44.59985" lon="5.36311">
        <ele>1300.83</ele>
        <time>2014-05-03T12:44:34Z</time>
      </trkpt>
      <trkpt lat="44.59995" lon="5.36288">
        <ele>1300.43</ele>
        <time>2014-05-03T12:44:48Z</time>
      </trkpt>
      <trkpt lat="44.60004" lon="5.36265">
        <ele>1299.79</ele>
        <time>2014-05-03T12:45:03Z</time>
      </trkpt>
      <trkpt lat="44.60014" lon="5.36242">
        <ele>1299.47</ele>
        <time>2014-05-03T12:45:18Z</time>
      </trkpt>
      <trkpt lat="44.60026" lon="5.36221">
        <ele>1299.81</ele>
        <time>2014-05-03T12:45:32Z</time>
      </trkpt>
      <trkpt lat="44.60038" lon="5.36203">
        <ele>1299.95</ele>
        <time>2014-05-03T12:45:45Z</time>
      </trkpt>
      <trkpt lat="44.6005" lon="5.36184">
        <ele>1299.84</ele>
        <time>2014-05-03T12:45:58Z</time>
      </trkpt>
      <trkpt lat="44.60061" lon="5.36161">
        <ele>1299.23</ele>
        <time>2014-05-03T12:47:00Z</time>
      </trkpt>
      <trkpt lat="44.60073" lon="5.36142">
        <ele>1299.17</ele>
        <time>2014-05-03T12:47:20Z</time>
      </trkpt>
      <trkpt lat="44.60081" lon="5.36119">
        <ele>1298.2</ele>
        <time>2014-05-03T12:48:11Z</time>
      </trkpt>
      <trkpt lat="44.60081" lon="5.36092">
        <ele>1297.61</ele>
        <time>2014-05-03T12:48:25Z</time>
      </trkpt>
      <trkpt lat="44.60084" lon="5.36066">
        <ele>1297.44</ele>
        <time>2014-05-03T12:48:40Z</time>
      </trkpt>
      <trkpt lat="44.60088" lon="5.3604">
        <ele>1296.99</ele>
        <time>2014-05-03T12:48:55Z</time>
      </trkpt>
      <trkpt lat="44.60092" lon="5.36016">
        <ele>1296.83</ele>
        <time>2014-05-03T12:49:47Z</time>
      </trkpt>
      <trkpt lat="44.60097" lon="5.3599">
        <ele>1296.2</ele>
        <time>2014-05-03T12:50:05Z</time>
      </trkpt>
      <trkpt lat="44.60099" lon="5.35963">
        <ele>1296.1</ele>
        <time>2014-05-03T12:50:19Z</time>
      </trkpt>
      <trkpt lat="44.60104" lon="5.35939">
        <ele>1296.53</ele>
        <time>2014-05-03T12:50:29Z</time>
      </trkpt>
      <trkpt lat="44.60107" lon="5.35913">
        <ele>1296.87</ele>
        <time>2014-05-03T12:50:41Z</time>
      </trkpt>
      <trkpt lat="44.60108" lon="5.35888">
        <ele>1297.04</ele>
        <time>2014-05-03T12:50:54Z</time>
      </trkpt>
      <trkpt lat="44.60109" lon="5.35861">
        <ele>1297.47</ele>
        <time>2014-05-03T12:51:08Z</time>
      </trkpt>
      <trkpt lat="44.60111" lon="5.35834">
        <ele>1297.57</ele>
        <time>2014-05-03T12:51:21Z</time>
      </trkpt>
      <trkpt lat="44.60114" lon="5.35808">
        <ele>1296.51</ele>
        <time>2014-05-03T12:51:34Z</time>
      </trkpt>
      <trkpt lat="44.60117" lon="5.35782">
        <ele>1294.97</ele>
        <time>2014-05-03T12:51:48Z</time>
      </trkpt>
      <trkpt lat="44.6012" lon="5.35756">
        <ele>1293.74</ele>
        <time>2014-05-03T12:52:02Z</time>
      </trkpt>
      <trkpt lat="44.6012" lon="5.3573">
        <ele>1293.25</ele>
        <time>2014-05-03T12:52:22Z</time>
      </trkpt>
      <trkpt lat="44.60119" lon="5.35704">
        <ele>1293.2</ele>
        <time>2014-05-03T12:52:36Z</time>
      </trkpt>
      <trkpt lat="44.60114" lon="5.35679">
        <ele>1292.84</ele>
        <time>2014-05-03T12:52:49Z</time>
      </trkpt>
      <trkpt lat="44.60109" lon="5.35653">
        <ele>1292.25</ele>
        <time>2014-05-03T12:53:04Z</time>
      </trkpt>
      <trkpt lat="44.60106" lon="5.35628">
        <ele>1291.34</ele>
        <time>2014-05-03T12:53:17Z</time>
      </trkpt>
      <trkpt lat="44.60105" lon="5.35602">
        <ele>1290.41</ele>
        <time>2014-05-03T12:53:31Z</time>
      </trkpt>
      <trkpt lat="44.6011" lon="5.35575">
        <ele>1289.56</ele>
        <time>2014-05-03T12:53:45Z</time>
      </trkpt>
      <trkpt lat="44.60115" lon="5.3555">
        <ele>1288.58</ele>
        <time>2014-05-03T12:53:59Z</time>
      </trkpt>
      <trkpt lat="44.60121" lon="5.35524">
        <ele>1287.64</ele>
        <time>2014-05-03T12:54:13Z</time>
      </trkpt>
      <trkpt lat="44.60125" lon="5.35499">
        <ele>1286.63</ele>
        <time>2014-05-03T12:54:27Z</time>
      </trkpt>
      <trkpt lat="44.60128" lon="5.35473">
        <ele>1286.08</ele>
        <time>2014-05-03T12:54:41Z</time>
      </trkpt>
      <trkpt lat="44.6013" lon="5.35448">
        <ele>1285.2</ele>
        <time>2014-05-03T12:54:54Z</time>
      </trkpt>
      <trkpt lat="44.60131" lon="5.35422">
        <ele>1284.02</ele>
        <time>2014-05-03T12:55:41Z</time>
      </trkpt>
      <trkpt lat="44.60146" lon="5.35402">
        <ele>1284.24</ele>
        <time>2014-05-03T12:56:35Z</time>
      </trkpt>
      <trkpt lat="44.6016" lon="5.35385">
        <ele>1284.27</ele>
        <time>2014-05-03T12:56:48Z</time>
      </trkpt>
      <trkpt lat="44.60173" lon="5.35367">
        <ele>1284.03</ele>
        <time>2014-05-03T12:57:01Z</time>
      </trkpt>
      <trkpt lat="44.60186" lon="5.35347">
        <ele>1283.57</ele>
        <time>2014-05-03T12:57:14Z</time>
      </trkpt>
      <trkpt lat="44.60197" lon="5.35327">
        <ele>1282.87</ele>
        <time>2014-05-03T12:57:29Z</time>
      </trkpt>
      <trkpt lat="44.60209" lon="5.35307">
        <ele>1282.04</ele>
        <time>2014-05-03T12:57:43Z</time>
      </trkpt>
      <trkpt lat="44.60222" lon="5.35287">
        <ele>1280.85</ele>
        <time>2014-05-03T12:57:59Z</time>
      </trkpt>
      <trkpt lat="44.60235" lon="5.35269">
        <ele>1279.33</ele>
        <time>2014-05-03T12:58:13Z</time>
      </trkpt>
      <trkpt lat="44.6025" lon="5.35253">
        <ele>1277.71</ele>
        <time>2014-05-03T12:58:29Z</time>
      </trkpt>
      <trkpt lat="44.60263" lon="5.35235">
        <ele>1276.14</ele>
        <time>2014-05-03T12:58:58Z</time>
      </trkpt>
      <trkpt lat="44.60277" lon="5.35217">
        <ele>1275.13</ele>
        <time>2014-05-03T12:59:14Z</time>
      </trkpt>
      <trkpt lat="44.6029" lon="5.35199">
        <ele>1273.66</ele>
        <time>2014-05-03T13:00:44Z</time>
      </trkpt>
      <trkpt lat="44.60307" lon="5.35191">
        <ele>1273.64</ele>
        <time>2014-05-03T13:01:01Z</time>
      </trkpt>
      <trkpt lat="44.60325" lon="5.35185">
        <ele>1272.65</ele>
        <time>2014-05-03T13:01:21Z</time>
      </trkpt>
      <trkpt lat="44.60342" lon="5.35176">
        <ele>1271.45</ele>
        <time>2014-05-03T13:01:40Z</time>
      </trkpt>
      <trkpt lat="44.60359" lon="5.35162">
        <ele>1269.74</ele>
        <time>2014-05-03T13:02:01Z</time>
      </trkpt>
      <trkpt lat="44.60374" lon="5.35147">
        <ele>1267.48</ele>
        <time>2014-05-03T13:03:13Z</time>
      </trkpt>
      <trkpt lat="44.60401" lon="5.35126">
        <ele>1265.71</ele>
        <time>2014-05-03T13:03:34Z</time>
      </trkpt>
      <trkpt lat="44.60416" lon="5.35111">
        <ele>1263.31</ele>
        <time>2014-05-03T13:05:39Z</time>
      </trkpt>
      <trkpt lat="44.60432" lon="5.35096">
        <ele>1262.38</ele>
        <time>2014-05-03T13:05:55Z</time>
      </trkpt>
      <trkpt lat="44.60447" lon="5.35081">
        <ele>1261.71</ele>
        <time>2014-05-03T13:06:08Z</time>
      </trkpt>
      <trkpt lat="44.60459" lon="5.3506">
        <ele>1261.01</ele>
        <time>2014-05-03T13:06:22Z</time>
      </trkpt>
      <trkpt lat="44.60469" lon="5.35037">
        <ele>1260.12</ele>
        <time>2014-05-03T13:06:36Z</time>
      </trkpt>
      <trkpt lat="44.60479" lon="5.35016">
        <ele>1258.91</ele>
        <time>2014-05-03T13:06:50Z</time>
      </trkpt>
      <trkpt lat="44.60488" lon="5.34992">
        <ele>1257.43</ele>
        <time>2014-05-03T13:07:05Z</time>
      </trkpt>
      <trkpt lat="44.60491" lon="5.34967">
        <ele>1256.1</ele>
        <time>2014-05-03T13:07:18Z</time>
      </trkpt>
      <trkpt lat="44.60496" lon="5.34942">
        <ele>1254.78</ele>
        <time>2014-05-03T13:07:31Z</time>
      </trkpt>
      <trkpt lat="44.60499" lon="5.34916">
        <ele>1253.48</ele>
        <time>2014-05-03T13:07:45Z</time>
      </trkpt>
      <trkpt lat="44.60504" lon="5.3489">
        <ele>1252.6</ele>
        <time>2014-05-03T13:07:59Z</time>
      </trkpt>
      <trkpt lat="44.60507" lon="5.34863">
        <ele>1251.64</ele>
        <time>2014-05-03T13:08:13Z</time>
      </trkpt>
      <trkpt lat="44.6051" lon="5.34838">
        <ele>1250.84</ele>
        <time>2014-05-03T13:08:26Z</time>
      </trkpt>
      <trkpt lat="44.60513" lon="5.34813">
        <ele>1249.88</ele>
        <time>2014-05-03T13:08:39Z</time>
      </trkpt>
      <trkpt lat="44.60517" lon="5.34786">
        <ele>1249.01</ele>
        <time>2014-05-03T13:08:53Z</time>
      </trkpt>
      <trkpt lat="44.6052" lon="5.34761">
        <ele>1248.16</ele>
        <time>2014-05-03T13:09:06Z</time>
      </trkpt>
      <trkpt lat="44.60523" lon="5.34735">
        <ele>1247.01</ele>
        <time>2014-05-03T13:09:20Z</time>
      </trkpt>
      <trkpt lat="44.60524" lon="5.34708">
        <ele>1246.17</ele>
        <time>2014-05-03T13:09:34Z</time>
      </trkpt>
      <trkpt lat="44.60531" lon="5.34684">
        <ele>1245.77</ele>
        <time>2014-05-03T13:09:47Z</time>
      </trkpt>
      <trkpt lat="44.60543" lon="5.34664">
        <ele>1244.83</ele>
        <time>2014-05-03T13:10:00Z</time>
      </trkpt>
      <trkpt lat="44.60559" lon="5.34647">
        <ele>1243.48</ele>
        <time>2014-05-03T13:12:06Z</time>
      </trkpt>
      <trkpt lat="44.60572" lon="5.34629">
        <ele>1243.06</ele>
        <time>2014-05-03T13:12:14Z</time>
      </trkpt>
      <trkpt lat="44.60582" lon="5.34606">
        <ele>1242.37</ele>
        <time>2014-05-03T13:12:21Z</time>
      </trkpt>
      <trkpt lat="44.60592" lon="5.34581">
        <ele>1241.49</ele>
        <time>2014-05-03T13:12:29Z</time>
      </trkpt>
      <trkpt lat="44.60599" lon="5.34558">
        <ele>1240.35</ele>
        <time>2014-05-03T13:12:38Z</time>
      </trkpt>
      <trkpt lat="44.60605" lon="5.34534">
        <ele>1239.26</ele>
        <time>2014-05-03T13:12:48Z</time>
      </trkpt>
      <trkpt lat="44.60607" lon="5.34508">
        <ele>1236.43</ele>
        <time>2014-05-03T13:13:05Z</time>
      </trkpt>
      <trkpt lat="44.6061" lon="5.34483">
        <ele>1233.74</ele>
        <time>2014-05-03T13:13:21Z</time>
      </trkpt>
      <trkpt lat="44.6061" lon="5.34456">
        <ele>1230.97</ele>
        <time>2014-05-03T13:13:36Z</time>
      </trkpt>
      <trkpt lat="44.60613" lon="5.3443">
        <ele>1228.43</ele>
        <time>2014-05-03T13:13:51Z</time>
      </trkpt>
      <trkpt lat="44.60615" lon="5.34405">
        <ele>1226.32</ele>
        <time>2014-05-03T13:14:06Z</time>
      </trkpt>
      <trkpt lat="44.60615" lon="5.34379">
        <ele>1224.11</ele>
        <time>2014-05-03T13:14:21Z</time>
      </trkpt>
      <trkpt lat="44.60614" lon="5.34354">
        <ele>1222.41</ele>
        <time>2014-05-03T13:14:35Z</time>
      </trkpt>
      <trkpt lat="44.60612" lon="5.34328">
        <ele>1220.23</ele>
        <time>2014-05-03T13:14:50Z</time>
      </trkpt>
      <trkpt lat="44.60608" lon="5.34302">
        <ele>1217.49</ele>
        <time>2014-05-03T13:15:05Z</time>
      </trkpt>
      <trkpt lat="44.60617" lon="5.34279">
        <ele>1215.34</ele>
        <time>2014-05-03T13:15:17Z</time>
      </trkpt>
      <trkpt lat="44.60633" lon="5.34264">
        <ele>1214.18</ele>
        <time>2014-05-03T13:15:32Z</time>
      </trkpt>
      <trkpt lat="44.60645" lon="5.34246">
        <ele>1213.58</ele>
        <time>2014-05-03T13:15:46Z</time>
      </trkpt>
      <trkpt lat="44.60656" lon="5.34223">
        <ele>1213.21</ele>
        <time>2014-05-03T13:16:02Z</time>
      </trkpt>
      <trkpt lat="44.60666" lon="5.34199">
        <ele>1212.31</ele>
        <time>2014-05-03T13:16:17Z</time>
      </trkpt>
      <trkpt lat="44.60675" lon="5.34176">
        <ele>1211.8</ele>
        <time>2014-05-03T13:16:32Z</time>
      </trkpt>
      <trkpt lat="44.60684" lon="5.34155">
        <ele>1210.69</ele>
        <time>2014-05-03T13:16:45Z</time>
      </trkpt>
      <trkpt lat="44.60691" lon="5.3413">
        <ele>1208.83</ele>
        <time>2014-05-03T13:17:01Z</time>
      </trkpt>
      <trkpt lat="44.60695" lon="5.34103">
        <ele>1207.99</ele>
        <time>2014-05-03T13:17:16Z</time>
      </trkpt>
      <trkpt lat="44.60697" lon="5.34076">
        <ele>1206.5</ele>
        <time>2014-05-03T13:17:30Z</time>
      </trkpt>
      <trkpt lat="44.60694" lon="5.3405">
        <ele>1205.52</ele>
        <time>2014-05-03T13:17:45Z</time>
      </trkpt>
      <trkpt lat="44.60691" lon="5.34025">
        <ele>1203.95</ele>
        <time>2014-05-03T13:17:59Z</time>
      </trkpt>
      <trkpt lat="44.60688" lon="5.34">
        <ele>1202.12</ele>
        <time>2014-05-03T13:18:13Z</time>
      </trkpt>
      <trkpt lat="44.60686" lon="5.33974">
        <ele>1201.86</ele>
        <time>2014-05-03T13:18:28Z</time>
      </trkpt>
      <trkpt lat="44.60683" lon="5.33949">
        <ele>1200.94</ele>
        <time>2014-05-03T13:18:43Z</time>
      </trkpt>
      <trkpt lat="44.60686" lon="5.33924">
        <ele>1200.05</ele>
        <time>2014-05-03T13:18:57Z</time>
      </trkpt>
      <trkpt lat="44.60687" lon="5.33898">
        <ele>1198.26</ele>
        <time>2014-05-03T13:19:12Z</time>
      </trkpt>
      <trkpt lat="44.60683" lon="5.33871">
        <ele>1196.37</ele>
        <time>2014-05-03T13:19:26Z</time>
      </trkpt>
      <trkpt lat="44.60681" lon="5.33846">
        <ele>1196.13</ele>
        <time>2014-05-03T13:19:42Z</time>
      </trkpt>
      <trkpt lat="44.60678" lon="5.3382">
        <ele>1196.14</ele>
        <time>2014-05-03T13:19:57Z</time>
      </trkpt>
      <trkpt lat="44.60674" lon="5.33794">
        <ele>1196.67</ele>
        <time>2014-05-03T13:20:12Z</time>
      </trkpt>
      <trkpt lat="44.60671" lon="5.33767">
        <ele>1196.35</ele>
        <time>2014-05-03T13:20:27Z</time>
      </trkpt>
      <trkpt lat="44.60663" lon="5.33744">
        <ele>1197.06</ele>
        <time>2014-05-03T13:20:39Z</time>
      </trkpt>
      <trkpt lat="44.60656" lon="5.3372">
        <ele>1197.36</ele>
        <time>2014-05-03T13:20:54Z</time>
      </trkpt>
      <trkpt lat="44.6065" lon="5.33696">
        <ele>1198.31</ele>
        <time>2014-05-03T13:21:08Z</time>
      </trkpt>
      <trkpt lat="44.60639" lon="5.33676">
        <ele>1198.9</ele>
        <time>2014-05-03T13:21:21Z</time>
      </trkpt>
      <trkpt lat="44.60625" lon="5.3366">
        <ele>1200.26</ele>
        <time>2014-05-03T13:21:36Z</time>
      </trkpt>
      <trkpt lat="44.6061" lon="5.33642">
        <ele>1201.65</ele>
        <time>2014-05-03T13:21:52Z</time>
      </trkpt>
      <trkpt lat="44.60595" lon="5.33627">
        <ele>1201.87</ele>
        <time>2014-05-03T13:22:04Z</time>
      </trkpt>
      <trkpt lat="44.60579" lon="5.33613">
        <ele>1201.69</ele>
        <time>2014-05-03T13:22:17Z</time>
      </trkpt>
      <trkpt lat="44.60564" lon="5.33597">
        <ele>1200.86</ele>
        <time>2014-05-03T13:22:31Z</time>
      </trkpt>
      <trkpt lat="44.60549" lon="5.3358">
        <ele>1199.22</ele>
        <time>2014-05-03T13:22:46Z</time>
      </trkpt>
      <trkpt lat="44.60535" lon="5.33563">
        <ele>1197.93</ele>
        <time>2014-05-03T13:22:59Z</time>
      </trkpt>
      <trkpt lat="44.6052" lon="5.33548">
        <ele>1196.73</ele>
        <time>2014-05-03T13:23:13Z</time>
      </trkpt>
      <trkpt lat="44.60507" lon="5.33529">
        <ele>1195.79</ele>
        <time>2014-05-03T13:23:27Z</time>
      </trkpt>
      <trkpt lat="44.60495" lon="5.33509">
        <ele>1195.06</ele>
        <time>2014-05-03T13:23:40Z</time>
      </trkpt>
      <trkpt lat="44.60484" lon="5.33488">
        <ele>1192.54</ele>
        <time>2014-05-03T13:23:57Z</time>
      </trkpt>
      <trkpt lat="44.6048" lon="5.33462">
        <ele>1191.76</ele>
        <time>2014-05-03T13:24:10Z</time>
      </trkpt>
      <trkpt lat="44.60461" lon="5.33468">
        <ele>1190.35</ele>
        <time>2014-05-03T13:24:46Z</time>
      </trkpt>
      <trkpt lat="44.60447" lon="5.33487">
        <ele>1188.89</ele>
        <time>2014-05-03T13:25:05Z</time>
      </trkpt>
      <trkpt lat="44.60436" lon="5.33507">
        <ele>1188.31</ele>
        <time>2014-05-03T13:25:18Z</time>
      </trkpt>
      <trkpt lat="44.60425" lon="5.33528">
        <ele>1187.82</ele>
        <time>2014-05-03T13:25:30Z</time>
      </trkpt>
      <trkpt lat="44.60413" lon="5.33548">
        <ele>1187.42</ele>
        <time>2014-05-03T13:25:43Z</time>
      </trkpt>
      <trkpt lat="44.60401" lon="5.33567">
        <ele>1186.95</ele>
        <time>2014-05-03T13:25:56Z</time>
      </trkpt>
      <trkpt lat="44.60387" lon="5.33587">
        <ele>1186.23</ele>
        <time>2014-05-03T13:26:17Z</time>
      </trkpt>
      <trkpt lat="44.60372" lon="5.33605">
        <ele>1185.52</ele>
        <time>2014-05-03T13:26:25Z</time>
      </trkpt>
      <trkpt lat="44.60356" lon="5.33622">
        <ele>1184.74</ele>
        <time>2014-05-03T13:26:33Z</time>
      </trkpt>
      <trkpt lat="44.60342" lon="5.3364">
        <ele>1183.34</ele>
        <time>2014-05-03T13:26:48Z</time>
      </trkpt>
      <trkpt lat="44.60327" lon="5.33655">
        <ele>1182.15</ele>
        <time>2014-05-03T13:27:02Z</time>
      </trkpt>
      <trkpt lat="44.60311" lon="5.33666">
        <ele>1180.67</ele>
        <time>2014-05-03T13:27:15Z</time>
      </trkpt>
      <trkpt lat="44.60296" lon="5.33683">
        <ele>1179.78</ele>
        <time>2014-05-03T13:27:28Z</time>
      </trkpt>
      <trkpt lat="44.60278" lon="5.3369">
        <ele>1178.34</ele>
        <time>2014-05-03T13:27:41Z</time>
      </trkpt>
      <trkpt lat="44.6026" lon="5.33697">
        <ele>1176.04</ele>
        <time>2014-05-03T13:27:55Z</time>
      </trkpt>
      <trkpt lat="44.60245" lon="5.33713">
        <ele>1173.29</ele>
        <time>2014-05-03T13:28:09Z</time>
      </trkpt>
      <trkpt lat="44.60227" lon="5.33722">
        <ele>1170</ele>
        <time>2014-05-03T13:28:24Z</time>
      </trkpt>
      <trkpt lat="44.60211" lon="5.33735">
        <ele>1166.63</ele>
        <time>2014-05-03T13:28:38Z</time>
      </trkpt>
      <trkpt lat="44.60194" lon="5.33745">
        <ele>1163.55</ele>
        <time>2014-05-03T13:28:52Z</time>
      </trkpt>
      <trkpt lat="44.60176" lon="5.33749">
        <ele>1161.48</ele>
        <time>2014-05-03T13:29:04Z</time>
      </trkpt>
      <trkpt lat="44.60157" lon="5.33755">
        <ele>1159.91</ele>
        <time>2014-05-03T13:29:19Z</time>
      </trkpt>
      <trkpt lat="44.60139" lon="5.33764">
        <ele>1158.27</ele>
        <time>2014-05-03T13:29:32Z</time>
      </trkpt>
      <trkpt lat="44.60121" lon="5.33769">
        <ele>1155.29</ele>
        <time>2014-05-03T13:29:47Z</time>
      </trkpt>
      <trkpt lat="44.60134" lon="5.3375">
        <ele>1152.13</ele>
        <time>2014-05-03T13:30:02Z</time>
      </trkpt>
      <trkpt lat="44.60118" lon="5.33735">
        <ele>1145.78</ele>
        <time>2014-05-03T13:30:35Z</time>
      </trkpt>
      <trkpt lat="44.601" lon="5.33731">
        <ele>1143.5</ele>
        <time>2014-05-03T13:30:50Z</time>
      </trkpt>
      <trkpt lat="44.60082" lon="5.33734">
        <ele>1141.23</ele>
        <time>2014-05-03T13:31:03Z</time>
      </trkpt>
      <trkpt lat="44.60064" lon="5.3374">
        <ele>1138.54</ele>
        <time>2014-05-03T13:31:16Z</time>
      </trkpt>
      <trkpt lat="44.60047" lon="5.33728">
        <ele>1135.18</ele>
        <time>2014-05-03T13:31:31Z</time>
      </trkpt>
      <trkpt lat="44.60033" lon="5.3371">
        <ele>1132.31</ele>
        <time>2014-05-03T13:31:44Z</time>
      </trkpt>
      <trkpt lat="44.60024" lon="5.33687">
        <ele>1127.65</ele>
        <time>2014-05-03T13:32:15Z</time>
      </trkpt>
      <trkpt lat="44.60009" lon="5.33672">
        <ele>1125.79</ele>
        <time>2014-05-03T13:32:36Z</time>
      </trkpt>
      <trkpt lat="44.59992" lon="5.33661">
        <ele>1124.2</ele>
        <time>2014-05-03T13:32:49Z</time>
      </trkpt>
      <trkpt lat="44.59975" lon="5.3365">
        <ele>1121.99</ele>
        <time>2014-05-03T13:33:05Z</time>
      </trkpt>
      <trkpt lat="44.59958" lon="5.33637">
        <ele>1119.72</ele>
        <time>2014-05-03T13:33:19Z</time>
      </trkpt>
      <trkpt lat="44.59944" lon="5.33621">
        <ele>1117.78</ele>
        <time>2014-05-03T13:33:34Z</time>
      </trkpt>
      <trkpt lat="44.59923" lon="5.33586">
        <ele>1111.88</ele>
        <time>2014-05-03T13:34:07Z</time>
      </trkpt>
      <trkpt lat="44.59942" lon="5.33581">
        <ele>1109.33</ele>
        <time>2014-05-03T13:34:23Z</time>
      </trkpt>
      <trkpt lat="44.59959" lon="5.33571">
        <ele>1107.61</ele>
        <time>2014-05-03T13:34:36Z</time>
      </trkpt>
      <trkpt lat="44.59953" lon="5.33547">
        <ele>1103.42</ele>
        <time>2014-05-03T13:35:03Z</time>
      </trkpt>
      <trkpt lat="44.59935" lon="5.33538">
        <ele>1101</ele>
        <time>2014-05-03T13:35:19Z</time>
      </trkpt>
      <trkpt lat="44.59918" lon="5.33526">
        <ele>1098.32</ele>
        <time>2014-05-03T13:35:34Z</time>
      </trkpt>
      <trkpt lat="44.59901" lon="5.33515">
        <ele>1096.55</ele>
        <time>2014-05-03T13:35:48Z</time>
      </trkpt>
      <trkpt lat="44.59884" lon="5.33504">
        <ele>1094.49</ele>
        <time>2014-05-03T13:36:04Z</time>
      </trkpt>
      <trkpt lat="44.59867" lon="5.33495">
        <ele>1092.07</ele>
        <time>2014-05-03T13:36:17Z</time>
      </trkpt>
      <trkpt lat="44.59849" lon="5.33489">
        <ele>1089.14</ele>
        <time>2014-05-03T13:36:33Z</time>
      </trkpt>
      <trkpt lat="44.59832" lon="5.3348">
        <ele>1087.22</ele>
        <time>2014-05-03T13:36:46Z</time>
      </trkpt>
      <trkpt lat="44.59816" lon="5.33469">
        <ele>1085.59</ele>
        <time>2014-05-03T13:37:00Z</time>
      </trkpt>
      <trkpt lat="44.59799" lon="5.33458">
        <ele>1083.45</ele>
        <time>2014-05-03T13:37:15Z</time>
      </trkpt>
      <trkpt lat="44.59782" lon="5.3345">
        <ele>1081.12</ele>
        <time>2014-05-03T13:37:30Z</time>
      </trkpt>
      <trkpt lat="44.59763" lon="5.33446">
        <ele>1078.81</ele>
        <time>2014-05-03T13:37:45Z</time>
      </trkpt>
      <trkpt lat="44.59745" lon="5.33447">
        <ele>1071.67</ele>
        <time>2014-05-03T13:45:01Z</time>
      </trkpt>
      <trkpt lat="44.59725" lon="5.33449">
        <ele>1071.49</ele>
        <time>2014-05-03T13:45:17Z</time>
      </trkpt>
      <trkpt lat="44.59708" lon="5.33453">
        <ele>1071.29</ele>
        <time>2014-05-03T13:45:31Z</time>
      </trkpt>
      <trkpt lat="44.5969" lon="5.33461">
        <ele>1070.9</ele>
        <time>2014-05-03T13:45:43Z</time>
      </trkpt>
      <trkpt lat="44.59673" lon="5.33471">
        <ele>1070.35</ele>
        <time>2014-05-03T13:45:56Z</time>
      </trkpt>
      <trkpt lat="44.59657" lon="5.33484">
        <ele>1069.76</ele>
        <time>2014-05-03T13:46:08Z</time>
      </trkpt>
      <trkpt lat="44.59639" lon="5.33495">
        <ele>1068.69</ele>
        <time>2014-05-03T13:46:21Z</time>
      </trkpt>
      <trkpt lat="44.59621" lon="5.335">
        <ele>1067.54</ele>
        <time>2014-05-03T13:46:33Z</time>
      </trkpt>
      <trkpt lat="44.59603" lon="5.33498">
        <ele>1066.4</ele>
        <time>2014-05-03T13:46:46Z</time>
      </trkpt>
      <trkpt lat="44.59585" lon="5.3349">
        <ele>1065.07</ele>
        <time>2014-05-03T13:47:01Z</time>
      </trkpt>
      <trkpt lat="44.59569" lon="5.33473">
        <ele>1064.41</ele>
        <time>2014-05-03T13:47:14Z</time>
      </trkpt>
      <trkpt lat="44.59552" lon="5.33463">
        <ele>1063</ele>
        <time>2014-05-03T13:47:29Z</time>
      </trkpt>
      <trkpt lat="44.59539" lon="5.33482">
        <ele>1062.5</ele>
        <time>2014-05-03T13:47:43Z</time>
      </trkpt>
      <trkpt lat="44.5952" lon="5.33485">
        <ele>1060.81</ele>
        <time>2014-05-03T13:48:10Z</time>
      </trkpt>
      <trkpt lat="44.59504" lon="5.33476">
        <ele>1057.71</ele>
        <time>2014-05-03T13:48:26Z</time>
      </trkpt>
      <trkpt lat="44.59485" lon="5.33475">
        <ele>1054.99</ele>
        <time>2014-05-03T13:48:40Z</time>
      </trkpt>
      <trkpt lat="44.59472" lon="5.33456">
        <ele>1052.81</ele>
        <time>2014-05-03T13:48:55Z</time>
      </trkpt>
      <trkpt lat="44.59465" lon="5.33431">
        <ele>1049.62</ele>
        <time>2014-05-03T13:49:09Z</time>
      </trkpt>
      <trkpt lat="44.59458" lon="5.33407">
        <ele>1046.06</ele>
        <time>2014-05-03T13:49:22Z</time>
      </trkpt>
      <trkpt lat="44.59451" lon="5.33383">
        <ele>1043.59</ele>
        <time>2014-05-03T13:49:34Z</time>
      </trkpt>
      <trkpt lat="44.59447" lon="5.33356">
        <ele>1040.3</ele>
        <time>2014-05-03T13:49:47Z</time>
      </trkpt>
      <trkpt lat="44.5944" lon="5.33331">
        <ele>1036.4</ele>
        <time>2014-05-03T13:50:01Z</time>
      </trkpt>
      <trkpt lat="44.59433" lon="5.33307">
        <ele>1033.4</ele>
        <time>2014-05-03T13:50:16Z</time>
      </trkpt>
      <trkpt lat="44.59426" lon="5.33283">
        <ele>1032.04</ele>
        <time>2014-05-03T13:50:28Z</time>
      </trkpt>
      <trkpt lat="44.59421" lon="5.33257">
        <ele>1030.72</ele>
        <time>2014-05-03T13:50:41Z</time>
      </trkpt>
      <trkpt lat="44.59421" lon="5.3323">
        <ele>1030.19</ele>
        <time>2014-05-03T13:50:55Z</time>
      </trkpt>
      <trkpt lat="44.59406" lon="5.33244">
        <ele>1029.37</ele>
        <time>2014-05-03T13:51:08Z</time>
      </trkpt>
      <trkpt lat="44.59399" lon="5.33268">
        <ele>1028.23</ele>
        <time>2014-05-03T13:51:22Z</time>
      </trkpt>
      <trkpt lat="44.59396" lon="5.33294">
        <ele>1026.87</ele>
        <time>2014-05-03T13:51:36Z</time>
      </trkpt>
      <trkpt lat="44.59389" lon="5.33318">
        <ele>1025.03</ele>
        <time>2014-05-03T13:52:07Z</time>
      </trkpt>
      <trkpt lat="44.59371" lon="5.33326">
        <ele>1021.95</ele>
        <time>2014-05-03T13:52:53Z</time>
      </trkpt>
      <trkpt lat="44.59354" lon="5.33334">
        <ele>1018</ele>
        <time>2014-05-03T13:53:07Z</time>
      </trkpt>
      <trkpt lat="44.59336" lon="5.33341">
        <ele>1013.93</ele>
        <time>2014-05-03T13:53:22Z</time>
      </trkpt>
      <trkpt lat="44.59318" lon="5.3335">
        <ele>1008.46</ele>
        <time>2014-05-03T13:53:44Z</time>
      </trkpt>
      <trkpt lat="44.593" lon="5.33352">
        <ele>1001.44</ele>
        <time>2014-05-03T13:54:45Z</time>
      </trkpt>
      <trkpt lat="44.59281" lon="5.33352">
        <ele>1000.14</ele>
        <time>2014-05-03T13:55:01Z</time>
      </trkpt>
      <trkpt lat="44.59262" lon="5.3335">
        <ele>998.26</ele>
        <time>2014-05-03T13:55:14Z</time>
      </trkpt>
      <trkpt lat="44.59245" lon="5.33341">
        <ele>995.73</ele>
        <time>2014-05-03T13:55:28Z</time>
      </trkpt>
      <trkpt lat="44.59227" lon="5.33335">
        <ele>993.89</ele>
        <time>2014-05-03T13:55:39Z</time>
      </trkpt>
      <trkpt lat="44.5921" lon="5.33324">
        <ele>991.27</ele>
        <time>2014-05-03T13:55:51Z</time>
      </trkpt>
      <trkpt lat="44.59193" lon="5.33312">
        <ele>988.64</ele>
        <time>2014-05-03T13:56:03Z</time>
      </trkpt>
      <trkpt lat="44.59206" lon="5.33293">
        <ele>984.12</ele>
        <time>2014-05-03T13:56:22Z</time>
      </trkpt>
      <trkpt lat="44.59211" lon="5.33268">
        <ele>979.72</ele>
        <time>2014-05-03T13:56:37Z</time>
      </trkpt>
      <trkpt lat="44.59201" lon="5.33246">
        <ele>974.66</ele>
        <time>2014-05-03T13:56:56Z</time>
      </trkpt>
      <trkpt lat="44.59183" lon="5.33239">
        <ele>971.53</ele>
        <time>2014-05-03T13:57:12Z</time>
      </trkpt>
      <trkpt lat="44.59166" lon="5.33232">
        <ele>968.85</ele>
        <time>2014-05-03T13:57:25Z</time>
      </trkpt>
      <trkpt lat="44.59147" lon="5.33225">
        <ele>965.5</ele>
        <time>2014-05-03T13:57:39Z</time>
      </trkpt>
      <trkpt lat="44.59129" lon="5.33217">
        <ele>962.55</ele>
        <time>2014-05-03T13:57:52Z</time>
      </trkpt>
      <trkpt lat="44.59113" lon="5.33201">
        <ele>960.16</ele>
        <time>2014-05-03T13:58:05Z</time>
      </trkpt>
      <trkpt lat="44.59099" lon="5.33183">
        <ele>957.43</ele>
        <time>2014-05-03T13:58:17Z</time>
      </trkpt>
      <trkpt lat="44.59086" lon="5.33165">
        <ele>955</ele>
        <time>2014-05-03T13:58:29Z</time>
      </trkpt>
      <trkpt lat="44.5909" lon="5.3314">
        <ele>950.3</ele>
        <time>2014-05-03T13:58:52Z</time>
      </trkpt>
      <trkpt lat="44.59108" lon="5.33138">
        <ele>947.68</ele>
        <time>2014-05-03T13:59:04Z</time>
      </trkpt>
      <trkpt lat="44.59125" lon="5.33129">
        <ele>944.83</ele>
        <time>2014-05-03T13:59:16Z</time>
      </trkpt>
      <trkpt lat="44.59143" lon="5.3312">
        <ele>941.52</ele>
        <time>2014-05-03T13:59:30Z</time>
      </trkpt>
      <trkpt lat="44.59147" lon="5.33095">
        <ele>935.02</ele>
        <time>2014-05-03T14:00:44Z</time>
      </trkpt>
      <trkpt lat="44.59152" lon="5.33071">
        <ele>931.78</ele>
        <time>2014-05-03T14:01:33Z</time>
      </trkpt>
      <trkpt lat="44.59142" lon="5.33048">
        <ele>930.04</ele>
        <time>2014-05-03T14:01:44Z</time>
      </trkpt>
      <trkpt lat="44.59134" lon="5.33026">
        <ele>927.88</ele>
        <time>2014-05-03T14:01:55Z</time>
      </trkpt>
      <trkpt lat="44.59124" lon="5.33004">
        <ele>924.81</ele>
        <time>2014-05-03T14:02:08Z</time>
      </trkpt>
      <trkpt lat="44.59118" lon="5.32978">
        <ele>920.8</ele>
        <time>2014-05-03T14:02:21Z</time>
      </trkpt>
      <trkpt lat="44.59111" lon="5.32953">
        <ele>917.1</ele>
        <time>2014-05-03T14:02:32Z</time>
      </trkpt>
      <trkpt lat="44.59102" lon="5.3293">
        <ele>913.94</ele>
        <time>2014-05-03T14:02:43Z</time>
      </trkpt>
      <trkpt lat="44.59097" lon="5.32903">
        <ele>911.1</ele>
        <time>2014-05-03T14:02:53Z</time>
      </trkpt>
      <trkpt lat="44.59088" lon="5.32882">
        <ele>906.95</ele>
        <time>2014-05-03T14:03:07Z</time>
      </trkpt>
      <trkpt lat="44.5907" lon="5.32872">
        <ele>901.88</ele>
        <time>2014-05-03T14:03:22Z</time>
      </trkpt>
      <trkpt lat="44.59065" lon="5.32847">
        <ele>898.38</ele>
        <time>2014-05-03T14:03:34Z</time>
      </trkpt>
      <trkpt lat="44.59058" lon="5.32823">
        <ele>895.06</ele>
        <time>2014-05-03T14:03:47Z</time>
      </trkpt>
      <trkpt lat="44.5905" lon="5.32799">
        <ele>890.94</ele>
        <time>2014-05-03T14:04:01Z</time>
      </trkpt>
      <trkpt lat="44.5904" lon="5.32776">
        <ele>884.89</ele>
        <time>2014-05-03T14:04:18Z</time>
      </trkpt>
      <trkpt lat="44.59031" lon="5.32752">
        <ele>880.78</ele>
        <time>2014-05-03T14:04:29Z</time>
      </trkpt>
      <trkpt lat="44.59022" lon="5.32728">
        <ele>878.13</ele>
        <time>2014-05-03T14:04:41Z</time>
      </trkpt>
      <trkpt lat="44.59012" lon="5.32707">
        <ele>870.49</ele>
        <time>2014-05-03T14:05:10Z</time>
      </trkpt>
      <trkpt lat="44.59003" lon="5.32684">
        <ele>867.07</ele>
        <time>2014-05-03T14:05:23Z</time>
      </trkpt>
      <trkpt lat="44.5901" lon="5.32659">
        <ele>863.4</ele>
        <time>2014-05-03T14:05:37Z</time>
      </trkpt>
      <trkpt lat="44.59016" lon="5.32635">
        <ele>861.47</ele>
        <time>2014-05-03T14:05:49Z</time>
      </trkpt>
      <trkpt lat="44.59014" lon="5.32609">
        <ele>858.73</ele>
        <time>2014-05-03T14:06:04Z</time>
      </trkpt>
      <trkpt lat="44.59012" lon="5.32583">
        <ele>855.5</ele>
        <time>2014-05-03T14:06:19Z</time>
      </trkpt>
      <trkpt lat="44.59012" lon="5.32558">
        <ele>852.05</ele>
        <time>2014-05-03T14:06:33Z</time>
      </trkpt>
      <trkpt lat="44.59013" lon="5.32532">
        <ele>849.61</ele>
        <time>2014-05-03T14:06:45Z</time>
      </trkpt>
      <trkpt lat="44.59012" lon="5.32505">
        <ele>848.04</ele>
        <time>2014-05-03T14:07:00Z</time>
      </trkpt>
      <trkpt lat="44.59008" lon="5.32481">
        <ele>844.94</ele>
        <time>2014-05-03T14:07:15Z</time>
      </trkpt>
      <trkpt lat="44.59" lon="5.32456">
        <ele>842.53</ele>
        <time>2014-05-03T14:07:28Z</time>
      </trkpt>
      <trkpt lat="44.58998" lon="5.32431">
        <ele>840.15</ele>
        <time>2014-05-03T14:07:42Z</time>
      </trkpt>
      <trkpt lat="44.59008" lon="5.32409">
        <ele>837.2</ele>
        <time>2014-05-03T14:07:57Z</time>
      </trkpt>
      <trkpt lat="44.59021" lon="5.32389">
        <ele>834.39</ele>
        <time>2014-05-03T14:08:11Z</time>
      </trkpt>
      <trkpt lat="44.59032" lon="5.3237">
        <ele>831.82</ele>
        <time>2014-05-03T14:08:24Z</time>
      </trkpt>
      <trkpt lat="44.59036" lon="5.32345">
        <ele>829.07</ele>
        <time>2014-05-03T14:08:45Z</time>
      </trkpt>
      <trkpt lat="44.59041" lon="5.32319">
        <ele>827.07</ele>
        <time>2014-05-03T14:08:58Z</time>
      </trkpt>
      <trkpt lat="44.59052" lon="5.32297">
        <ele>825.57</ele>
        <time>2014-05-03T14:09:09Z</time>
      </trkpt>
      <trkpt lat="44.5906" lon="5.32275">
        <ele>824.43</ele>
        <time>2014-05-03T14:09:19Z</time>
      </trkpt>
      <trkpt lat="44.59063" lon="5.32249">
        <ele>822.98</ele>
        <time>2014-05-03T14:09:34Z</time>
      </trkpt>
      <trkpt lat="44.59069" lon="5.32225">
        <ele>819.25</ele>
        <time>2014-05-03T14:09:51Z</time>
      </trkpt>
      <trkpt lat="44.59074" lon="5.322">
        <ele>817.73</ele>
        <time>2014-05-03T14:10:03Z</time>
      </trkpt>
      <trkpt lat="44.59089" lon="5.32182">
        <ele>814.17</ele>
        <time>2014-05-03T14:10:20Z</time>
      </trkpt>
      <trkpt lat="44.59104" lon="5.32167">
        <ele>811.84</ele>
        <time>2014-05-03T14:10:33Z</time>
      </trkpt>
      <trkpt lat="44.59115" lon="5.32145">
        <ele>810.57</ele>
        <time>2014-05-03T14:10:45Z</time>
      </trkpt>
      <trkpt lat="44.59123" lon="5.32122">
        <ele>807.63</ele>
        <time>2014-05-03T14:11:11Z</time>
      </trkpt>
      <trkpt lat="44.59127" lon="5.32097">
        <ele>805.79</ele>
        <time>2014-05-03T14:11:24Z</time>
      </trkpt>
      <trkpt lat="44.59133" lon="5.32072">
        <ele>802.7</ele>
        <time>2014-05-03T14:11:40Z</time>
      </trkpt>
      <trkpt lat="44.59147" lon="5.32052">
        <ele>800.24</ele>
        <time>2014-05-03T14:11:52Z</time>
      </trkpt>
      <trkpt lat="44.59158" lon="5.32031">
        <ele>797.77</ele>
        <time>2014-05-03T14:12:06Z</time>
      </trkpt>
      <trkpt lat="44.59166" lon="5.32008">
        <ele>795.52</ele>
        <time>2014-05-03T14:12:19Z</time>
      </trkpt>
      <trkpt lat="44.59168" lon="5.31982">
        <ele>791.69</ele>
        <time>2014-05-03T14:12:46Z</time>
      </trkpt>
      <trkpt lat="44.59159" lon="5.31959">
        <ele>788.43</ele>
        <time>2014-05-03T14:13:04Z</time>
      </trkpt>
      <trkpt lat="44.59154" lon="5.31934">
        <ele>784.08</ele>
        <time>2014-05-03T14:14:12Z</time>
      </trkpt>
      <trkpt lat="44.59154" lon="5.31908">
        <ele>782.02</ele>
        <time>2014-05-03T14:14:25Z</time>
      </trkpt>
      <trkpt lat="44.59159" lon="5.31883">
        <ele>780.67</ele>
        <time>2014-05-03T14:14:38Z</time>
      </trkpt>
      <trkpt lat="44.59161" lon="5.31857">
        <ele>779.29</ele>
        <time>2014-05-03T14:14:54Z</time>
      </trkpt>
      <trkpt lat="44.59153" lon="5.31832">
        <ele>777.64</ele>
        <time>2014-05-03T14:15:10Z</time>
      </trkpt>
      <trkpt lat="44.5914" lon="5.31813">
        <ele>774.16</ele>
        <time>2014-05-03T14:15:42Z</time>
      </trkpt>
      <trkpt lat="44.5913" lon="5.31792">
        <ele>772.98</ele>
        <time>2014-05-03T14:15:54Z</time>
      </trkpt>
      <trkpt lat="44.59125" lon="5.31767">
        <ele>771.69</ele>
        <time>2014-05-03T14:16:07Z</time>
      </trkpt>
      <trkpt lat="44.5912" lon="5.31742">
        <ele>769.28</ele>
        <time>2014-05-03T14:16:25Z</time>
      </trkpt>
      <trkpt lat="44.59106" lon="5.31725">
        <ele>765.44</ele>
        <time>2014-05-03T14:16:43Z</time>
      </trkpt>
      <trkpt lat="44.59091" lon="5.31707">
        <ele>762.75</ele>
        <time>2014-05-03T14:16:59Z</time>
      </trkpt>
      <trkpt lat="44.59082" lon="5.31684">
        <ele>759.92</ele>
        <time>2014-05-03T14:17:15Z</time>
      </trkpt>
      <trkpt lat="44.59082" lon="5.31658">
        <ele>757.14</ele>
        <time>2014-05-03T14:17:31Z</time>
      </trkpt>
      <trkpt lat="44.59075" lon="5.31634">
        <ele>755.06</ele>
        <time>2014-05-03T14:17:45Z</time>
      </trkpt>
      <trkpt lat="44.59069" lon="5.31609">
        <ele>753.68</ele>
        <time>2014-05-03T14:17:59Z</time>
      </trkpt>
      <trkpt lat="44.59068" lon="5.31583">
        <ele>751.41</ele>
        <time>2014-05-03T14:18:16Z</time>
      </trkpt>
      <trkpt lat="44.59069" lon="5.31557">
        <ele>748.73</ele>
        <time>2014-05-03T14:18:34Z</time>
      </trkpt>
      <trkpt lat="44.59063" lon="5.31533">
        <ele>746.75</ele>
        <time>2014-05-03T14:18:50Z</time>
      </trkpt>
      <trkpt lat="44.59081" lon="5.31537">
        <ele>741.88</ele>
        <time>2014-05-03T14:19:22Z</time>
      </trkpt>
      <trkpt lat="44.59089" lon="5.3156">
        <ele>738.91</ele>
        <time>2014-05-03T14:19:33Z</time>
      </trkpt>
      <trkpt lat="44.59101" lon="5.31579">
        <ele>733.88</ele>
        <time>2014-05-03T14:19:49Z</time>
      </trkpt>
      <trkpt lat="44.59118" lon="5.31592">
        <ele>729.97</ele>
        <time>2014-05-03T14:20:05Z</time>
      </trkpt>
      <trkpt lat="44.59135" lon="5.316">
        <ele>728.65</ele>
        <time>2014-05-03T14:20:17Z</time>
      </trkpt>
      <trkpt lat="44.59154" lon="5.31604">
        <ele>728.55</ele>
        <time>2014-05-03T14:20:31Z</time>
      </trkpt>
      <trkpt lat="44.59412" lon="5.31869">
        <ele>674.61</ele>
        <time>2014-05-04T07:44:12Z</time>
      </trkpt>
      <trkpt lat="44.59423" lon="5.31848">
        <ele>677.96</ele>
        <time>2014-05-04T07:44:26Z</time>
      </trkpt>
      <trkpt lat="44.59439" lon="5.31833">
        <ele>679.49</ele>
        <time>2014-05-04T07:44:32Z</time>
      </trkpt>
      <trkpt lat="44.5945" lon="5.31811">
        <ele>680.62</ele>
        <time>2014-05-04T07:44:42Z</time>
      </trkpt>
      <trkpt lat="44.59454" lon="5.31787">
        <ele>683.46</ele>
        <time>2014-05-04T07:44:56Z</time>
      </trkpt>
      <trkpt lat="44.59466" lon="5.31765">
        <ele>686.94</ele>
        <time>2014-05-04T07:45:07Z</time>
      </trkpt>
      <trkpt lat="44.59475" lon="5.31742">
        <ele>690.45</ele>
        <time>2014-05-04T07:45:19Z</time>
      </trkpt>
      <trkpt lat="44.59487" lon="5.31721">
        <ele>694.04</ele>
        <time>2014-05-04T07:45:32Z</time>
      </trkpt>
      <trkpt lat="44.59506" lon="5.31718">
        <ele>698.16</ele>
        <time>2014-05-04T07:45:45Z</time>
      </trkpt>
      <trkpt lat="44.59525" lon="5.31719">
        <ele>701.67</ele>
        <time>2014-05-04T07:45:57Z</time>
      </trkpt>
      <trkpt lat="44.59544" lon="5.31721">
        <ele>704.23</ele>
        <time>2014-05-04T07:46:13Z</time>
      </trkpt>
      <trkpt lat="44.59563" lon="5.31723">
        <ele>705.32</ele>
        <time>2014-05-04T07:46:27Z</time>
      </trkpt>
      <trkpt lat="44.59581" lon="5.3172">
        <ele>705.86</ele>
        <time>2014-05-04T07:46:44Z</time>
      </trkpt>
      <trkpt lat="44.59583" lon="5.31747">
        <ele>712.74</ele>
        <time>2014-05-04T07:47:52Z</time>
      </trkpt>
      <trkpt lat="44.59593" lon="5.31768">
        <ele>710.82</ele>
        <time>2014-05-04T07:48:10Z</time>
      </trkpt>
      <trkpt lat="44.59601" lon="5.31792">
        <ele>711.37</ele>
        <time>2014-05-04T07:48:30Z</time>
      </trkpt>
      <trkpt lat="44.59604" lon="5.31818">
        <ele>712.61</ele>
        <time>2014-05-04T07:48:46Z</time>
      </trkpt>
      <trkpt lat="44.59605" lon="5.31844">
        <ele>714.48</ele>
        <time>2014-05-04T07:49:07Z</time>
      </trkpt>
      <trkpt lat="44.59605" lon="5.31869">
        <ele>715.49</ele>
        <time>2014-05-04T07:49:28Z</time>
      </trkpt>
      <trkpt lat="44.59613" lon="5.31893">
        <ele>718.03</ele>
        <time>2014-05-04T07:49:48Z</time>
      </trkpt>
      <trkpt lat="44.59628" lon="5.31911">
        <ele>719.65</ele>
        <time>2014-05-04T07:50:03Z</time>
      </trkpt>
      <trkpt lat="44.59645" lon="5.31921">
        <ele>722.05</ele>
        <time>2014-05-04T07:50:20Z</time>
      </trkpt>
      <trkpt lat="44.59661" lon="5.31934">
        <ele>724.67</ele>
        <time>2014-05-04T07:50:37Z</time>
      </trkpt>
      <trkpt lat="44.5968" lon="5.31943">
        <ele>726.51</ele>
        <time>2014-05-04T07:50:49Z</time>
      </trkpt>
      <trkpt lat="44.59697" lon="5.31951">
        <ele>727.25</ele>
        <time>2014-05-04T07:51:04Z</time>
      </trkpt>
      <trkpt lat="44.59711" lon="5.31966">
        <ele>729.12</ele>
        <time>2014-05-04T07:51:21Z</time>
      </trkpt>
      <trkpt lat="44.59726" lon="5.31982">
        <ele>732.15</ele>
        <time>2014-05-04T07:51:37Z</time>
      </trkpt>
      <trkpt lat="44.59743" lon="5.31991">
        <ele>734.45</ele>
        <time>2014-05-04T07:51:52Z</time>
      </trkpt>
      <trkpt lat="44.59761" lon="5.32001">
        <ele>735.37</ele>
        <time>2014-05-04T07:52:09Z</time>
      </trkpt>
      <trkpt lat="44.59777" lon="5.32015">
        <ele>735.74</ele>
        <time>2014-05-04T07:52:24Z</time>
      </trkpt>
      <trkpt lat="44.59794" lon="5.32025">
        <ele>736.12</ele>
        <time>2014-05-04T07:52:46Z</time>
      </trkpt>
      <trkpt lat="44.59809" lon="5.32039">
        <ele>737.17</ele>
        <time>2014-05-04T07:52:58Z</time>
      </trkpt>
      <trkpt lat="44.59826" lon="5.32049">
        <ele>738.5</ele>
        <time>2014-05-04T07:53:13Z</time>
      </trkpt>
      <trkpt lat="44.59832" lon="5.32074">
        <ele>739.21</ele>
        <time>2014-05-04T07:53:30Z</time>
      </trkpt>
      <trkpt lat="44.59839" lon="5.32099">
        <ele>738.01</ele>
        <time>2014-05-04T07:53:51Z</time>
      </trkpt>
      <trkpt lat="44.59852" lon="5.32116">
        <ele>739.33</ele>
        <time>2014-05-04T07:54:07Z</time>
      </trkpt>
      <trkpt lat="44.59867" lon="5.32133">
        <ele>740.73</ele>
        <time>2014-05-04T07:54:37Z</time>
      </trkpt>
      <trkpt lat="44.59873" lon="5.32157">
        <ele>742.62</ele>
        <time>2014-05-04T07:54:51Z</time>
      </trkpt>
      <trkpt lat="44.59878" lon="5.32181">
        <ele>742.97</ele>
        <time>2014-05-04T07:55:05Z</time>
      </trkpt>
      <trkpt lat="44.59886" lon="5.32205">
        <ele>744.21</ele>
        <time>2014-05-04T07:55:18Z</time>
      </trkpt>
      <trkpt lat="44.59901" lon="5.32222">
        <ele>744.92</ele>
        <time>2014-05-04T07:55:30Z</time>
      </trkpt>
      <trkpt lat="44.5991" lon="5.32244">
        <ele>745.99</ele>
        <time>2014-05-04T07:55:43Z</time>
      </trkpt>
      <trkpt lat="44.59919" lon="5.32268">
        <ele>746.42</ele>
        <time>2014-05-04T07:55:58Z</time>
      </trkpt>
      <trkpt lat="44.59926" lon="5.32293">
        <ele>746.37</ele>
        <time>2014-05-04T07:56:12Z</time>
      </trkpt>
      <trkpt lat="44.59935" lon="5.32317">
        <ele>746.62</ele>
        <time>2014-05-04T07:56:28Z</time>
      </trkpt>
      <trkpt lat="44.5994" lon="5.32341">
        <ele>747.55</ele>
        <time>2014-05-04T07:56:42Z</time>
      </trkpt>
      <trkpt lat="44.59941" lon="5.32367">
        <ele>747.18</ele>
        <time>2014-05-04T07:56:57Z</time>
      </trkpt>
      <trkpt lat="44.59955" lon="5.32384">
        <ele>746.4</ele>
        <time>2014-05-04T07:57:14Z</time>
      </trkpt>
      <trkpt lat="44.59966" lon="5.32365">
        <ele>746.07</ele>
        <time>2014-05-04T07:57:28Z</time>
      </trkpt>
      <trkpt lat="44.59974" lon="5.32341">
        <ele>746.01</ele>
        <time>2014-05-04T07:57:44Z</time>
      </trkpt>
      <trkpt lat="44.59983" lon="5.32318">
        <ele>746.58</ele>
        <time>2014-05-04T07:57:59Z</time>
      </trkpt>
      <trkpt lat="44.59997" lon="5.32301">
        <ele>745.62</ele>
        <time>2014-05-04T07:58:18Z</time>
      </trkpt>
      <trkpt lat="44.60008" lon="5.3228">
        <ele>745.87</ele>
        <time>2014-05-04T07:58:32Z</time>
      </trkpt>
      <trkpt lat="44.60017" lon="5.32257">
        <ele>746.41</ele>
        <time>2014-05-04T07:58:45Z</time>
      </trkpt>
      <trkpt lat="44.60017" lon="5.32232">
        <ele>748.21</ele>
        <time>2014-05-04T07:59:01Z</time>
      </trkpt>
      <trkpt lat="44.60026" lon="5.32208">
        <ele>750.66</ele>
        <time>2014-05-04T07:59:19Z</time>
      </trkpt>
      <trkpt lat="44.60034" lon="5.32185">
        <ele>753.38</ele>
        <time>2014-05-04T07:59:35Z</time>
      </trkpt>
      <trkpt lat="44.60041" lon="5.32161">
        <ele>755.13</ele>
        <time>2014-05-04T07:59:53Z</time>
      </trkpt>
      <trkpt lat="44.60054" lon="5.32142">
        <ele>756.21</ele>
        <time>2014-05-04T08:00:09Z</time>
      </trkpt>
      <trkpt lat="44.6007" lon="5.32127">
        <ele>759.89</ele>
        <time>2014-05-04T08:00:24Z</time>
      </trkpt>
      <trkpt lat="44.60084" lon="5.32109">
        <ele>764.92</ele>
        <time>2014-05-04T08:00:45Z</time>
      </trkpt>
      <trkpt lat="44.60096" lon="5.32089">
        <ele>767.06</ele>
        <time>2014-05-04T08:01:01Z</time>
      </trkpt>
      <trkpt lat="44.60103" lon="5.32065">
        <ele>767.28</ele>
        <time>2014-05-04T08:01:26Z</time>
      </trkpt>
      <trkpt lat="44.60117" lon="5.32049">
        <ele>768.06</ele>
        <time>2014-05-04T08:01:51Z</time>
      </trkpt>
      <trkpt lat="44.60135" lon="5.32048">
        <ele>769.57</ele>
        <time>2014-05-04T08:02:14Z</time>
      </trkpt>
      <trkpt lat="44.60154" lon="5.32053">
        <ele>772.38</ele>
        <time>2014-05-04T08:02:33Z</time>
      </trkpt>
      <trkpt lat="44.60169" lon="5.32066">
        <ele>774.98</ele>
        <time>2014-05-04T08:02:53Z</time>
      </trkpt>
      <trkpt lat="44.60181" lon="5.32085">
        <ele>777.33</ele>
        <time>2014-05-04T08:03:12Z</time>
      </trkpt>
      <trkpt lat="44.60185" lon="5.3211">
        <ele>780.37</ele>
        <time>2014-05-04T08:03:32Z</time>
      </trkpt>
      <trkpt lat="44.60189" lon="5.32136">
        <ele>781.76</ele>
        <time>2014-05-04T08:03:51Z</time>
      </trkpt>
      <trkpt lat="44.60198" lon="5.32159">
        <ele>784.35</ele>
        <time>2014-05-04T08:04:11Z</time>
      </trkpt>
      <trkpt lat="44.60213" lon="5.32172">
        <ele>787.19</ele>
        <time>2014-05-04T08:04:29Z</time>
      </trkpt>
      <trkpt lat="44.6023" lon="5.32184">
        <ele>789.38</ele>
        <time>2014-05-04T08:04:47Z</time>
      </trkpt>
      <trkpt lat="44.60249" lon="5.32187">
        <ele>790.71</ele>
        <time>2014-05-04T08:05:06Z</time>
      </trkpt>
      <trkpt lat="44.60267" lon="5.32189">
        <ele>791.62</ele>
        <time>2014-05-04T08:05:25Z</time>
      </trkpt>
      <trkpt lat="44.60285" lon="5.32196">
        <ele>793.93</ele>
        <time>2014-05-04T08:05:43Z</time>
      </trkpt>
      <trkpt lat="44.60303" lon="5.32203">
        <ele>796.6</ele>
        <time>2014-05-04T08:06:04Z</time>
      </trkpt>
      <trkpt lat="44.60321" lon="5.32209">
        <ele>797.91</ele>
        <time>2014-05-04T08:06:21Z</time>
      </trkpt>
      <trkpt lat="44.60339" lon="5.32202">
        <ele>800.26</ele>
        <time>2014-05-04T08:06:40Z</time>
      </trkpt>
      <trkpt lat="44.60357" lon="5.32192">
        <ele>802.03</ele>
        <time>2014-05-04T08:07:00Z</time>
      </trkpt>
      <trkpt lat="44.60375" lon="5.32188">
        <ele>803.64</ele>
        <time>2014-05-04T08:07:16Z</time>
      </trkpt>
      <trkpt lat="44.60393" lon="5.32181">
        <ele>803.44</ele>
        <time>2014-05-04T08:07:35Z</time>
      </trkpt>
      <trkpt lat="44.60411" lon="5.32176">
        <ele>802.07</ele>
        <time>2014-05-04T08:07:56Z</time>
      </trkpt>
      <trkpt lat="44.60429" lon="5.32168">
        <ele>802.84</ele>
        <time>2014-05-04T08:08:13Z</time>
      </trkpt>
      <trkpt lat="44.60447" lon="5.32162">
        <ele>803.77</ele>
        <time>2014-05-04T08:08:29Z</time>
      </trkpt>
      <trkpt lat="44.60463" lon="5.32147">
        <ele>805.6</ele>
        <time>2014-05-04T08:08:45Z</time>
      </trkpt>
      <trkpt lat="44.60476" lon="5.32129">
        <ele>808.43</ele>
        <time>2014-05-04T08:09:00Z</time>
      </trkpt>
      <trkpt lat="44.6049" lon="5.32111">
        <ele>810.29</ele>
        <time>2014-05-04T08:09:18Z</time>
      </trkpt>
      <trkpt lat="44.60506" lon="5.32099">
        <ele>810.03</ele>
        <time>2014-05-04T08:09:32Z</time>
      </trkpt>
      <trkpt lat="44.60522" lon="5.32084">
        <ele>809.56</ele>
        <time>2014-05-04T08:09:47Z</time>
      </trkpt>
      <trkpt lat="44.60539" lon="5.32075">
        <ele>807.66</ele>
        <time>2014-05-04T08:10:03Z</time>
      </trkpt>
      <trkpt lat="44.60553" lon="5.32058">
        <ele>807.02</ele>
        <time>2014-05-04T08:10:18Z</time>
      </trkpt>
      <trkpt lat="44.60566" lon="5.3204">
        <ele>807.72</ele>
        <time>2014-05-04T08:11:23Z</time>
      </trkpt>
      <trkpt lat="44.60582" lon="5.32027">
        <ele>807.48</ele>
        <time>2014-05-04T08:11:37Z</time>
      </trkpt>
      <trkpt lat="44.60601" lon="5.32025">
        <ele>806.46</ele>
        <time>2014-05-04T08:11:47Z</time>
      </trkpt>
      <trkpt lat="44.6062" lon="5.32025">
        <ele>805.71</ele>
        <time>2014-05-04T08:11:54Z</time>
      </trkpt>
      <trkpt lat="44.60638" lon="5.32027">
        <ele>804.08</ele>
        <time>2014-05-04T08:12:01Z</time>
      </trkpt>
      <trkpt lat="44.60658" lon="5.32032">
        <ele>802.59</ele>
        <time>2014-05-04T08:12:08Z</time>
      </trkpt>
      <trkpt lat="44.60676" lon="5.32037">
        <ele>801.41</ele>
        <time>2014-05-04T08:12:17Z</time>
      </trkpt>
      <trkpt lat="44.60693" lon="5.32042">
        <ele>799.92</ele>
        <time>2014-05-04T08:12:31Z</time>
      </trkpt>
      <trkpt lat="44.60711" lon="5.32049">
        <ele>799.76</ele>
        <time>2014-05-04T08:12:43Z</time>
      </trkpt>
      <trkpt lat="44.60728" lon="5.32058">
        <ele>800.14</ele>
        <time>2014-05-04T08:13:02Z</time>
      </trkpt>
      <trkpt lat="44.60748" lon="5.32067">
        <ele>800.62</ele>
        <time>2014-05-04T08:14:11Z</time>
      </trkpt>
      <trkpt lat="44.60761" lon="5.32085">
        <ele>800.41</ele>
        <time>2014-05-04T08:14:18Z</time>
      </trkpt>
      <trkpt lat="44.60772" lon="5.32109">
        <ele>800.02</ele>
        <time>2014-05-04T08:14:25Z</time>
      </trkpt>
      <trkpt lat="44.60781" lon="5.32131">
        <ele>799.79</ele>
        <time>2014-05-04T08:14:34Z</time>
      </trkpt>
      <trkpt lat="44.60794" lon="5.32151">
        <ele>798.88</ele>
        <time>2014-05-04T08:14:45Z</time>
      </trkpt>
      <trkpt lat="44.60803" lon="5.32176">
        <ele>797.42</ele>
        <time>2014-05-04T08:14:59Z</time>
      </trkpt>
      <trkpt lat="44.60804" lon="5.32203">
        <ele>796.2</ele>
        <time>2014-05-04T08:15:13Z</time>
      </trkpt>
      <trkpt lat="44.60802" lon="5.32228">
        <ele>794.36</ele>
        <time>2014-05-04T08:15:27Z</time>
      </trkpt>
      <trkpt lat="44.60797" lon="5.32254">
        <ele>793.22</ele>
        <time>2014-05-04T08:15:40Z</time>
      </trkpt>
      <trkpt lat="44.60794" lon="5.3228">
        <ele>791.67</ele>
        <time>2014-05-04T08:15:55Z</time>
      </trkpt>
      <trkpt lat="44.60797" lon="5.32306">
        <ele>792.52</ele>
        <time>2014-05-04T08:16:08Z</time>
      </trkpt>
      <trkpt lat="44.60814" lon="5.32318">
        <ele>793.46</ele>
        <time>2014-05-04T08:16:22Z</time>
      </trkpt>
      <trkpt lat="44.60832" lon="5.32317">
        <ele>794.62</ele>
        <time>2014-05-04T08:16:34Z</time>
      </trkpt>
      <trkpt lat="44.6085" lon="5.32312">
        <ele>795.89</ele>
        <time>2014-05-04T08:16:50Z</time>
      </trkpt>
      <trkpt lat="44.60868" lon="5.32307">
        <ele>796.14</ele>
        <time>2014-05-04T08:17:04Z</time>
      </trkpt>
      <trkpt lat="44.60886" lon="5.32298">
        <ele>796.02</ele>
        <time>2014-05-04T08:17:18Z</time>
      </trkpt>
      <trkpt lat="44.60901" lon="5.32284">
        <ele>796.08</ele>
        <time>2014-05-04T08:17:34Z</time>
      </trkpt>
      <trkpt lat="44.6092" lon="5.32284">
        <ele>797.71</ele>
        <time>2014-05-04T08:17:49Z</time>
      </trkpt>
      <trkpt lat="44.60936" lon="5.32296">
        <ele>800.16</ele>
        <time>2014-05-04T08:18:06Z</time>
      </trkpt>
      <trkpt lat="44.60945" lon="5.32318">
        <ele>802.52</ele>
        <time>2014-05-04T08:18:21Z</time>
      </trkpt>
      <trkpt lat="44.60956" lon="5.32339">
        <ele>804.08</ele>
        <time>2014-05-04T08:18:37Z</time>
      </trkpt>
      <trkpt lat="44.60968" lon="5.32358">
        <ele>805.89</ele>
        <time>2014-05-04T08:18:51Z</time>
      </trkpt>
      <trkpt lat="44.60983" lon="5.32372">
        <ele>807.91</ele>
        <time>2014-05-04T08:19:08Z</time>
      </trkpt>
      <trkpt lat="44.60998" lon="5.32389">
        <ele>809.06</ele>
        <time>2014-05-04T08:19:23Z</time>
      </trkpt>
      <trkpt lat="44.61012" lon="5.32408">
        <ele>809.94</ele>
        <time>2014-05-04T08:19:39Z</time>
      </trkpt>
      <trkpt lat="44.61022" lon="5.32429">
        <ele>811.97</ele>
        <time>2014-05-04T08:19:51Z</time>
      </trkpt>
      <trkpt lat="44.61026" lon="5.32454">
        <ele>814.01</ele>
        <time>2014-05-04T08:20:02Z</time>
      </trkpt>
      <trkpt lat="44.61035" lon="5.32477">
        <ele>815.9</ele>
        <time>2014-05-04T08:20:15Z</time>
      </trkpt>
      <trkpt lat="44.61045" lon="5.32498">
        <ele>816.62</ele>
        <time>2014-05-04T08:20:28Z</time>
      </trkpt>
      <trkpt lat="44.61055" lon="5.32521">
        <ele>817.16</ele>
        <time>2014-05-04T08:20:42Z</time>
      </trkpt>
      <trkpt lat="44.61056" lon="5.32546">
        <ele>816.2</ele>
        <time>2014-05-04T08:21:05Z</time>
      </trkpt>
      <trkpt lat="44.61051" lon="5.32571">
        <ele>815.53</ele>
        <time>2014-05-04T08:21:16Z</time>
      </trkpt>
      <trkpt lat="44.61054" lon="5.32596">
        <ele>813.92</ele>
        <time>2014-05-04T08:21:28Z</time>
      </trkpt>
      <trkpt lat="44.6105" lon="5.32622">
        <ele>813.25</ele>
        <time>2014-05-04T08:21:41Z</time>
      </trkpt>
      <trkpt lat="44.61053" lon="5.32647">
        <ele>811.88</ele>
        <time>2014-05-04T08:21:56Z</time>
      </trkpt>
      <trkpt lat="44.61071" lon="5.32653">
        <ele>812.35</ele>
        <time>2014-05-04T08:22:13Z</time>
      </trkpt>
      <trkpt lat="44.6109" lon="5.32655">
        <ele>813.67</ele>
        <time>2014-05-04T08:22:27Z</time>
      </trkpt>
      <trkpt lat="44.61109" lon="5.32653">
        <ele>813.56</ele>
        <time>2014-05-04T08:22:42Z</time>
      </trkpt>
      <trkpt lat="44.61127" lon="5.32653">
        <ele>813.61</ele>
        <time>2014-05-04T08:22:55Z</time>
      </trkpt>
      <trkpt lat="44.61144" lon="5.32661">
        <ele>812.69</ele>
        <time>2014-05-04T08:23:13Z</time>
      </trkpt>
      <trkpt lat="44.61162" lon="5.32669">
        <ele>809.45</ele>
        <time>2014-05-04T08:23:30Z</time>
      </trkpt>
      <trkpt lat="44.61176" lon="5.32685">
        <ele>809.77</ele>
        <time>2014-05-04T08:23:48Z</time>
      </trkpt>
      <trkpt lat="44.61193" lon="5.32693">
        <ele>809.71</ele>
        <time>2014-05-04T08:24:05Z</time>
      </trkpt>
      <trkpt lat="44.6121" lon="5.32705">
        <ele>808.54</ele>
        <time>2014-05-04T08:24:21Z</time>
      </trkpt>
      <trkpt lat="44.61227" lon="5.32717">
        <ele>808.88</ele>
        <time>2014-05-04T08:24:38Z</time>
      </trkpt>
      <trkpt lat="44.61245" lon="5.32726">
        <ele>807.93</ele>
        <time>2014-05-04T08:24:54Z</time>
      </trkpt>
      <trkpt lat="44.61262" lon="5.32733">
        <ele>808.41</ele>
        <time>2014-05-04T08:25:10Z</time>
      </trkpt>
      <trkpt lat="44.61279" lon="5.32742">
        <ele>810.37</ele>
        <time>2014-05-04T08:25:28Z</time>
      </trkpt>
      <trkpt lat="44.61296" lon="5.32753">
        <ele>810.03</ele>
        <time>2014-05-04T08:25:46Z</time>
      </trkpt>
      <trkpt lat="44.61314" lon="5.3276">
        <ele>808.87</ele>
        <time>2014-05-04T08:26:02Z</time>
      </trkpt>
      <trkpt lat="44.61333" lon="5.32765">
        <ele>807.74</ele>
        <time>2014-05-04T08:26:19Z</time>
      </trkpt>
      <trkpt lat="44.61351" lon="5.32773">
        <ele>806.94</ele>
        <time>2014-05-04T08:26:37Z</time>
      </trkpt>
      <trkpt lat="44.61367" lon="5.32788">
        <ele>806.48</ele>
        <time>2014-05-04T08:26:56Z</time>
      </trkpt>
      <trkpt lat="44.6138" lon="5.32807">
        <ele>806.97</ele>
        <time>2014-05-04T08:27:14Z</time>
      </trkpt>
      <trkpt lat="44.61389" lon="5.32828">
        <ele>805.91</ele>
        <time>2014-05-04T08:27:31Z</time>
      </trkpt>
      <trkpt lat="44.61397" lon="5.32852">
        <ele>805.34</ele>
        <time>2014-05-04T08:27:48Z</time>
      </trkpt>
      <trkpt lat="44.61406" lon="5.32874">
        <ele>804.65</ele>
        <time>2014-05-04T08:28:04Z</time>
      </trkpt>
      <trkpt lat="44.61411" lon="5.32898">
        <ele>803.29</ele>
        <time>2014-05-04T08:28:23Z</time>
      </trkpt>
      <trkpt lat="44.61417" lon="5.32922">
        <ele>801.66</ele>
        <time>2014-05-04T08:28:40Z</time>
      </trkpt>
      <trkpt lat="44.61427" lon="5.32944">
        <ele>800.5</ele>
        <time>2014-05-04T08:28:58Z</time>
      </trkpt>
      <trkpt lat="44.61444" lon="5.32956">
        <ele>799.65</ele>
        <time>2014-05-04T08:30:32Z</time>
      </trkpt>
      <trkpt lat="44.61462" lon="5.3295">
        <ele>798.42</ele>
        <time>2014-05-04T08:30:51Z</time>
      </trkpt>
      <trkpt lat="44.61476" lon="5.32935">
        <ele>797.73</ele>
        <time>2014-05-04T08:31:09Z</time>
      </trkpt>
      <trkpt lat="44.61492" lon="5.32922">
        <ele>797.37</ele>
        <time>2014-05-04T08:31:24Z</time>
      </trkpt>
      <trkpt lat="44.61498" lon="5.32947">
        <ele>797.72</ele>
        <time>2014-05-04T08:34:18Z</time>
      </trkpt>
      <trkpt lat="44.61505" lon="5.3297">
        <ele>799.11</ele>
        <time>2014-05-04T08:34:33Z</time>
      </trkpt>
      <trkpt lat="44.61514" lon="5.32992">
        <ele>799.6</ele>
        <time>2014-05-04T08:34:47Z</time>
      </trkpt>
      <trkpt lat="44.61522" lon="5.33016">
        <ele>798.52</ele>
        <time>2014-05-04T08:35:00Z</time>
      </trkpt>
      <trkpt lat="44.61536" lon="5.33034">
        <ele>798</ele>
        <time>2014-05-04T08:35:16Z</time>
      </trkpt>
      <trkpt lat="44.6155" lon="5.3305">
        <ele>796.49</ele>
        <time>2014-05-04T08:35:30Z</time>
      </trkpt>
      <trkpt lat="44.61565" lon="5.33066">
        <ele>795.91</ele>
        <time>2014-05-04T08:35:44Z</time>
      </trkpt>
      <trkpt lat="44.61581" lon="5.33079">
        <ele>794.95</ele>
        <time>2014-05-04T08:36:00Z</time>
      </trkpt>
      <trkpt lat="44.61594" lon="5.33097">
        <ele>793.48</ele>
        <time>2014-05-04T08:36:16Z</time>
      </trkpt>
      <trkpt lat="44.61602" lon="5.33121">
        <ele>791.49</ele>
        <time>2014-05-04T08:36:30Z</time>
      </trkpt>
      <trkpt lat="44.61607" lon="5.33145">
        <ele>789.31</ele>
        <time>2014-05-04T08:36:44Z</time>
      </trkpt>
      <trkpt lat="44.61618" lon="5.33167">
        <ele>787.68</ele>
        <time>2014-05-04T08:36:59Z</time>
      </trkpt>
      <trkpt lat="44.61633" lon="5.33183">
        <ele>786.12</ele>
        <time>2014-05-04T08:37:15Z</time>
      </trkpt>
      <trkpt lat="44.61651" lon="5.33194">
        <ele>784.9</ele>
        <time>2014-05-04T08:37:30Z</time>
      </trkpt>
      <trkpt lat="44.61665" lon="5.33211">
        <ele>784.6</ele>
        <time>2014-05-04T08:37:43Z</time>
      </trkpt>
      <trkpt lat="44.61658" lon="5.33187">
        <ele>781.6</ele>
        <time>2014-05-04T08:38:05Z</time>
      </trkpt>
      <trkpt lat="44.61645" lon="5.33167">
        <ele>778.18</ele>
        <time>2014-05-04T08:38:20Z</time>
      </trkpt>
      <trkpt lat="44.61634" lon="5.33147">
        <ele>775.36</ele>
        <time>2014-05-04T08:38:33Z</time>
      </trkpt>
      <trkpt lat="44.61652" lon="5.33152">
        <ele>772.46</ele>
        <time>2014-05-04T08:38:58Z</time>
      </trkpt>
      <trkpt lat="44.61668" lon="5.33167">
        <ele>771.5</ele>
        <time>2014-05-04T08:39:15Z</time>
      </trkpt>
      <trkpt lat="44.61687" lon="5.33171">
        <ele>769.59</ele>
        <time>2014-05-04T08:39:30Z</time>
      </trkpt>
      <trkpt lat="44.61705" lon="5.33169">
        <ele>767.72</ele>
        <time>2014-05-04T08:39:42Z</time>
      </trkpt>
      <trkpt lat="44.61723" lon="5.33172">
        <ele>765.69</ele>
        <time>2014-05-04T08:39:57Z</time>
      </trkpt>
      <trkpt lat="44.61741" lon="5.33179">
        <ele>763.46</ele>
        <time>2014-05-04T08:40:10Z</time>
      </trkpt>
      <trkpt lat="44.61758" lon="5.33187">
        <ele>761.14</ele>
        <time>2014-05-04T08:40:25Z</time>
      </trkpt>
      <trkpt lat="44.61766" lon="5.33211">
        <ele>758.28</ele>
        <time>2014-05-04T08:40:41Z</time>
      </trkpt>
      <trkpt lat="44.61766" lon="5.33237">
        <ele>754.89</ele>
        <time>2014-05-04T08:40:56Z</time>
      </trkpt>
      <trkpt lat="44.61752" lon="5.33256">
        <ele>752.47</ele>
        <time>2014-05-04T08:41:11Z</time>
      </trkpt>
      <trkpt lat="44.61767" lon="5.33271">
        <ele>745.09</ele>
        <time>2014-05-04T08:41:44Z</time>
      </trkpt>
      <trkpt lat="44.61785" lon="5.33269">
        <ele>741.73</ele>
        <time>2014-05-04T08:41:58Z</time>
      </trkpt>
      <trkpt lat="44.618" lon="5.33251">
        <ele>737.33</ele>
        <time>2014-05-04T08:42:15Z</time>
      </trkpt>
      <trkpt lat="44.61811" lon="5.33229">
        <ele>734.73</ele>
        <time>2014-05-04T08:42:31Z</time>
      </trkpt>
      <trkpt lat="44.61816" lon="5.33255">
        <ele>727.41</ele>
        <time>2014-05-04T08:43:03Z</time>
      </trkpt>
      <trkpt lat="44.6182" lon="5.3328">
        <ele>722.82</ele>
        <time>2014-05-04T08:43:19Z</time>
      </trkpt>
      <trkpt lat="44.61817" lon="5.33306">
        <ele>718.77</ele>
        <time>2014-05-04T08:43:34Z</time>
      </trkpt>
      <trkpt lat="44.61802" lon="5.33323">
        <ele>715.48</ele>
        <time>2014-05-04T08:43:50Z</time>
      </trkpt>
      <trkpt lat="44.61786" lon="5.33334">
        <ele>714.14</ele>
        <time>2014-05-04T08:44:07Z</time>
      </trkpt>
      <trkpt lat="44.61771" lon="5.33348">
        <ele>714.71</ele>
        <time>2014-05-04T08:44:21Z</time>
      </trkpt>
      <trkpt lat="44.61755" lon="5.33362">
        <ele>714.77</ele>
        <time>2014-05-04T08:44:45Z</time>
      </trkpt>
      <trkpt lat="44.61737" lon="5.33368">
        <ele>715.36</ele>
        <time>2014-05-04T08:44:58Z</time>
      </trkpt>
      <trkpt lat="44.61717" lon="5.33368">
        <ele>712.95</ele>
        <time>2014-05-04T08:45:12Z</time>
      </trkpt>
      <trkpt lat="44.617" lon="5.33378">
        <ele>711.2</ele>
        <time>2014-05-04T08:45:25Z</time>
      </trkpt>
      <trkpt lat="44.61686" lon="5.33395">
        <ele>706.68</ele>
        <time>2014-05-04T08:45:40Z</time>
      </trkpt>
      <trkpt lat="44.61669" lon="5.33385">
        <ele>698.3</ele>
        <time>2014-05-04T08:46:17Z</time>
      </trkpt>
      <trkpt lat="44.61651" lon="5.33393">
        <ele>696.55</ele>
        <time>2014-05-04T08:46:29Z</time>
      </trkpt>
      <trkpt lat="44.61634" lon="5.33402">
        <ele>696.55</ele>
        <time>2014-05-04T08:46:42Z</time>
      </trkpt>
      <trkpt lat="44.61643" lon="5.33425">
        <ele>693.32</ele>
        <time>2014-05-04T08:47:00Z</time>
      </trkpt>
      <trkpt lat="44.61661" lon="5.33432">
        <ele>689.94</ele>
        <time>2014-05-04T08:47:15Z</time>
      </trkpt>
      <trkpt lat="44.6168" lon="5.33439">
        <ele>686.58</ele>
        <time>2014-05-04T08:47:30Z</time>
      </trkpt>
      <trkpt lat="44.61697" lon="5.33449">
        <ele>684.47</ele>
        <time>2014-05-04T08:47:41Z</time>
      </trkpt>
      <trkpt lat="44.61713" lon="5.33462">
        <ele>682</ele>
        <time>2014-05-04T08:47:56Z</time>
      </trkpt>
      <trkpt lat="44.61728" lon="5.33477">
        <ele>678.78</ele>
        <time>2014-05-04T08:48:12Z</time>
      </trkpt>
      <trkpt lat="44.61743" lon="5.33492">
        <ele>676.74</ele>
        <time>2014-05-04T08:48:26Z</time>
      </trkpt>
      <trkpt lat="44.61758" lon="5.33506">
        <ele>673.22</ele>
        <time>2014-05-04T08:48:42Z</time>
      </trkpt>
      <trkpt lat="44.61772" lon="5.33522">
        <ele>671.02</ele>
        <time>2014-05-04T08:49:00Z</time>
      </trkpt>
      <trkpt lat="44.6179" lon="5.3353">
        <ele>671.73</ele>
        <time>2014-05-04T08:49:21Z</time>
      </trkpt>
      <trkpt lat="44.61807" lon="5.3354">
        <ele>672.22</ele>
        <time>2014-05-04T08:49:38Z</time>
      </trkpt>
      <trkpt lat="44.61823" lon="5.33552">
        <ele>673.68</ele>
        <time>2014-05-04T08:49:54Z</time>
      </trkpt>
      <trkpt lat="44.6184" lon="5.33559">
        <ele>675.05</ele>
        <time>2014-05-04T08:50:08Z</time>
      </trkpt>
      <trkpt lat="44.61858" lon="5.33564">
        <ele>677.58</ele>
        <time>2014-05-04T08:50:27Z</time>
      </trkpt>
      <trkpt lat="44.61877" lon="5.33563">
        <ele>678.42</ele>
        <time>2014-05-04T08:50:42Z</time>
      </trkpt>
      <trkpt lat="44.61895" lon="5.33558">
        <ele>678.87</ele>
        <time>2014-05-04T08:50:55Z</time>
      </trkpt>
      <trkpt lat="44.61913" lon="5.33555">
        <ele>678.9</ele>
        <time>2014-05-04T08:51:09Z</time>
      </trkpt>
      <trkpt lat="44.61931" lon="5.3355">
        <ele>678.74</ele>
        <time>2014-05-04T08:51:23Z</time>
      </trkpt>
      <trkpt lat="44.6195" lon="5.33547">
        <ele>677.41</ele>
        <time>2014-05-04T08:51:44Z</time>
      </trkpt>
      <trkpt lat="44.61967" lon="5.33555">
        <ele>676.07</ele>
        <time>2014-05-04T08:52:12Z</time>
      </trkpt>
      <trkpt lat="44.61959" lon="5.33578">
        <ele>675.7</ele>
        <time>2014-05-04T08:52:28Z</time>
      </trkpt>
      <trkpt lat="44.61949" lon="5.33599">
        <ele>678.05</ele>
        <time>2014-05-04T08:52:46Z</time>
      </trkpt>
      <trkpt lat="44.61942" lon="5.33622">
        <ele>679.54</ele>
        <time>2014-05-04T08:53:02Z</time>
      </trkpt>
      <trkpt lat="44.61929" lon="5.3364">
        <ele>680.22</ele>
        <time>2014-05-04T08:53:18Z</time>
      </trkpt>
      <trkpt lat="44.61918" lon="5.33661">
        <ele>682.1</ele>
        <time>2014-05-04T08:53:34Z</time>
      </trkpt>
      <trkpt lat="44.6191" lon="5.33684">
        <ele>684.4</ele>
        <time>2014-05-04T08:53:52Z</time>
      </trkpt>
      <trkpt lat="44.61902" lon="5.33708">
        <ele>685.91</ele>
        <time>2014-05-04T08:54:08Z</time>
      </trkpt>
      <trkpt lat="44.61897" lon="5.33732">
        <ele>686.74</ele>
        <time>2014-05-04T08:54:22Z</time>
      </trkpt>
      <trkpt lat="44.61896" lon="5.33758">
        <ele>687.48</ele>
        <time>2014-05-04T08:54:39Z</time>
      </trkpt>
      <trkpt lat="44.61893" lon="5.33784">
        <ele>688.22</ele>
        <time>2014-05-04T08:54:56Z</time>
      </trkpt>
      <trkpt lat="44.6189" lon="5.3381">
        <ele>688.81</ele>
        <time>2014-05-04T08:55:13Z</time>
      </trkpt>
      <trkpt lat="44.61886" lon="5.33836">
        <ele>688.93</ele>
        <time>2014-05-04T08:55:28Z</time>
      </trkpt>
      <trkpt lat="44.61882" lon="5.33862">
        <ele>691.97</ele>
        <time>2014-05-04T08:55:49Z</time>
      </trkpt>
      <trkpt lat="44.6188" lon="5.33887">
        <ele>694.77</ele>
        <time>2014-05-04T08:56:08Z</time>
      </trkpt>
      <trkpt lat="44.61881" lon="5.33913">
        <ele>696.61</ele>
        <time>2014-05-04T08:56:28Z</time>
      </trkpt>
      <trkpt lat="44.6188" lon="5.33939">
        <ele>696.47</ele>
        <time>2014-05-04T08:56:48Z</time>
      </trkpt>
      <trkpt lat="44.61874" lon="5.33963">
        <ele>699.23</ele>
        <time>2014-05-04T08:57:09Z</time>
      </trkpt>
      <trkpt lat="44.61866" lon="5.33986">
        <ele>700.48</ele>
        <time>2014-05-04T08:57:29Z</time>
      </trkpt>
      <trkpt lat="44.61857" lon="5.33964">
        <ele>700.43</ele>
        <time>2014-05-04T08:57:58Z</time>
      </trkpt>
      <trkpt lat="44.61853" lon="5.33939">
        <ele>700.43</ele>
        <time>2014-05-04T08:58:31Z</time>
      </trkpt>
      <trkpt lat="44.61844" lon="5.33917">
        <ele>703.93</ele>
        <time>2014-05-04T08:59:00Z</time>
      </trkpt>
      <trkpt lat="44.61831" lon="5.339">
        <ele>707.38</ele>
        <time>2014-05-04T08:59:23Z</time>
      </trkpt>
      <trkpt lat="44.61824" lon="5.33876">
        <ele>710.69</ele>
        <time>2014-05-04T08:59:44Z</time>
      </trkpt>
      <trkpt lat="44.61827" lon="5.3385">
        <ele>711.89</ele>
        <time>2014-05-04T09:00:07Z</time>
      </trkpt>
      <trkpt lat="44.61823" lon="5.33824">
        <ele>714.81</ele>
        <time>2014-05-04T09:00:30Z</time>
      </trkpt>
      <trkpt lat="44.61821" lon="5.33799">
        <ele>719.38</ele>
        <time>2014-05-04T09:00:52Z</time>
      </trkpt>
      <trkpt lat="44.61808" lon="5.33782">
        <ele>723.45</ele>
        <time>2014-05-04T09:02:21Z</time>
      </trkpt>
      <trkpt lat="44.61823" lon="5.33799">
        <ele>724.57</ele>
        <time>2014-05-04T09:03:29Z</time>
      </trkpt>
      <trkpt lat="44.61819" lon="5.33825">
        <ele>724.01</ele>
        <time>2014-05-04T09:03:44Z</time>
      </trkpt>
      <trkpt lat="44.61822" lon="5.33851">
        <ele>722.81</ele>
        <time>2014-05-04T09:04:00Z</time>
      </trkpt>
      <trkpt lat="44.6182" lon="5.33878">
        <ele>719.34</ele>
        <time>2014-05-04T09:04:16Z</time>
      </trkpt>
      <trkpt lat="44.61828" lon="5.33901">
        <ele>716.38</ele>
        <time>2014-05-04T09:04:32Z</time>
      </trkpt>
      <trkpt lat="44.61844" lon="5.33914">
        <ele>713.53</ele>
        <time>2014-05-04T09:04:46Z</time>
      </trkpt>
      <trkpt lat="44.61856" lon="5.33934">
        <ele>710.41</ele>
        <time>2014-05-04T09:04:59Z</time>
      </trkpt>
      <trkpt lat="44.6186" lon="5.33961">
        <ele>708.18</ele>
        <time>2014-05-04T09:05:14Z</time>
      </trkpt>
      <trkpt lat="44.61866" lon="5.33985">
        <ele>709.92</ele>
        <time>2014-05-04T09:05:26Z</time>
      </trkpt>
      <trkpt lat="44.61876" lon="5.33964">
        <ele>707.02</ele>
        <time>2014-05-04T09:05:50Z</time>
      </trkpt>
      <trkpt lat="44.61884" lon="5.33939">
        <ele>705.33</ele>
        <time>2014-05-04T09:06:04Z</time>
      </trkpt>
      <trkpt lat="44.61889" lon="5.33914">
        <ele>704.45</ele>
        <time>2014-05-04T09:06:17Z</time>
      </trkpt>
      <trkpt lat="44.61887" lon="5.33889">
        <ele>703.5</ele>
        <time>2014-05-04T09:06:33Z</time>
      </trkpt>
      <trkpt lat="44.61902" lon="5.33904">
        <ele>696.55</ele>
        <time>2014-05-04T09:08:06Z</time>
      </trkpt>
      <trkpt lat="44.61921" lon="5.33907">
        <ele>696.47</ele>
        <time>2014-05-04T09:08:26Z</time>
      </trkpt>
      <trkpt lat="44.61937" lon="5.33896">
        <ele>696.58</ele>
        <time>2014-05-04T09:08:45Z</time>
      </trkpt>
      <trkpt lat="44.61949" lon="5.33877">
        <ele>696.63</ele>
        <time>2014-05-04T09:09:04Z</time>
      </trkpt>
      <trkpt lat="44.6196" lon="5.33854">
        <ele>696.31</ele>
        <time>2014-05-04T09:09:23Z</time>
      </trkpt>
      <trkpt lat="44.61973" lon="5.33836">
        <ele>696.94</ele>
        <time>2014-05-04T09:09:38Z</time>
      </trkpt>
      <trkpt lat="44.61984" lon="5.33815">
        <ele>696.96</ele>
        <time>2014-05-04T09:09:55Z</time>
      </trkpt>
      <trkpt lat="44.61997" lon="5.33798">
        <ele>697.07</ele>
        <time>2014-05-04T09:10:18Z</time>
      </trkpt>
      <trkpt lat="44.62011" lon="5.33782">
        <ele>696.86</ele>
        <time>2014-05-04T09:10:32Z</time>
      </trkpt>
      <trkpt lat="44.62026" lon="5.33766">
        <ele>697.02</ele>
        <time>2014-05-04T09:10:45Z</time>
      </trkpt>
      <trkpt lat="44.62045" lon="5.33762">
        <ele>697.17</ele>
        <time>2014-05-04T09:10:59Z</time>
      </trkpt>
      <trkpt lat="44.62052" lon="5.33786">
        <ele>696.65</ele>
        <time>2014-05-04T09:11:15Z</time>
      </trkpt>
      <trkpt lat="44.62052" lon="5.33811">
        <ele>695.48</ele>
        <time>2014-05-04T09:11:29Z</time>
      </trkpt>
      <trkpt lat="44.62053" lon="5.33838">
        <ele>694.43</ele>
        <time>2014-05-04T09:11:44Z</time>
      </trkpt>
      <trkpt lat="44.62054" lon="5.33864">
        <ele>693.41</ele>
        <time>2014-05-04T09:11:59Z</time>
      </trkpt>
      <trkpt lat="44.62055" lon="5.3389">
        <ele>691.62</ele>
        <time>2014-05-04T09:12:11Z</time>
      </trkpt>
      <trkpt lat="44.6206" lon="5.33915">
        <ele>689.93</ele>
        <time>2014-05-04T09:12:25Z</time>
      </trkpt>
      <trkpt lat="44.62067" lon="5.3394">
        <ele>687.99</ele>
        <time>2014-05-04T09:12:40Z</time>
      </trkpt>
      <trkpt lat="44.62071" lon="5.33966">
        <ele>685.33</ele>
        <time>2014-05-04T09:12:56Z</time>
      </trkpt>
      <trkpt lat="44.62073" lon="5.33992">
        <ele>682.55</ele>
        <time>2014-05-04T09:13:11Z</time>
      </trkpt>
      <trkpt lat="44.62075" lon="5.34017">
        <ele>682.2</ele>
        <time>2014-05-04T09:13:23Z</time>
      </trkpt>
      <trkpt lat="44.62073" lon="5.34044">
        <ele>680.66</ele>
        <time>2014-05-04T09:13:40Z</time>
      </trkpt>
      <trkpt lat="44.62074" lon="5.3407">
        <ele>679.67</ele>
        <time>2014-05-04T09:13:53Z</time>
      </trkpt>
      <trkpt lat="44.62071" lon="5.34096">
        <ele>677.61</ele>
        <time>2014-05-04T09:14:08Z</time>
      </trkpt>
      <trkpt lat="44.6208" lon="5.34119">
        <ele>674.28</ele>
        <time>2014-05-04T09:14:22Z</time>
      </trkpt>
      <trkpt lat="44.62091" lon="5.34139">
        <ele>672.43</ele>
        <time>2014-05-04T09:14:36Z</time>
      </trkpt>
      <trkpt lat="44.62102" lon="5.34164">
        <ele>672.07</ele>
        <time>2014-05-04T09:14:50Z</time>
      </trkpt>
      <trkpt lat="44.62105" lon="5.3419">
        <ele>669.83</ele>
        <time>2014-05-04T09:15:29Z</time>
      </trkpt>
      <trkpt lat="44.6211" lon="5.34214">
        <ele>667.54</ele>
        <time>2014-05-04T09:15:47Z</time>
      </trkpt>
      <trkpt lat="44.62104" lon="5.34239">
        <ele>663.76</ele>
        <time>2014-05-04T09:16:11Z</time>
      </trkpt>
      <trkpt lat="44.62109" lon="5.34265">
        <ele>662.12</ele>
        <time>2014-05-04T09:16:28Z</time>
      </trkpt>
      <trkpt lat="44.6212" lon="5.34286">
        <ele>660.69</ele>
        <time>2014-05-04T09:16:45Z</time>
      </trkpt>
      <trkpt lat="44.6213" lon="5.34309">
        <ele>659.32</ele>
        <time>2014-05-04T09:17:01Z</time>
      </trkpt>
      <trkpt lat="44.62135" lon="5.34333">
        <ele>656.58</ele>
        <time>2014-05-04T09:17:15Z</time>
      </trkpt>
      <trkpt lat="44.6214" lon="5.34358">
        <ele>653.22</ele>
        <time>2014-05-04T09:17:30Z</time>
      </trkpt>
      <trkpt lat="44.62129" lon="5.3438">
        <ele>650.51</ele>
        <time>2014-05-04T09:17:47Z</time>
      </trkpt>
      <trkpt lat="44.62115" lon="5.34397">
        <ele>648.68</ele>
        <time>2014-05-04T09:18:03Z</time>
      </trkpt>
      <trkpt lat="44.62127" lon="5.34417">
        <ele>644.74</ele>
        <time>2014-05-04T09:18:38Z</time>
      </trkpt>
      <trkpt lat="44.62143" lon="5.34431">
        <ele>640.42</ele>
        <time>2014-05-04T09:18:59Z</time>
      </trkpt>
      <trkpt lat="44.62157" lon="5.34447">
        <ele>639.13</ele>
        <time>2014-05-04T09:19:15Z</time>
      </trkpt>
      <trkpt lat="44.62159" lon="5.34473">
        <ele>639.16</ele>
        <time>2014-05-04T09:19:31Z</time>
      </trkpt>
      <trkpt lat="44.62159" lon="5.34499">
        <ele>638.64</ele>
        <time>2014-05-04T09:19:45Z</time>
      </trkpt>
      <trkpt lat="44.62164" lon="5.34524">
        <ele>637.81</ele>
        <time>2014-05-04T09:20:05Z</time>
      </trkpt>
      <trkpt lat="44.62173" lon="5.34546">
        <ele>637.3</ele>
        <time>2014-05-04T09:20:19Z</time>
      </trkpt>
      <trkpt lat="44.62178" lon="5.34571">
        <ele>637.54</ele>
        <time>2014-05-04T09:20:35Z</time>
      </trkpt>
      <trkpt lat="44.62187" lon="5.34595">
        <ele>637.98</ele>
        <time>2014-05-04T09:20:51Z</time>
      </trkpt>
      <trkpt lat="44.62199" lon="5.34614">
        <ele>638.57</ele>
        <time>2014-05-04T09:21:04Z</time>
      </trkpt>
      <trkpt lat="44.62214" lon="5.34632">
        <ele>640.21</ele>
        <time>2014-05-04T09:21:18Z</time>
      </trkpt>
      <trkpt lat="44.62226" lon="5.3465">
        <ele>641.33</ele>
        <time>2014-05-04T09:21:32Z</time>
      </trkpt>
      <trkpt lat="44.62241" lon="5.34665">
        <ele>642.2</ele>
        <time>2014-05-04T09:21:48Z</time>
      </trkpt>
      <trkpt lat="44.6226" lon="5.34669">
        <ele>643.16</ele>
        <time>2014-05-04T09:22:03Z</time>
      </trkpt>
      <trkpt lat="44.62267" lon="5.34692">
        <ele>644.89</ele>
        <time>2014-05-04T09:22:52Z</time>
      </trkpt>
      <trkpt lat="44.62265" lon="5.34718">
        <ele>642.36</ele>
        <time>2014-05-04T09:23:33Z</time>
      </trkpt>
      <trkpt lat="44.62257" lon="5.34741">
        <ele>640.35</ele>
        <time>2014-05-04T09:24:09Z</time>
      </trkpt>
      <trkpt lat="44.6225" lon="5.34765">
        <ele>642.58</ele>
        <time>2014-05-04T09:24:35Z</time>
      </trkpt>
      <trkpt lat="44.6225" lon="5.3479">
        <ele>645.07</ele>
        <time>2014-05-04T09:25:29Z</time>
      </trkpt>
      <trkpt lat="44.62266" lon="5.34777">
        <ele>646.51</ele>
        <time>2014-05-04T09:26:06Z</time>
      </trkpt>
      <trkpt lat="44.62284" lon="5.34769">
        <ele>652.62</ele>
        <time>2014-05-04T09:26:44Z</time>
      </trkpt>
      <trkpt lat="44.62302" lon="5.34765">
        <ele>654.62</ele>
        <time>2014-05-04T09:27:12Z</time>
      </trkpt>
      <trkpt lat="44.62319" lon="5.34757">
        <ele>660.86</ele>
        <time>2014-05-04T09:27:48Z</time>
      </trkpt>
      <trkpt lat="44.62336" lon="5.34751">
        <ele>667.19</ele>
        <time>2014-05-04T09:28:23Z</time>
      </trkpt>
      <trkpt lat="44.62352" lon="5.34737">
        <ele>672.18</ele>
        <time>2014-05-04T09:28:54Z</time>
      </trkpt>
      <trkpt lat="44.62368" lon="5.34726">
        <ele>676.81</ele>
        <time>2014-05-04T09:29:31Z</time>
      </trkpt>
      <trkpt lat="44.62374" lon="5.34701">
        <ele>682.14</ele>
        <time>2014-05-04T09:30:08Z</time>
      </trkpt>
      <trkpt lat="44.62384" lon="5.3468">
        <ele>685.16</ele>
        <time>2014-05-04T09:30:32Z</time>
      </trkpt>
      <trkpt lat="44.62394" lon="5.34658">
        <ele>689.58</ele>
        <time>2014-05-04T09:31:01Z</time>
      </trkpt>
      <trkpt lat="44.62401" lon="5.34634">
        <ele>693.79</ele>
        <time>2014-05-04T09:31:39Z</time>
      </trkpt>
      <trkpt lat="44.62406" lon="5.34609">
        <ele>697.46</ele>
        <time>2014-05-04T09:32:11Z</time>
      </trkpt>
      <trkpt lat="44.62407" lon="5.34584">
        <ele>699.49</ele>
        <time>2014-05-04T09:32:44Z</time>
      </trkpt>
      <trkpt lat="44.62407" lon="5.34558">
        <ele>701.13</ele>
        <time>2014-05-04T09:33:08Z</time>
      </trkpt>
      <trkpt lat="44.62397" lon="5.34537">
        <ele>706.91</ele>
        <time>2014-05-04T09:33:42Z</time>
      </trkpt>
      <trkpt lat="44.6239" lon="5.34513">
        <ele>709.44</ele>
        <time>2014-05-04T09:34:19Z</time>
      </trkpt>
      <trkpt lat="44.62384" lon="5.34489">
        <ele>711.28</ele>
        <time>2014-05-04T09:35:08Z</time>
      </trkpt>
      <trkpt lat="44.62385" lon="5.34462">
        <ele>715.17</ele>
        <time>2014-05-04T09:36:04Z</time>
      </trkpt>
      <trkpt lat="44.62386" lon="5.34437">
        <ele>716.49</ele>
        <time>2014-05-04T09:36:25Z</time>
      </trkpt>
      <trkpt lat="44.62395" lon="5.34414">
        <ele>719.1</ele>
        <time>2014-05-04T09:36:50Z</time>
      </trkpt>
      <trkpt lat="44.62412" lon="5.34405">
        <ele>723.28</ele>
        <time>2014-05-04T09:37:15Z</time>
      </trkpt>
      <trkpt lat="44.62424" lon="5.34425">
        <ele>728.41</ele>
        <time>2014-05-04T09:41:49Z</time>
      </trkpt>
      <trkpt lat="44.62431" lon="5.34449">
        <ele>728.79</ele>
        <time>2014-05-04T09:42:11Z</time>
      </trkpt>
      <trkpt lat="44.62443" lon="5.34469">
        <ele>729.46</ele>
        <time>2014-05-04T09:42:43Z</time>
      </trkpt>
      <trkpt lat="44.62455" lon="5.34488">
        <ele>733.01</ele>
        <time>2014-05-04T09:46:19Z</time>
      </trkpt>
      <trkpt lat="44.62444" lon="5.34467">
        <ele>733.59</ele>
        <time>2014-05-04T09:47:39Z</time>
      </trkpt>
      <trkpt lat="44.62431" lon="5.34448">
        <ele>733.69</ele>
        <time>2014-05-04T09:48:00Z</time>
      </trkpt>
      <trkpt lat="44.62425" lon="5.34425">
        <ele>733.51</ele>
        <time>2014-05-04T09:48:17Z</time>
      </trkpt>
      <trkpt lat="44.62417" lon="5.34401">
        <ele>733.2</ele>
        <time>2014-05-04T09:48:45Z</time>
      </trkpt>
      <trkpt lat="44.62407" lon="5.34381">
        <ele>733.13</ele>
        <time>2014-05-04T09:49:21Z</time>
      </trkpt>
      <trkpt lat="44.62399" lon="5.34358">
        <ele>729.87</ele>
        <time>2014-05-04T09:50:09Z</time>
      </trkpt>
      <trkpt lat="44.62388" lon="5.34336">
        <ele>729.51</ele>
        <time>2014-05-04T09:50:32Z</time>
      </trkpt>
      <trkpt lat="44.62373" lon="5.34322">
        <ele>730.6</ele>
        <time>2014-05-04T09:51:46Z</time>
      </trkpt>
      <trkpt lat="44.6236" lon="5.34305">
        <ele>729.65</ele>
        <time>2014-05-04T09:52:09Z</time>
      </trkpt>
      <trkpt lat="44.62352" lon="5.34281">
        <ele>727.52</ele>
        <time>2014-05-04T09:52:25Z</time>
      </trkpt>
      <trkpt lat="44.62353" lon="5.34256">
        <ele>724.88</ele>
        <time>2014-05-04T09:52:41Z</time>
      </trkpt>
      <trkpt lat="44.62359" lon="5.34232">
        <ele>722.98</ele>
        <time>2014-05-04T09:52:55Z</time>
      </trkpt>
      <trkpt lat="44.62366" lon="5.34207">
        <ele>721.6</ele>
        <time>2014-05-04T09:53:14Z</time>
      </trkpt>
      <trkpt lat="44.62373" lon="5.34183">
        <ele>720.1</ele>
        <time>2014-05-04T09:53:29Z</time>
      </trkpt>
      <trkpt lat="44.62377" lon="5.34158">
        <ele>718.58</ele>
        <time>2014-05-04T09:53:49Z</time>
      </trkpt>
      <trkpt lat="44.62385" lon="5.34135">
        <ele>717.09</ele>
        <time>2014-05-04T09:54:51Z</time>
      </trkpt>
      <trkpt lat="44.62398" lon="5.34116">
        <ele>717.13</ele>
        <time>2014-05-04T09:55:07Z</time>
      </trkpt>
      <trkpt lat="44.62412" lon="5.34098">
        <ele>716.32</ele>
        <time>2014-05-04T09:55:21Z</time>
      </trkpt>
      <trkpt lat="44.62428" lon="5.34085">
        <ele>715.34</ele>
        <time>2014-05-04T09:55:36Z</time>
      </trkpt>
      <trkpt lat="44.62446" lon="5.34078">
        <ele>717.67</ele>
        <time>2014-05-04T09:55:53Z</time>
      </trkpt>
      <trkpt lat="44.62457" lon="5.34058">
        <ele>717.17</ele>
        <time>2014-05-04T09:56:13Z</time>
      </trkpt>
      <trkpt lat="44.62458" lon="5.34032">
        <ele>714.16</ele>
        <time>2014-05-04T09:56:31Z</time>
      </trkpt>
      <trkpt lat="44.62462" lon="5.34007">
        <ele>709.32</ele>
        <time>2014-05-04T09:56:51Z</time>
      </trkpt>
      <trkpt lat="44.62465" lon="5.33981">
        <ele>703.82</ele>
        <time>2014-05-04T09:57:13Z</time>
      </trkpt>
      <trkpt lat="44.62467" lon="5.33955">
        <ele>698.96</ele>
        <time>2014-05-04T09:57:35Z</time>
      </trkpt>
      <trkpt lat="44.62467" lon="5.33929">
        <ele>693.2</ele>
        <time>2014-05-04T09:57:58Z</time>
      </trkpt>
      <trkpt lat="44.62468" lon="5.33904">
        <ele>687.42</ele>
        <time>2014-05-04T09:58:24Z</time>
      </trkpt>
      <trkpt lat="44.62475" lon="5.3388">
        <ele>681.08</ele>
        <time>2014-05-04T09:58:46Z</time>
      </trkpt>
      <trkpt lat="44.62469" lon="5.33855">
        <ele>672.47</ele>
        <time>2014-05-04T09:59:27Z</time>
      </trkpt>
      <trkpt lat="44.62485" lon="5.33844">
        <ele>669.46</ele>
        <time>2014-05-04T09:59:43Z</time>
      </trkpt>
      <trkpt lat="44.62488" lon="5.33818">
        <ele>662.47</ele>
        <time>2014-05-04T10:00:17Z</time>
      </trkpt>
      <trkpt lat="44.62492" lon="5.33793">
        <ele>656.45</ele>
        <time>2014-05-04T10:00:47Z</time>
      </trkpt>
      <trkpt lat="44.62491" lon="5.33766">
        <ele>649.31</ele>
        <time>2014-05-04T10:01:17Z</time>
      </trkpt>
      <trkpt lat="44.62499" lon="5.33743">
        <ele>642.02</ele>
        <time>2014-05-04T10:01:50Z</time>
      </trkpt>
      <trkpt lat="44.62512" lon="5.33764">
        <ele>639.04</ele>
        <time>2014-05-04T10:02:05Z</time>
      </trkpt>
      <trkpt lat="44.62512" lon="5.33737">
        <ele>629.61</ele>
        <time>2014-05-04T10:02:49Z</time>
      </trkpt>
      <trkpt lat="44.62506" lon="5.33713">
        <ele>625.91</ele>
        <time>2014-05-04T10:03:06Z</time>
      </trkpt>
      <trkpt lat="44.62499" lon="5.33689">
        <ele>617.51</ele>
        <time>2014-05-04T10:03:46Z</time>
      </trkpt>
      <trkpt lat="44.62509" lon="5.33668">
        <ele>609.78</ele>
        <time>2014-05-04T10:04:18Z</time>
      </trkpt>
      <trkpt lat="44.62513" lon="5.33643">
        <ele>599.92</ele>
        <time>2014-05-04T10:04:55Z</time>
      </trkpt>
      <trkpt lat="44.62509" lon="5.33617">
        <ele>587.04</ele>
        <time>2014-05-04T10:06:39Z</time>
      </trkpt>
      <trkpt lat="44.62526" lon="5.33608">
        <ele>583.64</ele>
        <time>2014-05-04T10:07:00Z</time>
      </trkpt>
      <trkpt lat="44.62522" lon="5.33582">
        <ele>578.95</ele>
        <time>2014-05-04T10:07:22Z</time>
      </trkpt>
      <trkpt lat="44.62508" lon="5.33565">
        <ele>572.96</ele>
        <time>2014-05-04T10:07:54Z</time>
      </trkpt>
      <trkpt lat="44.62523" lon="5.33549">
        <ele>568.66</ele>
        <time>2014-05-04T10:08:11Z</time>
      </trkpt>
      <trkpt lat="44.62542" lon="5.33545">
        <ele>565.83</ele>
        <time>2014-05-04T10:08:22Z</time>
      </trkpt>
      <trkpt lat="44.62532" lon="5.33522">
        <ele>558.37</ele>
        <time>2014-05-04T10:08:43Z</time>
      </trkpt>
      <trkpt lat="44.62549" lon="5.33518">
        <ele>550.27</ele>
        <time>2014-05-04T10:09:10Z</time>
      </trkpt>
      <trkpt lat="44.62568" lon="5.33524">
        <ele>541.27</ele>
        <time>2014-05-04T10:09:37Z</time>
      </trkpt>
      <trkpt lat="44.62576" lon="5.33501">
        <ele>533.06</ele>
        <time>2014-05-04T10:10:03Z</time>
      </trkpt>
      <trkpt lat="44.6256" lon="5.33489">
        <ele>527.72</ele>
        <time>2014-05-04T10:10:20Z</time>
      </trkpt>
      <trkpt lat="44.62578" lon="5.33495">
        <ele>522.37</ele>
        <time>2014-05-04T10:10:48Z</time>
      </trkpt>
      <trkpt lat="44.62593" lon="5.3348">
        <ele>514.64</ele>
        <time>2014-05-04T10:12:16Z</time>
      </trkpt>
      <trkpt lat="44.62604" lon="5.3346">
        <ele>514.65</ele>
        <time>2014-05-04T10:12:47Z</time>
      </trkpt>
      <trkpt lat="44.62589" lon="5.33475">
        <ele>510.59</ele>
        <time>2014-05-04T10:13:33Z</time>
      </trkpt>
      <trkpt lat="44.6259" lon="5.33501">
        <ele>509.38</ele>
        <time>2014-05-04T10:14:33Z</time>
      </trkpt>
      <trkpt lat="44.62609" lon="5.33503">
        <ele>510.42</ele>
        <time>2014-05-04T10:15:04Z</time>
      </trkpt>
      <trkpt lat="44.62619" lon="5.33482">
        <ele>512.76</ele>
        <time>2014-05-04T10:15:30Z</time>
      </trkpt>
      <trkpt lat="44.62629" lon="5.3346">
        <ele>513.66</ele>
        <time>2014-05-04T10:15:51Z</time>
      </trkpt>
      <trkpt lat="44.62629" lon="5.33434">
        <ele>513.14</ele>
        <time>2014-05-04T10:16:24Z</time>
      </trkpt>
      <trkpt lat="44.62627" lon="5.33409">
        <ele>510.76</ele>
        <time>2014-05-04T10:16:51Z</time>
      </trkpt>
      <trkpt lat="44.62621" lon="5.33384">
        <ele>510.47</ele>
        <time>2014-05-04T10:17:05Z</time>
      </trkpt>
      <trkpt lat="44.6263" lon="5.33361">
        <ele>509.09</ele>
        <time>2014-05-04T10:17:25Z</time>
      </trkpt>
      <trkpt lat="44.62645" lon="5.33346">
        <ele>511.38</ele>
        <time>2014-05-04T10:18:21Z</time>
      </trkpt>
      <trkpt lat="44.62646" lon="5.3332">
        <ele>513.24</ele>
        <time>2014-05-04T10:18:45Z</time>
      </trkpt>
      <trkpt lat="44.62649" lon="5.33294">
        <ele>516.41</ele>
        <time>2014-05-04T10:19:13Z</time>
      </trkpt>
      <trkpt lat="44.62637" lon="5.33274">
        <ele>517.58</ele>
        <time>2014-05-04T10:19:39Z</time>
      </trkpt>
      <trkpt lat="44.62626" lon="5.33255">
        <ele>520.01</ele>
        <time>2014-05-04T10:20:05Z</time>
      </trkpt>
      <trkpt lat="44.62612" lon="5.33237">
        <ele>522.44</ele>
        <time>2014-05-04T10:20:28Z</time>
      </trkpt>
      <trkpt lat="44.62594" lon="5.33236">
        <ele>527.48</ele>
        <time>2014-05-04T10:20:51Z</time>
      </trkpt>
      <trkpt lat="44.62581" lon="5.33219">
        <ele>533.49</ele>
        <time>2014-05-04T10:21:21Z</time>
      </trkpt>
      <trkpt lat="44.62567" lon="5.33202">
        <ele>537.05</ele>
        <time>2014-05-04T10:21:48Z</time>
      </trkpt>
      <trkpt lat="44.62555" lon="5.33183">
        <ele>539.59</ele>
        <time>2014-05-04T10:22:14Z</time>
      </trkpt>
      <trkpt lat="44.6254" lon="5.33168">
        <ele>542.46</ele>
        <time>2014-05-04T10:22:41Z</time>
      </trkpt>
      <trkpt lat="44.62524" lon="5.33155">
        <ele>545.25</ele>
        <time>2014-05-04T10:23:08Z</time>
      </trkpt>
      <trkpt lat="44.62508" lon="5.33143">
        <ele>549.01</ele>
        <time>2014-05-04T10:23:36Z</time>
      </trkpt>
      <trkpt lat="44.62519" lon="5.33123">
        <ele>557.69</ele>
        <time>2014-05-04T10:24:43Z</time>
      </trkpt>
      <trkpt lat="44.62537" lon="5.33122">
        <ele>561.89</ele>
        <time>2014-05-04T10:25:08Z</time>
      </trkpt>
      <trkpt lat="44.62554" lon="5.33112">
        <ele>567.51</ele>
        <time>2014-05-04T10:25:39Z</time>
      </trkpt>
      <trkpt lat="44.62573" lon="5.33106">
        <ele>571.21</ele>
        <time>2014-05-04T10:26:20Z</time>
      </trkpt>
      <trkpt lat="44.62591" lon="5.33102">
        <ele>573.8</ele>
        <time>2014-05-04T10:26:49Z</time>
      </trkpt>
      <trkpt lat="44.62609" lon="5.33104">
        <ele>589.16</ele>
        <time>2014-05-04T10:30:47Z</time>
      </trkpt>
      <trkpt lat="44.62627" lon="5.33107">
        <ele>586.48</ele>
        <time>2014-05-04T10:31:25Z</time>
      </trkpt>
      <trkpt lat="44.62643" lon="5.33119">
        <ele>587.6</ele>
        <time>2014-05-04T10:32:01Z</time>
      </trkpt>
      <trkpt lat="44.62662" lon="5.33118">
        <ele>592.21</ele>
        <time>2014-05-04T10:32:45Z</time>
      </trkpt>
      <trkpt lat="44.62679" lon="5.33111">
        <ele>594.5</ele>
        <time>2014-05-04T10:33:26Z</time>
      </trkpt>
      <trkpt lat="44.62697" lon="5.33107">
        <ele>596.77</ele>
        <time>2014-05-04T10:33:46Z</time>
      </trkpt>
      <trkpt lat="44.62713" lon="5.33092">
        <ele>600.08</ele>
        <time>2014-05-04T10:34:12Z</time>
      </trkpt>
      <trkpt lat="44.62728" lon="5.33108">
        <ele>603.5</ele>
        <time>2014-05-04T10:34:37Z</time>
      </trkpt>
      <trkpt lat="44.62745" lon="5.33102">
        <ele>607.44</ele>
        <time>2014-05-04T10:35:03Z</time>
      </trkpt>
      <trkpt lat="44.62761" lon="5.3309">
        <ele>616.23</ele>
        <time>2014-05-04T10:35:44Z</time>
      </trkpt>
      <trkpt lat="44.62778" lon="5.3308">
        <ele>618.82</ele>
        <time>2014-05-04T10:36:13Z</time>
      </trkpt>
      <trkpt lat="44.62797" lon="5.33073">
        <ele>622.82</ele>
        <time>2014-05-04T10:36:40Z</time>
      </trkpt>
      <trkpt lat="44.62814" lon="5.33066">
        <ele>629.23</ele>
        <time>2014-05-04T10:37:16Z</time>
      </trkpt>
      <trkpt lat="44.62832" lon="5.3306">
        <ele>633.52</ele>
        <time>2014-05-04T10:37:44Z</time>
      </trkpt>
      <trkpt lat="44.62851" lon="5.33054">
        <ele>635.78</ele>
        <time>2014-05-04T10:38:11Z</time>
      </trkpt>
      <trkpt lat="44.62869" lon="5.33057">
        <ele>639.49</ele>
        <time>2014-05-04T10:38:47Z</time>
      </trkpt>
      <trkpt lat="44.62885" lon="5.33046">
        <ele>649.66</ele>
        <time>2014-05-04T11:29:23Z</time>
      </trkpt>
      <trkpt lat="44.62903" lon="5.33055">
        <ele>649.94</ele>
        <time>2014-05-04T11:29:40Z</time>
      </trkpt>
      <trkpt lat="44.6292" lon="5.33066">
        <ele>649.97</ele>
        <time>2014-05-04T11:29:55Z</time>
      </trkpt>
      <trkpt lat="44.62934" lon="5.33084">
        <ele>649.89</ele>
        <time>2014-05-04T11:30:12Z</time>
      </trkpt>
      <trkpt lat="44.62946" lon="5.33104">
        <ele>650.01</ele>
        <time>2014-05-04T11:30:26Z</time>
      </trkpt>
      <trkpt lat="44.6296" lon="5.3312">
        <ele>650.41</ele>
        <time>2014-05-04T11:30:45Z</time>
      </trkpt>
      <trkpt lat="44.62978" lon="5.33123">
        <ele>650.8</ele>
        <time>2014-05-04T11:31:02Z</time>
      </trkpt>
      <trkpt lat="44.62997" lon="5.33125">
        <ele>650.89</ele>
        <time>2014-05-04T11:31:15Z</time>
      </trkpt>
      <trkpt lat="44.63015" lon="5.33129">
        <ele>650.9</ele>
        <time>2014-05-04T11:31:25Z</time>
      </trkpt>
      <trkpt lat="44.63034" lon="5.33132">
        <ele>650.99</ele>
        <time>2014-05-04T11:31:45Z</time>
      </trkpt>
      <trkpt lat="44.63053" lon="5.33132">
        <ele>651.24</ele>
        <time>2014-05-04T11:32:01Z</time>
      </trkpt>
      <trkpt lat="44.63071" lon="5.3313">
        <ele>651.56</ele>
        <time>2014-05-04T11:32:14Z</time>
      </trkpt>
      <trkpt lat="44.6309" lon="5.33134">
        <ele>651.95</ele>
        <time>2014-05-04T11:32:30Z</time>
      </trkpt>
      <trkpt lat="44.63109" lon="5.33139">
        <ele>652.36</ele>
        <time>2014-05-04T11:32:46Z</time>
      </trkpt>
      <trkpt lat="44.63126" lon="5.33147">
        <ele>652.7</ele>
        <time>2014-05-04T11:33:04Z</time>
      </trkpt>
      <trkpt lat="44.63143" lon="5.33156">
        <ele>652.97</ele>
        <time>2014-05-04T11:33:18Z</time>
      </trkpt>
      <trkpt lat="44.63161" lon="5.33162">
        <ele>653.29</ele>
        <time>2014-05-04T11:33:33Z</time>
      </trkpt>
      <trkpt lat="44.63177" lon="5.33151">
        <ele>654.65</ele>
        <time>2014-05-04T11:34:10Z</time>
      </trkpt>
      <trkpt lat="44.63197" lon="5.33152">
        <ele>655.14</ele>
        <time>2014-05-04T11:34:36Z</time>
      </trkpt>
      <trkpt lat="44.63214" lon="5.3316">
        <ele>655.33</ele>
        <time>2014-05-04T11:34:51Z</time>
      </trkpt>
      <trkpt lat="44.63231" lon="5.3317">
        <ele>655.21</ele>
        <time>2014-05-04T11:35:10Z</time>
      </trkpt>
      <trkpt lat="44.63248" lon="5.33179">
        <ele>654.93</ele>
        <time>2014-05-04T11:35:24Z</time>
      </trkpt>
      <trkpt lat="44.63264" lon="5.33191">
        <ele>653.92</ele>
        <time>2014-05-04T11:35:32Z</time>
      </trkpt>
      <trkpt lat="44.6328" lon="5.33209">
        <ele>651.93</ele>
        <time>2014-05-04T11:35:48Z</time>
      </trkpt>
      <trkpt lat="44.63299" lon="5.33208">
        <ele>650.9</ele>
        <time>2014-05-04T11:36:05Z</time>
      </trkpt>
      <trkpt lat="44.63312" lon="5.3319">
        <ele>648.86</ele>
        <time>2014-05-04T11:36:18Z</time>
      </trkpt>
      <trkpt lat="44.63328" lon="5.33176">
        <ele>645.02</ele>
        <time>2014-05-04T11:36:37Z</time>
      </trkpt>
      <trkpt lat="44.63346" lon="5.33183">
        <ele>642.02</ele>
        <time>2014-05-04T11:36:54Z</time>
      </trkpt>
      <trkpt lat="44.63365" lon="5.33181">
        <ele>637</ele>
        <time>2014-05-04T11:37:15Z</time>
      </trkpt>
      <trkpt lat="44.63363" lon="5.33154">
        <ele>634.02</ele>
        <time>2014-05-04T11:37:47Z</time>
      </trkpt>
      <trkpt lat="44.63356" lon="5.33131">
        <ele>632.49</ele>
        <time>2014-05-04T11:38:05Z</time>
      </trkpt>
      <trkpt lat="44.63345" lon="5.33109">
        <ele>630.75</ele>
        <time>2014-05-04T11:38:26Z</time>
      </trkpt>
      <trkpt lat="44.63332" lon="5.33091">
        <ele>631.29</ele>
        <time>2014-05-04T11:38:51Z</time>
      </trkpt>
      <trkpt lat="44.6335" lon="5.33088">
        <ele>638.33</ele>
        <time>2014-05-04T11:39:48Z</time>
      </trkpt>
      <trkpt lat="44.63367" lon="5.33075">
        <ele>641.62</ele>
        <time>2014-05-04T11:40:09Z</time>
      </trkpt>
      <trkpt lat="44.63383" lon="5.33062">
        <ele>643.86</ele>
        <time>2014-05-04T11:40:25Z</time>
      </trkpt>
      <trkpt lat="44.63403" lon="5.33058">
        <ele>644.49</ele>
        <time>2014-05-04T11:40:41Z</time>
      </trkpt>
      <trkpt lat="44.63418" lon="5.33044">
        <ele>644.98</ele>
        <time>2014-05-04T11:40:55Z</time>
      </trkpt>
      <trkpt lat="44.63436" lon="5.33035">
        <ele>645.13</ele>
        <time>2014-05-04T11:41:13Z</time>
      </trkpt>
      <trkpt lat="44.63448" lon="5.33017">
        <ele>646.96</ele>
        <time>2014-05-04T11:41:35Z</time>
      </trkpt>
      <trkpt lat="44.6346" lon="5.32997">
        <ele>649.1</ele>
        <time>2014-05-04T11:42:01Z</time>
      </trkpt>
      <trkpt lat="44.63477" lon="5.32986">
        <ele>652.69</ele>
        <time>2014-05-04T11:42:21Z</time>
      </trkpt>
      <trkpt lat="44.63485" lon="5.32963">
        <ele>656.16</ele>
        <time>2014-05-04T11:42:47Z</time>
      </trkpt>
      <trkpt lat="44.63487" lon="5.32937">
        <ele>655.71</ele>
        <time>2014-05-04T11:43:08Z</time>
      </trkpt>
      <trkpt lat="44.63485" lon="5.32911">
        <ele>656.23</ele>
        <time>2014-05-04T11:43:24Z</time>
      </trkpt>
      <trkpt lat="44.63482" lon="5.32885">
        <ele>656.27</ele>
        <time>2014-05-04T11:43:40Z</time>
      </trkpt>
      <trkpt lat="44.63482" lon="5.32859">
        <ele>655.63</ele>
        <time>2014-05-04T11:43:58Z</time>
      </trkpt>
      <trkpt lat="44.63492" lon="5.32839">
        <ele>655.84</ele>
        <time>2014-05-04T11:44:16Z</time>
      </trkpt>
      <trkpt lat="44.63506" lon="5.32821">
        <ele>655.07</ele>
        <time>2014-05-04T11:44:57Z</time>
      </trkpt>
      <trkpt lat="44.63514" lon="5.32798">
        <ele>658.1</ele>
        <time>2014-05-04T11:45:56Z</time>
      </trkpt>
      <trkpt lat="44.63524" lon="5.32776">
        <ele>665.19</ele>
        <time>2014-05-04T11:46:29Z</time>
      </trkpt>
      <trkpt lat="44.63536" lon="5.32756">
        <ele>667.42</ele>
        <time>2014-05-04T11:46:51Z</time>
      </trkpt>
      <trkpt lat="44.63548" lon="5.32736">
        <ele>671.33</ele>
        <time>2014-05-04T11:47:18Z</time>
      </trkpt>
      <trkpt lat="44.63563" lon="5.32722">
        <ele>674.9</ele>
        <time>2014-05-04T11:47:43Z</time>
      </trkpt>
      <trkpt lat="44.63563" lon="5.32697">
        <ele>680.11</ele>
        <time>2014-05-04T11:48:25Z</time>
      </trkpt>
      <trkpt lat="44.63548" lon="5.32682">
        <ele>690.1</ele>
        <time>2014-05-04T11:49:28Z</time>
      </trkpt>
      <trkpt lat="44.6353" lon="5.32689">
        <ele>695.32</ele>
        <time>2014-05-04T11:50:04Z</time>
      </trkpt>
      <trkpt lat="44.63512" lon="5.32697">
        <ele>700.84</ele>
        <time>2014-05-04T11:50:28Z</time>
      </trkpt>
      <trkpt lat="44.63495" lon="5.32706">
        <ele>703.75</ele>
        <time>2014-05-04T11:50:50Z</time>
      </trkpt>
      <trkpt lat="44.6348" lon="5.32721">
        <ele>707.55</ele>
        <time>2014-05-04T11:51:15Z</time>
      </trkpt>
      <trkpt lat="44.63463" lon="5.32732">
        <ele>710.43</ele>
        <time>2014-05-04T11:51:37Z</time>
      </trkpt>
      <trkpt lat="44.63445" lon="5.32736">
        <ele>714.54</ele>
        <time>2014-05-04T11:52:07Z</time>
      </trkpt>
      <trkpt lat="44.63428" lon="5.32746">
        <ele>717.63</ele>
        <time>2014-05-04T11:52:28Z</time>
      </trkpt>
      <trkpt lat="44.63414" lon="5.32762">
        <ele>720.91</ele>
        <time>2014-05-04T11:53:03Z</time>
      </trkpt>
      <trkpt lat="44.63397" lon="5.32751">
        <ele>724.8</ele>
        <time>2014-05-04T11:53:46Z</time>
      </trkpt>
      <trkpt lat="44.63403" lon="5.32727">
        <ele>724.5</ele>
        <time>2014-05-04T11:54:07Z</time>
      </trkpt>
      <trkpt lat="44.63418" lon="5.3271">
        <ele>726.52</ele>
        <time>2014-05-04T11:54:24Z</time>
      </trkpt>
      <trkpt lat="44.6343" lon="5.32691">
        <ele>731.51</ele>
        <time>2014-05-04T11:55:00Z</time>
      </trkpt>
      <trkpt lat="44.63441" lon="5.3267">
        <ele>732.97</ele>
        <time>2014-05-04T11:55:23Z</time>
      </trkpt>
      <trkpt lat="44.63453" lon="5.3265">
        <ele>734.16</ele>
        <time>2014-05-04T11:55:50Z</time>
      </trkpt>
      <trkpt lat="44.63467" lon="5.32633">
        <ele>735.77</ele>
        <time>2014-05-04T11:56:18Z</time>
      </trkpt>
      <trkpt lat="44.63482" lon="5.32619">
        <ele>739.29</ele>
        <time>2014-05-04T11:56:36Z</time>
      </trkpt>
      <trkpt lat="44.63497" lon="5.32604">
        <ele>742.34</ele>
        <time>2014-05-04T11:56:58Z</time>
      </trkpt>
      <trkpt lat="44.63509" lon="5.32585">
        <ele>744.7</ele>
        <time>2014-05-04T11:57:20Z</time>
      </trkpt>
      <trkpt lat="44.63518" lon="5.32562">
        <ele>746.4</ele>
        <time>2014-05-04T11:57:40Z</time>
      </trkpt>
      <trkpt lat="44.63528" lon="5.3254">
        <ele>748.57</ele>
        <time>2014-05-04T11:57:59Z</time>
      </trkpt>
      <trkpt lat="44.63543" lon="5.32526">
        <ele>752.11</ele>
        <time>2014-05-04T11:58:41Z</time>
      </trkpt>
      <trkpt lat="44.63556" lon="5.32507">
        <ele>754.2</ele>
        <time>2014-05-04T11:59:00Z</time>
      </trkpt>
      <trkpt lat="44.63572" lon="5.32495">
        <ele>758.55</ele>
        <time>2014-05-04T11:59:27Z</time>
      </trkpt>
      <trkpt lat="44.63584" lon="5.32475">
        <ele>761.75</ele>
        <time>2014-05-04T11:59:50Z</time>
      </trkpt>
      <trkpt lat="44.636" lon="5.32463">
        <ele>768.45</ele>
        <time>2014-05-04T12:02:24Z</time>
      </trkpt>
      <trkpt lat="44.63611" lon="5.32443">
        <ele>767.73</ele>
        <time>2014-05-04T12:03:04Z</time>
      </trkpt>
      <trkpt lat="44.63627" lon="5.32431">
        <ele>768.84</ele>
        <time>2014-05-04T12:03:23Z</time>
      </trkpt>
      <trkpt lat="44.63643" lon="5.32422">
        <ele>772.23</ele>
        <time>2014-05-04T12:03:48Z</time>
      </trkpt>
      <trkpt lat="44.63659" lon="5.32409">
        <ele>776.36</ele>
        <time>2014-05-04T12:04:17Z</time>
      </trkpt>
      <trkpt lat="44.63674" lon="5.32395">
        <ele>779.35</ele>
        <time>2014-05-04T12:04:39Z</time>
      </trkpt>
      <trkpt lat="44.63693" lon="5.32394">
        <ele>783.77</ele>
        <time>2014-05-04T12:05:11Z</time>
      </trkpt>
      <trkpt lat="44.6371" lon="5.32382">
        <ele>788.61</ele>
        <time>2014-05-04T12:05:36Z</time>
      </trkpt>
      <trkpt lat="44.63726" lon="5.32369">
        <ele>792.57</ele>
        <time>2014-05-04T12:06:03Z</time>
      </trkpt>
      <trkpt lat="44.63744" lon="5.32367">
        <ele>798.5</ele>
        <time>2014-05-04T12:06:38Z</time>
      </trkpt>
      <trkpt lat="44.63762" lon="5.32361">
        <ele>803.28</ele>
        <time>2014-05-04T12:07:08Z</time>
      </trkpt>
      <trkpt lat="44.6378" lon="5.32354">
        <ele>808.43</ele>
        <time>2014-05-04T12:07:38Z</time>
      </trkpt>
      <trkpt lat="44.63798" lon="5.32349">
        <ele>812.63</ele>
        <time>2014-05-04T12:08:08Z</time>
      </trkpt>
      <trkpt lat="44.63814" lon="5.3234">
        <ele>816.6</ele>
        <time>2014-05-04T12:08:40Z</time>
      </trkpt>
      <trkpt lat="44.63832" lon="5.32332">
        <ele>821.33</ele>
        <time>2014-05-04T12:09:11Z</time>
      </trkpt>
      <trkpt lat="44.63849" lon="5.32323">
        <ele>828.47</ele>
        <time>2014-05-04T12:09:51Z</time>
      </trkpt>
      <trkpt lat="44.63865" lon="5.3231">
        <ele>832.77</ele>
        <time>2014-05-04T12:10:23Z</time>
      </trkpt>
      <trkpt lat="44.63882" lon="5.32305">
        <ele>839.67</ele>
        <time>2014-05-04T12:10:54Z</time>
      </trkpt>
      <trkpt lat="44.63894" lon="5.32284">
        <ele>845.03</ele>
        <time>2014-05-04T12:11:35Z</time>
      </trkpt>
      <trkpt lat="44.63906" lon="5.32265">
        <ele>847.93</ele>
        <time>2014-05-04T12:12:00Z</time>
      </trkpt>
      <trkpt lat="44.63921" lon="5.3225">
        <ele>853.57</ele>
        <time>2014-05-04T12:12:31Z</time>
      </trkpt>
      <trkpt lat="44.63935" lon="5.32235">
        <ele>857.26</ele>
        <time>2014-05-04T12:13:01Z</time>
      </trkpt>
      <trkpt lat="44.6395" lon="5.3222">
        <ele>859.54</ele>
        <time>2014-05-04T12:13:22Z</time>
      </trkpt>
      <trkpt lat="44.63958" lon="5.32196">
        <ele>862.82</ele>
        <time>2014-05-04T12:13:44Z</time>
      </trkpt>
      <trkpt lat="44.63965" lon="5.32172">
        <ele>867.25</ele>
        <time>2014-05-04T12:14:06Z</time>
      </trkpt>
      <trkpt lat="44.63974" lon="5.32148">
        <ele>870.11</ele>
        <time>2014-05-04T12:14:23Z</time>
      </trkpt>
      <trkpt lat="44.63982" lon="5.32125">
        <ele>871.94</ele>
        <time>2014-05-04T12:14:40Z</time>
      </trkpt>
      <trkpt lat="44.63989" lon="5.32101">
        <ele>873.44</ele>
        <time>2014-05-04T12:14:58Z</time>
      </trkpt>
      <trkpt lat="44.63999" lon="5.3208">
        <ele>876.67</ele>
        <time>2014-05-04T12:15:19Z</time>
      </trkpt>
      <trkpt lat="44.64013" lon="5.32063">
        <ele>879.94</ele>
        <time>2014-05-04T12:15:52Z</time>
      </trkpt>
      <trkpt lat="44.64023" lon="5.32041">
        <ele>882.18</ele>
        <time>2014-05-04T12:16:09Z</time>
      </trkpt>
      <trkpt lat="44.64031" lon="5.32017">
        <ele>883.83</ele>
        <time>2014-05-04T12:16:36Z</time>
      </trkpt>
      <trkpt lat="44.64037" lon="5.31993">
        <ele>886</ele>
        <time>2014-05-04T12:16:58Z</time>
      </trkpt>
      <trkpt lat="44.64054" lon="5.31982">
        <ele>892.38</ele>
        <time>2014-05-04T12:17:36Z</time>
      </trkpt>
      <trkpt lat="44.64066" lon="5.31962">
        <ele>896.1</ele>
        <time>2014-05-04T12:18:03Z</time>
      </trkpt>
      <trkpt lat="44.64076" lon="5.3194">
        <ele>900.02</ele>
        <time>2014-05-04T12:18:31Z</time>
      </trkpt>
      <trkpt lat="44.6409" lon="5.31924">
        <ele>906.52</ele>
        <time>2014-05-04T12:19:02Z</time>
      </trkpt>
      <trkpt lat="44.64099" lon="5.31902">
        <ele>910.99</ele>
        <time>2014-05-04T12:19:34Z</time>
      </trkpt>
      <trkpt lat="44.64109" lon="5.31881">
        <ele>914.73</ele>
        <time>2014-05-04T12:19:52Z</time>
      </trkpt>
      <trkpt lat="44.6411" lon="5.31855">
        <ele>918.15</ele>
        <time>2014-05-04T12:20:22Z</time>
      </trkpt>
      <trkpt lat="44.64117" lon="5.3183">
        <ele>920.45</ele>
        <time>2014-05-04T12:20:47Z</time>
      </trkpt>
      <trkpt lat="44.64124" lon="5.31805">
        <ele>921.88</ele>
        <time>2014-05-04T12:21:03Z</time>
      </trkpt>
      <trkpt lat="44.6413" lon="5.3178">
        <ele>924.18</ele>
        <time>2014-05-04T12:21:19Z</time>
      </trkpt>
      <trkpt lat="44.64134" lon="5.31754">
        <ele>925.36</ele>
        <time>2014-05-04T12:21:36Z</time>
      </trkpt>
      <trkpt lat="44.6414" lon="5.3173">
        <ele>927.09</ele>
        <time>2014-05-04T12:21:53Z</time>
      </trkpt>
      <trkpt lat="44.64145" lon="5.31705">
        <ele>928.96</ele>
        <time>2014-05-04T12:22:09Z</time>
      </trkpt>
      <trkpt lat="44.64153" lon="5.31681">
        <ele>930.43</ele>
        <time>2014-05-04T12:22:26Z</time>
      </trkpt>
      <trkpt lat="44.64164" lon="5.31661">
        <ele>931.97</ele>
        <time>2014-05-04T12:22:46Z</time>
      </trkpt>
      <trkpt lat="44.64177" lon="5.31643">
        <ele>934.24</ele>
        <time>2014-05-04T12:23:15Z</time>
      </trkpt>
      <trkpt lat="44.64193" lon="5.31629">
        <ele>934</ele>
        <time>2014-05-04T12:23:44Z</time>
      </trkpt>
      <trkpt lat="44.64204" lon="5.31609">
        <ele>934.64</ele>
        <time>2014-05-04T12:24:00Z</time>
      </trkpt>
      <trkpt lat="44.6421" lon="5.31584">
        <ele>936.53</ele>
        <time>2014-05-04T12:24:17Z</time>
      </trkpt>
      <trkpt lat="44.64218" lon="5.3156">
        <ele>939.22</ele>
        <time>2014-05-04T12:24:34Z</time>
      </trkpt>
      <trkpt lat="44.64225" lon="5.31535">
        <ele>940.74</ele>
        <time>2014-05-04T12:24:52Z</time>
      </trkpt>
      <trkpt lat="44.64233" lon="5.31512">
        <ele>943.59</ele>
        <time>2014-05-04T12:25:14Z</time>
      </trkpt>
      <trkpt lat="44.64238" lon="5.31487">
        <ele>945.82</ele>
        <time>2014-05-04T12:25:32Z</time>
      </trkpt>
      <trkpt lat="44.64244" lon="5.31463">
        <ele>948.33</ele>
        <time>2014-05-04T12:25:52Z</time>
      </trkpt>
      <trkpt lat="44.6425" lon="5.31438">
        <ele>950.71</ele>
        <time>2014-05-04T12:26:09Z</time>
      </trkpt>
      <trkpt lat="44.64249" lon="5.31412">
        <ele>952.75</ele>
        <time>2014-05-04T12:26:25Z</time>
      </trkpt>
      <trkpt lat="44.64253" lon="5.31387">
        <ele>954.82</ele>
        <time>2014-05-04T12:26:41Z</time>
      </trkpt>
      <trkpt lat="44.64257" lon="5.31362">
        <ele>955.85</ele>
        <time>2014-05-04T12:26:59Z</time>
      </trkpt>
      <trkpt lat="44.64257" lon="5.31336">
        <ele>958.01</ele>
        <time>2014-05-04T12:27:18Z</time>
      </trkpt>
      <trkpt lat="44.64259" lon="5.31309">
        <ele>960.68</ele>
        <time>2014-05-04T12:27:52Z</time>
      </trkpt>
      <trkpt lat="44.6426" lon="5.31283">
        <ele>963.02</ele>
        <time>2014-05-04T12:28:12Z</time>
      </trkpt>
      <trkpt lat="44.64267" lon="5.3126">
        <ele>968.25</ele>
        <time>2014-05-04T12:33:00Z</time>
      </trkpt>
      <trkpt lat="44.64282" lon="5.31244">
        <ele>969.12</ele>
        <time>2014-05-04T12:33:21Z</time>
      </trkpt>
      <trkpt lat="44.64271" lon="5.31265">
        <ele>964.71</ele>
        <time>2014-05-04T12:34:13Z</time>
      </trkpt>
      <trkpt lat="44.64276" lon="5.3129">
        <ele>961.15</ele>
        <time>2014-05-04T12:34:30Z</time>
      </trkpt>
      <trkpt lat="44.64287" lon="5.31269">
        <ele>958.64</ele>
        <time>2014-05-04T12:35:04Z</time>
      </trkpt>
      <trkpt lat="44.64293" lon="5.31294">
        <ele>957.22</ele>
        <time>2014-05-04T12:36:00Z</time>
      </trkpt>
      <trkpt lat="44.64298" lon="5.31319">
        <ele>956.31</ele>
        <time>2014-05-04T12:36:16Z</time>
      </trkpt>
      <trkpt lat="44.64304" lon="5.31295">
        <ele>948.21</ele>
        <time>2014-05-04T12:37:07Z</time>
      </trkpt>
      <trkpt lat="44.64322" lon="5.31304">
        <ele>946.05</ele>
        <time>2014-05-04T12:37:46Z</time>
      </trkpt>
      <trkpt lat="44.64335" lon="5.31286">
        <ele>942.04</ele>
        <time>2014-05-04T12:38:30Z</time>
      </trkpt>
      <trkpt lat="44.64353" lon="5.31289">
        <ele>923.5</ele>
        <time>2014-05-04T12:39:56Z</time>
      </trkpt>
      <trkpt lat="44.64359" lon="5.31314">
        <ele>920.53</ele>
        <time>2014-05-04T12:40:16Z</time>
      </trkpt>
      <trkpt lat="44.64364" lon="5.3134">
        <ele>914.56</ele>
        <time>2014-05-04T12:40:34Z</time>
      </trkpt>
      <trkpt lat="44.64369" lon="5.31365">
        <ele>908.43</ele>
        <time>2014-05-04T12:41:02Z</time>
      </trkpt>
      <trkpt lat="44.64364" lon="5.3139">
        <ele>901.53</ele>
        <time>2014-05-04T12:41:19Z</time>
      </trkpt>
      <trkpt lat="44.64366" lon="5.31416">
        <ele>898.56</ele>
        <time>2014-05-04T12:41:46Z</time>
      </trkpt>
      <trkpt lat="44.64378" lon="5.31436">
        <ele>899.91</ele>
        <time>2014-05-04T12:42:04Z</time>
      </trkpt>
      <trkpt lat="44.64385" lon="5.31459">
        <ele>899.24</ele>
        <time>2014-05-04T12:42:21Z</time>
      </trkpt>
      <trkpt lat="44.64384" lon="5.31487">
        <ele>896.99</ele>
        <time>2014-05-04T12:42:40Z</time>
      </trkpt>
      <trkpt lat="44.64385" lon="5.31513">
        <ele>899.33</ele>
        <time>2014-05-04T12:43:13Z</time>
      </trkpt>
      <trkpt lat="44.64392" lon="5.31536">
        <ele>898.4</ele>
        <time>2014-05-04T12:43:47Z</time>
      </trkpt>
      <trkpt lat="44.64387" lon="5.31561">
        <ele>897.42</ele>
        <time>2014-05-04T12:44:03Z</time>
      </trkpt>
      <trkpt lat="44.64384" lon="5.31586">
        <ele>900.07</ele>
        <time>2014-05-04T12:44:28Z</time>
      </trkpt>
      <trkpt lat="44.64391" lon="5.3161">
        <ele>902.22</ele>
        <time>2014-05-04T12:44:43Z</time>
      </trkpt>
      <trkpt lat="44.64393" lon="5.31636">
        <ele>903.65</ele>
        <time>2014-05-04T12:45:03Z</time>
      </trkpt>
      <trkpt lat="44.64394" lon="5.31662">
        <ele>903.41</ele>
        <time>2014-05-04T12:45:27Z</time>
      </trkpt>
      <trkpt lat="44.64398" lon="5.31687">
        <ele>904.39</ele>
        <time>2014-05-04T12:45:44Z</time>
      </trkpt>
      <trkpt lat="44.6439" lon="5.3171">
        <ele>909</ele>
        <time>2014-05-04T12:46:07Z</time>
      </trkpt>
      <trkpt lat="44.64379" lon="5.31731">
        <ele>913.14</ele>
        <time>2014-05-04T12:46:30Z</time>
      </trkpt>
      <trkpt lat="44.64387" lon="5.31754">
        <ele>913.22</ele>
        <time>2014-05-04T12:46:53Z</time>
      </trkpt>
      <trkpt lat="44.6439" lon="5.31779">
        <ele>911.8</ele>
        <time>2014-05-04T12:47:14Z</time>
      </trkpt>
      <trkpt lat="44.64392" lon="5.31805">
        <ele>916.67</ele>
        <time>2014-05-04T12:47:43Z</time>
      </trkpt>
      <trkpt lat="44.644" lon="5.31828">
        <ele>921.68</ele>
        <time>2014-05-04T12:48:06Z</time>
      </trkpt>
      <trkpt lat="44.64399" lon="5.31854">
        <ele>924.94</ele>
        <time>2014-05-04T12:48:36Z</time>
      </trkpt>
      <trkpt lat="44.64392" lon="5.31877">
        <ele>930.6</ele>
        <time>2014-05-04T12:48:55Z</time>
      </trkpt>
      <trkpt lat="44.64404" lon="5.31897">
        <ele>934.86</ele>
        <time>2014-05-04T12:49:12Z</time>
      </trkpt>
      <trkpt lat="44.64411" lon="5.31921">
        <ele>937.79</ele>
        <time>2014-05-04T12:49:29Z</time>
      </trkpt>
      <trkpt lat="44.6442" lon="5.31944">
        <ele>942.19</ele>
        <time>2014-05-04T12:49:50Z</time>
      </trkpt>
      <trkpt lat="44.6443" lon="5.31967">
        <ele>945.51</ele>
        <time>2014-05-04T12:50:06Z</time>
      </trkpt>
      <trkpt lat="44.64443" lon="5.31987">
        <ele>949.41</ele>
        <time>2014-05-04T12:50:24Z</time>
      </trkpt>
      <trkpt lat="44.64447" lon="5.32012">
        <ele>951.15</ele>
        <time>2014-05-04T12:50:47Z</time>
      </trkpt>
      <trkpt lat="44.64449" lon="5.32038">
        <ele>953.17</ele>
        <time>2014-05-04T12:51:07Z</time>
      </trkpt>
      <trkpt lat="44.64442" lon="5.32062">
        <ele>955.25</ele>
        <time>2014-05-04T12:51:27Z</time>
      </trkpt>
      <trkpt lat="44.64447" lon="5.32086">
        <ele>959.7</ele>
        <time>2014-05-04T12:51:47Z</time>
      </trkpt>
      <trkpt lat="44.64451" lon="5.32111">
        <ele>963.05</ele>
        <time>2014-05-04T12:52:07Z</time>
      </trkpt>
      <trkpt lat="44.64465" lon="5.32128">
        <ele>963.53</ele>
        <time>2014-05-04T12:52:23Z</time>
      </trkpt>
      <trkpt lat="44.6446" lon="5.32152">
        <ele>965.17</ele>
        <time>2014-05-04T12:52:47Z</time>
      </trkpt>
      <trkpt lat="44.64465" lon="5.32177">
        <ele>965.59</ele>
        <time>2014-05-04T12:53:08Z</time>
      </trkpt>
      <trkpt lat="44.64463" lon="5.32203">
        <ele>967.24</ele>
        <time>2014-05-04T12:53:31Z</time>
      </trkpt>
      <trkpt lat="44.64469" lon="5.32227">
        <ele>970.55</ele>
        <time>2014-05-04T12:53:52Z</time>
      </trkpt>
      <trkpt lat="44.64473" lon="5.32252">
        <ele>974.34</ele>
        <time>2014-05-04T12:54:15Z</time>
      </trkpt>
      <trkpt lat="44.64478" lon="5.32276">
        <ele>980.45</ele>
        <time>2014-05-04T12:54:37Z</time>
      </trkpt>
      <trkpt lat="44.64486" lon="5.32301">
        <ele>983.81</ele>
        <time>2014-05-04T12:55:05Z</time>
      </trkpt>
      <trkpt lat="44.64488" lon="5.32327">
        <ele>987.85</ele>
        <time>2014-05-04T12:55:33Z</time>
      </trkpt>
      <trkpt lat="44.64494" lon="5.32352">
        <ele>990.25</ele>
        <time>2014-05-04T12:55:52Z</time>
      </trkpt>
      <trkpt lat="44.64505" lon="5.32375">
        <ele>992.96</ele>
        <time>2014-05-04T12:56:09Z</time>
      </trkpt>
      <trkpt lat="44.64517" lon="5.32395">
        <ele>993.45</ele>
        <time>2014-05-04T12:56:50Z</time>
      </trkpt>
      <trkpt lat="44.64531" lon="5.3241">
        <ele>994.25</ele>
        <time>2014-05-04T13:01:06Z</time>
      </trkpt>
      <trkpt lat="44.64548" lon="5.32421">
        <ele>992.63</ele>
        <time>2014-05-04T13:01:25Z</time>
      </trkpt>
      <trkpt lat="44.64561" lon="5.32404">
        <ele>992.21</ele>
        <time>2014-05-04T13:01:41Z</time>
      </trkpt>
      <trkpt lat="44.64576" lon="5.32388">
        <ele>990.35</ele>
        <time>2014-05-04T13:02:11Z</time>
      </trkpt>
      <trkpt lat="44.64589" lon="5.32368">
        <ele>987.25</ele>
        <time>2014-05-04T13:02:30Z</time>
      </trkpt>
      <trkpt lat="44.64605" lon="5.32355">
        <ele>985.05</ele>
        <time>2014-05-04T13:02:52Z</time>
      </trkpt>
      <trkpt lat="44.64613" lon="5.32331">
        <ele>981</ele>
        <time>2014-05-04T13:03:17Z</time>
      </trkpt>
      <trkpt lat="44.64605" lon="5.32309">
        <ele>975.29</ele>
        <time>2014-05-04T13:03:38Z</time>
      </trkpt>
      <trkpt lat="44.64597" lon="5.32286">
        <ele>968.58</ele>
        <time>2014-05-04T13:03:58Z</time>
      </trkpt>
      <trkpt lat="44.64603" lon="5.32262">
        <ele>955.22</ele>
        <time>2014-05-04T13:04:51Z</time>
      </trkpt>
      <trkpt lat="44.6461" lon="5.32238">
        <ele>946.63</ele>
        <time>2014-05-04T13:05:20Z</time>
      </trkpt>
      <trkpt lat="44.64627" lon="5.32247">
        <ele>941.85</ele>
        <time>2014-05-04T13:05:39Z</time>
      </trkpt>
      <trkpt lat="44.64645" lon="5.32246">
        <ele>938.04</ele>
        <time>2014-05-04T13:06:00Z</time>
      </trkpt>
      <trkpt lat="44.64657" lon="5.32226">
        <ele>935.42</ele>
        <time>2014-05-04T13:06:13Z</time>
      </trkpt>
      <trkpt lat="44.64676" lon="5.32223">
        <ele>931.89</ele>
        <time>2014-05-04T13:06:31Z</time>
      </trkpt>
      <trkpt lat="44.64695" lon="5.32227">
        <ele>928.96</ele>
        <time>2014-05-04T13:06:46Z</time>
      </trkpt>
      <trkpt lat="44.64713" lon="5.32218">
        <ele>923.39</ele>
        <time>2014-05-04T13:07:19Z</time>
      </trkpt>
      <trkpt lat="44.64729" lon="5.32205">
        <ele>919.48</ele>
        <time>2014-05-04T13:07:40Z</time>
      </trkpt>
      <trkpt lat="44.64746" lon="5.32197">
        <ele>919.19</ele>
        <time>2014-05-04T13:07:57Z</time>
      </trkpt>
      <trkpt lat="44.64756" lon="5.32175">
        <ele>920.62</ele>
        <time>2014-05-04T13:08:15Z</time>
      </trkpt>
      <trkpt lat="44.64774" lon="5.32166">
        <ele>920.01</ele>
        <time>2014-05-04T13:08:28Z</time>
      </trkpt>
      <trkpt lat="44.64792" lon="5.32167">
        <ele>919.73</ele>
        <time>2014-05-04T13:08:39Z</time>
      </trkpt>
      <trkpt lat="44.64809" lon="5.32157">
        <ele>920.46</ele>
        <time>2014-05-04T13:09:00Z</time>
      </trkpt>
      <trkpt lat="44.64818" lon="5.32135">
        <ele>919.11</ele>
        <time>2014-05-04T13:09:17Z</time>
      </trkpt>
      <trkpt lat="44.64832" lon="5.32118">
        <ele>918.29</ele>
        <time>2014-05-04T13:09:32Z</time>
      </trkpt>
      <trkpt lat="44.64823" lon="5.32096">
        <ele>914.27</ele>
        <time>2014-05-04T13:10:06Z</time>
      </trkpt>
      <trkpt lat="44.64832" lon="5.32072">
        <ele>912.87</ele>
        <time>2014-05-04T13:10:23Z</time>
      </trkpt>
      <trkpt lat="44.64849" lon="5.32062">
        <ele>910.16</ele>
        <time>2014-05-04T13:10:51Z</time>
      </trkpt>
      <trkpt lat="44.64861" lon="5.32042">
        <ele>909.49</ele>
        <time>2014-05-04T13:11:04Z</time>
      </trkpt>
      <trkpt lat="44.64871" lon="5.3202">
        <ele>908.5</ele>
        <time>2014-05-04T13:11:16Z</time>
      </trkpt>
      <trkpt lat="44.64887" lon="5.32007">
        <ele>905.6</ele>
        <time>2014-05-04T13:11:30Z</time>
      </trkpt>
      <trkpt lat="44.64901" lon="5.31989">
        <ele>901.87</ele>
        <time>2014-05-04T13:11:45Z</time>
      </trkpt>
      <trkpt lat="44.64919" lon="5.31983">
        <ele>896.29</ele>
        <time>2014-05-04T13:12:01Z</time>
      </trkpt>
      <trkpt lat="44.64921" lon="5.31958">
        <ele>890.92</ele>
        <time>2014-05-04T13:13:28Z</time>
      </trkpt>
      <trkpt lat="44.64937" lon="5.31939">
        <ele>888.26</ele>
        <time>2014-05-04T13:13:40Z</time>
      </trkpt>
      <trkpt lat="44.64955" lon="5.3194">
        <ele>888.05</ele>
        <time>2014-05-04T13:13:51Z</time>
      </trkpt>
      <trkpt lat="44.64973" lon="5.31933">
        <ele>886.35</ele>
        <time>2014-05-04T13:14:03Z</time>
      </trkpt>
      <trkpt lat="44.64991" lon="5.31939">
        <ele>882.49</ele>
        <time>2014-05-04T13:14:19Z</time>
      </trkpt>
      <trkpt lat="44.65008" lon="5.3193">
        <ele>880.4</ele>
        <time>2014-05-04T13:14:38Z</time>
      </trkpt>
      <trkpt lat="44.6501" lon="5.31904">
        <ele>885.68</ele>
        <time>2014-05-04T13:16:07Z</time>
      </trkpt>
      <trkpt lat="44.65016" lon="5.3188">
        <ele>884.64</ele>
        <time>2014-05-04T13:16:23Z</time>
      </trkpt>
      <trkpt lat="44.65031" lon="5.31865">
        <ele>883.41</ele>
        <time>2014-05-04T13:16:41Z</time>
      </trkpt>
      <trkpt lat="44.65022" lon="5.31842">
        <ele>882.89</ele>
        <time>2014-05-04T13:16:56Z</time>
      </trkpt>
      <trkpt lat="44.65024" lon="5.31816">
        <ele>882.21</ele>
        <time>2014-05-04T13:17:09Z</time>
      </trkpt>
      <trkpt lat="44.65026" lon="5.3179">
        <ele>881.4</ele>
        <time>2014-05-04T13:17:23Z</time>
      </trkpt>
      <trkpt lat="44.65028" lon="5.31763">
        <ele>880.35</ele>
        <time>2014-05-04T13:17:37Z</time>
      </trkpt>
      <trkpt lat="44.65035" lon="5.31739">
        <ele>879.13</ele>
        <time>2014-05-04T13:17:50Z</time>
      </trkpt>
      <trkpt lat="44.65045" lon="5.31717">
        <ele>879.21</ele>
        <time>2014-05-04T13:18:09Z</time>
      </trkpt>
      <trkpt lat="44.65048" lon="5.31691">
        <ele>879.36</ele>
        <time>2014-05-04T13:18:24Z</time>
      </trkpt>
      <trkpt lat="44.65055" lon="5.31667">
        <ele>880.46</ele>
        <time>2014-05-04T13:18:41Z</time>
      </trkpt>
      <trkpt lat="44.65057" lon="5.31641">
        <ele>881.16</ele>
        <time>2014-05-04T13:18:55Z</time>
      </trkpt>
      <trkpt lat="44.65062" lon="5.31617">
        <ele>882.47</ele>
        <time>2014-05-04T13:19:13Z</time>
      </trkpt>
      <trkpt lat="44.65062" lon="5.3159">
        <ele>883.45</ele>
        <time>2014-05-04T13:19:30Z</time>
      </trkpt>
      <trkpt lat="44.65067" lon="5.31565">
        <ele>882.02</ele>
        <time>2014-05-04T13:19:45Z</time>
      </trkpt>
      <trkpt lat="44.65073" lon="5.31539">
        <ele>882.12</ele>
        <time>2014-05-04T13:19:59Z</time>
      </trkpt>
      <trkpt lat="44.65077" lon="5.31514">
        <ele>881.9</ele>
        <time>2014-05-04T13:20:11Z</time>
      </trkpt>
      <trkpt lat="44.65081" lon="5.31488">
        <ele>881.38</ele>
        <time>2014-05-04T13:20:25Z</time>
      </trkpt>
      <trkpt lat="44.6509" lon="5.31466">
        <ele>880.56</ele>
        <time>2014-05-04T13:20:39Z</time>
      </trkpt>
      <trkpt lat="44.65098" lon="5.31442">
        <ele>880.3</ele>
        <time>2014-05-04T13:20:54Z</time>
      </trkpt>
      <trkpt lat="44.65104" lon="5.31418">
        <ele>879.64</ele>
        <time>2014-05-04T13:21:08Z</time>
      </trkpt>
      <trkpt lat="44.65106" lon="5.31391">
        <ele>879.06</ele>
        <time>2014-05-04T13:21:21Z</time>
      </trkpt>
      <trkpt lat="44.65111" lon="5.31366">
        <ele>878.05</ele>
        <time>2014-05-04T13:21:34Z</time>
      </trkpt>
      <trkpt lat="44.65119" lon="5.31344">
        <ele>877.01</ele>
        <time>2014-05-04T13:21:49Z</time>
      </trkpt>
      <trkpt lat="44.65122" lon="5.31318">
        <ele>876.92</ele>
        <time>2014-05-04T13:22:02Z</time>
      </trkpt>
      <trkpt lat="44.65124" lon="5.31293">
        <ele>876.22</ele>
        <time>2014-05-04T13:22:28Z</time>
      </trkpt>
      <trkpt lat="44.65131" lon="5.31268">
        <ele>875.1</ele>
        <time>2014-05-04T13:22:46Z</time>
      </trkpt>
      <trkpt lat="44.65139" lon="5.31246">
        <ele>874.39</ele>
        <time>2014-05-04T13:24:52Z</time>
      </trkpt>
      <trkpt lat="44.6515" lon="5.31224">
        <ele>872.37</ele>
        <time>2014-05-04T13:25:12Z</time>
      </trkpt>
      <trkpt lat="44.65161" lon="5.31202">
        <ele>870.97</ele>
        <time>2014-05-04T13:25:27Z</time>
      </trkpt>
      <trkpt lat="44.6517" lon="5.31178">
        <ele>869.86</ele>
        <time>2014-05-04T13:25:42Z</time>
      </trkpt>
      <trkpt lat="44.65177" lon="5.31154">
        <ele>869.62</ele>
        <time>2014-05-04T13:25:55Z</time>
      </trkpt>
      <trkpt lat="44.65184" lon="5.3113">
        <ele>869.88</ele>
        <time>2014-05-04T13:26:08Z</time>
      </trkpt>
      <trkpt lat="44.65195" lon="5.3111">
        <ele>870.07</ele>
        <time>2014-05-04T13:26:23Z</time>
      </trkpt>
      <trkpt lat="44.65204" lon="5.31087">
        <ele>870.2</ele>
        <time>2014-05-04T13:26:40Z</time>
      </trkpt>
      <trkpt lat="44.65209" lon="5.31063">
        <ele>870.14</ele>
        <time>2014-05-04T13:26:59Z</time>
      </trkpt>
      <trkpt lat="44.65217" lon="5.3104">
        <ele>871.1</ele>
        <time>2014-05-04T13:27:16Z</time>
      </trkpt>
      <trkpt lat="44.6522" lon="5.31015">
        <ele>871.06</ele>
        <time>2014-05-04T13:27:28Z</time>
      </trkpt>
      <trkpt lat="44.65227" lon="5.3099">
        <ele>869.96</ele>
        <time>2014-05-04T13:27:42Z</time>
      </trkpt>
      <trkpt lat="44.65234" lon="5.30964">
        <ele>868.32</ele>
        <time>2014-05-04T13:27:59Z</time>
      </trkpt>
      <trkpt lat="44.65237" lon="5.30939">
        <ele>867.59</ele>
        <time>2014-05-04T13:28:12Z</time>
      </trkpt>
      <trkpt lat="44.65244" lon="5.30915">
        <ele>866.86</ele>
        <time>2014-05-04T13:28:25Z</time>
      </trkpt>
      <trkpt lat="44.65249" lon="5.30891">
        <ele>866.35</ele>
        <time>2014-05-04T13:28:39Z</time>
      </trkpt>
      <trkpt lat="44.65255" lon="5.30865">
        <ele>865.25</ele>
        <time>2014-05-04T13:28:52Z</time>
      </trkpt>
      <trkpt lat="44.6526" lon="5.30839">
        <ele>864.59</ele>
        <time>2014-05-04T13:29:06Z</time>
      </trkpt>
      <trkpt lat="44.65268" lon="5.30815">
        <ele>863.68</ele>
        <time>2014-05-04T13:29:21Z</time>
      </trkpt>
      <trkpt lat="44.65272" lon="5.30789">
        <ele>861.85</ele>
        <time>2014-05-04T13:29:37Z</time>
      </trkpt>
      <trkpt lat="44.65278" lon="5.30765">
        <ele>861.09</ele>
        <time>2014-05-04T13:29:50Z</time>
      </trkpt>
      <trkpt lat="44.65285" lon="5.3074">
        <ele>860.79</ele>
        <time>2014-05-04T13:30:03Z</time>
      </trkpt>
      <trkpt lat="44.6529" lon="5.30716">
        <ele>861.18</ele>
        <time>2014-05-04T13:30:16Z</time>
      </trkpt>
      <trkpt lat="44.65298" lon="5.30692">
        <ele>861.87</ele>
        <time>2014-05-04T13:30:30Z</time>
      </trkpt>
      <trkpt lat="44.653" lon="5.30667">
        <ele>861.03</ele>
        <time>2014-05-04T13:31:09Z</time>
      </trkpt>
      <trkpt lat="44.653" lon="5.30641">
        <ele>859.57</ele>
        <time>2014-05-04T13:31:26Z</time>
      </trkpt>
      <trkpt lat="44.65294" lon="5.30615">
        <ele>856.58</ele>
        <time>2014-05-04T13:31:45Z</time>
      </trkpt>
      <trkpt lat="44.65291" lon="5.3059">
        <ele>854.08</ele>
        <time>2014-05-04T13:31:59Z</time>
      </trkpt>
      <trkpt lat="44.65282" lon="5.30567">
        <ele>852.64</ele>
        <time>2014-05-04T13:32:17Z</time>
      </trkpt>
      <trkpt lat="44.65288" lon="5.30541">
        <ele>850.34</ele>
        <time>2014-05-04T13:32:34Z</time>
      </trkpt>
      <trkpt lat="44.65301" lon="5.30523">
        <ele>847.23</ele>
        <time>2014-05-04T13:32:56Z</time>
      </trkpt>
      <trkpt lat="44.65314" lon="5.30504">
        <ele>845.29</ele>
        <time>2014-05-04T13:33:14Z</time>
      </trkpt>
      <trkpt lat="44.65323" lon="5.30482">
        <ele>843.38</ele>
        <time>2014-05-04T13:33:44Z</time>
      </trkpt>
      <trkpt lat="44.65335" lon="5.30462">
        <ele>840.64</ele>
        <time>2014-05-04T13:34:35Z</time>
      </trkpt>
      <trkpt lat="44.65317" lon="5.3046">
        <ele>836.35</ele>
        <time>2014-05-04T13:35:01Z</time>
      </trkpt>
      <trkpt lat="44.65303" lon="5.30443">
        <ele>832.17</ele>
        <time>2014-05-04T13:35:20Z</time>
      </trkpt>
      <trkpt lat="44.65321" lon="5.30434">
        <ele>830.36</ele>
        <time>2014-05-04T13:35:34Z</time>
      </trkpt>
      <trkpt lat="44.65337" lon="5.30423">
        <ele>830.6</ele>
        <time>2014-05-04T13:35:51Z</time>
      </trkpt>
      <trkpt lat="44.65355" lon="5.30416">
        <ele>830.8</ele>
        <time>2014-05-04T13:36:05Z</time>
      </trkpt>
      <trkpt lat="44.65374" lon="5.30419">
        <ele>830.71</ele>
        <time>2014-05-04T13:36:20Z</time>
      </trkpt>
      <trkpt lat="44.65391" lon="5.30412">
        <ele>830.77</ele>
        <time>2014-05-04T13:36:33Z</time>
      </trkpt>
      <trkpt lat="44.65409" lon="5.30408">
        <ele>831.86</ele>
        <time>2014-05-04T13:36:51Z</time>
      </trkpt>
      <trkpt lat="44.65428" lon="5.30407">
        <ele>831.94</ele>
        <time>2014-05-04T13:37:05Z</time>
      </trkpt>
      <trkpt lat="44.65446" lon="5.30402">
        <ele>831.24</ele>
        <time>2014-05-04T13:37:22Z</time>
      </trkpt>
      <trkpt lat="44.65465" lon="5.30409">
        <ele>831.38</ele>
        <time>2014-05-04T13:37:40Z</time>
      </trkpt>
      <trkpt lat="44.65483" lon="5.30417">
        <ele>830.47</ele>
        <time>2014-05-04T13:37:58Z</time>
      </trkpt>
      <trkpt lat="44.6549" lon="5.30442">
        <ele>832.41</ele>
        <time>2014-05-04T13:38:13Z</time>
      </trkpt>
      <trkpt lat="44.65504" lon="5.30456">
        <ele>835.8</ele>
        <time>2014-05-04T13:38:31Z</time>
      </trkpt>
      <trkpt lat="44.65518" lon="5.30473">
        <ele>839.76</ele>
        <time>2014-05-04T13:38:50Z</time>
      </trkpt>
      <trkpt lat="44.6553" lon="5.30493">
        <ele>842.71</ele>
        <time>2014-05-04T13:39:04Z</time>
      </trkpt>
      <trkpt lat="44.65544" lon="5.30508">
        <ele>844.06</ele>
        <time>2014-05-04T13:39:19Z</time>
      </trkpt>
      <trkpt lat="44.65562" lon="5.30517">
        <ele>845.5</ele>
        <time>2014-05-04T13:39:33Z</time>
      </trkpt>
      <trkpt lat="44.65579" lon="5.30527">
        <ele>847.89</ele>
        <time>2014-05-04T13:39:49Z</time>
      </trkpt>
      <trkpt lat="44.65592" lon="5.30546">
        <ele>848.27</ele>
        <time>2014-05-04T13:40:10Z</time>
      </trkpt>
      <trkpt lat="44.65608" lon="5.30557">
        <ele>848.78</ele>
        <time>2014-05-04T13:40:23Z</time>
      </trkpt>
      <trkpt lat="44.65625" lon="5.30569">
        <ele>847.05</ele>
        <time>2014-05-04T13:40:39Z</time>
      </trkpt>
      <trkpt lat="44.65638" lon="5.30587">
        <ele>849.4</ele>
        <time>2014-05-04T13:40:53Z</time>
      </trkpt>
      <trkpt lat="44.6565" lon="5.30606">
        <ele>850.97</ele>
        <time>2014-05-04T13:41:08Z</time>
      </trkpt>
      <trkpt lat="44.65666" lon="5.3062">
        <ele>853.6</ele>
        <time>2014-05-04T13:41:25Z</time>
      </trkpt>
      <trkpt lat="44.65671" lon="5.30645">
        <ele>854.76</ele>
        <time>2014-05-04T13:41:38Z</time>
      </trkpt>
      <trkpt lat="44.65665" lon="5.3067">
        <ele>855.81</ele>
        <time>2014-05-04T13:41:54Z</time>
      </trkpt>
      <trkpt lat="44.6566" lon="5.30694">
        <ele>858.08</ele>
        <time>2014-05-04T13:42:10Z</time>
      </trkpt>
      <trkpt lat="44.65655" lon="5.30721">
        <ele>860.52</ele>
        <time>2014-05-04T13:42:28Z</time>
      </trkpt>
      <trkpt lat="44.65653" lon="5.30746">
        <ele>863.27</ele>
        <time>2014-05-04T13:43:58Z</time>
      </trkpt>
      <trkpt lat="44.65659" lon="5.30772">
        <ele>864.85</ele>
        <time>2014-05-04T13:44:11Z</time>
      </trkpt>
      <trkpt lat="44.65677" lon="5.3078">
        <ele>866.47</ele>
        <time>2014-05-04T13:44:28Z</time>
      </trkpt>
      <trkpt lat="44.65696" lon="5.30781">
        <ele>867.6</ele>
        <time>2014-05-04T13:44:40Z</time>
      </trkpt>
      <trkpt lat="44.65713" lon="5.30775">
        <ele>867.82</ele>
        <time>2014-05-04T13:44:58Z</time>
      </trkpt>
      <trkpt lat="44.65732" lon="5.30777">
        <ele>868.23</ele>
        <time>2014-05-04T13:45:17Z</time>
      </trkpt>
      <trkpt lat="44.65749" lon="5.30785">
        <ele>868.47</ele>
        <time>2014-05-04T13:45:30Z</time>
      </trkpt>
      <trkpt lat="44.65765" lon="5.30799">
        <ele>869.09</ele>
        <time>2014-05-04T13:45:49Z</time>
      </trkpt>
      <trkpt lat="44.65784" lon="5.30799">
        <ele>870.81</ele>
        <time>2014-05-04T13:46:04Z</time>
      </trkpt>
      <trkpt lat="44.65795" lon="5.30779">
        <ele>871.85</ele>
        <time>2014-05-04T13:46:18Z</time>
      </trkpt>
      <trkpt lat="44.6581" lon="5.30766">
        <ele>873.12</ele>
        <time>2014-05-04T13:46:33Z</time>
      </trkpt>
      <trkpt lat="44.65829" lon="5.30762">
        <ele>874.59</ele>
        <time>2014-05-04T13:46:48Z</time>
      </trkpt>
      <trkpt lat="44.65845" lon="5.30751">
        <ele>876.28</ele>
        <time>2014-05-04T13:47:05Z</time>
      </trkpt>
      <trkpt lat="44.65863" lon="5.30744">
        <ele>878.27</ele>
        <time>2014-05-04T13:47:19Z</time>
      </trkpt>
      <trkpt lat="44.65879" lon="5.30732">
        <ele>879.99</ele>
        <time>2014-05-04T13:47:35Z</time>
      </trkpt>
      <trkpt lat="44.65894" lon="5.30717">
        <ele>881.99</ele>
        <time>2014-05-04T13:47:48Z</time>
      </trkpt>
      <trkpt lat="44.65911" lon="5.30708">
        <ele>883.7</ele>
        <time>2014-05-04T13:48:04Z</time>
      </trkpt>
      <trkpt lat="44.65926" lon="5.30691">
        <ele>884.71</ele>
        <time>2014-05-04T13:48:20Z</time>
      </trkpt>
      <trkpt lat="44.65943" lon="5.30681">
        <ele>886.31</ele>
        <time>2014-05-04T13:48:34Z</time>
      </trkpt>
      <trkpt lat="44.65961" lon="5.3067">
        <ele>888.28</ele>
        <time>2014-05-04T13:48:50Z</time>
      </trkpt>
      <trkpt lat="44.65978" lon="5.30659">
        <ele>890.11</ele>
        <time>2014-05-04T13:49:07Z</time>
      </trkpt>
      <trkpt lat="44.65995" lon="5.3065">
        <ele>891.19</ele>
        <time>2014-05-04T13:49:22Z</time>
      </trkpt>
      <trkpt lat="44.66009" lon="5.30633">
        <ele>892.64</ele>
        <time>2014-05-04T13:49:38Z</time>
      </trkpt>
      <trkpt lat="44.66023" lon="5.30615">
        <ele>893.98</ele>
        <time>2014-05-04T13:49:52Z</time>
      </trkpt>
      <trkpt lat="44.66031" lon="5.30638">
        <ele>899.2</ele>
        <time>2014-05-04T13:50:34Z</time>
      </trkpt>
      <trkpt lat="44.66026" lon="5.30663">
        <ele>900.84</ele>
        <time>2014-05-04T13:50:51Z</time>
      </trkpt>
      <trkpt lat="44.6603" lon="5.30688">
        <ele>902.81</ele>
        <time>2014-05-04T13:51:06Z</time>
      </trkpt>
      <trkpt lat="44.66035" lon="5.30713">
        <ele>904.44</ele>
        <time>2014-05-04T13:51:24Z</time>
      </trkpt>
      <trkpt lat="44.66037" lon="5.3074">
        <ele>906.28</ele>
        <time>2014-05-04T13:51:39Z</time>
      </trkpt>
      <trkpt lat="44.66046" lon="5.30763">
        <ele>908.93</ele>
        <time>2014-05-04T13:51:56Z</time>
      </trkpt>
      <trkpt lat="44.66063" lon="5.30769">
        <ele>911.28</ele>
        <time>2014-05-04T13:52:12Z</time>
      </trkpt>
      <trkpt lat="44.66081" lon="5.30777">
        <ele>914.56</ele>
        <time>2014-05-04T13:52:30Z</time>
      </trkpt>
      <trkpt lat="44.66098" lon="5.30786">
        <ele>918</ele>
        <time>2014-05-04T13:52:53Z</time>
      </trkpt>
      <trkpt lat="44.66113" lon="5.30801">
        <ele>921.69</ele>
        <time>2014-05-04T13:53:16Z</time>
      </trkpt>
      <trkpt lat="44.66112" lon="5.30826">
        <ele>925.71</ele>
        <time>2014-05-04T13:53:33Z</time>
      </trkpt>
      <trkpt lat="44.6613" lon="5.30825">
        <ele>929.9</ele>
        <time>2014-05-04T13:53:55Z</time>
      </trkpt>
      <trkpt lat="44.66146" lon="5.30835">
        <ele>935.12</ele>
        <time>2014-05-04T13:54:24Z</time>
      </trkpt>
      <trkpt lat="44.66161" lon="5.30851">
        <ele>939.67</ele>
        <time>2014-05-04T13:54:47Z</time>
      </trkpt>
      <trkpt lat="44.66179" lon="5.30854">
        <ele>942.73</ele>
        <time>2014-05-04T13:55:15Z</time>
      </trkpt>
      <trkpt lat="44.66195" lon="5.30867">
        <ele>946.41</ele>
        <time>2014-05-04T13:55:33Z</time>
      </trkpt>
      <trkpt lat="44.66198" lon="5.30892">
        <ele>950.15</ele>
        <time>2014-05-04T13:55:51Z</time>
      </trkpt>
      <trkpt lat="44.66215" lon="5.30901">
        <ele>955.03</ele>
        <time>2014-05-04T13:56:22Z</time>
      </trkpt>
      <trkpt lat="44.66234" lon="5.30901">
        <ele>958.31</ele>
        <time>2014-05-04T13:56:39Z</time>
      </trkpt>
      <trkpt lat="44.66252" lon="5.30902">
        <ele>961.15</ele>
        <time>2014-05-04T13:56:58Z</time>
      </trkpt>
      <trkpt lat="44.6627" lon="5.30907">
        <ele>965.66</ele>
        <time>2014-05-04T13:57:26Z</time>
      </trkpt>
      <trkpt lat="44.66288" lon="5.30913">
        <ele>968.73</ele>
        <time>2014-05-04T13:57:48Z</time>
      </trkpt>
      <trkpt lat="44.66303" lon="5.30929">
        <ele>972.88</ele>
        <time>2014-05-04T13:58:08Z</time>
      </trkpt>
      <trkpt lat="44.66319" lon="5.30917">
        <ele>978.07</ele>
        <time>2014-05-04T13:58:33Z</time>
      </trkpt>
      <trkpt lat="44.66324" lon="5.30891">
        <ele>981.5</ele>
        <time>2014-05-04T13:59:05Z</time>
      </trkpt>
      <trkpt lat="44.66326" lon="5.30863">
        <ele>981.92</ele>
        <time>2014-05-04T13:59:17Z</time>
      </trkpt>
      <trkpt lat="44.66321" lon="5.30838">
        <ele>983.06</ele>
        <time>2014-05-04T13:59:28Z</time>
      </trkpt>
      <trkpt lat="44.66314" lon="5.30814">
        <ele>983.96</ele>
        <time>2014-05-04T13:59:40Z</time>
      </trkpt>
      <trkpt lat="44.66309" lon="5.3079">
        <ele>984.39</ele>
        <time>2014-05-04T13:59:57Z</time>
      </trkpt>
    </trkseg>
  </trk>
</gpx>